<?xml version="1.0" encoding="UTF-8"?>
<gpx version="1.1" creator="https://www.www-youtrack-es.amenigma.com" xsi:schemaLocation="http://www.topografix.com/GPX/1/1 http://www.topografix.com/GPX/1/1/gpx.xsd http://www.garmin.com/xmlschemas/GpxExtensions/v3 http://www.garmin.com/xmlschemas/GpxExtensionsv3.xsd http://www.garmin.com/xmlschemas/TrackPointExtension/v1 http://www.garmin.com/xmlschemas/TrackPointExtensionv1.xsd" xmlns:gpxtpx="http://www.garmin.com/xmlschemas/TrackPointExtension/v1" xmlns:gpxx="http://www.garmin.com/xmlschemas/GpxExtensions/v3" xmlns:xsi="http://www.w3.org/2001/XMLSchema-instance">
  <metadata>
    <link href="https://www.www-youtrack-es.amenigma.com">
      <text>YouTrack.es</text>
    </link>
    <time>2026-08-31T04:54:34Z</time>
  </metadata>
  <trk>
    <src>https://www.www-youtrack-es.amenigma.com</src>
    <link href="https://www.www-youtrack-es.amenigma.com/ruta/16963-rock-roll-pels-termes-veins">
      <text>YouTrack.es</text>
    </link>
    <trkseg>
      <trkpt lat="41.42625" lon="0.59608">
        <ele>270.2</ele>
        <time>2020-10-31 09:29:58</time>
      </trkpt>
      <trkpt lat="41.42625" lon="0.59626">
        <ele>270</ele>
        <time>2020-10-31 09:30:03</time>
      </trkpt>
      <trkpt lat="41.42623" lon="0.59655">
        <ele>270</ele>
        <time>2020-10-31 09:30:09</time>
      </trkpt>
      <trkpt lat="41.42611" lon="0.59675">
        <ele>270</ele>
        <time>2020-10-31 09:30:14</time>
      </trkpt>
      <trkpt lat="41.42584" lon="0.59699">
        <ele>270</ele>
        <time>2020-10-31 09:30:21</time>
      </trkpt>
      <trkpt lat="41.42574" lon="0.59697">
        <ele>270</ele>
        <time>2020-10-31 09:30:24</time>
      </trkpt>
      <trkpt lat="41.4257" lon="0.59679">
        <ele>269.6</ele>
        <time>2020-10-31 09:30:27</time>
      </trkpt>
      <trkpt lat="41.42561" lon="0.59636">
        <ele>269.2</ele>
        <time>2020-10-31 09:30:32</time>
      </trkpt>
      <trkpt lat="41.42549" lon="0.59612">
        <ele>268</ele>
        <time>2020-10-31 09:30:35</time>
      </trkpt>
      <trkpt lat="41.42544" lon="0.59604">
        <ele>267.4</ele>
        <time>2020-10-31 09:30:36</time>
      </trkpt>
      <trkpt lat="41.42539" lon="0.59597">
        <ele>267</ele>
        <time>2020-10-31 09:30:37</time>
      </trkpt>
      <trkpt lat="41.42526" lon="0.59592">
        <ele>266</ele>
        <time>2020-10-31 09:30:39</time>
      </trkpt>
      <trkpt lat="41.4252" lon="0.59591">
        <ele>265.6</ele>
        <time>2020-10-31 09:30:40</time>
      </trkpt>
      <trkpt lat="41.42496" lon="0.59587">
        <ele>264.2</ele>
        <time>2020-10-31 09:30:43</time>
      </trkpt>
      <trkpt lat="41.42487" lon="0.59586">
        <ele>264</ele>
        <time>2020-10-31 09:30:44</time>
      </trkpt>
      <trkpt lat="41.42478" lon="0.59585">
        <ele>263.8</ele>
        <time>2020-10-31 09:30:45</time>
      </trkpt>
      <trkpt lat="41.42464" lon="0.59575">
        <ele>263.6</ele>
        <time>2020-10-31 09:30:47</time>
      </trkpt>
      <trkpt lat="41.42456" lon="0.59558">
        <ele>263.2</ele>
        <time>2020-10-31 09:30:49</time>
      </trkpt>
      <trkpt lat="41.42454" lon="0.59548">
        <ele>262.6</ele>
        <time>2020-10-31 09:30:50</time>
      </trkpt>
      <trkpt lat="41.42452" lon="0.59539">
        <ele>261.8</ele>
        <time>2020-10-31 09:30:51</time>
      </trkpt>
      <trkpt lat="41.4245" lon="0.59531">
        <ele>260.8</ele>
        <time>2020-10-31 09:30:52</time>
      </trkpt>
      <trkpt lat="41.42448" lon="0.59522">
        <ele>259.8</ele>
        <time>2020-10-31 09:30:53</time>
      </trkpt>
      <trkpt lat="41.42447" lon="0.59515">
        <ele>258.8</ele>
        <time>2020-10-31 09:30:54</time>
      </trkpt>
      <trkpt lat="41.42444" lon="0.59501">
        <ele>257.2</ele>
        <time>2020-10-31 09:30:56</time>
      </trkpt>
      <trkpt lat="41.42435" lon="0.59465">
        <ele>256.4</ele>
        <time>2020-10-31 09:31:01</time>
      </trkpt>
      <trkpt lat="41.42417" lon="0.59431">
        <ele>256.2</ele>
        <time>2020-10-31 09:31:06</time>
      </trkpt>
      <trkpt lat="41.42399" lon="0.59423">
        <ele>256.2</ele>
        <time>2020-10-31 09:31:09</time>
      </trkpt>
      <trkpt lat="41.42385" lon="0.59429">
        <ele>256</ele>
        <time>2020-10-31 09:31:11</time>
      </trkpt>
      <trkpt lat="41.42378" lon="0.59432">
        <ele>256</ele>
        <time>2020-10-31 09:31:12</time>
      </trkpt>
      <trkpt lat="41.42371" lon="0.59435">
        <ele>255.8</ele>
        <time>2020-10-31 09:31:13</time>
      </trkpt>
      <trkpt lat="41.42358" lon="0.59441">
        <ele>254.8</ele>
        <time>2020-10-31 09:31:15</time>
      </trkpt>
      <trkpt lat="41.42345" lon="0.59447">
        <ele>253.4</ele>
        <time>2020-10-31 09:31:17</time>
      </trkpt>
      <trkpt lat="41.42332" lon="0.59453">
        <ele>252.2</ele>
        <time>2020-10-31 09:31:19</time>
      </trkpt>
      <trkpt lat="41.42309" lon="0.5946">
        <ele>251</ele>
        <time>2020-10-31 09:31:23</time>
      </trkpt>
      <trkpt lat="41.42297" lon="0.59462">
        <ele>250.8</ele>
        <time>2020-10-31 09:31:25</time>
      </trkpt>
      <trkpt lat="41.42255" lon="0.59474">
        <ele>251</ele>
        <time>2020-10-31 09:31:33</time>
      </trkpt>
      <trkpt lat="41.42227" lon="0.59484">
        <ele>251.6</ele>
        <time>2020-10-31 09:31:40</time>
      </trkpt>
      <trkpt lat="41.42211" lon="0.59489">
        <ele>251.8</ele>
        <time>2020-10-31 09:31:44</time>
      </trkpt>
      <trkpt lat="41.42207" lon="0.5949">
        <ele>252</ele>
        <time>2020-10-31 09:31:45</time>
      </trkpt>
      <trkpt lat="41.42192" lon="0.59495">
        <ele>252.8</ele>
        <time>2020-10-31 09:31:49</time>
      </trkpt>
      <trkpt lat="41.42184" lon="0.59498">
        <ele>253</ele>
        <time>2020-10-31 09:31:51</time>
      </trkpt>
      <trkpt lat="41.42162" lon="0.59504">
        <ele>253.6</ele>
        <time>2020-10-31 09:31:57</time>
      </trkpt>
      <trkpt lat="41.42152" lon="0.59507">
        <ele>254.4</ele>
        <time>2020-10-31 09:32:00</time>
      </trkpt>
      <trkpt lat="41.42136" lon="0.5951">
        <ele>255.4</ele>
        <time>2020-10-31 09:32:05</time>
      </trkpt>
      <trkpt lat="41.42134" lon="0.59509">
        <ele>255.6</ele>
        <time>2020-10-31 09:32:06</time>
      </trkpt>
      <trkpt lat="41.42132" lon="0.59507">
        <ele>256</ele>
        <time>2020-10-31 09:32:07</time>
      </trkpt>
      <trkpt lat="41.42131" lon="0.59504">
        <ele>256.4</ele>
        <time>2020-10-31 09:32:08</time>
      </trkpt>
      <trkpt lat="41.4213" lon="0.595">
        <ele>256.8</ele>
        <time>2020-10-31 09:32:09</time>
      </trkpt>
      <trkpt lat="41.4213" lon="0.59497">
        <ele>257</ele>
        <time>2020-10-31 09:32:10</time>
      </trkpt>
      <trkpt lat="41.4213" lon="0.59489">
        <ele>258</ele>
        <time>2020-10-31 09:32:12</time>
      </trkpt>
      <trkpt lat="41.4213" lon="0.59486">
        <ele>258.4</ele>
        <time>2020-10-31 09:32:13</time>
      </trkpt>
      <trkpt lat="41.4213" lon="0.59482">
        <ele>258.8</ele>
        <time>2020-10-31 09:32:14</time>
      </trkpt>
      <trkpt lat="41.42131" lon="0.59478">
        <ele>259.4</ele>
        <time>2020-10-31 09:32:15</time>
      </trkpt>
      <trkpt lat="41.42131" lon="0.59467">
        <ele>260.8</ele>
        <time>2020-10-31 09:32:18</time>
      </trkpt>
      <trkpt lat="41.42131" lon="0.59463">
        <ele>261.2</ele>
        <time>2020-10-31 09:32:19</time>
      </trkpt>
      <trkpt lat="41.4213" lon="0.59455">
        <ele>261.8</ele>
        <time>2020-10-31 09:32:21</time>
      </trkpt>
      <trkpt lat="41.42131" lon="0.5944">
        <ele>263.2</ele>
        <time>2020-10-31 09:32:25</time>
      </trkpt>
      <trkpt lat="41.42131" lon="0.59424">
        <ele>264.4</ele>
        <time>2020-10-31 09:32:29</time>
      </trkpt>
      <trkpt lat="41.42131" lon="0.59412">
        <ele>265</ele>
        <time>2020-10-31 09:32:32</time>
      </trkpt>
      <trkpt lat="41.42132" lon="0.59399">
        <ele>265.4</ele>
        <time>2020-10-31 09:32:35</time>
      </trkpt>
      <trkpt lat="41.42134" lon="0.59379">
        <ele>266.4</ele>
        <time>2020-10-31 09:32:40</time>
      </trkpt>
      <trkpt lat="41.42134" lon="0.59367">
        <ele>267</ele>
        <time>2020-10-31 09:32:43</time>
      </trkpt>
      <trkpt lat="41.42133" lon="0.59351">
        <ele>267.4</ele>
        <time>2020-10-31 09:32:47</time>
      </trkpt>
      <trkpt lat="41.42133" lon="0.59347">
        <ele>267.6</ele>
        <time>2020-10-31 09:32:48</time>
      </trkpt>
      <trkpt lat="41.42132" lon="0.59329">
        <ele>268.6</ele>
        <time>2020-10-31 09:32:53</time>
      </trkpt>
      <trkpt lat="41.42131" lon="0.59318">
        <ele>269</ele>
        <time>2020-10-31 09:32:56</time>
      </trkpt>
      <trkpt lat="41.4213" lon="0.59311">
        <ele>269.8</ele>
        <time>2020-10-31 09:32:58</time>
      </trkpt>
      <trkpt lat="41.42127" lon="0.59296">
        <ele>270.8</ele>
        <time>2020-10-31 09:33:02</time>
      </trkpt>
      <trkpt lat="41.42125" lon="0.59289">
        <ele>271.2</ele>
        <time>2020-10-31 09:33:04</time>
      </trkpt>
      <trkpt lat="41.42125" lon="0.59278">
        <ele>271.8</ele>
        <time>2020-10-31 09:33:07</time>
      </trkpt>
      <trkpt lat="41.42125" lon="0.59265">
        <ele>272.4</ele>
        <time>2020-10-31 09:33:11</time>
      </trkpt>
      <trkpt lat="41.42126" lon="0.59252">
        <ele>273</ele>
        <time>2020-10-31 09:33:15</time>
      </trkpt>
      <trkpt lat="41.42129" lon="0.5924">
        <ele>273.8</ele>
        <time>2020-10-31 09:33:19</time>
      </trkpt>
      <trkpt lat="41.4213" lon="0.59237">
        <ele>274</ele>
        <time>2020-10-31 09:33:20</time>
      </trkpt>
      <trkpt lat="41.42131" lon="0.59224">
        <ele>275</ele>
        <time>2020-10-31 09:33:24</time>
      </trkpt>
      <trkpt lat="41.4213" lon="0.59218">
        <ele>275.6</ele>
        <time>2020-10-31 09:33:26</time>
      </trkpt>
      <trkpt lat="41.42129" lon="0.59216">
        <ele>276.2</ele>
        <time>2020-10-31 09:33:27</time>
      </trkpt>
      <trkpt lat="41.42121" lon="0.59204">
        <ele>277.2</ele>
        <time>2020-10-31 09:33:32</time>
      </trkpt>
      <trkpt lat="41.42114" lon="0.59202">
        <ele>277.4</ele>
        <time>2020-10-31 09:33:35</time>
      </trkpt>
      <trkpt lat="41.42107" lon="0.59204">
        <ele>277.8</ele>
        <time>2020-10-31 09:33:38</time>
      </trkpt>
      <trkpt lat="41.42096" lon="0.5921">
        <ele>278.6</ele>
        <time>2020-10-31 09:33:43</time>
      </trkpt>
      <trkpt lat="41.42092" lon="0.59213">
        <ele>279.2</ele>
        <time>2020-10-31 09:33:45</time>
      </trkpt>
      <trkpt lat="41.42086" lon="0.59219">
        <ele>279.8</ele>
        <time>2020-10-31 09:33:48</time>
      </trkpt>
      <trkpt lat="41.42079" lon="0.59227">
        <ele>280.8</ele>
        <time>2020-10-31 09:33:52</time>
      </trkpt>
      <trkpt lat="41.42077" lon="0.59229">
        <ele>281</ele>
        <time>2020-10-31 09:33:53</time>
      </trkpt>
      <trkpt lat="41.42069" lon="0.59236">
        <ele>282</ele>
        <time>2020-10-31 09:33:57</time>
      </trkpt>
      <trkpt lat="41.42058" lon="0.59249">
        <ele>283</ele>
        <time>2020-10-31 09:34:03</time>
      </trkpt>
      <trkpt lat="41.42057" lon="0.59251">
        <ele>283.2</ele>
        <time>2020-10-31 09:34:04</time>
      </trkpt>
      <trkpt lat="41.42048" lon="0.59263">
        <ele>284</ele>
        <time>2020-10-31 09:34:09</time>
      </trkpt>
      <trkpt lat="41.4204" lon="0.59276">
        <ele>284.8</ele>
        <time>2020-10-31 09:34:14</time>
      </trkpt>
      <trkpt lat="41.42035" lon="0.59285">
        <ele>285.2</ele>
        <time>2020-10-31 09:34:17</time>
      </trkpt>
      <trkpt lat="41.42025" lon="0.59301">
        <ele>286</ele>
        <time>2020-10-31 09:34:23</time>
      </trkpt>
      <trkpt lat="41.42023" lon="0.59304">
        <ele>286.2</ele>
        <time>2020-10-31 09:34:24</time>
      </trkpt>
      <trkpt lat="41.42019" lon="0.59313">
        <ele>287.2</ele>
        <time>2020-10-31 09:34:27</time>
      </trkpt>
      <trkpt lat="41.42016" lon="0.59318">
        <ele>288</ele>
        <time>2020-10-31 09:34:29</time>
      </trkpt>
      <trkpt lat="41.42015" lon="0.5932">
        <ele>288.6</ele>
        <time>2020-10-31 09:34:30</time>
      </trkpt>
      <trkpt lat="41.4201" lon="0.59326">
        <ele>289.6</ele>
        <time>2020-10-31 09:34:33</time>
      </trkpt>
      <trkpt lat="41.42004" lon="0.59331">
        <ele>290.6</ele>
        <time>2020-10-31 09:34:36</time>
      </trkpt>
      <trkpt lat="41.41995" lon="0.59342">
        <ele>291.6</ele>
        <time>2020-10-31 09:34:41</time>
      </trkpt>
      <trkpt lat="41.41991" lon="0.59345">
        <ele>292.2</ele>
        <time>2020-10-31 09:34:43</time>
      </trkpt>
      <trkpt lat="41.41987" lon="0.59352">
        <ele>293</ele>
        <time>2020-10-31 09:34:46</time>
      </trkpt>
      <trkpt lat="41.41986" lon="0.59361">
        <ele>294</ele>
        <time>2020-10-31 09:34:49</time>
      </trkpt>
      <trkpt lat="41.41986" lon="0.59364">
        <ele>294.4</ele>
        <time>2020-10-31 09:34:50</time>
      </trkpt>
      <trkpt lat="41.41987" lon="0.59377">
        <ele>295.6</ele>
        <time>2020-10-31 09:34:54</time>
      </trkpt>
      <trkpt lat="41.41989" lon="0.59382">
        <ele>296.2</ele>
        <time>2020-10-31 09:34:56</time>
      </trkpt>
      <trkpt lat="41.41992" lon="0.59387">
        <ele>296.8</ele>
        <time>2020-10-31 09:34:58</time>
      </trkpt>
      <trkpt lat="41.41997" lon="0.59398">
        <ele>298</ele>
        <time>2020-10-31 09:35:02</time>
      </trkpt>
      <trkpt lat="41.41998" lon="0.59401">
        <ele>298.2</ele>
        <time>2020-10-31 09:35:03</time>
      </trkpt>
      <trkpt lat="41.42005" lon="0.59421">
        <ele>299</ele>
        <time>2020-10-31 09:35:09</time>
      </trkpt>
      <trkpt lat="41.42007" lon="0.59431">
        <ele>299.2</ele>
        <time>2020-10-31 09:35:12</time>
      </trkpt>
      <trkpt lat="41.42005" lon="0.59451">
        <ele>299.8</ele>
        <time>2020-10-31 09:35:18</time>
      </trkpt>
      <trkpt lat="41.42002" lon="0.59456">
        <ele>300.2</ele>
        <time>2020-10-31 09:35:20</time>
      </trkpt>
      <trkpt lat="41.41996" lon="0.59463">
        <ele>300.8</ele>
        <time>2020-10-31 09:35:23</time>
      </trkpt>
      <trkpt lat="41.41994" lon="0.59464">
        <ele>301</ele>
        <time>2020-10-31 09:35:24</time>
      </trkpt>
      <trkpt lat="41.41991" lon="0.59465">
        <ele>301.4</ele>
        <time>2020-10-31 09:35:25</time>
      </trkpt>
      <trkpt lat="41.41981" lon="0.59466">
        <ele>302.6</ele>
        <time>2020-10-31 09:35:29</time>
      </trkpt>
      <trkpt lat="41.41976" lon="0.59467">
        <ele>303.2</ele>
        <time>2020-10-31 09:35:31</time>
      </trkpt>
      <trkpt lat="41.41971" lon="0.59468">
        <ele>303.8</ele>
        <time>2020-10-31 09:35:33</time>
      </trkpt>
      <trkpt lat="41.41957" lon="0.59471">
        <ele>304.8</ele>
        <time>2020-10-31 09:35:38</time>
      </trkpt>
      <trkpt lat="41.41955" lon="0.59472">
        <ele>305</ele>
        <time>2020-10-31 09:35:39</time>
      </trkpt>
      <trkpt lat="41.41933" lon="0.59478">
        <ele>306</ele>
        <time>2020-10-31 09:35:46</time>
      </trkpt>
      <trkpt lat="41.41902" lon="0.59484">
        <ele>306.6</ele>
        <time>2020-10-31 09:35:55</time>
      </trkpt>
      <trkpt lat="41.41891" lon="0.59484">
        <ele>307</ele>
        <time>2020-10-31 09:35:58</time>
      </trkpt>
      <trkpt lat="41.41873" lon="0.5948">
        <ele>307.6</ele>
        <time>2020-10-31 09:36:03</time>
      </trkpt>
      <trkpt lat="41.41847" lon="0.59476">
        <ele>307.8</ele>
        <time>2020-10-31 09:36:09</time>
      </trkpt>
      <trkpt lat="41.41842" lon="0.59476">
        <ele>307.8</ele>
        <time>2020-10-31 09:36:10</time>
      </trkpt>
      <trkpt lat="41.41831" lon="0.59487">
        <ele>307.6</ele>
        <time>2020-10-31 09:36:13</time>
      </trkpt>
      <trkpt lat="41.41828" lon="0.5951">
        <ele>307.8</ele>
        <time>2020-10-31 09:36:17</time>
      </trkpt>
      <trkpt lat="41.41827" lon="0.59522">
        <ele>307.8</ele>
        <time>2020-10-31 09:36:19</time>
      </trkpt>
      <trkpt lat="41.41821" lon="0.59539">
        <ele>307.8</ele>
        <time>2020-10-31 09:36:22</time>
      </trkpt>
      <trkpt lat="41.41819" lon="0.59544">
        <ele>308.2</ele>
        <time>2020-10-31 09:36:23</time>
      </trkpt>
      <trkpt lat="41.41813" lon="0.59552">
        <ele>308.8</ele>
        <time>2020-10-31 09:36:25</time>
      </trkpt>
      <trkpt lat="41.41807" lon="0.59559">
        <ele>308.8</ele>
        <time>2020-10-31 09:36:27</time>
      </trkpt>
      <trkpt lat="41.4179" lon="0.59572">
        <ele>309.4</ele>
        <time>2020-10-31 09:36:32</time>
      </trkpt>
      <trkpt lat="41.41782" lon="0.59575">
        <ele>310.2</ele>
        <time>2020-10-31 09:36:34</time>
      </trkpt>
      <trkpt lat="41.41771" lon="0.5958">
        <ele>310.6</ele>
        <time>2020-10-31 09:36:37</time>
      </trkpt>
      <trkpt lat="41.4175" lon="0.59586">
        <ele>311.6</ele>
        <time>2020-10-31 09:36:42</time>
      </trkpt>
      <trkpt lat="41.41746" lon="0.59587">
        <ele>311.8</ele>
        <time>2020-10-31 09:36:43</time>
      </trkpt>
      <trkpt lat="41.41717" lon="0.59596">
        <ele>312.8</ele>
        <time>2020-10-31 09:36:50</time>
      </trkpt>
      <trkpt lat="41.41699" lon="0.59602">
        <ele>313</ele>
        <time>2020-10-31 09:36:54</time>
      </trkpt>
      <trkpt lat="41.41683" lon="0.59606">
        <ele>313.4</ele>
        <time>2020-10-31 09:36:58</time>
      </trkpt>
      <trkpt lat="41.41657" lon="0.59608">
        <ele>314.2</ele>
        <time>2020-10-31 09:37:04</time>
      </trkpt>
      <trkpt lat="41.41644" lon="0.59608">
        <ele>314.6</ele>
        <time>2020-10-31 09:37:07</time>
      </trkpt>
      <trkpt lat="41.41631" lon="0.59608">
        <ele>314.8</ele>
        <time>2020-10-31 09:37:10</time>
      </trkpt>
      <trkpt lat="41.41614" lon="0.5961">
        <ele>315.2</ele>
        <time>2020-10-31 09:37:14</time>
      </trkpt>
      <trkpt lat="41.41609" lon="0.5961">
        <ele>315.4</ele>
        <time>2020-10-31 09:37:15</time>
      </trkpt>
      <trkpt lat="41.41583" lon="0.59616">
        <ele>316.2</ele>
        <time>2020-10-31 09:37:21</time>
      </trkpt>
      <trkpt lat="41.41575" lon="0.59619">
        <ele>316.4</ele>
        <time>2020-10-31 09:37:23</time>
      </trkpt>
      <trkpt lat="41.41551" lon="0.59632">
        <ele>317</ele>
        <time>2020-10-31 09:37:29</time>
      </trkpt>
      <trkpt lat="41.41547" lon="0.59635">
        <ele>317.2</ele>
        <time>2020-10-31 09:37:30</time>
      </trkpt>
      <trkpt lat="41.41543" lon="0.59638">
        <ele>317.2</ele>
        <time>2020-10-31 09:37:31</time>
      </trkpt>
      <trkpt lat="41.41523" lon="0.59652">
        <ele>318.2</ele>
        <time>2020-10-31 09:37:36</time>
      </trkpt>
      <trkpt lat="41.4151" lon="0.59659">
        <ele>318.2</ele>
        <time>2020-10-31 09:37:39</time>
      </trkpt>
      <trkpt lat="41.41493" lon="0.59666">
        <ele>318.4</ele>
        <time>2020-10-31 09:37:43</time>
      </trkpt>
      <trkpt lat="41.41459" lon="0.59683">
        <ele>319</ele>
        <time>2020-10-31 09:37:51</time>
      </trkpt>
      <trkpt lat="41.41434" lon="0.59695">
        <ele>319.4</ele>
        <time>2020-10-31 09:37:57</time>
      </trkpt>
      <trkpt lat="41.41417" lon="0.59702">
        <ele>319.8</ele>
        <time>2020-10-31 09:38:01</time>
      </trkpt>
      <trkpt lat="41.41396" lon="0.59709">
        <ele>320.4</ele>
        <time>2020-10-31 09:38:06</time>
      </trkpt>
      <trkpt lat="41.41383" lon="0.59712">
        <ele>320.8</ele>
        <time>2020-10-31 09:38:09</time>
      </trkpt>
      <trkpt lat="41.4136" lon="0.59713">
        <ele>321.6</ele>
        <time>2020-10-31 09:38:15</time>
      </trkpt>
      <trkpt lat="41.41352" lon="0.59713">
        <ele>322.2</ele>
        <time>2020-10-31 09:38:17</time>
      </trkpt>
      <trkpt lat="41.41344" lon="0.59713">
        <ele>322.8</ele>
        <time>2020-10-31 09:38:19</time>
      </trkpt>
      <trkpt lat="41.41327" lon="0.59712">
        <ele>323.6</ele>
        <time>2020-10-31 09:38:23</time>
      </trkpt>
      <trkpt lat="41.41323" lon="0.5971">
        <ele>323.8</ele>
        <time>2020-10-31 09:38:24</time>
      </trkpt>
      <trkpt lat="41.41319" lon="0.59708">
        <ele>324</ele>
        <time>2020-10-31 09:38:25</time>
      </trkpt>
      <trkpt lat="41.41301" lon="0.59691">
        <ele>324.6</ele>
        <time>2020-10-31 09:38:30</time>
      </trkpt>
      <trkpt lat="41.41296" lon="0.59681">
        <ele>324.8</ele>
        <time>2020-10-31 09:38:32</time>
      </trkpt>
      <trkpt lat="41.41294" lon="0.59677">
        <ele>325</ele>
        <time>2020-10-31 09:38:33</time>
      </trkpt>
      <trkpt lat="41.41286" lon="0.59664">
        <ele>325.2</ele>
        <time>2020-10-31 09:38:36</time>
      </trkpt>
      <trkpt lat="41.4127" lon="0.59638">
        <ele>326</ele>
        <time>2020-10-31 09:38:42</time>
      </trkpt>
      <trkpt lat="41.41265" lon="0.59629">
        <ele>326.4</ele>
        <time>2020-10-31 09:38:44</time>
      </trkpt>
      <trkpt lat="41.41251" lon="0.59608">
        <ele>327</ele>
        <time>2020-10-31 09:38:49</time>
      </trkpt>
      <trkpt lat="41.41244" lon="0.596">
        <ele>327</ele>
        <time>2020-10-31 09:38:51</time>
      </trkpt>
      <trkpt lat="41.41207" lon="0.59562">
        <ele>327</ele>
        <time>2020-10-31 09:39:00</time>
      </trkpt>
      <trkpt lat="41.412" lon="0.59552">
        <ele>327</ele>
        <time>2020-10-31 09:39:02</time>
      </trkpt>
      <trkpt lat="41.41193" lon="0.59536">
        <ele>327</ele>
        <time>2020-10-31 09:39:05</time>
      </trkpt>
      <trkpt lat="41.41185" lon="0.59508">
        <ele>327.2</ele>
        <time>2020-10-31 09:39:11</time>
      </trkpt>
      <trkpt lat="41.41176" lon="0.5949">
        <ele>328.2</ele>
        <time>2020-10-31 09:39:15</time>
      </trkpt>
      <trkpt lat="41.41169" lon="0.59476">
        <ele>329.4</ele>
        <time>2020-10-31 09:39:18</time>
      </trkpt>
      <trkpt lat="41.41167" lon="0.59472">
        <ele>329.6</ele>
        <time>2020-10-31 09:39:19</time>
      </trkpt>
      <trkpt lat="41.41157" lon="0.59459">
        <ele>330</ele>
        <time>2020-10-31 09:39:22</time>
      </trkpt>
      <trkpt lat="41.41145" lon="0.59449">
        <ele>330.2</ele>
        <time>2020-10-31 09:39:25</time>
      </trkpt>
      <trkpt lat="41.41116" lon="0.5944">
        <ele>330.2</ele>
        <time>2020-10-31 09:39:31</time>
      </trkpt>
      <trkpt lat="41.41098" lon="0.59448">
        <ele>330.2</ele>
        <time>2020-10-31 09:39:35</time>
      </trkpt>
      <trkpt lat="41.41087" lon="0.5946">
        <ele>330.2</ele>
        <time>2020-10-31 09:39:38</time>
      </trkpt>
      <trkpt lat="41.41076" lon="0.59471">
        <ele>330.2</ele>
        <time>2020-10-31 09:39:41</time>
      </trkpt>
      <trkpt lat="41.4106" lon="0.59487">
        <ele>330.4</ele>
        <time>2020-10-31 09:39:45</time>
      </trkpt>
      <trkpt lat="41.41055" lon="0.5949">
        <ele>330.4</ele>
        <time>2020-10-31 09:39:46</time>
      </trkpt>
      <trkpt lat="41.41038" lon="0.59491">
        <ele>330.4</ele>
        <time>2020-10-31 09:39:49</time>
      </trkpt>
      <trkpt lat="41.41004" lon="0.59484">
        <ele>330.8</ele>
        <time>2020-10-31 09:39:56</time>
      </trkpt>
      <trkpt lat="41.40981" lon="0.59481">
        <ele>331.2</ele>
        <time>2020-10-31 09:40:02</time>
      </trkpt>
      <trkpt lat="41.40975" lon="0.59479">
        <ele>331.6</ele>
        <time>2020-10-31 09:40:04</time>
      </trkpt>
      <trkpt lat="41.40966" lon="0.59473">
        <ele>332.4</ele>
        <time>2020-10-31 09:40:07</time>
      </trkpt>
      <trkpt lat="41.40963" lon="0.59471">
        <ele>332.8</ele>
        <time>2020-10-31 09:40:08</time>
      </trkpt>
      <trkpt lat="41.40955" lon="0.59462">
        <ele>334</ele>
        <time>2020-10-31 09:40:11</time>
      </trkpt>
      <trkpt lat="41.40951" lon="0.59456">
        <ele>334.8</ele>
        <time>2020-10-31 09:40:13</time>
      </trkpt>
      <trkpt lat="41.40949" lon="0.59453">
        <ele>335</ele>
        <time>2020-10-31 09:40:14</time>
      </trkpt>
      <trkpt lat="41.40939" lon="0.59447">
        <ele>336</ele>
        <time>2020-10-31 09:40:18</time>
      </trkpt>
      <trkpt lat="41.4092" lon="0.59449">
        <ele>337.2</ele>
        <time>2020-10-31 09:40:24</time>
      </trkpt>
      <trkpt lat="41.40913" lon="0.59451">
        <ele>338</ele>
        <time>2020-10-31 09:40:26</time>
      </trkpt>
      <trkpt lat="41.4091" lon="0.59452">
        <ele>338.2</ele>
        <time>2020-10-31 09:40:27</time>
      </trkpt>
      <trkpt lat="41.40885" lon="0.59464">
        <ele>338.8</ele>
        <time>2020-10-31 09:40:34</time>
      </trkpt>
      <trkpt lat="41.4086" lon="0.5947">
        <ele>339.4</ele>
        <time>2020-10-31 09:40:41</time>
      </trkpt>
      <trkpt lat="41.40857" lon="0.5947">
        <ele>339.8</ele>
        <time>2020-10-31 09:40:42</time>
      </trkpt>
      <trkpt lat="41.4084" lon="0.5947">
        <ele>341</ele>
        <time>2020-10-31 09:40:47</time>
      </trkpt>
      <trkpt lat="41.40833" lon="0.5947">
        <ele>341.8</ele>
        <time>2020-10-31 09:40:49</time>
      </trkpt>
      <trkpt lat="41.40829" lon="0.59471">
        <ele>342</ele>
        <time>2020-10-31 09:40:50</time>
      </trkpt>
      <trkpt lat="41.40808" lon="0.59478">
        <ele>343</ele>
        <time>2020-10-31 09:40:56</time>
      </trkpt>
      <trkpt lat="41.40801" lon="0.59479">
        <ele>343</ele>
        <time>2020-10-31 09:40:58</time>
      </trkpt>
      <trkpt lat="41.40783" lon="0.59479">
        <ele>343.4</ele>
        <time>2020-10-31 09:41:03</time>
      </trkpt>
      <trkpt lat="41.4076" lon="0.59489">
        <ele>344</ele>
        <time>2020-10-31 09:41:10</time>
      </trkpt>
      <trkpt lat="41.40757" lon="0.5949">
        <ele>344.2</ele>
        <time>2020-10-31 09:41:11</time>
      </trkpt>
      <trkpt lat="41.40746" lon="0.59496">
        <ele>345.2</ele>
        <time>2020-10-31 09:41:15</time>
      </trkpt>
      <trkpt lat="41.40741" lon="0.59499">
        <ele>345.6</ele>
        <time>2020-10-31 09:41:17</time>
      </trkpt>
      <trkpt lat="41.40732" lon="0.59508">
        <ele>346.4</ele>
        <time>2020-10-31 09:41:21</time>
      </trkpt>
      <trkpt lat="41.40728" lon="0.59514">
        <ele>347</ele>
        <time>2020-10-31 09:41:23</time>
      </trkpt>
      <trkpt lat="41.40727" lon="0.59518">
        <ele>347.8</ele>
        <time>2020-10-31 09:41:24</time>
      </trkpt>
      <trkpt lat="41.40721" lon="0.59536">
        <ele>348.8</ele>
        <time>2020-10-31 09:41:29</time>
      </trkpt>
      <trkpt lat="41.40717" lon="0.59546">
        <ele>349.2</ele>
        <time>2020-10-31 09:41:32</time>
      </trkpt>
      <trkpt lat="41.40709" lon="0.59562">
        <ele>350</ele>
        <time>2020-10-31 09:41:38</time>
      </trkpt>
      <trkpt lat="41.40699" lon="0.59575">
        <ele>351.4</ele>
        <time>2020-10-31 09:41:44</time>
      </trkpt>
      <trkpt lat="41.40696" lon="0.59579">
        <ele>352</ele>
        <time>2020-10-31 09:41:46</time>
      </trkpt>
      <trkpt lat="41.40692" lon="0.59583">
        <ele>352.6</ele>
        <time>2020-10-31 09:41:48</time>
      </trkpt>
      <trkpt lat="41.40687" lon="0.59588">
        <ele>353.6</ele>
        <time>2020-10-31 09:41:51</time>
      </trkpt>
      <trkpt lat="41.40683" lon="0.59592">
        <ele>354.2</ele>
        <time>2020-10-31 09:41:53</time>
      </trkpt>
      <trkpt lat="41.40681" lon="0.59594">
        <ele>354.6</ele>
        <time>2020-10-31 09:41:54</time>
      </trkpt>
      <trkpt lat="41.40674" lon="0.59608">
        <ele>355.4</ele>
        <time>2020-10-31 09:41:59</time>
      </trkpt>
      <trkpt lat="41.40672" lon="0.59615">
        <ele>356</ele>
        <time>2020-10-31 09:42:01</time>
      </trkpt>
      <trkpt lat="41.40663" lon="0.59637">
        <ele>356.8</ele>
        <time>2020-10-31 09:42:07</time>
      </trkpt>
      <trkpt lat="41.40658" lon="0.59643">
        <ele>357</ele>
        <time>2020-10-31 09:42:09</time>
      </trkpt>
      <trkpt lat="41.40644" lon="0.59653">
        <ele>357.4</ele>
        <time>2020-10-31 09:42:14</time>
      </trkpt>
      <trkpt lat="41.40626" lon="0.59668">
        <ele>357.6</ele>
        <time>2020-10-31 09:42:20</time>
      </trkpt>
      <trkpt lat="41.406" lon="0.59694">
        <ele>357.8</ele>
        <time>2020-10-31 09:42:29</time>
      </trkpt>
      <trkpt lat="41.40588" lon="0.59706">
        <ele>358.2</ele>
        <time>2020-10-31 09:42:33</time>
      </trkpt>
      <trkpt lat="41.4058" lon="0.59715">
        <ele>358.4</ele>
        <time>2020-10-31 09:42:36</time>
      </trkpt>
      <trkpt lat="41.40558" lon="0.59738">
        <ele>359</ele>
        <time>2020-10-31 09:42:43</time>
      </trkpt>
      <trkpt lat="41.40549" lon="0.59746">
        <ele>359</ele>
        <time>2020-10-31 09:42:45</time>
      </trkpt>
      <trkpt lat="41.40539" lon="0.5975">
        <ele>359</ele>
        <time>2020-10-31 09:42:47</time>
      </trkpt>
      <trkpt lat="41.40523" lon="0.59756">
        <ele>359</ele>
        <time>2020-10-31 09:42:50</time>
      </trkpt>
      <trkpt lat="41.40512" lon="0.59762">
        <ele>359</ele>
        <time>2020-10-31 09:42:52</time>
      </trkpt>
      <trkpt lat="41.40488" lon="0.59769">
        <ele>358.8</ele>
        <time>2020-10-31 09:42:56</time>
      </trkpt>
      <trkpt lat="41.40481" lon="0.5977">
        <ele>358.6</ele>
        <time>2020-10-31 09:42:57</time>
      </trkpt>
      <trkpt lat="41.4047" lon="0.59773">
        <ele>358.4</ele>
        <time>2020-10-31 09:42:59</time>
      </trkpt>
      <trkpt lat="41.40459" lon="0.59779">
        <ele>357.8</ele>
        <time>2020-10-31 09:43:01</time>
      </trkpt>
      <trkpt lat="41.40432" lon="0.59807">
        <ele>357.4</ele>
        <time>2020-10-31 09:43:07</time>
      </trkpt>
      <trkpt lat="41.40403" lon="0.59839">
        <ele>357.6</ele>
        <time>2020-10-31 09:43:14</time>
      </trkpt>
      <trkpt lat="41.40399" lon="0.59843">
        <ele>357.6</ele>
        <time>2020-10-31 09:43:15</time>
      </trkpt>
      <trkpt lat="41.40384" lon="0.59852">
        <ele>358</ele>
        <time>2020-10-31 09:43:19</time>
      </trkpt>
      <trkpt lat="41.40362" lon="0.59867">
        <ele>359.2</ele>
        <time>2020-10-31 09:43:25</time>
      </trkpt>
      <trkpt lat="41.40359" lon="0.59869">
        <ele>359.6</ele>
        <time>2020-10-31 09:43:26</time>
      </trkpt>
      <trkpt lat="41.4034" lon="0.59883">
        <ele>360.6</ele>
        <time>2020-10-31 09:43:31</time>
      </trkpt>
      <trkpt lat="41.40326" lon="0.59893">
        <ele>360.8</ele>
        <time>2020-10-31 09:43:34</time>
      </trkpt>
      <trkpt lat="41.40278" lon="0.59926">
        <ele>361</ele>
        <time>2020-10-31 09:43:45</time>
      </trkpt>
      <trkpt lat="41.40274" lon="0.59928">
        <ele>361</ele>
        <time>2020-10-31 09:43:46</time>
      </trkpt>
      <trkpt lat="41.40255" lon="0.59935">
        <ele>361.6</ele>
        <time>2020-10-31 09:43:51</time>
      </trkpt>
      <trkpt lat="41.4024" lon="0.59948">
        <ele>362.8</ele>
        <time>2020-10-31 09:43:56</time>
      </trkpt>
      <trkpt lat="41.40231" lon="0.59965">
        <ele>363.8</ele>
        <time>2020-10-31 09:44:00</time>
      </trkpt>
      <trkpt lat="41.40226" lon="0.59979">
        <ele>364.2</ele>
        <time>2020-10-31 09:44:03</time>
      </trkpt>
      <trkpt lat="41.40223" lon="0.59994">
        <ele>364.8</ele>
        <time>2020-10-31 09:44:06</time>
      </trkpt>
      <trkpt lat="41.40215" lon="0.60012">
        <ele>365.6</ele>
        <time>2020-10-31 09:44:10</time>
      </trkpt>
      <trkpt lat="41.4021" lon="0.60019">
        <ele>366</ele>
        <time>2020-10-31 09:44:12</time>
      </trkpt>
      <trkpt lat="41.40198" lon="0.60035">
        <ele>366.4</ele>
        <time>2020-10-31 09:44:17</time>
      </trkpt>
      <trkpt lat="41.40193" lon="0.60046">
        <ele>367.2</ele>
        <time>2020-10-31 09:44:20</time>
      </trkpt>
      <trkpt lat="41.4019" lon="0.60056">
        <ele>368.2</ele>
        <time>2020-10-31 09:44:23</time>
      </trkpt>
      <trkpt lat="41.40189" lon="0.60059">
        <ele>368.4</ele>
        <time>2020-10-31 09:44:24</time>
      </trkpt>
      <trkpt lat="41.40184" lon="0.60072">
        <ele>369.4</ele>
        <time>2020-10-31 09:44:28</time>
      </trkpt>
      <trkpt lat="41.40179" lon="0.60084">
        <ele>370.6</ele>
        <time>2020-10-31 09:44:32</time>
      </trkpt>
      <trkpt lat="41.40168" lon="0.60091">
        <ele>371.8</ele>
        <time>2020-10-31 09:44:37</time>
      </trkpt>
      <trkpt lat="41.40165" lon="0.60092">
        <ele>372</ele>
        <time>2020-10-31 09:44:38</time>
      </trkpt>
      <trkpt lat="41.40157" lon="0.60094">
        <ele>372.8</ele>
        <time>2020-10-31 09:44:41</time>
      </trkpt>
      <trkpt lat="41.40141" lon="0.60095">
        <ele>373.8</ele>
        <time>2020-10-31 09:44:46</time>
      </trkpt>
      <trkpt lat="41.40117" lon="0.60105">
        <ele>374.8</ele>
        <time>2020-10-31 09:44:54</time>
      </trkpt>
      <trkpt lat="41.40107" lon="0.60115">
        <ele>375</ele>
        <time>2020-10-31 09:44:58</time>
      </trkpt>
      <trkpt lat="41.401" lon="0.60124">
        <ele>375.4</ele>
        <time>2020-10-31 09:45:01</time>
      </trkpt>
      <trkpt lat="41.40094" lon="0.60132">
        <ele>376.4</ele>
        <time>2020-10-31 09:45:04</time>
      </trkpt>
      <trkpt lat="41.40089" lon="0.60142">
        <ele>377.6</ele>
        <time>2020-10-31 09:45:07</time>
      </trkpt>
      <trkpt lat="41.40084" lon="0.6015">
        <ele>378.8</ele>
        <time>2020-10-31 09:45:10</time>
      </trkpt>
      <trkpt lat="41.40077" lon="0.60157">
        <ele>379.8</ele>
        <time>2020-10-31 09:45:14</time>
      </trkpt>
      <trkpt lat="41.40067" lon="0.60164">
        <ele>380.8</ele>
        <time>2020-10-31 09:45:18</time>
      </trkpt>
      <trkpt lat="41.40059" lon="0.60174">
        <ele>381.4</ele>
        <time>2020-10-31 09:45:21</time>
      </trkpt>
      <trkpt lat="41.40047" lon="0.6019">
        <ele>381.4</ele>
        <time>2020-10-31 09:45:25</time>
      </trkpt>
      <trkpt lat="41.40039" lon="0.60204">
        <ele>381.4</ele>
        <time>2020-10-31 09:45:28</time>
      </trkpt>
      <trkpt lat="41.40031" lon="0.60232">
        <ele>381.4</ele>
        <time>2020-10-31 09:45:34</time>
      </trkpt>
      <trkpt lat="41.40028" lon="0.60261">
        <ele>381.4</ele>
        <time>2020-10-31 09:45:40</time>
      </trkpt>
      <trkpt lat="41.40027" lon="0.60267">
        <ele>381.8</ele>
        <time>2020-10-31 09:45:41</time>
      </trkpt>
      <trkpt lat="41.40018" lon="0.6029">
        <ele>382</ele>
        <time>2020-10-31 09:45:45</time>
      </trkpt>
      <trkpt lat="41.40015" lon="0.60295">
        <ele>382</ele>
        <time>2020-10-31 09:45:46</time>
      </trkpt>
      <trkpt lat="41.39997" lon="0.60337">
        <ele>381.6</ele>
        <time>2020-10-31 09:45:54</time>
      </trkpt>
      <trkpt lat="41.39987" lon="0.60372">
        <ele>381.6</ele>
        <time>2020-10-31 09:46:01</time>
      </trkpt>
      <trkpt lat="41.39983" lon="0.60386">
        <ele>382.2</ele>
        <time>2020-10-31 09:46:04</time>
      </trkpt>
      <trkpt lat="41.39979" lon="0.60403">
        <ele>383</ele>
        <time>2020-10-31 09:46:08</time>
      </trkpt>
      <trkpt lat="41.39978" lon="0.60412">
        <ele>383.4</ele>
        <time>2020-10-31 09:46:10</time>
      </trkpt>
      <trkpt lat="41.39974" lon="0.6043">
        <ele>384.6</ele>
        <time>2020-10-31 09:46:14</time>
      </trkpt>
      <trkpt lat="41.3997" lon="0.60442">
        <ele>385.6</ele>
        <time>2020-10-31 09:46:18</time>
      </trkpt>
      <trkpt lat="41.39968" lon="0.60446">
        <ele>386</ele>
        <time>2020-10-31 09:46:20</time>
      </trkpt>
      <trkpt lat="41.39966" lon="0.60449">
        <ele>386.6</ele>
        <time>2020-10-31 09:46:22</time>
      </trkpt>
      <trkpt lat="41.39964" lon="0.60456">
        <ele>387.8</ele>
        <time>2020-10-31 09:46:24</time>
      </trkpt>
      <trkpt lat="41.39961" lon="0.60464">
        <ele>388.6</ele>
        <time>2020-10-31 09:46:27</time>
      </trkpt>
      <trkpt lat="41.39956" lon="0.60471">
        <ele>388.8</ele>
        <time>2020-10-31 09:46:29</time>
      </trkpt>
      <trkpt lat="41.39953" lon="0.60475">
        <ele>388.8</ele>
        <time>2020-10-31 09:46:30</time>
      </trkpt>
      <trkpt lat="41.39946" lon="0.60482">
        <ele>388.8</ele>
        <time>2020-10-31 09:46:32</time>
      </trkpt>
      <trkpt lat="41.39916" lon="0.60509">
        <ele>388.2</ele>
        <time>2020-10-31 09:46:39</time>
      </trkpt>
      <trkpt lat="41.39909" lon="0.6052">
        <ele>387.8</ele>
        <time>2020-10-31 09:46:41</time>
      </trkpt>
      <trkpt lat="41.39906" lon="0.60525">
        <ele>387.6</ele>
        <time>2020-10-31 09:46:42</time>
      </trkpt>
      <trkpt lat="41.39903" lon="0.60531">
        <ele>387.6</ele>
        <time>2020-10-31 09:46:43</time>
      </trkpt>
      <trkpt lat="41.399" lon="0.60561">
        <ele>386.8</ele>
        <time>2020-10-31 09:46:48</time>
      </trkpt>
      <trkpt lat="41.39902" lon="0.60577">
        <ele>386.8</ele>
        <time>2020-10-31 09:46:51</time>
      </trkpt>
      <trkpt lat="41.39904" lon="0.60586">
        <ele>386.8</ele>
        <time>2020-10-31 09:46:53</time>
      </trkpt>
      <trkpt lat="41.39912" lon="0.6062">
        <ele>387</ele>
        <time>2020-10-31 09:47:00</time>
      </trkpt>
      <trkpt lat="41.39912" lon="0.60647">
        <ele>387.8</ele>
        <time>2020-10-31 09:47:05</time>
      </trkpt>
      <trkpt lat="41.39909" lon="0.60669">
        <ele>388</ele>
        <time>2020-10-31 09:47:09</time>
      </trkpt>
      <trkpt lat="41.39903" lon="0.60691">
        <ele>388</ele>
        <time>2020-10-31 09:47:13</time>
      </trkpt>
      <trkpt lat="41.39901" lon="0.60695">
        <ele>388.2</ele>
        <time>2020-10-31 09:47:14</time>
      </trkpt>
      <trkpt lat="41.39894" lon="0.60718">
        <ele>388.4</ele>
        <time>2020-10-31 09:47:18</time>
      </trkpt>
      <trkpt lat="41.39892" lon="0.60735">
        <ele>388.4</ele>
        <time>2020-10-31 09:47:21</time>
      </trkpt>
      <trkpt lat="41.3989" lon="0.60746">
        <ele>388.4</ele>
        <time>2020-10-31 09:47:23</time>
      </trkpt>
      <trkpt lat="41.39888" lon="0.60751">
        <ele>388.6</ele>
        <time>2020-10-31 09:47:24</time>
      </trkpt>
      <trkpt lat="41.39877" lon="0.60776">
        <ele>388.6</ele>
        <time>2020-10-31 09:47:30</time>
      </trkpt>
      <trkpt lat="41.39868" lon="0.60774">
        <ele>388.8</ele>
        <time>2020-10-31 09:47:33</time>
      </trkpt>
      <trkpt lat="41.39863" lon="0.60763">
        <ele>388.8</ele>
        <time>2020-10-31 09:47:36</time>
      </trkpt>
      <trkpt lat="41.39864" lon="0.60758">
        <ele>388.8</ele>
        <time>2020-10-31 09:47:37</time>
      </trkpt>
      <trkpt lat="41.39864" lon="0.60754">
        <ele>388.8</ele>
        <time>2020-10-31 09:47:38</time>
      </trkpt>
      <trkpt lat="41.3986" lon="0.60749">
        <ele>388.8</ele>
        <time>2020-10-31 09:47:40</time>
      </trkpt>
      <trkpt lat="41.39847" lon="0.60748">
        <ele>387.8</ele>
        <time>2020-10-31 09:47:43</time>
      </trkpt>
      <trkpt lat="41.39836" lon="0.60744">
        <ele>386.8</ele>
        <time>2020-10-31 09:47:45</time>
      </trkpt>
      <trkpt lat="41.39819" lon="0.60735">
        <ele>385.6</ele>
        <time>2020-10-31 09:47:48</time>
      </trkpt>
      <trkpt lat="41.398" lon="0.60722">
        <ele>384.2</ele>
        <time>2020-10-31 09:47:51</time>
      </trkpt>
      <trkpt lat="41.39793" lon="0.60719">
        <ele>383</ele>
        <time>2020-10-31 09:47:52</time>
      </trkpt>
      <trkpt lat="41.39785" lon="0.60716">
        <ele>382.2</ele>
        <time>2020-10-31 09:47:53</time>
      </trkpt>
      <trkpt lat="41.39776" lon="0.60714">
        <ele>381.6</ele>
        <time>2020-10-31 09:47:54</time>
      </trkpt>
      <trkpt lat="41.39757" lon="0.60709">
        <ele>379.8</ele>
        <time>2020-10-31 09:47:56</time>
      </trkpt>
      <trkpt lat="41.39747" lon="0.60706">
        <ele>378.6</ele>
        <time>2020-10-31 09:47:57</time>
      </trkpt>
      <trkpt lat="41.39737" lon="0.60704">
        <ele>377.6</ele>
        <time>2020-10-31 09:47:58</time>
      </trkpt>
      <trkpt lat="41.39728" lon="0.60702">
        <ele>376.4</ele>
        <time>2020-10-31 09:47:59</time>
      </trkpt>
      <trkpt lat="41.39718" lon="0.60699">
        <ele>375.2</ele>
        <time>2020-10-31 09:48:00</time>
      </trkpt>
      <trkpt lat="41.39709" lon="0.60695">
        <ele>374.2</ele>
        <time>2020-10-31 09:48:01</time>
      </trkpt>
      <trkpt lat="41.39692" lon="0.60688">
        <ele>372.2</ele>
        <time>2020-10-31 09:48:03</time>
      </trkpt>
      <trkpt lat="41.39684" lon="0.60685">
        <ele>371</ele>
        <time>2020-10-31 09:48:04</time>
      </trkpt>
      <trkpt lat="41.39673" lon="0.6068">
        <ele>370.2</ele>
        <time>2020-10-31 09:48:06</time>
      </trkpt>
      <trkpt lat="41.3967" lon="0.60676">
        <ele>370</ele>
        <time>2020-10-31 09:48:07</time>
      </trkpt>
      <trkpt lat="41.39669" lon="0.60668">
        <ele>370</ele>
        <time>2020-10-31 09:48:09</time>
      </trkpt>
      <trkpt lat="41.39665" lon="0.60651">
        <ele>370</ele>
        <time>2020-10-31 09:48:14</time>
      </trkpt>
      <trkpt lat="41.39662" lon="0.60646">
        <ele>371.4</ele>
        <time>2020-10-31 09:48:16</time>
      </trkpt>
      <trkpt lat="41.39659" lon="0.60641">
        <ele>373</ele>
        <time>2020-10-31 09:48:18</time>
      </trkpt>
      <trkpt lat="41.39655" lon="0.60636">
        <ele>374.4</ele>
        <time>2020-10-31 09:48:20</time>
      </trkpt>
      <trkpt lat="41.39653" lon="0.60634">
        <ele>375.4</ele>
        <time>2020-10-31 09:48:21</time>
      </trkpt>
      <trkpt lat="41.39651" lon="0.60632">
        <ele>375.8</ele>
        <time>2020-10-31 09:48:22</time>
      </trkpt>
      <trkpt lat="41.39644" lon="0.60626">
        <ele>376.8</ele>
        <time>2020-10-31 09:48:25</time>
      </trkpt>
      <trkpt lat="41.39637" lon="0.60621">
        <ele>377.6</ele>
        <time>2020-10-31 09:48:28</time>
      </trkpt>
      <trkpt lat="41.39634" lon="0.60619">
        <ele>377.8</ele>
        <time>2020-10-31 09:48:29</time>
      </trkpt>
      <trkpt lat="41.39618" lon="0.60609">
        <ele>378.8</ele>
        <time>2020-10-31 09:48:35</time>
      </trkpt>
      <trkpt lat="41.39612" lon="0.60604">
        <ele>378.8</ele>
        <time>2020-10-31 09:48:38</time>
      </trkpt>
      <trkpt lat="41.39607" lon="0.60597">
        <ele>379.2</ele>
        <time>2020-10-31 09:48:41</time>
      </trkpt>
      <trkpt lat="41.39601" lon="0.60587">
        <ele>380</ele>
        <time>2020-10-31 09:48:45</time>
      </trkpt>
      <trkpt lat="41.39597" lon="0.60581">
        <ele>380.8</ele>
        <time>2020-10-31 09:48:48</time>
      </trkpt>
      <trkpt lat="41.39594" lon="0.60577">
        <ele>381.2</ele>
        <time>2020-10-31 09:48:50</time>
      </trkpt>
      <trkpt lat="41.3959" lon="0.60571">
        <ele>382.4</ele>
        <time>2020-10-31 09:48:53</time>
      </trkpt>
      <trkpt lat="41.39588" lon="0.60569">
        <ele>382.6</ele>
        <time>2020-10-31 09:48:54</time>
      </trkpt>
      <trkpt lat="41.39584" lon="0.60564">
        <ele>383.6</ele>
        <time>2020-10-31 09:48:57</time>
      </trkpt>
      <trkpt lat="41.39577" lon="0.60559">
        <ele>384.2</ele>
        <time>2020-10-31 09:49:01</time>
      </trkpt>
      <trkpt lat="41.39571" lon="0.60556">
        <ele>384.8</ele>
        <time>2020-10-31 09:49:04</time>
      </trkpt>
      <trkpt lat="41.39562" lon="0.60553">
        <ele>385.6</ele>
        <time>2020-10-31 09:49:09</time>
      </trkpt>
      <trkpt lat="41.3956" lon="0.60552">
        <ele>385.8</ele>
        <time>2020-10-31 09:49:10</time>
      </trkpt>
      <trkpt lat="41.39553" lon="0.60551">
        <ele>386.8</ele>
        <time>2020-10-31 09:49:14</time>
      </trkpt>
      <trkpt lat="41.39549" lon="0.60551">
        <ele>387.2</ele>
        <time>2020-10-31 09:49:16</time>
      </trkpt>
      <trkpt lat="41.39546" lon="0.6055">
        <ele>387.8</ele>
        <time>2020-10-31 09:49:18</time>
      </trkpt>
      <trkpt lat="41.3954" lon="0.6055">
        <ele>389</ele>
        <time>2020-10-31 09:49:21</time>
      </trkpt>
      <trkpt lat="41.39535" lon="0.60548">
        <ele>390.2</ele>
        <time>2020-10-31 09:49:24</time>
      </trkpt>
      <trkpt lat="41.39534" lon="0.60548">
        <ele>390.6</ele>
        <time>2020-10-31 09:49:25</time>
      </trkpt>
      <trkpt lat="41.39529" lon="0.60547">
        <ele>391.6</ele>
        <time>2020-10-31 09:49:28</time>
      </trkpt>
      <trkpt lat="41.39524" lon="0.60546">
        <ele>392.6</ele>
        <time>2020-10-31 09:49:31</time>
      </trkpt>
      <trkpt lat="41.39523" lon="0.60546">
        <ele>393</ele>
        <time>2020-10-31 09:49:32</time>
      </trkpt>
      <trkpt lat="41.39519" lon="0.60544">
        <ele>393.8</ele>
        <time>2020-10-31 09:49:35</time>
      </trkpt>
      <trkpt lat="41.39512" lon="0.60543">
        <ele>395</ele>
        <time>2020-10-31 09:49:39</time>
      </trkpt>
      <trkpt lat="41.39511" lon="0.60543">
        <ele>395.2</ele>
        <time>2020-10-31 09:49:40</time>
      </trkpt>
      <trkpt lat="41.39506" lon="0.60543">
        <ele>396</ele>
        <time>2020-10-31 09:49:43</time>
      </trkpt>
      <trkpt lat="41.39498" lon="0.60544">
        <ele>397.2</ele>
        <time>2020-10-31 09:49:48</time>
      </trkpt>
      <trkpt lat="41.39491" lon="0.60545">
        <ele>398.2</ele>
        <time>2020-10-31 09:49:52</time>
      </trkpt>
      <trkpt lat="41.39487" lon="0.60546">
        <ele>398.8</ele>
        <time>2020-10-31 09:49:55</time>
      </trkpt>
      <trkpt lat="41.39484" lon="0.60546">
        <ele>399.4</ele>
        <time>2020-10-31 09:49:57</time>
      </trkpt>
      <trkpt lat="41.39475" lon="0.60546">
        <ele>400.4</ele>
        <time>2020-10-31 09:50:02</time>
      </trkpt>
      <trkpt lat="41.39474" lon="0.60545">
        <ele>400.6</ele>
        <time>2020-10-31 09:50:03</time>
      </trkpt>
      <trkpt lat="41.39467" lon="0.60544">
        <ele>401.6</ele>
        <time>2020-10-31 09:50:07</time>
      </trkpt>
      <trkpt lat="41.3946" lon="0.60543">
        <ele>402.6</ele>
        <time>2020-10-31 09:50:11</time>
      </trkpt>
      <trkpt lat="41.39458" lon="0.60544">
        <ele>403</ele>
        <time>2020-10-31 09:50:12</time>
      </trkpt>
      <trkpt lat="41.3945" lon="0.60545">
        <ele>404</ele>
        <time>2020-10-31 09:50:17</time>
      </trkpt>
      <trkpt lat="41.39449" lon="0.60547">
        <ele>404.2</ele>
        <time>2020-10-31 09:50:18</time>
      </trkpt>
      <trkpt lat="41.39446" lon="0.60551">
        <ele>405.2</ele>
        <time>2020-10-31 09:50:21</time>
      </trkpt>
      <trkpt lat="41.39444" lon="0.60557">
        <ele>405.8</ele>
        <time>2020-10-31 09:50:24</time>
      </trkpt>
      <trkpt lat="41.39441" lon="0.60562">
        <ele>406.6</ele>
        <time>2020-10-31 09:50:27</time>
      </trkpt>
      <trkpt lat="41.39436" lon="0.60568">
        <ele>407.4</ele>
        <time>2020-10-31 09:50:31</time>
      </trkpt>
      <trkpt lat="41.39435" lon="0.60569">
        <ele>407.6</ele>
        <time>2020-10-31 09:50:32</time>
      </trkpt>
      <trkpt lat="41.39429" lon="0.60578">
        <ele>408.8</ele>
        <time>2020-10-31 09:50:37</time>
      </trkpt>
      <trkpt lat="41.39426" lon="0.60583">
        <ele>409.4</ele>
        <time>2020-10-31 09:50:40</time>
      </trkpt>
      <trkpt lat="41.39422" lon="0.60589">
        <ele>410</ele>
        <time>2020-10-31 09:50:43</time>
      </trkpt>
      <trkpt lat="41.39414" lon="0.60599">
        <ele>411</ele>
        <time>2020-10-31 09:50:49</time>
      </trkpt>
      <trkpt lat="41.39407" lon="0.60604">
        <ele>412</ele>
        <time>2020-10-31 09:50:53</time>
      </trkpt>
      <trkpt lat="41.39403" lon="0.60604">
        <ele>412.4</ele>
        <time>2020-10-31 09:50:55</time>
      </trkpt>
      <trkpt lat="41.39397" lon="0.60604">
        <ele>413.2</ele>
        <time>2020-10-31 09:50:58</time>
      </trkpt>
      <trkpt lat="41.39388" lon="0.60606">
        <ele>414.4</ele>
        <time>2020-10-31 09:51:02</time>
      </trkpt>
      <trkpt lat="41.39365" lon="0.60613">
        <ele>415.2</ele>
        <time>2020-10-31 09:51:10</time>
      </trkpt>
      <trkpt lat="41.39342" lon="0.60627">
        <ele>415.4</ele>
        <time>2020-10-31 09:51:18</time>
      </trkpt>
      <trkpt lat="41.39334" lon="0.60643">
        <ele>416</ele>
        <time>2020-10-31 09:51:23</time>
      </trkpt>
      <trkpt lat="41.3933" lon="0.60649">
        <ele>416.4</ele>
        <time>2020-10-31 09:51:25</time>
      </trkpt>
      <trkpt lat="41.39323" lon="0.60656">
        <ele>417.2</ele>
        <time>2020-10-31 09:51:28</time>
      </trkpt>
      <trkpt lat="41.39321" lon="0.60658">
        <ele>417.6</ele>
        <time>2020-10-31 09:51:29</time>
      </trkpt>
      <trkpt lat="41.39304" lon="0.60668">
        <ele>418.6</ele>
        <time>2020-10-31 09:51:35</time>
      </trkpt>
      <trkpt lat="41.39298" lon="0.60672">
        <ele>418.6</ele>
        <time>2020-10-31 09:51:37</time>
      </trkpt>
      <trkpt lat="41.39276" lon="0.60685">
        <ele>419</ele>
        <time>2020-10-31 09:51:44</time>
      </trkpt>
      <trkpt lat="41.39253" lon="0.6071">
        <ele>419.8</ele>
        <time>2020-10-31 09:51:52</time>
      </trkpt>
      <trkpt lat="41.39247" lon="0.60714">
        <ele>419.8</ele>
        <time>2020-10-31 09:51:54</time>
      </trkpt>
      <trkpt lat="41.39236" lon="0.60717">
        <ele>420.2</ele>
        <time>2020-10-31 09:51:57</time>
      </trkpt>
      <trkpt lat="41.39215" lon="0.60715">
        <ele>421</ele>
        <time>2020-10-31 09:52:03</time>
      </trkpt>
      <trkpt lat="41.39192" lon="0.60715">
        <ele>421.8</ele>
        <time>2020-10-31 09:52:10</time>
      </trkpt>
      <trkpt lat="41.39185" lon="0.60718">
        <ele>422</ele>
        <time>2020-10-31 09:52:12</time>
      </trkpt>
      <trkpt lat="41.39176" lon="0.60723">
        <ele>422.2</ele>
        <time>2020-10-31 09:52:15</time>
      </trkpt>
      <trkpt lat="41.39163" lon="0.60728">
        <ele>423</ele>
        <time>2020-10-31 09:52:19</time>
      </trkpt>
      <trkpt lat="41.39157" lon="0.60726">
        <ele>423.4</ele>
        <time>2020-10-31 09:52:21</time>
      </trkpt>
      <trkpt lat="41.39146" lon="0.60719">
        <ele>424.2</ele>
        <time>2020-10-31 09:52:25</time>
      </trkpt>
      <trkpt lat="41.39138" lon="0.60712">
        <ele>424.6</ele>
        <time>2020-10-31 09:52:28</time>
      </trkpt>
      <trkpt lat="41.3913" lon="0.60707">
        <ele>425.2</ele>
        <time>2020-10-31 09:52:31</time>
      </trkpt>
      <trkpt lat="41.3912" lon="0.607">
        <ele>425.8</ele>
        <time>2020-10-31 09:52:35</time>
      </trkpt>
      <trkpt lat="41.39117" lon="0.60695">
        <ele>426.4</ele>
        <time>2020-10-31 09:52:37</time>
      </trkpt>
      <trkpt lat="41.39114" lon="0.60687">
        <ele>427.2</ele>
        <time>2020-10-31 09:52:39</time>
      </trkpt>
      <trkpt lat="41.39114" lon="0.60684">
        <ele>427.4</ele>
        <time>2020-10-31 09:52:40</time>
      </trkpt>
      <trkpt lat="41.39115" lon="0.60669">
        <ele>428.4</ele>
        <time>2020-10-31 09:52:44</time>
      </trkpt>
      <trkpt lat="41.39115" lon="0.60665">
        <ele>428.6</ele>
        <time>2020-10-31 09:52:45</time>
      </trkpt>
      <trkpt lat="41.39113" lon="0.60649">
        <ele>430</ele>
        <time>2020-10-31 09:52:49</time>
      </trkpt>
      <trkpt lat="41.3911" lon="0.60642">
        <ele>430.4</ele>
        <time>2020-10-31 09:52:51</time>
      </trkpt>
      <trkpt lat="41.391" lon="0.60615">
        <ele>430.8</ele>
        <time>2020-10-31 09:52:58</time>
      </trkpt>
      <trkpt lat="41.39099" lon="0.60595">
        <ele>430.8</ele>
        <time>2020-10-31 09:53:02</time>
      </trkpt>
      <trkpt lat="41.39097" lon="0.6059">
        <ele>430.8</ele>
        <time>2020-10-31 09:53:03</time>
      </trkpt>
      <trkpt lat="41.39087" lon="0.60576">
        <ele>430.8</ele>
        <time>2020-10-31 09:53:06</time>
      </trkpt>
      <trkpt lat="41.39084" lon="0.60571">
        <ele>430.8</ele>
        <time>2020-10-31 09:53:07</time>
      </trkpt>
      <trkpt lat="41.39076" lon="0.60548">
        <ele>430.6</ele>
        <time>2020-10-31 09:53:11</time>
      </trkpt>
      <trkpt lat="41.39075" lon="0.60543">
        <ele>430.6</ele>
        <time>2020-10-31 09:53:12</time>
      </trkpt>
      <trkpt lat="41.39077" lon="0.60525">
        <ele>430.6</ele>
        <time>2020-10-31 09:53:16</time>
      </trkpt>
      <trkpt lat="41.39082" lon="0.6051">
        <ele>430.6</ele>
        <time>2020-10-31 09:53:19</time>
      </trkpt>
      <trkpt lat="41.39084" lon="0.60496">
        <ele>430.6</ele>
        <time>2020-10-31 09:53:21</time>
      </trkpt>
      <trkpt lat="41.39094" lon="0.60463">
        <ele>430.6</ele>
        <time>2020-10-31 09:53:25</time>
      </trkpt>
      <trkpt lat="41.39097" lon="0.60443">
        <ele>430.6</ele>
        <time>2020-10-31 09:53:27</time>
      </trkpt>
      <trkpt lat="41.39098" lon="0.60421">
        <ele>430.6</ele>
        <time>2020-10-31 09:53:29</time>
      </trkpt>
      <trkpt lat="41.39102" lon="0.60371">
        <ele>428.8</ele>
        <time>2020-10-31 09:53:34</time>
      </trkpt>
      <trkpt lat="41.39103" lon="0.60363">
        <ele>428</ele>
        <time>2020-10-31 09:53:35</time>
      </trkpt>
      <trkpt lat="41.39104" lon="0.60356">
        <ele>427.2</ele>
        <time>2020-10-31 09:53:36</time>
      </trkpt>
      <trkpt lat="41.39106" lon="0.60335">
        <ele>426.4</ele>
        <time>2020-10-31 09:53:39</time>
      </trkpt>
      <trkpt lat="41.39106" lon="0.60328">
        <ele>426.4</ele>
        <time>2020-10-31 09:53:40</time>
      </trkpt>
      <trkpt lat="41.39103" lon="0.60308">
        <ele>426.2</ele>
        <time>2020-10-31 09:53:43</time>
      </trkpt>
      <trkpt lat="41.39102" lon="0.60294">
        <ele>426</ele>
        <time>2020-10-31 09:53:45</time>
      </trkpt>
      <trkpt lat="41.39102" lon="0.60286">
        <ele>426</ele>
        <time>2020-10-31 09:53:46</time>
      </trkpt>
      <trkpt lat="41.39105" lon="0.60246">
        <ele>425.6</ele>
        <time>2020-10-31 09:53:51</time>
      </trkpt>
      <trkpt lat="41.39109" lon="0.60204">
        <ele>425.4</ele>
        <time>2020-10-31 09:53:56</time>
      </trkpt>
      <trkpt lat="41.3911" lon="0.60196">
        <ele>425.2</ele>
        <time>2020-10-31 09:53:57</time>
      </trkpt>
      <trkpt lat="41.39121" lon="0.60149">
        <ele>424</ele>
        <time>2020-10-31 09:54:03</time>
      </trkpt>
      <trkpt lat="41.39122" lon="0.60141">
        <ele>423.8</ele>
        <time>2020-10-31 09:54:04</time>
      </trkpt>
      <trkpt lat="41.39123" lon="0.60125">
        <ele>423.8</ele>
        <time>2020-10-31 09:54:06</time>
      </trkpt>
      <trkpt lat="41.39119" lon="0.6011">
        <ele>423.6</ele>
        <time>2020-10-31 09:54:08</time>
      </trkpt>
      <trkpt lat="41.39103" lon="0.60092">
        <ele>423.4</ele>
        <time>2020-10-31 09:54:12</time>
      </trkpt>
      <trkpt lat="41.39083" lon="0.60082">
        <ele>423.6</ele>
        <time>2020-10-31 09:54:17</time>
      </trkpt>
      <trkpt lat="41.39068" lon="0.60064">
        <ele>424.6</ele>
        <time>2020-10-31 09:54:22</time>
      </trkpt>
      <trkpt lat="41.39062" lon="0.60055">
        <ele>425.2</ele>
        <time>2020-10-31 09:54:24</time>
      </trkpt>
      <trkpt lat="41.39054" lon="0.60041">
        <ele>425.6</ele>
        <time>2020-10-31 09:54:27</time>
      </trkpt>
      <trkpt lat="41.39048" lon="0.60032">
        <ele>426</ele>
        <time>2020-10-31 09:54:29</time>
      </trkpt>
      <trkpt lat="41.39044" lon="0.60028">
        <ele>426.2</ele>
        <time>2020-10-31 09:54:30</time>
      </trkpt>
      <trkpt lat="41.39019" lon="0.59998">
        <ele>426.4</ele>
        <time>2020-10-31 09:54:38</time>
      </trkpt>
      <trkpt lat="41.38996" lon="0.59986">
        <ele>427.2</ele>
        <time>2020-10-31 09:54:45</time>
      </trkpt>
      <trkpt lat="41.38983" lon="0.59987">
        <ele>427.4</ele>
        <time>2020-10-31 09:54:50</time>
      </trkpt>
      <trkpt lat="41.38978" lon="0.60003">
        <ele>427.2</ele>
        <time>2020-10-31 09:54:54</time>
      </trkpt>
      <trkpt lat="41.38979" lon="0.60047">
        <ele>426.6</ele>
        <time>2020-10-31 09:55:02</time>
      </trkpt>
      <trkpt lat="41.38981" lon="0.6011">
        <ele>427.6</ele>
        <time>2020-10-31 09:55:13</time>
      </trkpt>
      <trkpt lat="41.38982" lon="0.60156">
        <ele>428.6</ele>
        <time>2020-10-31 09:55:21</time>
      </trkpt>
      <trkpt lat="41.38982" lon="0.60173">
        <ele>428.8</ele>
        <time>2020-10-31 09:55:24</time>
      </trkpt>
      <trkpt lat="41.38982" lon="0.60202">
        <ele>429.6</ele>
        <time>2020-10-31 09:55:29</time>
      </trkpt>
      <trkpt lat="41.38979" lon="0.60223">
        <ele>429.8</ele>
        <time>2020-10-31 09:55:33</time>
      </trkpt>
      <trkpt lat="41.38977" lon="0.60229">
        <ele>429.8</ele>
        <time>2020-10-31 09:55:34</time>
      </trkpt>
      <trkpt lat="41.38967" lon="0.60247">
        <ele>430.2</ele>
        <time>2020-10-31 09:55:38</time>
      </trkpt>
      <trkpt lat="41.38961" lon="0.60254">
        <ele>430.4</ele>
        <time>2020-10-31 09:55:40</time>
      </trkpt>
      <trkpt lat="41.38954" lon="0.6026">
        <ele>430.4</ele>
        <time>2020-10-31 09:55:42</time>
      </trkpt>
      <trkpt lat="41.38937" lon="0.60277">
        <ele>431.4</ele>
        <time>2020-10-31 09:55:47</time>
      </trkpt>
      <trkpt lat="41.38934" lon="0.6028">
        <ele>431.4</ele>
        <time>2020-10-31 09:55:48</time>
      </trkpt>
      <trkpt lat="41.3891" lon="0.60294">
        <ele>432.2</ele>
        <time>2020-10-31 09:55:54</time>
      </trkpt>
      <trkpt lat="41.38892" lon="0.60292">
        <ele>432.4</ele>
        <time>2020-10-31 09:55:58</time>
      </trkpt>
      <trkpt lat="41.38887" lon="0.60291">
        <ele>432.6</ele>
        <time>2020-10-31 09:55:59</time>
      </trkpt>
      <trkpt lat="41.38879" lon="0.60287">
        <ele>432.8</ele>
        <time>2020-10-31 09:56:01</time>
      </trkpt>
      <trkpt lat="41.38858" lon="0.60278">
        <ele>433.4</ele>
        <time>2020-10-31 09:56:06</time>
      </trkpt>
      <trkpt lat="41.38845" lon="0.60272">
        <ele>433.6</ele>
        <time>2020-10-31 09:56:09</time>
      </trkpt>
      <trkpt lat="41.38838" lon="0.60266">
        <ele>433.8</ele>
        <time>2020-10-31 09:56:11</time>
      </trkpt>
      <trkpt lat="41.38834" lon="0.60262">
        <ele>434</ele>
        <time>2020-10-31 09:56:12</time>
      </trkpt>
      <trkpt lat="41.3883" lon="0.60258">
        <ele>434.2</ele>
        <time>2020-10-31 09:56:13</time>
      </trkpt>
      <trkpt lat="41.3882" lon="0.60246">
        <ele>434.8</ele>
        <time>2020-10-31 09:56:16</time>
      </trkpt>
      <trkpt lat="41.3881" lon="0.60233">
        <ele>435</ele>
        <time>2020-10-31 09:56:19</time>
      </trkpt>
      <trkpt lat="41.38792" lon="0.60208">
        <ele>436</ele>
        <time>2020-10-31 09:56:25</time>
      </trkpt>
      <trkpt lat="41.38786" lon="0.602">
        <ele>436.4</ele>
        <time>2020-10-31 09:56:27</time>
      </trkpt>
      <trkpt lat="41.38774" lon="0.60187">
        <ele>437.2</ele>
        <time>2020-10-31 09:56:31</time>
      </trkpt>
      <trkpt lat="41.38763" lon="0.60179">
        <ele>438</ele>
        <time>2020-10-31 09:56:34</time>
      </trkpt>
      <trkpt lat="41.38756" lon="0.60175">
        <ele>438.4</ele>
        <time>2020-10-31 09:56:36</time>
      </trkpt>
      <trkpt lat="41.3874" lon="0.60169">
        <ele>439.6</ele>
        <time>2020-10-31 09:56:40</time>
      </trkpt>
      <trkpt lat="41.38729" lon="0.60166">
        <ele>440.4</ele>
        <time>2020-10-31 09:56:43</time>
      </trkpt>
      <trkpt lat="41.38725" lon="0.60166">
        <ele>440.8</ele>
        <time>2020-10-31 09:56:44</time>
      </trkpt>
      <trkpt lat="41.3871" lon="0.60164">
        <ele>442</ele>
        <time>2020-10-31 09:56:48</time>
      </trkpt>
      <trkpt lat="41.38698" lon="0.60166">
        <ele>442.6</ele>
        <time>2020-10-31 09:56:51</time>
      </trkpt>
      <trkpt lat="41.38691" lon="0.60167">
        <ele>443.2</ele>
        <time>2020-10-31 09:56:53</time>
      </trkpt>
      <trkpt lat="41.38677" lon="0.60174">
        <ele>444</ele>
        <time>2020-10-31 09:56:57</time>
      </trkpt>
      <trkpt lat="41.38674" lon="0.60176">
        <ele>444.2</ele>
        <time>2020-10-31 09:56:58</time>
      </trkpt>
      <trkpt lat="41.38661" lon="0.60184">
        <ele>445.2</ele>
        <time>2020-10-31 09:57:02</time>
      </trkpt>
      <trkpt lat="41.38647" lon="0.60194">
        <ele>446.4</ele>
        <time>2020-10-31 09:57:06</time>
      </trkpt>
      <trkpt lat="41.38631" lon="0.60206">
        <ele>447.4</ele>
        <time>2020-10-31 09:57:11</time>
      </trkpt>
      <trkpt lat="41.38616" lon="0.60219">
        <ele>448.8</ele>
        <time>2020-10-31 09:57:16</time>
      </trkpt>
      <trkpt lat="41.38604" lon="0.60233">
        <ele>450</ele>
        <time>2020-10-31 09:57:21</time>
      </trkpt>
      <trkpt lat="41.38598" lon="0.60243">
        <ele>450.6</ele>
        <time>2020-10-31 09:57:24</time>
      </trkpt>
      <trkpt lat="41.38595" lon="0.60251">
        <ele>451.2</ele>
        <time>2020-10-31 09:57:26</time>
      </trkpt>
      <trkpt lat="41.38586" lon="0.60267">
        <ele>452</ele>
        <time>2020-10-31 09:57:31</time>
      </trkpt>
      <trkpt lat="41.38576" lon="0.60261">
        <ele>452</ele>
        <time>2020-10-31 09:57:34</time>
      </trkpt>
      <trkpt lat="41.38568" lon="0.60245">
        <ele>452</ele>
        <time>2020-10-31 09:57:37</time>
      </trkpt>
      <trkpt lat="41.38566" lon="0.60239">
        <ele>452</ele>
        <time>2020-10-31 09:57:38</time>
      </trkpt>
      <trkpt lat="41.38564" lon="0.60233">
        <ele>452</ele>
        <time>2020-10-31 09:57:39</time>
      </trkpt>
      <trkpt lat="41.38557" lon="0.60204">
        <ele>451.4</ele>
        <time>2020-10-31 09:57:43</time>
      </trkpt>
      <trkpt lat="41.38555" lon="0.60197">
        <ele>451.2</ele>
        <time>2020-10-31 09:57:44</time>
      </trkpt>
      <trkpt lat="41.38551" lon="0.60184">
        <ele>450.6</ele>
        <time>2020-10-31 09:57:46</time>
      </trkpt>
      <trkpt lat="41.38548" lon="0.60171">
        <ele>450.2</ele>
        <time>2020-10-31 09:57:48</time>
      </trkpt>
      <trkpt lat="41.38534" lon="0.60118">
        <ele>449.8</ele>
        <time>2020-10-31 09:57:56</time>
      </trkpt>
      <trkpt lat="41.38528" lon="0.60091">
        <ele>449.8</ele>
        <time>2020-10-31 09:58:00</time>
      </trkpt>
      <trkpt lat="41.38526" lon="0.60077">
        <ele>449.8</ele>
        <time>2020-10-31 09:58:02</time>
      </trkpt>
      <trkpt lat="41.38524" lon="0.60035">
        <ele>449.8</ele>
        <time>2020-10-31 09:58:08</time>
      </trkpt>
      <trkpt lat="41.38522" lon="0.59991">
        <ele>449.6</ele>
        <time>2020-10-31 09:58:14</time>
      </trkpt>
      <trkpt lat="41.38519" lon="0.59939">
        <ele>449</ele>
        <time>2020-10-31 09:58:21</time>
      </trkpt>
      <trkpt lat="41.38518" lon="0.59924">
        <ele>449</ele>
        <time>2020-10-31 09:58:23</time>
      </trkpt>
      <trkpt lat="41.38513" lon="0.59869">
        <ele>448.6</ele>
        <time>2020-10-31 09:58:31</time>
      </trkpt>
      <trkpt lat="41.38515" lon="0.59847">
        <ele>448.6</ele>
        <time>2020-10-31 09:58:35</time>
      </trkpt>
      <trkpt lat="41.38513" lon="0.5981">
        <ele>448.8</ele>
        <time>2020-10-31 09:58:42</time>
      </trkpt>
      <trkpt lat="41.38512" lon="0.59792">
        <ele>449.2</ele>
        <time>2020-10-31 09:58:45</time>
      </trkpt>
      <trkpt lat="41.38516" lon="0.59773">
        <ele>449.2</ele>
        <time>2020-10-31 09:58:48</time>
      </trkpt>
      <trkpt lat="41.38518" lon="0.59768">
        <ele>449.2</ele>
        <time>2020-10-31 09:58:49</time>
      </trkpt>
      <trkpt lat="41.38521" lon="0.59756">
        <ele>449.2</ele>
        <time>2020-10-31 09:58:51</time>
      </trkpt>
      <trkpt lat="41.38522" lon="0.59744">
        <ele>449.2</ele>
        <time>2020-10-31 09:58:53</time>
      </trkpt>
      <trkpt lat="41.38514" lon="0.59728">
        <ele>449.2</ele>
        <time>2020-10-31 09:58:56</time>
      </trkpt>
      <trkpt lat="41.38511" lon="0.59724">
        <ele>449.2</ele>
        <time>2020-10-31 09:58:57</time>
      </trkpt>
      <trkpt lat="41.38496" lon="0.59708">
        <ele>449</ele>
        <time>2020-10-31 09:59:01</time>
      </trkpt>
      <trkpt lat="41.38493" lon="0.59704">
        <ele>448.8</ele>
        <time>2020-10-31 09:59:02</time>
      </trkpt>
      <trkpt lat="41.38481" lon="0.59681">
        <ele>448.8</ele>
        <time>2020-10-31 09:59:06</time>
      </trkpt>
      <trkpt lat="41.38477" lon="0.59668">
        <ele>448.8</ele>
        <time>2020-10-31 09:59:08</time>
      </trkpt>
      <trkpt lat="41.38476" lon="0.59633">
        <ele>448.6</ele>
        <time>2020-10-31 09:59:13</time>
      </trkpt>
      <trkpt lat="41.38475" lon="0.59625">
        <ele>448.6</ele>
        <time>2020-10-31 09:59:14</time>
      </trkpt>
      <trkpt lat="41.38469" lon="0.59611">
        <ele>448.2</ele>
        <time>2020-10-31 09:59:16</time>
      </trkpt>
      <trkpt lat="41.38461" lon="0.59601">
        <ele>448</ele>
        <time>2020-10-31 09:59:18</time>
      </trkpt>
      <trkpt lat="41.38457" lon="0.59594">
        <ele>447.8</ele>
        <time>2020-10-31 09:59:19</time>
      </trkpt>
      <trkpt lat="41.38453" lon="0.59587">
        <ele>447.6</ele>
        <time>2020-10-31 09:59:20</time>
      </trkpt>
      <trkpt lat="41.38444" lon="0.59562">
        <ele>447</ele>
        <time>2020-10-31 09:59:23</time>
      </trkpt>
      <trkpt lat="41.38433" lon="0.59534">
        <ele>446.2</ele>
        <time>2020-10-31 09:59:26</time>
      </trkpt>
      <trkpt lat="41.38429" lon="0.59525">
        <ele>445.6</ele>
        <time>2020-10-31 09:59:27</time>
      </trkpt>
      <trkpt lat="41.38425" lon="0.59515">
        <ele>445</ele>
        <time>2020-10-31 09:59:28</time>
      </trkpt>
      <trkpt lat="41.38422" lon="0.59505">
        <ele>444.6</ele>
        <time>2020-10-31 09:59:29</time>
      </trkpt>
      <trkpt lat="41.38421" lon="0.59494">
        <ele>444</ele>
        <time>2020-10-31 09:59:30</time>
      </trkpt>
      <trkpt lat="41.3842" lon="0.59483">
        <ele>443.4</ele>
        <time>2020-10-31 09:59:31</time>
      </trkpt>
      <trkpt lat="41.3842" lon="0.59472">
        <ele>442.8</ele>
        <time>2020-10-31 09:59:32</time>
      </trkpt>
      <trkpt lat="41.38421" lon="0.59451">
        <ele>442.2</ele>
        <time>2020-10-31 09:59:34</time>
      </trkpt>
      <trkpt lat="41.38421" lon="0.59432">
        <ele>441</ele>
        <time>2020-10-31 09:59:36</time>
      </trkpt>
      <trkpt lat="41.38419" lon="0.59415">
        <ele>439.6</ele>
        <time>2020-10-31 09:59:38</time>
      </trkpt>
      <trkpt lat="41.38408" lon="0.59399">
        <ele>438.4</ele>
        <time>2020-10-31 09:59:41</time>
      </trkpt>
      <trkpt lat="41.38403" lon="0.59396">
        <ele>438.2</ele>
        <time>2020-10-31 09:59:42</time>
      </trkpt>
      <trkpt lat="41.38386" lon="0.59387">
        <ele>437.4</ele>
        <time>2020-10-31 09:59:45</time>
      </trkpt>
      <trkpt lat="41.3838" lon="0.59385">
        <ele>437</ele>
        <time>2020-10-31 09:59:46</time>
      </trkpt>
      <trkpt lat="41.38374" lon="0.59383">
        <ele>436.6</ele>
        <time>2020-10-31 09:59:47</time>
      </trkpt>
      <trkpt lat="41.38368" lon="0.59381">
        <ele>436.4</ele>
        <time>2020-10-31 09:59:48</time>
      </trkpt>
      <trkpt lat="41.38342" lon="0.59373">
        <ele>435.2</ele>
        <time>2020-10-31 09:59:52</time>
      </trkpt>
      <trkpt lat="41.3833" lon="0.59369">
        <ele>434.6</ele>
        <time>2020-10-31 09:59:54</time>
      </trkpt>
      <trkpt lat="41.38324" lon="0.59366">
        <ele>434.2</ele>
        <time>2020-10-31 09:59:55</time>
      </trkpt>
      <trkpt lat="41.38307" lon="0.59359">
        <ele>432.6</ele>
        <time>2020-10-31 09:59:58</time>
      </trkpt>
      <trkpt lat="41.38299" lon="0.59353">
        <ele>432</ele>
        <time>2020-10-31 10:00:00</time>
      </trkpt>
      <trkpt lat="41.38295" lon="0.59351">
        <ele>431.6</ele>
        <time>2020-10-31 10:00:01</time>
      </trkpt>
      <trkpt lat="41.3828" lon="0.59342">
        <ele>431.4</ele>
        <time>2020-10-31 10:00:06</time>
      </trkpt>
      <trkpt lat="41.38264" lon="0.59333">
        <ele>431.4</ele>
        <time>2020-10-31 10:00:13</time>
      </trkpt>
      <trkpt lat="41.3825" lon="0.59323">
        <ele>432.2</ele>
        <time>2020-10-31 10:00:20</time>
      </trkpt>
      <trkpt lat="41.38241" lon="0.59318">
        <ele>432.8</ele>
        <time>2020-10-31 10:00:23</time>
      </trkpt>
      <trkpt lat="41.38229" lon="0.5931">
        <ele>433.8</ele>
        <time>2020-10-31 10:00:27</time>
      </trkpt>
      <trkpt lat="41.38225" lon="0.59308">
        <ele>434.2</ele>
        <time>2020-10-31 10:00:28</time>
      </trkpt>
      <trkpt lat="41.38205" lon="0.59296">
        <ele>435</ele>
        <time>2020-10-31 10:00:34</time>
      </trkpt>
      <trkpt lat="41.38198" lon="0.59292">
        <ele>435.4</ele>
        <time>2020-10-31 10:00:36</time>
      </trkpt>
      <trkpt lat="41.38188" lon="0.59283">
        <ele>436.2</ele>
        <time>2020-10-31 10:00:40</time>
      </trkpt>
      <trkpt lat="41.38186" lon="0.5928">
        <ele>436.6</ele>
        <time>2020-10-31 10:00:41</time>
      </trkpt>
      <trkpt lat="41.38182" lon="0.5927">
        <ele>437.4</ele>
        <time>2020-10-31 10:00:44</time>
      </trkpt>
      <trkpt lat="41.38176" lon="0.59254">
        <ele>438.6</ele>
        <time>2020-10-31 10:00:48</time>
      </trkpt>
      <trkpt lat="41.38172" lon="0.59223">
        <ele>439.4</ele>
        <time>2020-10-31 10:00:55</time>
      </trkpt>
      <trkpt lat="41.38172" lon="0.59218">
        <ele>439.6</ele>
        <time>2020-10-31 10:00:56</time>
      </trkpt>
      <trkpt lat="41.3817" lon="0.59188">
        <ele>439.8</ele>
        <time>2020-10-31 10:01:02</time>
      </trkpt>
      <trkpt lat="41.38171" lon="0.59144">
        <ele>439.6</ele>
        <time>2020-10-31 10:01:11</time>
      </trkpt>
      <trkpt lat="41.38168" lon="0.59111">
        <ele>439.4</ele>
        <time>2020-10-31 10:01:17</time>
      </trkpt>
      <trkpt lat="41.38165" lon="0.59087">
        <ele>438.4</ele>
        <time>2020-10-31 10:01:22</time>
      </trkpt>
      <trkpt lat="41.38161" lon="0.59074">
        <ele>438</ele>
        <time>2020-10-31 10:01:25</time>
      </trkpt>
      <trkpt lat="41.38152" lon="0.59048">
        <ele>437.6</ele>
        <time>2020-10-31 10:01:32</time>
      </trkpt>
      <trkpt lat="41.3815" lon="0.59033">
        <ele>437.4</ele>
        <time>2020-10-31 10:01:34</time>
      </trkpt>
      <trkpt lat="41.38148" lon="0.59014">
        <ele>436.8</ele>
        <time>2020-10-31 10:01:38</time>
      </trkpt>
      <trkpt lat="41.38146" lon="0.58996">
        <ele>436.4</ele>
        <time>2020-10-31 10:01:42</time>
      </trkpt>
      <trkpt lat="41.38146" lon="0.58992">
        <ele>436.2</ele>
        <time>2020-10-31 10:01:43</time>
      </trkpt>
      <trkpt lat="41.38143" lon="0.58957">
        <ele>435.8</ele>
        <time>2020-10-31 10:01:49</time>
      </trkpt>
      <trkpt lat="41.3814" lon="0.58933">
        <ele>435.8</ele>
        <time>2020-10-31 10:01:52</time>
      </trkpt>
      <trkpt lat="41.38139" lon="0.58915">
        <ele>435.8</ele>
        <time>2020-10-31 10:01:54</time>
      </trkpt>
      <trkpt lat="41.38136" lon="0.58867">
        <ele>435.6</ele>
        <time>2020-10-31 10:01:59</time>
      </trkpt>
      <trkpt lat="41.38134" lon="0.58828">
        <ele>435.6</ele>
        <time>2020-10-31 10:02:03</time>
      </trkpt>
      <trkpt lat="41.38133" lon="0.58819">
        <ele>435.6</ele>
        <time>2020-10-31 10:02:04</time>
      </trkpt>
      <trkpt lat="41.38131" lon="0.588">
        <ele>435.4</ele>
        <time>2020-10-31 10:02:06</time>
      </trkpt>
      <trkpt lat="41.38124" lon="0.58775">
        <ele>435.4</ele>
        <time>2020-10-31 10:02:09</time>
      </trkpt>
      <trkpt lat="41.38113" lon="0.58753">
        <ele>435.4</ele>
        <time>2020-10-31 10:02:12</time>
      </trkpt>
      <trkpt lat="41.38109" lon="0.58744">
        <ele>435.2</ele>
        <time>2020-10-31 10:02:13</time>
      </trkpt>
      <trkpt lat="41.38105" lon="0.58735">
        <ele>435.2</ele>
        <time>2020-10-31 10:02:14</time>
      </trkpt>
      <trkpt lat="41.38102" lon="0.58705">
        <ele>435.2</ele>
        <time>2020-10-31 10:02:17</time>
      </trkpt>
      <trkpt lat="41.38094" lon="0.58644">
        <ele>434</ele>
        <time>2020-10-31 10:02:23</time>
      </trkpt>
      <trkpt lat="41.38089" lon="0.58613">
        <ele>432.6</ele>
        <time>2020-10-31 10:02:26</time>
      </trkpt>
      <trkpt lat="41.38081" lon="0.58573">
        <ele>431.8</ele>
        <time>2020-10-31 10:02:30</time>
      </trkpt>
      <trkpt lat="41.38079" lon="0.58563">
        <ele>431.4</ele>
        <time>2020-10-31 10:02:31</time>
      </trkpt>
      <trkpt lat="41.3807" lon="0.58505">
        <ele>430.2</ele>
        <time>2020-10-31 10:02:37</time>
      </trkpt>
      <trkpt lat="41.38068" lon="0.58496">
        <ele>430.2</ele>
        <time>2020-10-31 10:02:38</time>
      </trkpt>
      <trkpt lat="41.38062" lon="0.58408">
        <ele>429.6</ele>
        <time>2020-10-31 10:02:47</time>
      </trkpt>
      <trkpt lat="41.38061" lon="0.58389">
        <ele>429.2</ele>
        <time>2020-10-31 10:02:49</time>
      </trkpt>
      <trkpt lat="41.38059" lon="0.58334">
        <ele>428.8</ele>
        <time>2020-10-31 10:02:55</time>
      </trkpt>
      <trkpt lat="41.38053" lon="0.583">
        <ele>428.8</ele>
        <time>2020-10-31 10:02:59</time>
      </trkpt>
      <trkpt lat="41.3805" lon="0.58292">
        <ele>428.8</ele>
        <time>2020-10-31 10:03:00</time>
      </trkpt>
      <trkpt lat="41.38033" lon="0.58258">
        <ele>428.8</ele>
        <time>2020-10-31 10:03:06</time>
      </trkpt>
      <trkpt lat="41.38019" lon="0.58227">
        <ele>429.2</ele>
        <time>2020-10-31 10:03:11</time>
      </trkpt>
      <trkpt lat="41.38013" lon="0.58216">
        <ele>429.2</ele>
        <time>2020-10-31 10:03:12</time>
      </trkpt>
      <trkpt lat="41.38" lon="0.58193">
        <ele>429.4</ele>
        <time>2020-10-31 10:03:16</time>
      </trkpt>
      <trkpt lat="41.37998" lon="0.58186">
        <ele>429.8</ele>
        <time>2020-10-31 10:03:17</time>
      </trkpt>
      <trkpt lat="41.37996" lon="0.5818">
        <ele>430</ele>
        <time>2020-10-31 10:03:18</time>
      </trkpt>
      <trkpt lat="41.37992" lon="0.58158">
        <ele>430.2</ele>
        <time>2020-10-31 10:03:21</time>
      </trkpt>
      <trkpt lat="41.37988" lon="0.58143">
        <ele>430.4</ele>
        <time>2020-10-31 10:03:23</time>
      </trkpt>
      <trkpt lat="41.37984" lon="0.58131">
        <ele>430.4</ele>
        <time>2020-10-31 10:03:26</time>
      </trkpt>
      <trkpt lat="41.37982" lon="0.58125">
        <ele>430.6</ele>
        <time>2020-10-31 10:03:27</time>
      </trkpt>
      <trkpt lat="41.37971" lon="0.58085">
        <ele>432</ele>
        <time>2020-10-31 10:03:34</time>
      </trkpt>
      <trkpt lat="41.37966" lon="0.58056">
        <ele>433.2</ele>
        <time>2020-10-31 10:03:38</time>
      </trkpt>
      <trkpt lat="41.37966" lon="0.5804">
        <ele>434</ele>
        <time>2020-10-31 10:03:41</time>
      </trkpt>
      <trkpt lat="41.37965" lon="0.58035">
        <ele>434.4</ele>
        <time>2020-10-31 10:03:43</time>
      </trkpt>
      <trkpt lat="41.37966" lon="0.58004">
        <ele>435.4</ele>
        <time>2020-10-31 10:03:48</time>
      </trkpt>
      <trkpt lat="41.37966" lon="0.57994">
        <ele>436.2</ele>
        <time>2020-10-31 10:03:50</time>
      </trkpt>
      <trkpt lat="41.37966" lon="0.57989">
        <ele>436.6</ele>
        <time>2020-10-31 10:03:52</time>
      </trkpt>
      <trkpt lat="41.37966" lon="0.57967">
        <ele>437.6</ele>
        <time>2020-10-31 10:03:56</time>
      </trkpt>
      <trkpt lat="41.37964" lon="0.57943">
        <ele>438.6</ele>
        <time>2020-10-31 10:03:59</time>
      </trkpt>
      <trkpt lat="41.37963" lon="0.57937">
        <ele>438.6</ele>
        <time>2020-10-31 10:04:00</time>
      </trkpt>
      <trkpt lat="41.37961" lon="0.57926">
        <ele>438.8</ele>
        <time>2020-10-31 10:04:02</time>
      </trkpt>
      <trkpt lat="41.37955" lon="0.57912">
        <ele>438.8</ele>
        <time>2020-10-31 10:04:05</time>
      </trkpt>
      <trkpt lat="41.37952" lon="0.57907">
        <ele>438.8</ele>
        <time>2020-10-31 10:04:06</time>
      </trkpt>
      <trkpt lat="41.37937" lon="0.57886">
        <ele>440</ele>
        <time>2020-10-31 10:04:11</time>
      </trkpt>
      <trkpt lat="41.37934" lon="0.57882">
        <ele>440.2</ele>
        <time>2020-10-31 10:04:12</time>
      </trkpt>
      <trkpt lat="41.37909" lon="0.57855">
        <ele>440.4</ele>
        <time>2020-10-31 10:04:19</time>
      </trkpt>
      <trkpt lat="41.37878" lon="0.57817">
        <ele>440.4</ele>
        <time>2020-10-31 10:04:29</time>
      </trkpt>
      <trkpt lat="41.37861" lon="0.57784">
        <ele>440.6</ele>
        <time>2020-10-31 10:04:35</time>
      </trkpt>
      <trkpt lat="41.37851" lon="0.57758">
        <ele>440.6</ele>
        <time>2020-10-31 10:04:38</time>
      </trkpt>
      <trkpt lat="41.37847" lon="0.57744">
        <ele>440.6</ele>
        <time>2020-10-31 10:04:40</time>
      </trkpt>
      <trkpt lat="41.3783" lon="0.57695">
        <ele>440.4</ele>
        <time>2020-10-31 10:04:47</time>
      </trkpt>
      <trkpt lat="41.37813" lon="0.57652">
        <ele>440.2</ele>
        <time>2020-10-31 10:04:53</time>
      </trkpt>
      <trkpt lat="41.37796" lon="0.57607">
        <ele>439.8</ele>
        <time>2020-10-31 10:04:59</time>
      </trkpt>
      <trkpt lat="41.37793" lon="0.576">
        <ele>439.6</ele>
        <time>2020-10-31 10:05:00</time>
      </trkpt>
      <trkpt lat="41.37765" lon="0.57554">
        <ele>439.2</ele>
        <time>2020-10-31 10:05:07</time>
      </trkpt>
      <trkpt lat="41.37751" lon="0.57536">
        <ele>438.8</ele>
        <time>2020-10-31 10:05:10</time>
      </trkpt>
      <trkpt lat="41.37726" lon="0.57508">
        <ele>438.4</ele>
        <time>2020-10-31 10:05:15</time>
      </trkpt>
      <trkpt lat="41.37711" lon="0.57491">
        <ele>437.8</ele>
        <time>2020-10-31 10:05:18</time>
      </trkpt>
      <trkpt lat="41.37706" lon="0.57483">
        <ele>437.8</ele>
        <time>2020-10-31 10:05:19</time>
      </trkpt>
      <trkpt lat="41.37702" lon="0.57474">
        <ele>437.6</ele>
        <time>2020-10-31 10:05:20</time>
      </trkpt>
      <trkpt lat="41.37681" lon="0.57429">
        <ele>437</ele>
        <time>2020-10-31 10:05:25</time>
      </trkpt>
      <trkpt lat="41.37676" lon="0.5742">
        <ele>436.8</ele>
        <time>2020-10-31 10:05:26</time>
      </trkpt>
      <trkpt lat="41.37663" lon="0.57404">
        <ele>436.4</ele>
        <time>2020-10-31 10:05:28</time>
      </trkpt>
      <trkpt lat="41.37657" lon="0.57396">
        <ele>435.8</ele>
        <time>2020-10-31 10:05:29</time>
      </trkpt>
      <trkpt lat="41.37652" lon="0.57389">
        <ele>435.2</ele>
        <time>2020-10-31 10:05:30</time>
      </trkpt>
      <trkpt lat="41.37646" lon="0.57381">
        <ele>434.8</ele>
        <time>2020-10-31 10:05:31</time>
      </trkpt>
      <trkpt lat="41.37638" lon="0.57363">
        <ele>434</ele>
        <time>2020-10-31 10:05:33</time>
      </trkpt>
      <trkpt lat="41.37631" lon="0.57334">
        <ele>433</ele>
        <time>2020-10-31 10:05:36</time>
      </trkpt>
      <trkpt lat="41.3763" lon="0.57324">
        <ele>432.2</ele>
        <time>2020-10-31 10:05:37</time>
      </trkpt>
      <trkpt lat="41.37629" lon="0.57314">
        <ele>431.4</ele>
        <time>2020-10-31 10:05:38</time>
      </trkpt>
      <trkpt lat="41.37632" lon="0.57294">
        <ele>429.4</ele>
        <time>2020-10-31 10:05:40</time>
      </trkpt>
      <trkpt lat="41.37633" lon="0.57283">
        <ele>428.8</ele>
        <time>2020-10-31 10:05:41</time>
      </trkpt>
      <trkpt lat="41.37636" lon="0.57273">
        <ele>428.2</ele>
        <time>2020-10-31 10:05:42</time>
      </trkpt>
      <trkpt lat="41.3764" lon="0.57251">
        <ele>427</ele>
        <time>2020-10-31 10:05:44</time>
      </trkpt>
      <trkpt lat="41.37647" lon="0.57217">
        <ele>425.4</ele>
        <time>2020-10-31 10:05:47</time>
      </trkpt>
      <trkpt lat="41.37651" lon="0.57195">
        <ele>423.8</ele>
        <time>2020-10-31 10:05:49</time>
      </trkpt>
      <trkpt lat="41.37655" lon="0.57172">
        <ele>422.4</ele>
        <time>2020-10-31 10:05:51</time>
      </trkpt>
      <trkpt lat="41.37657" lon="0.5715">
        <ele>420.8</ele>
        <time>2020-10-31 10:05:53</time>
      </trkpt>
      <trkpt lat="41.3766" lon="0.57129">
        <ele>419.6</ele>
        <time>2020-10-31 10:05:55</time>
      </trkpt>
      <trkpt lat="41.37665" lon="0.57098">
        <ele>418.4</ele>
        <time>2020-10-31 10:05:58</time>
      </trkpt>
      <trkpt lat="41.37668" lon="0.57078">
        <ele>417.6</ele>
        <time>2020-10-31 10:06:00</time>
      </trkpt>
      <trkpt lat="41.37669" lon="0.57068">
        <ele>417</ele>
        <time>2020-10-31 10:06:01</time>
      </trkpt>
      <trkpt lat="41.37675" lon="0.57026">
        <ele>416</ele>
        <time>2020-10-31 10:06:05</time>
      </trkpt>
      <trkpt lat="41.37676" lon="0.57016">
        <ele>415.6</ele>
        <time>2020-10-31 10:06:06</time>
      </trkpt>
      <trkpt lat="41.37679" lon="0.56985">
        <ele>414.6</ele>
        <time>2020-10-31 10:06:09</time>
      </trkpt>
      <trkpt lat="41.37682" lon="0.56965">
        <ele>414</ele>
        <time>2020-10-31 10:06:11</time>
      </trkpt>
      <trkpt lat="41.37683" lon="0.56955">
        <ele>413.4</ele>
        <time>2020-10-31 10:06:12</time>
      </trkpt>
      <trkpt lat="41.37685" lon="0.56936">
        <ele>412.2</ele>
        <time>2020-10-31 10:06:14</time>
      </trkpt>
      <trkpt lat="41.37687" lon="0.56918">
        <ele>412</ele>
        <time>2020-10-31 10:06:16</time>
      </trkpt>
      <trkpt lat="41.37691" lon="0.56902">
        <ele>411</ele>
        <time>2020-10-31 10:06:19</time>
      </trkpt>
      <trkpt lat="41.37697" lon="0.56888">
        <ele>410.8</ele>
        <time>2020-10-31 10:06:20</time>
      </trkpt>
      <trkpt lat="41.37701" lon="0.56881">
        <ele>410.6</ele>
        <time>2020-10-31 10:06:21</time>
      </trkpt>
      <trkpt lat="41.37718" lon="0.56854">
        <ele>410</ele>
        <time>2020-10-31 10:06:26</time>
      </trkpt>
      <trkpt lat="41.37721" lon="0.56851">
        <ele>409.8</ele>
        <time>2020-10-31 10:06:27</time>
      </trkpt>
      <trkpt lat="41.37726" lon="0.56846">
        <ele>409.6</ele>
        <time>2020-10-31 10:06:30</time>
      </trkpt>
      <trkpt lat="41.37726" lon="0.56845">
        <ele>409.4</ele>
        <time>2020-10-31 10:06:31</time>
      </trkpt>
      <trkpt lat="41.37728" lon="0.56845">
        <ele>409.2</ele>
        <time>2020-10-31 10:06:39</time>
      </trkpt>
      <trkpt lat="41.37729" lon="0.56844">
        <ele>409.2</ele>
        <time>2020-10-31 10:06:40</time>
      </trkpt>
      <trkpt lat="41.37736" lon="0.56836">
        <ele>409.2</ele>
        <time>2020-10-31 10:06:44</time>
      </trkpt>
      <trkpt lat="41.37738" lon="0.5683">
        <ele>409.2</ele>
        <time>2020-10-31 10:06:46</time>
      </trkpt>
      <trkpt lat="41.37732" lon="0.56813">
        <ele>409.2</ele>
        <time>2020-10-31 10:06:50</time>
      </trkpt>
      <trkpt lat="41.3773" lon="0.56808">
        <ele>409.2</ele>
        <time>2020-10-31 10:06:51</time>
      </trkpt>
      <trkpt lat="41.3773" lon="0.56795">
        <ele>409</ele>
        <time>2020-10-31 10:06:53</time>
      </trkpt>
      <trkpt lat="41.37738" lon="0.56754">
        <ele>408.8</ele>
        <time>2020-10-31 10:06:58</time>
      </trkpt>
      <trkpt lat="41.37748" lon="0.56703">
        <ele>407.4</ele>
        <time>2020-10-31 10:07:04</time>
      </trkpt>
      <trkpt lat="41.37751" lon="0.56686">
        <ele>407</ele>
        <time>2020-10-31 10:07:06</time>
      </trkpt>
      <trkpt lat="41.37753" lon="0.5667">
        <ele>407</ele>
        <time>2020-10-31 10:07:08</time>
      </trkpt>
      <trkpt lat="41.37751" lon="0.56655">
        <ele>407</ele>
        <time>2020-10-31 10:07:10</time>
      </trkpt>
      <trkpt lat="41.37745" lon="0.56643">
        <ele>407</ele>
        <time>2020-10-31 10:07:12</time>
      </trkpt>
      <trkpt lat="41.37736" lon="0.56626">
        <ele>407</ele>
        <time>2020-10-31 10:07:15</time>
      </trkpt>
      <trkpt lat="41.37714" lon="0.56586">
        <ele>408.6</ele>
        <time>2020-10-31 10:07:22</time>
      </trkpt>
      <trkpt lat="41.37679" lon="0.56525">
        <ele>409.2</ele>
        <time>2020-10-31 10:07:32</time>
      </trkpt>
      <trkpt lat="41.37651" lon="0.56472">
        <ele>409.2</ele>
        <time>2020-10-31 10:07:40</time>
      </trkpt>
      <trkpt lat="41.37622" lon="0.56413">
        <ele>408.8</ele>
        <time>2020-10-31 10:07:49</time>
      </trkpt>
      <trkpt lat="41.37607" lon="0.56372">
        <ele>408.6</ele>
        <time>2020-10-31 10:07:55</time>
      </trkpt>
      <trkpt lat="41.37599" lon="0.56323">
        <ele>408.6</ele>
        <time>2020-10-31 10:08:02</time>
      </trkpt>
      <trkpt lat="41.37594" lon="0.56271">
        <ele>408.8</ele>
        <time>2020-10-31 10:08:09</time>
      </trkpt>
      <trkpt lat="41.37588" lon="0.56204">
        <ele>408.6</ele>
        <time>2020-10-31 10:08:17</time>
      </trkpt>
      <trkpt lat="41.3758" lon="0.56145">
        <ele>407.8</ele>
        <time>2020-10-31 10:08:24</time>
      </trkpt>
      <trkpt lat="41.37578" lon="0.56137">
        <ele>407.6</ele>
        <time>2020-10-31 10:08:25</time>
      </trkpt>
      <trkpt lat="41.37563" lon="0.56083">
        <ele>407.2</ele>
        <time>2020-10-31 10:08:32</time>
      </trkpt>
      <trkpt lat="41.37561" lon="0.56041">
        <ele>407</ele>
        <time>2020-10-31 10:08:37</time>
      </trkpt>
      <trkpt lat="41.3756" lon="0.55999">
        <ele>406.6</ele>
        <time>2020-10-31 10:08:42</time>
      </trkpt>
      <trkpt lat="41.37558" lon="0.5599">
        <ele>406.6</ele>
        <time>2020-10-31 10:08:43</time>
      </trkpt>
      <trkpt lat="41.37557" lon="0.55983">
        <ele>406.4</ele>
        <time>2020-10-31 10:08:44</time>
      </trkpt>
      <trkpt lat="41.37551" lon="0.55959">
        <ele>406.2</ele>
        <time>2020-10-31 10:08:47</time>
      </trkpt>
      <trkpt lat="41.37545" lon="0.55946">
        <ele>406.2</ele>
        <time>2020-10-31 10:08:49</time>
      </trkpt>
      <trkpt lat="41.37533" lon="0.55919">
        <ele>406</ele>
        <time>2020-10-31 10:08:53</time>
      </trkpt>
      <trkpt lat="41.37528" lon="0.55896">
        <ele>406</ele>
        <time>2020-10-31 10:08:56</time>
      </trkpt>
      <trkpt lat="41.37516" lon="0.55847">
        <ele>405.8</ele>
        <time>2020-10-31 10:09:02</time>
      </trkpt>
      <trkpt lat="41.37508" lon="0.55812">
        <ele>405.4</ele>
        <time>2020-10-31 10:09:06</time>
      </trkpt>
      <trkpt lat="41.37504" lon="0.55786">
        <ele>404.8</ele>
        <time>2020-10-31 10:09:09</time>
      </trkpt>
      <trkpt lat="41.37499" lon="0.55743">
        <ele>404.4</ele>
        <time>2020-10-31 10:09:14</time>
      </trkpt>
      <trkpt lat="41.37499" lon="0.55734">
        <ele>404.4</ele>
        <time>2020-10-31 10:09:15</time>
      </trkpt>
      <trkpt lat="41.375" lon="0.55718">
        <ele>404.2</ele>
        <time>2020-10-31 10:09:17</time>
      </trkpt>
      <trkpt lat="41.37505" lon="0.55704">
        <ele>404</ele>
        <time>2020-10-31 10:09:19</time>
      </trkpt>
      <trkpt lat="41.37529" lon="0.55658">
        <ele>403.8</ele>
        <time>2020-10-31 10:09:26</time>
      </trkpt>
      <trkpt lat="41.37559" lon="0.55619">
        <ele>403.6</ele>
        <time>2020-10-31 10:09:32</time>
      </trkpt>
      <trkpt lat="41.37565" lon="0.55614">
        <ele>403.6</ele>
        <time>2020-10-31 10:09:33</time>
      </trkpt>
      <trkpt lat="41.37576" lon="0.55604">
        <ele>403.2</ele>
        <time>2020-10-31 10:09:35</time>
      </trkpt>
      <trkpt lat="41.37581" lon="0.55598">
        <ele>403</ele>
        <time>2020-10-31 10:09:36</time>
      </trkpt>
      <trkpt lat="41.37586" lon="0.55574">
        <ele>402.4</ele>
        <time>2020-10-31 10:09:39</time>
      </trkpt>
      <trkpt lat="41.37586" lon="0.55566">
        <ele>402.2</ele>
        <time>2020-10-31 10:09:40</time>
      </trkpt>
      <trkpt lat="41.37587" lon="0.55558">
        <ele>402</ele>
        <time>2020-10-31 10:09:41</time>
      </trkpt>
      <trkpt lat="41.3759" lon="0.55537">
        <ele>401.4</ele>
        <time>2020-10-31 10:09:44</time>
      </trkpt>
      <trkpt lat="41.37591" lon="0.5553">
        <ele>401.2</ele>
        <time>2020-10-31 10:09:45</time>
      </trkpt>
      <trkpt lat="41.37589" lon="0.55515">
        <ele>401.2</ele>
        <time>2020-10-31 10:09:47</time>
      </trkpt>
      <trkpt lat="41.37585" lon="0.555">
        <ele>401</ele>
        <time>2020-10-31 10:09:49</time>
      </trkpt>
      <trkpt lat="41.37581" lon="0.55484">
        <ele>401</ele>
        <time>2020-10-31 10:09:51</time>
      </trkpt>
      <trkpt lat="41.37578" lon="0.55476">
        <ele>400.8</ele>
        <time>2020-10-31 10:09:52</time>
      </trkpt>
      <trkpt lat="41.37556" lon="0.55407">
        <ele>400.2</ele>
        <time>2020-10-31 10:10:01</time>
      </trkpt>
      <trkpt lat="41.3754" lon="0.55363">
        <ele>400.2</ele>
        <time>2020-10-31 10:10:07</time>
      </trkpt>
      <trkpt lat="41.37521" lon="0.55321">
        <ele>400</ele>
        <time>2020-10-31 10:10:13</time>
      </trkpt>
      <trkpt lat="41.37512" lon="0.55301">
        <ele>399.8</ele>
        <time>2020-10-31 10:10:16</time>
      </trkpt>
      <trkpt lat="41.37501" lon="0.5528">
        <ele>399.6</ele>
        <time>2020-10-31 10:10:19</time>
      </trkpt>
      <trkpt lat="41.37495" lon="0.55266">
        <ele>399.4</ele>
        <time>2020-10-31 10:10:21</time>
      </trkpt>
      <trkpt lat="41.37489" lon="0.55241">
        <ele>399</ele>
        <time>2020-10-31 10:10:24</time>
      </trkpt>
      <trkpt lat="41.37488" lon="0.55224">
        <ele>398.8</ele>
        <time>2020-10-31 10:10:26</time>
      </trkpt>
      <trkpt lat="41.37488" lon="0.55216">
        <ele>398.6</ele>
        <time>2020-10-31 10:10:27</time>
      </trkpt>
      <trkpt lat="41.37488" lon="0.55199">
        <ele>398.6</ele>
        <time>2020-10-31 10:10:29</time>
      </trkpt>
      <trkpt lat="41.37488" lon="0.55154">
        <ele>397.8</ele>
        <time>2020-10-31 10:10:35</time>
      </trkpt>
      <trkpt lat="41.37488" lon="0.55148">
        <ele>397.6</ele>
        <time>2020-10-31 10:10:36</time>
      </trkpt>
      <trkpt lat="41.37487" lon="0.55137">
        <ele>397.4</ele>
        <time>2020-10-31 10:10:38</time>
      </trkpt>
      <trkpt lat="41.37484" lon="0.55126">
        <ele>397.2</ele>
        <time>2020-10-31 10:10:40</time>
      </trkpt>
      <trkpt lat="41.37479" lon="0.55117">
        <ele>397</ele>
        <time>2020-10-31 10:10:42</time>
      </trkpt>
      <trkpt lat="41.37469" lon="0.55104">
        <ele>396.6</ele>
        <time>2020-10-31 10:10:45</time>
      </trkpt>
      <trkpt lat="41.37462" lon="0.55095">
        <ele>396.6</ele>
        <time>2020-10-31 10:10:47</time>
      </trkpt>
      <trkpt lat="41.37444" lon="0.55069">
        <ele>396</ele>
        <time>2020-10-31 10:10:52</time>
      </trkpt>
      <trkpt lat="41.37438" lon="0.55058">
        <ele>396</ele>
        <time>2020-10-31 10:10:54</time>
      </trkpt>
      <trkpt lat="41.37432" lon="0.55042">
        <ele>395.6</ele>
        <time>2020-10-31 10:10:57</time>
      </trkpt>
      <trkpt lat="41.37432" lon="0.55038">
        <ele>395.6</ele>
        <time>2020-10-31 10:10:58</time>
      </trkpt>
      <trkpt lat="41.37434" lon="0.55034">
        <ele>395.4</ele>
        <time>2020-10-31 10:11:00</time>
      </trkpt>
      <trkpt lat="41.37441" lon="0.55034">
        <ele>395.4</ele>
        <time>2020-10-31 10:11:03</time>
      </trkpt>
      <trkpt lat="41.37444" lon="0.55034">
        <ele>395.4</ele>
        <time>2020-10-31 10:11:04</time>
      </trkpt>
      <trkpt lat="41.37458" lon="0.55032">
        <ele>395.2</ele>
        <time>2020-10-31 10:11:10</time>
      </trkpt>
      <trkpt lat="41.37474" lon="0.55025">
        <ele>396.2</ele>
        <time>2020-10-31 10:11:17</time>
      </trkpt>
      <trkpt lat="41.37477" lon="0.55023">
        <ele>396.4</ele>
        <time>2020-10-31 10:11:18</time>
      </trkpt>
      <trkpt lat="41.37494" lon="0.55015">
        <ele>397.4</ele>
        <time>2020-10-31 10:11:24</time>
      </trkpt>
      <trkpt lat="41.37507" lon="0.55011">
        <ele>398.4</ele>
        <time>2020-10-31 10:11:29</time>
      </trkpt>
      <trkpt lat="41.37509" lon="0.55009">
        <ele>398.6</ele>
        <time>2020-10-31 10:11:30</time>
      </trkpt>
      <trkpt lat="41.37513" lon="0.55006">
        <ele>399.2</ele>
        <time>2020-10-31 10:11:33</time>
      </trkpt>
      <trkpt lat="41.37514" lon="0.55005">
        <ele>399.4</ele>
        <time>2020-10-31 10:11:34</time>
      </trkpt>
      <trkpt lat="41.37515" lon="0.55004">
        <ele>399.8</ele>
        <time>2020-10-31 10:11:35</time>
      </trkpt>
      <trkpt lat="41.37513" lon="0.54999">
        <ele>400.2</ele>
        <time>2020-10-31 10:11:37</time>
      </trkpt>
      <trkpt lat="41.3751" lon="0.54993">
        <ele>400.2</ele>
        <time>2020-10-31 10:11:39</time>
      </trkpt>
      <trkpt lat="41.37506" lon="0.54977">
        <ele>400.2</ele>
        <time>2020-10-31 10:11:43</time>
      </trkpt>
      <trkpt lat="41.37505" lon="0.5495">
        <ele>399</ele>
        <time>2020-10-31 10:11:49</time>
      </trkpt>
      <trkpt lat="41.37507" lon="0.54945">
        <ele>398.6</ele>
        <time>2020-10-31 10:11:50</time>
      </trkpt>
      <trkpt lat="41.37513" lon="0.54933">
        <ele>397.6</ele>
        <time>2020-10-31 10:11:53</time>
      </trkpt>
      <trkpt lat="41.37517" lon="0.54925">
        <ele>396.8</ele>
        <time>2020-10-31 10:11:55</time>
      </trkpt>
      <trkpt lat="41.3752" lon="0.54921">
        <ele>396.4</ele>
        <time>2020-10-31 10:11:56</time>
      </trkpt>
      <trkpt lat="41.37528" lon="0.54908">
        <ele>396</ele>
        <time>2020-10-31 10:11:59</time>
      </trkpt>
      <trkpt lat="41.37531" lon="0.54904">
        <ele>395.8</ele>
        <time>2020-10-31 10:12:00</time>
      </trkpt>
      <trkpt lat="41.3755" lon="0.54883">
        <ele>395.4</ele>
        <time>2020-10-31 10:12:05</time>
      </trkpt>
      <trkpt lat="41.37554" lon="0.54879">
        <ele>395.4</ele>
        <time>2020-10-31 10:12:06</time>
      </trkpt>
      <trkpt lat="41.37558" lon="0.54876">
        <ele>395.2</ele>
        <time>2020-10-31 10:12:07</time>
      </trkpt>
      <trkpt lat="41.37578" lon="0.54865">
        <ele>394.8</ele>
        <time>2020-10-31 10:12:11</time>
      </trkpt>
      <trkpt lat="41.37588" lon="0.54857">
        <ele>394.4</ele>
        <time>2020-10-31 10:12:13</time>
      </trkpt>
      <trkpt lat="41.37607" lon="0.54842">
        <ele>393.4</ele>
        <time>2020-10-31 10:12:17</time>
      </trkpt>
      <trkpt lat="41.37612" lon="0.54838">
        <ele>393</ele>
        <time>2020-10-31 10:12:18</time>
      </trkpt>
      <trkpt lat="41.3762" lon="0.5483">
        <ele>392.2</ele>
        <time>2020-10-31 10:12:21</time>
      </trkpt>
      <trkpt lat="41.37629" lon="0.54823">
        <ele>391.2</ele>
        <time>2020-10-31 10:12:25</time>
      </trkpt>
      <trkpt lat="41.3763" lon="0.54821">
        <ele>390.4</ele>
        <time>2020-10-31 10:12:29</time>
      </trkpt>
      <trkpt lat="41.3763" lon="0.54821">
        <ele>390.2</ele>
        <time>2020-10-31 10:12:30</time>
      </trkpt>
      <trkpt lat="41.3763" lon="0.54821">
        <ele>389.2</ele>
        <time>2020-10-31 10:12:41</time>
      </trkpt>
      <trkpt lat="41.3763" lon="0.54821">
        <ele>389.2</ele>
        <time>2020-10-31 10:12:48</time>
      </trkpt>
      <trkpt lat="41.3763" lon="0.54821">
        <ele>388.4</ele>
        <time>2020-10-31 10:13:23</time>
      </trkpt>
      <trkpt lat="41.37633" lon="0.54817">
        <ele>388.4</ele>
        <time>2020-10-31 10:13:29</time>
      </trkpt>
      <trkpt lat="41.37644" lon="0.54805">
        <ele>388.4</ele>
        <time>2020-10-31 10:13:33</time>
      </trkpt>
      <trkpt lat="41.37667" lon="0.54784">
        <ele>388.2</ele>
        <time>2020-10-31 10:13:38</time>
      </trkpt>
      <trkpt lat="41.37673" lon="0.54779">
        <ele>388.2</ele>
        <time>2020-10-31 10:13:39</time>
      </trkpt>
      <trkpt lat="41.37695" lon="0.54763">
        <ele>387.6</ele>
        <time>2020-10-31 10:13:42</time>
      </trkpt>
      <trkpt lat="41.37722" lon="0.54746">
        <ele>387</ele>
        <time>2020-10-31 10:13:45</time>
      </trkpt>
      <trkpt lat="41.37742" lon="0.54734">
        <ele>386.2</ele>
        <time>2020-10-31 10:13:47</time>
      </trkpt>
      <trkpt lat="41.37752" lon="0.54729">
        <ele>385.4</ele>
        <time>2020-10-31 10:13:48</time>
      </trkpt>
      <trkpt lat="41.37771" lon="0.5472">
        <ele>383.8</ele>
        <time>2020-10-31 10:13:50</time>
      </trkpt>
      <trkpt lat="41.3778" lon="0.54715">
        <ele>383</ele>
        <time>2020-10-31 10:13:51</time>
      </trkpt>
      <trkpt lat="41.37788" lon="0.54709">
        <ele>382.2</ele>
        <time>2020-10-31 10:13:52</time>
      </trkpt>
      <trkpt lat="41.37796" lon="0.54701">
        <ele>381</ele>
        <time>2020-10-31 10:13:53</time>
      </trkpt>
      <trkpt lat="41.37801" lon="0.54691">
        <ele>379.8</ele>
        <time>2020-10-31 10:13:54</time>
      </trkpt>
      <trkpt lat="41.37805" lon="0.5468">
        <ele>379</ele>
        <time>2020-10-31 10:13:55</time>
      </trkpt>
      <trkpt lat="41.37807" lon="0.54668">
        <ele>377.8</ele>
        <time>2020-10-31 10:13:56</time>
      </trkpt>
      <trkpt lat="41.37808" lon="0.54655">
        <ele>376.8</ele>
        <time>2020-10-31 10:13:57</time>
      </trkpt>
      <trkpt lat="41.37808" lon="0.54643">
        <ele>375.8</ele>
        <time>2020-10-31 10:13:58</time>
      </trkpt>
      <trkpt lat="41.37807" lon="0.5463">
        <ele>374.8</ele>
        <time>2020-10-31 10:13:59</time>
      </trkpt>
      <trkpt lat="41.37807" lon="0.54605">
        <ele>373.6</ele>
        <time>2020-10-31 10:14:01</time>
      </trkpt>
      <trkpt lat="41.37808" lon="0.54592">
        <ele>373</ele>
        <time>2020-10-31 10:14:02</time>
      </trkpt>
      <trkpt lat="41.3781" lon="0.5458">
        <ele>372.2</ele>
        <time>2020-10-31 10:14:03</time>
      </trkpt>
      <trkpt lat="41.3782" lon="0.54558">
        <ele>370.8</ele>
        <time>2020-10-31 10:14:05</time>
      </trkpt>
      <trkpt lat="41.37826" lon="0.54549">
        <ele>370.4</ele>
        <time>2020-10-31 10:14:06</time>
      </trkpt>
      <trkpt lat="41.37832" lon="0.54539">
        <ele>370</ele>
        <time>2020-10-31 10:14:07</time>
      </trkpt>
      <trkpt lat="41.37838" lon="0.5453">
        <ele>369.8</ele>
        <time>2020-10-31 10:14:08</time>
      </trkpt>
      <trkpt lat="41.3785" lon="0.54511">
        <ele>368.4</ele>
        <time>2020-10-31 10:14:10</time>
      </trkpt>
      <trkpt lat="41.3786" lon="0.54491">
        <ele>367.6</ele>
        <time>2020-10-31 10:14:12</time>
      </trkpt>
      <trkpt lat="41.37865" lon="0.54481">
        <ele>367.2</ele>
        <time>2020-10-31 10:14:13</time>
      </trkpt>
      <trkpt lat="41.37883" lon="0.54452">
        <ele>365.8</ele>
        <time>2020-10-31 10:14:16</time>
      </trkpt>
      <trkpt lat="41.3789" lon="0.54443">
        <ele>365.6</ele>
        <time>2020-10-31 10:14:17</time>
      </trkpt>
      <trkpt lat="41.37913" lon="0.54422">
        <ele>364.6</ele>
        <time>2020-10-31 10:14:20</time>
      </trkpt>
      <trkpt lat="41.37928" lon="0.54408">
        <ele>363.4</ele>
        <time>2020-10-31 10:14:22</time>
      </trkpt>
      <trkpt lat="41.37942" lon="0.54391">
        <ele>362.2</ele>
        <time>2020-10-31 10:14:24</time>
      </trkpt>
      <trkpt lat="41.37953" lon="0.54372">
        <ele>361.4</ele>
        <time>2020-10-31 10:14:26</time>
      </trkpt>
      <trkpt lat="41.37958" lon="0.54362">
        <ele>361</ele>
        <time>2020-10-31 10:14:27</time>
      </trkpt>
      <trkpt lat="41.37969" lon="0.54341">
        <ele>360</ele>
        <time>2020-10-31 10:14:29</time>
      </trkpt>
      <trkpt lat="41.37987" lon="0.54313">
        <ele>358.4</ele>
        <time>2020-10-31 10:14:32</time>
      </trkpt>
      <trkpt lat="41.38007" lon="0.54288">
        <ele>357</ele>
        <time>2020-10-31 10:14:35</time>
      </trkpt>
      <trkpt lat="41.38013" lon="0.54279">
        <ele>356.6</ele>
        <time>2020-10-31 10:14:36</time>
      </trkpt>
      <trkpt lat="41.38019" lon="0.5427">
        <ele>355.8</ele>
        <time>2020-10-31 10:14:37</time>
      </trkpt>
      <trkpt lat="41.38029" lon="0.5425">
        <ele>354.6</ele>
        <time>2020-10-31 10:14:39</time>
      </trkpt>
      <trkpt lat="41.38043" lon="0.54218">
        <ele>353.4</ele>
        <time>2020-10-31 10:14:42</time>
      </trkpt>
      <trkpt lat="41.38061" lon="0.54185">
        <ele>352.4</ele>
        <time>2020-10-31 10:14:45</time>
      </trkpt>
      <trkpt lat="41.38069" lon="0.54176">
        <ele>352</ele>
        <time>2020-10-31 10:14:46</time>
      </trkpt>
      <trkpt lat="41.38086" lon="0.5416">
        <ele>350.8</ele>
        <time>2020-10-31 10:14:48</time>
      </trkpt>
      <trkpt lat="41.38102" lon="0.54144">
        <ele>349.4</ele>
        <time>2020-10-31 10:14:50</time>
      </trkpt>
      <trkpt lat="41.38114" lon="0.54125">
        <ele>348.2</ele>
        <time>2020-10-31 10:14:52</time>
      </trkpt>
      <trkpt lat="41.38118" lon="0.54114">
        <ele>347.4</ele>
        <time>2020-10-31 10:14:53</time>
      </trkpt>
      <trkpt lat="41.38123" lon="0.54104">
        <ele>346.6</ele>
        <time>2020-10-31 10:14:54</time>
      </trkpt>
      <trkpt lat="41.3813" lon="0.54084">
        <ele>345.4</ele>
        <time>2020-10-31 10:14:56</time>
      </trkpt>
      <trkpt lat="41.38137" lon="0.54065">
        <ele>344.4</ele>
        <time>2020-10-31 10:14:58</time>
      </trkpt>
      <trkpt lat="41.38157" lon="0.5403">
        <ele>343.2</ele>
        <time>2020-10-31 10:15:02</time>
      </trkpt>
      <trkpt lat="41.38163" lon="0.54022">
        <ele>343</ele>
        <time>2020-10-31 10:15:03</time>
      </trkpt>
      <trkpt lat="41.38186" lon="0.54007">
        <ele>342.2</ele>
        <time>2020-10-31 10:15:06</time>
      </trkpt>
      <trkpt lat="41.38195" lon="0.54004">
        <ele>342</ele>
        <time>2020-10-31 10:15:07</time>
      </trkpt>
      <trkpt lat="41.3823" lon="0.53994">
        <ele>341</ele>
        <time>2020-10-31 10:15:11</time>
      </trkpt>
      <trkpt lat="41.38239" lon="0.5399">
        <ele>340.6</ele>
        <time>2020-10-31 10:15:12</time>
      </trkpt>
      <trkpt lat="41.38256" lon="0.53976">
        <ele>339.8</ele>
        <time>2020-10-31 10:15:14</time>
      </trkpt>
      <trkpt lat="41.38265" lon="0.53968">
        <ele>339.2</ele>
        <time>2020-10-31 10:15:15</time>
      </trkpt>
      <trkpt lat="41.38283" lon="0.5395">
        <ele>338.4</ele>
        <time>2020-10-31 10:15:17</time>
      </trkpt>
      <trkpt lat="41.383" lon="0.53932">
        <ele>337.2</ele>
        <time>2020-10-31 10:15:19</time>
      </trkpt>
      <trkpt lat="41.38317" lon="0.53914">
        <ele>335.4</ele>
        <time>2020-10-31 10:15:21</time>
      </trkpt>
      <trkpt lat="41.38324" lon="0.53906">
        <ele>334.4</ele>
        <time>2020-10-31 10:15:22</time>
      </trkpt>
      <trkpt lat="41.38331" lon="0.53897">
        <ele>333.2</ele>
        <time>2020-10-31 10:15:23</time>
      </trkpt>
      <trkpt lat="41.38338" lon="0.53889">
        <ele>332</ele>
        <time>2020-10-31 10:15:24</time>
      </trkpt>
      <trkpt lat="41.38345" lon="0.53882">
        <ele>331</ele>
        <time>2020-10-31 10:15:25</time>
      </trkpt>
      <trkpt lat="41.38359" lon="0.53869">
        <ele>329.2</ele>
        <time>2020-10-31 10:15:27</time>
      </trkpt>
      <trkpt lat="41.38375" lon="0.53861">
        <ele>328</ele>
        <time>2020-10-31 10:15:29</time>
      </trkpt>
      <trkpt lat="41.38391" lon="0.53856">
        <ele>327.2</ele>
        <time>2020-10-31 10:15:31</time>
      </trkpt>
      <trkpt lat="41.384" lon="0.53854">
        <ele>326.2</ele>
        <time>2020-10-31 10:15:32</time>
      </trkpt>
      <trkpt lat="41.38426" lon="0.53848">
        <ele>324.8</ele>
        <time>2020-10-31 10:15:35</time>
      </trkpt>
      <trkpt lat="41.38443" lon="0.53848">
        <ele>324</ele>
        <time>2020-10-31 10:15:37</time>
      </trkpt>
      <trkpt lat="41.38451" lon="0.53848">
        <ele>323.4</ele>
        <time>2020-10-31 10:15:38</time>
      </trkpt>
      <trkpt lat="41.38466" lon="0.53847">
        <ele>322.2</ele>
        <time>2020-10-31 10:15:40</time>
      </trkpt>
      <trkpt lat="41.38479" lon="0.53842">
        <ele>321</ele>
        <time>2020-10-31 10:15:42</time>
      </trkpt>
      <trkpt lat="41.38488" lon="0.53835">
        <ele>319.4</ele>
        <time>2020-10-31 10:15:44</time>
      </trkpt>
      <trkpt lat="41.38493" lon="0.53825">
        <ele>317.8</ele>
        <time>2020-10-31 10:15:46</time>
      </trkpt>
      <trkpt lat="41.38494" lon="0.5382">
        <ele>316.6</ele>
        <time>2020-10-31 10:15:47</time>
      </trkpt>
      <trkpt lat="41.38488" lon="0.53812">
        <ele>315</ele>
        <time>2020-10-31 10:15:49</time>
      </trkpt>
      <trkpt lat="41.38477" lon="0.53808">
        <ele>313.6</ele>
        <time>2020-10-31 10:15:51</time>
      </trkpt>
      <trkpt lat="41.38471" lon="0.53807">
        <ele>313</ele>
        <time>2020-10-31 10:15:52</time>
      </trkpt>
      <trkpt lat="41.38465" lon="0.53806">
        <ele>312.6</ele>
        <time>2020-10-31 10:15:53</time>
      </trkpt>
      <trkpt lat="41.38459" lon="0.53805">
        <ele>312</ele>
        <time>2020-10-31 10:15:54</time>
      </trkpt>
      <trkpt lat="41.38447" lon="0.53802">
        <ele>311.2</ele>
        <time>2020-10-31 10:15:56</time>
      </trkpt>
      <trkpt lat="41.38441" lon="0.53801">
        <ele>310.8</ele>
        <time>2020-10-31 10:15:57</time>
      </trkpt>
      <trkpt lat="41.38429" lon="0.53801">
        <ele>309.8</ele>
        <time>2020-10-31 10:15:59</time>
      </trkpt>
      <trkpt lat="41.38423" lon="0.53801">
        <ele>309</ele>
        <time>2020-10-31 10:16:00</time>
      </trkpt>
      <trkpt lat="41.38411" lon="0.53801">
        <ele>308.6</ele>
        <time>2020-10-31 10:16:02</time>
      </trkpt>
      <trkpt lat="41.38392" lon="0.53789">
        <ele>308.4</ele>
        <time>2020-10-31 10:16:06</time>
      </trkpt>
      <trkpt lat="41.38388" lon="0.53771">
        <ele>308.2</ele>
        <time>2020-10-31 10:16:09</time>
      </trkpt>
      <trkpt lat="41.38379" lon="0.53731">
        <ele>308</ele>
        <time>2020-10-31 10:16:14</time>
      </trkpt>
      <trkpt lat="41.38372" lon="0.53718">
        <ele>308</ele>
        <time>2020-10-31 10:16:17</time>
      </trkpt>
      <trkpt lat="41.3837" lon="0.53715">
        <ele>307.6</ele>
        <time>2020-10-31 10:16:18</time>
      </trkpt>
      <trkpt lat="41.38367" lon="0.53711">
        <ele>307.2</ele>
        <time>2020-10-31 10:16:19</time>
      </trkpt>
      <trkpt lat="41.38363" lon="0.53708">
        <ele>306.4</ele>
        <time>2020-10-31 10:16:20</time>
      </trkpt>
      <trkpt lat="41.38357" lon="0.53702">
        <ele>305</ele>
        <time>2020-10-31 10:16:22</time>
      </trkpt>
      <trkpt lat="41.3835" lon="0.5369">
        <ele>304.4</ele>
        <time>2020-10-31 10:16:24</time>
      </trkpt>
      <trkpt lat="41.38348" lon="0.53683">
        <ele>304</ele>
        <time>2020-10-31 10:16:25</time>
      </trkpt>
      <trkpt lat="41.38347" lon="0.53658">
        <ele>303.2</ele>
        <time>2020-10-31 10:16:28</time>
      </trkpt>
      <trkpt lat="41.38348" lon="0.53643">
        <ele>302.8</ele>
        <time>2020-10-31 10:16:30</time>
      </trkpt>
      <trkpt lat="41.38349" lon="0.53628">
        <ele>301.6</ele>
        <time>2020-10-31 10:16:32</time>
      </trkpt>
      <trkpt lat="41.3835" lon="0.53599">
        <ele>300.6</ele>
        <time>2020-10-31 10:16:36</time>
      </trkpt>
      <trkpt lat="41.3835" lon="0.53593">
        <ele>300.6</ele>
        <time>2020-10-31 10:16:37</time>
      </trkpt>
      <trkpt lat="41.38353" lon="0.53578">
        <ele>300.4</ele>
        <time>2020-10-31 10:16:40</time>
      </trkpt>
      <trkpt lat="41.38355" lon="0.53575">
        <ele>300.4</ele>
        <time>2020-10-31 10:16:41</time>
      </trkpt>
      <trkpt lat="41.38368" lon="0.53574">
        <ele>300.4</ele>
        <time>2020-10-31 10:16:44</time>
      </trkpt>
      <trkpt lat="41.38377" lon="0.53577">
        <ele>300.6</ele>
        <time>2020-10-31 10:16:46</time>
      </trkpt>
      <trkpt lat="41.38387" lon="0.53583">
        <ele>300.8</ele>
        <time>2020-10-31 10:16:48</time>
      </trkpt>
      <trkpt lat="41.38401" lon="0.53594">
        <ele>301.6</ele>
        <time>2020-10-31 10:16:51</time>
      </trkpt>
      <trkpt lat="41.38406" lon="0.53596">
        <ele>301.6</ele>
        <time>2020-10-31 10:16:52</time>
      </trkpt>
      <trkpt lat="41.38432" lon="0.53596">
        <ele>302</ele>
        <time>2020-10-31 10:16:57</time>
      </trkpt>
      <trkpt lat="41.38442" lon="0.53592">
        <ele>302</ele>
        <time>2020-10-31 10:16:59</time>
      </trkpt>
      <trkpt lat="41.3846" lon="0.5358">
        <ele>302.2</ele>
        <time>2020-10-31 10:17:03</time>
      </trkpt>
      <trkpt lat="41.38469" lon="0.53575">
        <ele>302.2</ele>
        <time>2020-10-31 10:17:05</time>
      </trkpt>
      <trkpt lat="41.38482" lon="0.53568">
        <ele>302.2</ele>
        <time>2020-10-31 10:17:08</time>
      </trkpt>
      <trkpt lat="41.385" lon="0.5356">
        <ele>302.6</ele>
        <time>2020-10-31 10:17:12</time>
      </trkpt>
      <trkpt lat="41.38508" lon="0.53557">
        <ele>302.8</ele>
        <time>2020-10-31 10:17:14</time>
      </trkpt>
      <trkpt lat="41.38512" lon="0.53555">
        <ele>302.8</ele>
        <time>2020-10-31 10:17:15</time>
      </trkpt>
      <trkpt lat="41.38535" lon="0.53544">
        <ele>303</ele>
        <time>2020-10-31 10:17:21</time>
      </trkpt>
      <trkpt lat="41.3856" lon="0.53524">
        <ele>303.8</ele>
        <time>2020-10-31 10:17:28</time>
      </trkpt>
      <trkpt lat="41.38563" lon="0.53522">
        <ele>304</ele>
        <time>2020-10-31 10:17:29</time>
      </trkpt>
      <trkpt lat="41.38584" lon="0.53509">
        <ele>304.6</ele>
        <time>2020-10-31 10:17:35</time>
      </trkpt>
      <trkpt lat="41.38587" lon="0.53508">
        <ele>304.8</ele>
        <time>2020-10-31 10:17:36</time>
      </trkpt>
      <trkpt lat="41.38605" lon="0.53497">
        <ele>305.4</ele>
        <time>2020-10-31 10:17:41</time>
      </trkpt>
      <trkpt lat="41.38614" lon="0.53489">
        <ele>305.6</ele>
        <time>2020-10-31 10:17:43</time>
      </trkpt>
      <trkpt lat="41.38622" lon="0.53477">
        <ele>305.6</ele>
        <time>2020-10-31 10:17:45</time>
      </trkpt>
      <trkpt lat="41.38627" lon="0.5346">
        <ele>305.6</ele>
        <time>2020-10-31 10:17:48</time>
      </trkpt>
      <trkpt lat="41.38627" lon="0.53454">
        <ele>305.6</ele>
        <time>2020-10-31 10:17:49</time>
      </trkpt>
      <trkpt lat="41.38626" lon="0.5345">
        <ele>305.4</ele>
        <time>2020-10-31 10:17:50</time>
      </trkpt>
      <trkpt lat="41.38619" lon="0.53442">
        <ele>304.4</ele>
        <time>2020-10-31 10:17:52</time>
      </trkpt>
      <trkpt lat="41.3861" lon="0.53435">
        <ele>303.8</ele>
        <time>2020-10-31 10:17:54</time>
      </trkpt>
      <trkpt lat="41.38605" lon="0.53431">
        <ele>303.4</ele>
        <time>2020-10-31 10:17:55</time>
      </trkpt>
      <trkpt lat="41.38596" lon="0.53421">
        <ele>302.4</ele>
        <time>2020-10-31 10:17:57</time>
      </trkpt>
      <trkpt lat="41.38584" lon="0.53406">
        <ele>301.2</ele>
        <time>2020-10-31 10:18:00</time>
      </trkpt>
      <trkpt lat="41.38579" lon="0.53394">
        <ele>300.4</ele>
        <time>2020-10-31 10:18:02</time>
      </trkpt>
      <trkpt lat="41.38579" lon="0.53389">
        <ele>300</ele>
        <time>2020-10-31 10:18:03</time>
      </trkpt>
      <trkpt lat="41.38583" lon="0.53377">
        <ele>299.8</ele>
        <time>2020-10-31 10:18:05</time>
      </trkpt>
      <trkpt lat="41.38586" lon="0.53372">
        <ele>299.8</ele>
        <time>2020-10-31 10:18:06</time>
      </trkpt>
      <trkpt lat="41.38604" lon="0.53344">
        <ele>299.4</ele>
        <time>2020-10-31 10:18:11</time>
      </trkpt>
      <trkpt lat="41.38608" lon="0.53339">
        <ele>299.4</ele>
        <time>2020-10-31 10:18:12</time>
      </trkpt>
      <trkpt lat="41.38626" lon="0.53322">
        <ele>299</ele>
        <time>2020-10-31 10:18:16</time>
      </trkpt>
      <trkpt lat="41.38632" lon="0.53312">
        <ele>299</ele>
        <time>2020-10-31 10:18:18</time>
      </trkpt>
      <trkpt lat="41.3864" lon="0.53293">
        <ele>299</ele>
        <time>2020-10-31 10:18:23</time>
      </trkpt>
      <trkpt lat="41.38649" lon="0.53282">
        <ele>300.4</ele>
        <time>2020-10-31 10:18:28</time>
      </trkpt>
      <trkpt lat="41.38656" lon="0.53281">
        <ele>302</ele>
        <time>2020-10-31 10:18:31</time>
      </trkpt>
      <trkpt lat="41.3866" lon="0.53282">
        <ele>302.8</ele>
        <time>2020-10-31 10:18:33</time>
      </trkpt>
      <trkpt lat="41.38663" lon="0.53283">
        <ele>303.2</ele>
        <time>2020-10-31 10:18:34</time>
      </trkpt>
      <trkpt lat="41.38672" lon="0.53284">
        <ele>304.4</ele>
        <time>2020-10-31 10:18:38</time>
      </trkpt>
      <trkpt lat="41.38677" lon="0.53283">
        <ele>305</ele>
        <time>2020-10-31 10:18:40</time>
      </trkpt>
      <trkpt lat="41.3868" lon="0.53279">
        <ele>305.8</ele>
        <time>2020-10-31 10:18:42</time>
      </trkpt>
      <trkpt lat="41.38682" lon="0.53272">
        <ele>306.8</ele>
        <time>2020-10-31 10:18:45</time>
      </trkpt>
      <trkpt lat="41.38682" lon="0.53269">
        <ele>307.8</ele>
        <time>2020-10-31 10:18:46</time>
      </trkpt>
      <trkpt lat="41.38681" lon="0.53267">
        <ele>308.4</ele>
        <time>2020-10-31 10:18:47</time>
      </trkpt>
      <trkpt lat="41.38679" lon="0.53262">
        <ele>309.4</ele>
        <time>2020-10-31 10:18:49</time>
      </trkpt>
      <trkpt lat="41.38678" lon="0.5326">
        <ele>309.8</ele>
        <time>2020-10-31 10:18:50</time>
      </trkpt>
      <trkpt lat="41.38675" lon="0.53253">
        <ele>310.8</ele>
        <time>2020-10-31 10:18:53</time>
      </trkpt>
      <trkpt lat="41.38671" lon="0.53247">
        <ele>312</ele>
        <time>2020-10-31 10:18:56</time>
      </trkpt>
      <trkpt lat="41.38671" lon="0.53245">
        <ele>312.2</ele>
        <time>2020-10-31 10:18:57</time>
      </trkpt>
      <trkpt lat="41.3867" lon="0.53241">
        <ele>313</ele>
        <time>2020-10-31 10:18:59</time>
      </trkpt>
      <trkpt lat="41.38669" lon="0.5324">
        <ele>313.2</ele>
        <time>2020-10-31 10:19:00</time>
      </trkpt>
      <trkpt lat="41.38668" lon="0.53238">
        <ele>313.6</ele>
        <time>2020-10-31 10:19:01</time>
      </trkpt>
      <trkpt lat="41.38666" lon="0.53231">
        <ele>314.6</ele>
        <time>2020-10-31 10:19:04</time>
      </trkpt>
      <trkpt lat="41.38665" lon="0.53224">
        <ele>315.6</ele>
        <time>2020-10-31 10:19:07</time>
      </trkpt>
      <trkpt lat="41.38665" lon="0.53222">
        <ele>315.6</ele>
        <time>2020-10-31 10:19:08</time>
      </trkpt>
      <trkpt lat="41.38668" lon="0.53201">
        <ele>316.4</ele>
        <time>2020-10-31 10:19:16</time>
      </trkpt>
      <trkpt lat="41.3867" lon="0.5319">
        <ele>316.8</ele>
        <time>2020-10-31 10:19:20</time>
      </trkpt>
      <trkpt lat="41.38672" lon="0.53182">
        <ele>317</ele>
        <time>2020-10-31 10:19:23</time>
      </trkpt>
      <trkpt lat="41.38676" lon="0.53169">
        <ele>318</ele>
        <time>2020-10-31 10:19:28</time>
      </trkpt>
      <trkpt lat="41.38679" lon="0.53158">
        <ele>318.8</ele>
        <time>2020-10-31 10:19:32</time>
      </trkpt>
      <trkpt lat="41.38682" lon="0.5315">
        <ele>319</ele>
        <time>2020-10-31 10:19:35</time>
      </trkpt>
      <trkpt lat="41.38684" lon="0.53138">
        <ele>320</ele>
        <time>2020-10-31 10:19:40</time>
      </trkpt>
      <trkpt lat="41.38686" lon="0.53129">
        <ele>321.2</ele>
        <time>2020-10-31 10:19:43</time>
      </trkpt>
      <trkpt lat="41.38689" lon="0.53115">
        <ele>322.2</ele>
        <time>2020-10-31 10:19:48</time>
      </trkpt>
      <trkpt lat="41.38691" lon="0.53097">
        <ele>323.4</ele>
        <time>2020-10-31 10:19:54</time>
      </trkpt>
      <trkpt lat="41.38694" lon="0.53087">
        <ele>325</ele>
        <time>2020-10-31 10:19:58</time>
      </trkpt>
      <trkpt lat="41.38696" lon="0.53082">
        <ele>326.2</ele>
        <time>2020-10-31 10:20:01</time>
      </trkpt>
      <trkpt lat="41.38696" lon="0.5308">
        <ele>326.6</ele>
        <time>2020-10-31 10:20:02</time>
      </trkpt>
      <trkpt lat="41.38697" lon="0.53075">
        <ele>327.6</ele>
        <time>2020-10-31 10:20:04</time>
      </trkpt>
      <trkpt lat="41.387" lon="0.53065">
        <ele>329</ele>
        <time>2020-10-31 10:20:08</time>
      </trkpt>
      <trkpt lat="41.38701" lon="0.53063">
        <ele>329</ele>
        <time>2020-10-31 10:20:09</time>
      </trkpt>
      <trkpt lat="41.38702" lon="0.5305">
        <ele>330.2</ele>
        <time>2020-10-31 10:20:14</time>
      </trkpt>
      <trkpt lat="41.38702" lon="0.5304">
        <ele>331.2</ele>
        <time>2020-10-31 10:20:18</time>
      </trkpt>
      <trkpt lat="41.38701" lon="0.53037">
        <ele>331.2</ele>
        <time>2020-10-31 10:20:19</time>
      </trkpt>
      <trkpt lat="41.38699" lon="0.53026">
        <ele>332.2</ele>
        <time>2020-10-31 10:20:23</time>
      </trkpt>
      <trkpt lat="41.38696" lon="0.53021">
        <ele>332.8</ele>
        <time>2020-10-31 10:20:25</time>
      </trkpt>
      <trkpt lat="41.38688" lon="0.53001">
        <ele>333.4</ele>
        <time>2020-10-31 10:20:32</time>
      </trkpt>
      <trkpt lat="41.38687" lon="0.52997">
        <ele>333.4</ele>
        <time>2020-10-31 10:20:33</time>
      </trkpt>
      <trkpt lat="41.38681" lon="0.5297">
        <ele>333.8</ele>
        <time>2020-10-31 10:20:40</time>
      </trkpt>
      <trkpt lat="41.38692" lon="0.52947">
        <ele>333.8</ele>
        <time>2020-10-31 10:20:46</time>
      </trkpt>
      <trkpt lat="41.38696" lon="0.52922">
        <ele>334</ele>
        <time>2020-10-31 10:20:52</time>
      </trkpt>
      <trkpt lat="41.38692" lon="0.52891">
        <ele>334.4</ele>
        <time>2020-10-31 10:21:00</time>
      </trkpt>
      <trkpt lat="41.38691" lon="0.52885">
        <ele>334.6</ele>
        <time>2020-10-31 10:21:02</time>
      </trkpt>
      <trkpt lat="41.38688" lon="0.52873">
        <ele>335.8</ele>
        <time>2020-10-31 10:21:06</time>
      </trkpt>
      <trkpt lat="41.38689" lon="0.52863">
        <ele>337</ele>
        <time>2020-10-31 10:21:10</time>
      </trkpt>
      <trkpt lat="41.3869" lon="0.52857">
        <ele>338</ele>
        <time>2020-10-31 10:21:12</time>
      </trkpt>
      <trkpt lat="41.3869" lon="0.52853">
        <ele>338.2</ele>
        <time>2020-10-31 10:21:13</time>
      </trkpt>
      <trkpt lat="41.38691" lon="0.52843">
        <ele>339.6</ele>
        <time>2020-10-31 10:21:16</time>
      </trkpt>
      <trkpt lat="41.38691" lon="0.52837">
        <ele>340.2</ele>
        <time>2020-10-31 10:21:18</time>
      </trkpt>
      <trkpt lat="41.38692" lon="0.5283">
        <ele>340.6</ele>
        <time>2020-10-31 10:21:21</time>
      </trkpt>
      <trkpt lat="41.38692" lon="0.52828">
        <ele>341</ele>
        <time>2020-10-31 10:21:22</time>
      </trkpt>
      <trkpt lat="41.38691" lon="0.52824">
        <ele>341.8</ele>
        <time>2020-10-31 10:21:24</time>
      </trkpt>
      <trkpt lat="41.38691" lon="0.52821">
        <ele>342.4</ele>
        <time>2020-10-31 10:21:25</time>
      </trkpt>
      <trkpt lat="41.38691" lon="0.52818">
        <ele>343</ele>
        <time>2020-10-31 10:21:26</time>
      </trkpt>
      <trkpt lat="41.38693" lon="0.52811">
        <ele>344.2</ele>
        <time>2020-10-31 10:21:29</time>
      </trkpt>
      <trkpt lat="41.38694" lon="0.52806">
        <ele>344.8</ele>
        <time>2020-10-31 10:21:31</time>
      </trkpt>
      <trkpt lat="41.38695" lon="0.528">
        <ele>345.2</ele>
        <time>2020-10-31 10:21:33</time>
      </trkpt>
      <trkpt lat="41.38693" lon="0.52785">
        <ele>346.2</ele>
        <time>2020-10-31 10:21:37</time>
      </trkpt>
      <trkpt lat="41.38689" lon="0.52777">
        <ele>346.2</ele>
        <time>2020-10-31 10:21:39</time>
      </trkpt>
      <trkpt lat="41.38677" lon="0.52758">
        <ele>346.4</ele>
        <time>2020-10-31 10:21:44</time>
      </trkpt>
      <trkpt lat="41.38655" lon="0.52726">
        <ele>346.2</ele>
        <time>2020-10-31 10:21:52</time>
      </trkpt>
      <trkpt lat="41.38645" lon="0.52707">
        <ele>346.2</ele>
        <time>2020-10-31 10:21:56</time>
      </trkpt>
      <trkpt lat="41.38638" lon="0.52691">
        <ele>346.2</ele>
        <time>2020-10-31 10:21:59</time>
      </trkpt>
      <trkpt lat="41.38617" lon="0.5264">
        <ele>346</ele>
        <time>2020-10-31 10:22:08</time>
      </trkpt>
      <trkpt lat="41.38614" lon="0.52614">
        <ele>346</ele>
        <time>2020-10-31 10:22:12</time>
      </trkpt>
      <trkpt lat="41.38614" lon="0.52608">
        <ele>346</ele>
        <time>2020-10-31 10:22:13</time>
      </trkpt>
      <trkpt lat="41.38619" lon="0.52592">
        <ele>345.8</ele>
        <time>2020-10-31 10:22:16</time>
      </trkpt>
      <trkpt lat="41.38634" lon="0.52577">
        <ele>345.6</ele>
        <time>2020-10-31 10:22:20</time>
      </trkpt>
      <trkpt lat="41.38639" lon="0.52565">
        <ele>345.4</ele>
        <time>2020-10-31 10:22:22</time>
      </trkpt>
      <trkpt lat="41.38642" lon="0.52551">
        <ele>345.2</ele>
        <time>2020-10-31 10:22:24</time>
      </trkpt>
      <trkpt lat="41.38647" lon="0.52531">
        <ele>345.2</ele>
        <time>2020-10-31 10:22:27</time>
      </trkpt>
      <trkpt lat="41.38657" lon="0.52513">
        <ele>344.8</ele>
        <time>2020-10-31 10:22:30</time>
      </trkpt>
      <trkpt lat="41.38668" lon="0.52496">
        <ele>344.4</ele>
        <time>2020-10-31 10:22:33</time>
      </trkpt>
      <trkpt lat="41.38675" lon="0.52475">
        <ele>344.2</ele>
        <time>2020-10-31 10:22:36</time>
      </trkpt>
      <trkpt lat="41.38681" lon="0.52453">
        <ele>344</ele>
        <time>2020-10-31 10:22:39</time>
      </trkpt>
      <trkpt lat="41.38688" lon="0.52441">
        <ele>343.8</ele>
        <time>2020-10-31 10:22:41</time>
      </trkpt>
      <trkpt lat="41.38696" lon="0.52431">
        <ele>343.4</ele>
        <time>2020-10-31 10:22:43</time>
      </trkpt>
      <trkpt lat="41.38699" lon="0.52427">
        <ele>343.4</ele>
        <time>2020-10-31 10:22:44</time>
      </trkpt>
      <trkpt lat="41.38705" lon="0.52417">
        <ele>343.2</ele>
        <time>2020-10-31 10:22:46</time>
      </trkpt>
      <trkpt lat="41.3871" lon="0.52391">
        <ele>342.4</ele>
        <time>2020-10-31 10:22:50</time>
      </trkpt>
      <trkpt lat="41.38711" lon="0.52384">
        <ele>342.4</ele>
        <time>2020-10-31 10:22:51</time>
      </trkpt>
      <trkpt lat="41.38714" lon="0.52364">
        <ele>342.2</ele>
        <time>2020-10-31 10:22:54</time>
      </trkpt>
      <trkpt lat="41.38714" lon="0.52351">
        <ele>341.8</ele>
        <time>2020-10-31 10:22:56</time>
      </trkpt>
      <trkpt lat="41.38714" lon="0.52345">
        <ele>341.6</ele>
        <time>2020-10-31 10:22:57</time>
      </trkpt>
      <trkpt lat="41.38705" lon="0.52325">
        <ele>341.2</ele>
        <time>2020-10-31 10:23:01</time>
      </trkpt>
      <trkpt lat="41.38701" lon="0.52321">
        <ele>341</ele>
        <time>2020-10-31 10:23:02</time>
      </trkpt>
      <trkpt lat="41.38695" lon="0.52313">
        <ele>341.2</ele>
        <time>2020-10-31 10:23:04</time>
      </trkpt>
      <trkpt lat="41.38691" lon="0.52301">
        <ele>341.2</ele>
        <time>2020-10-31 10:23:06</time>
      </trkpt>
      <trkpt lat="41.38687" lon="0.52289">
        <ele>341</ele>
        <time>2020-10-31 10:23:08</time>
      </trkpt>
      <trkpt lat="41.38685" lon="0.52274">
        <ele>340.8</ele>
        <time>2020-10-31 10:23:10</time>
      </trkpt>
      <trkpt lat="41.38684" lon="0.52265">
        <ele>341</ele>
        <time>2020-10-31 10:23:11</time>
      </trkpt>
      <trkpt lat="41.38682" lon="0.52248">
        <ele>340.6</ele>
        <time>2020-10-31 10:23:13</time>
      </trkpt>
      <trkpt lat="41.38678" lon="0.52232">
        <ele>340</ele>
        <time>2020-10-31 10:23:15</time>
      </trkpt>
      <trkpt lat="41.38676" lon="0.52223">
        <ele>339.6</ele>
        <time>2020-10-31 10:23:16</time>
      </trkpt>
      <trkpt lat="41.38673" lon="0.52214">
        <ele>339</ele>
        <time>2020-10-31 10:23:17</time>
      </trkpt>
      <trkpt lat="41.38668" lon="0.52196">
        <ele>337.8</ele>
        <time>2020-10-31 10:23:19</time>
      </trkpt>
      <trkpt lat="41.38662" lon="0.52179">
        <ele>336.8</ele>
        <time>2020-10-31 10:23:21</time>
      </trkpt>
      <trkpt lat="41.38657" lon="0.52172">
        <ele>336.4</ele>
        <time>2020-10-31 10:23:22</time>
      </trkpt>
      <trkpt lat="41.38644" lon="0.52161">
        <ele>335</ele>
        <time>2020-10-31 10:23:24</time>
      </trkpt>
      <trkpt lat="41.38631" lon="0.52151">
        <ele>333.2</ele>
        <time>2020-10-31 10:23:26</time>
      </trkpt>
      <trkpt lat="41.38619" lon="0.52144">
        <ele>332</ele>
        <time>2020-10-31 10:23:28</time>
      </trkpt>
      <trkpt lat="41.38614" lon="0.52141">
        <ele>331.4</ele>
        <time>2020-10-31 10:23:29</time>
      </trkpt>
      <trkpt lat="41.38609" lon="0.52139">
        <ele>330.4</ele>
        <time>2020-10-31 10:23:30</time>
      </trkpt>
      <trkpt lat="41.38605" lon="0.52136">
        <ele>329.8</ele>
        <time>2020-10-31 10:23:31</time>
      </trkpt>
      <trkpt lat="41.38601" lon="0.52133">
        <ele>329.4</ele>
        <time>2020-10-31 10:23:32</time>
      </trkpt>
      <trkpt lat="41.38597" lon="0.52128">
        <ele>329</ele>
        <time>2020-10-31 10:23:33</time>
      </trkpt>
      <trkpt lat="41.3859" lon="0.52116">
        <ele>328.2</ele>
        <time>2020-10-31 10:23:35</time>
      </trkpt>
      <trkpt lat="41.38578" lon="0.52094">
        <ele>327.4</ele>
        <time>2020-10-31 10:23:38</time>
      </trkpt>
      <trkpt lat="41.3857" lon="0.52081">
        <ele>327</ele>
        <time>2020-10-31 10:23:40</time>
      </trkpt>
      <trkpt lat="41.38562" lon="0.52072">
        <ele>326.2</ele>
        <time>2020-10-31 10:23:42</time>
      </trkpt>
      <trkpt lat="41.38559" lon="0.52069">
        <ele>325.6</ele>
        <time>2020-10-31 10:23:43</time>
      </trkpt>
      <trkpt lat="41.38552" lon="0.52062">
        <ele>324.2</ele>
        <time>2020-10-31 10:23:45</time>
      </trkpt>
      <trkpt lat="41.38543" lon="0.52055">
        <ele>322.4</ele>
        <time>2020-10-31 10:23:47</time>
      </trkpt>
      <trkpt lat="41.38539" lon="0.52052">
        <ele>321.8</ele>
        <time>2020-10-31 10:23:48</time>
      </trkpt>
      <trkpt lat="41.38534" lon="0.52051">
        <ele>321.4</ele>
        <time>2020-10-31 10:23:49</time>
      </trkpt>
      <trkpt lat="41.38525" lon="0.52048">
        <ele>319.6</ele>
        <time>2020-10-31 10:23:51</time>
      </trkpt>
      <trkpt lat="41.38515" lon="0.52046">
        <ele>318.4</ele>
        <time>2020-10-31 10:23:53</time>
      </trkpt>
      <trkpt lat="41.38504" lon="0.52045">
        <ele>317.2</ele>
        <time>2020-10-31 10:23:55</time>
      </trkpt>
      <trkpt lat="41.38499" lon="0.52045">
        <ele>316.6</ele>
        <time>2020-10-31 10:23:56</time>
      </trkpt>
      <trkpt lat="41.38493" lon="0.52044">
        <ele>316</ele>
        <time>2020-10-31 10:23:57</time>
      </trkpt>
      <trkpt lat="41.38483" lon="0.52038">
        <ele>314.6</ele>
        <time>2020-10-31 10:23:59</time>
      </trkpt>
      <trkpt lat="41.38474" lon="0.52027">
        <ele>312.8</ele>
        <time>2020-10-31 10:24:01</time>
      </trkpt>
      <trkpt lat="41.38464" lon="0.52013">
        <ele>311.6</ele>
        <time>2020-10-31 10:24:03</time>
      </trkpt>
      <trkpt lat="41.38454" lon="0.52">
        <ele>310</ele>
        <time>2020-10-31 10:24:05</time>
      </trkpt>
      <trkpt lat="41.38442" lon="0.51985">
        <ele>308</ele>
        <time>2020-10-31 10:24:07</time>
      </trkpt>
      <trkpt lat="41.38436" lon="0.51978">
        <ele>307.4</ele>
        <time>2020-10-31 10:24:08</time>
      </trkpt>
      <trkpt lat="41.3843" lon="0.5197">
        <ele>306.6</ele>
        <time>2020-10-31 10:24:09</time>
      </trkpt>
      <trkpt lat="41.38418" lon="0.51955">
        <ele>305.4</ele>
        <time>2020-10-31 10:24:11</time>
      </trkpt>
      <trkpt lat="41.38403" lon="0.51939">
        <ele>304.4</ele>
        <time>2020-10-31 10:24:13</time>
      </trkpt>
      <trkpt lat="41.38395" lon="0.51933">
        <ele>304</ele>
        <time>2020-10-31 10:24:14</time>
      </trkpt>
      <trkpt lat="41.38387" lon="0.51927">
        <ele>303.6</ele>
        <time>2020-10-31 10:24:15</time>
      </trkpt>
      <trkpt lat="41.38379" lon="0.51923">
        <ele>302.8</ele>
        <time>2020-10-31 10:24:16</time>
      </trkpt>
      <trkpt lat="41.3837" lon="0.51919">
        <ele>302.2</ele>
        <time>2020-10-31 10:24:17</time>
      </trkpt>
      <trkpt lat="41.38362" lon="0.51916">
        <ele>300.4</ele>
        <time>2020-10-31 10:24:18</time>
      </trkpt>
      <trkpt lat="41.38354" lon="0.51912">
        <ele>299.8</ele>
        <time>2020-10-31 10:24:19</time>
      </trkpt>
      <trkpt lat="41.38347" lon="0.51907">
        <ele>299</ele>
        <time>2020-10-31 10:24:20</time>
      </trkpt>
      <trkpt lat="41.38341" lon="0.51901">
        <ele>298.4</ele>
        <time>2020-10-31 10:24:21</time>
      </trkpt>
      <trkpt lat="41.38335" lon="0.51895">
        <ele>297.6</ele>
        <time>2020-10-31 10:24:22</time>
      </trkpt>
      <trkpt lat="41.38323" lon="0.51873">
        <ele>296.6</ele>
        <time>2020-10-31 10:24:25</time>
      </trkpt>
      <trkpt lat="41.3832" lon="0.51866">
        <ele>296.4</ele>
        <time>2020-10-31 10:24:26</time>
      </trkpt>
      <trkpt lat="41.38311" lon="0.51847">
        <ele>296.2</ele>
        <time>2020-10-31 10:24:29</time>
      </trkpt>
      <trkpt lat="41.38307" lon="0.51842">
        <ele>296.2</ele>
        <time>2020-10-31 10:24:30</time>
      </trkpt>
      <trkpt lat="41.38282" lon="0.51805">
        <ele>296.4</ele>
        <time>2020-10-31 10:24:37</time>
      </trkpt>
      <trkpt lat="41.38276" lon="0.51792">
        <ele>296.6</ele>
        <time>2020-10-31 10:24:39</time>
      </trkpt>
      <trkpt lat="41.38271" lon="0.51777">
        <ele>296.6</ele>
        <time>2020-10-31 10:24:41</time>
      </trkpt>
      <trkpt lat="41.38258" lon="0.51726">
        <ele>296.2</ele>
        <time>2020-10-31 10:24:48</time>
      </trkpt>
      <trkpt lat="41.38249" lon="0.51679">
        <ele>296.2</ele>
        <time>2020-10-31 10:24:54</time>
      </trkpt>
      <trkpt lat="41.38247" lon="0.51672">
        <ele>296</ele>
        <time>2020-10-31 10:24:55</time>
      </trkpt>
      <trkpt lat="41.38239" lon="0.51657">
        <ele>296</ele>
        <time>2020-10-31 10:24:58</time>
      </trkpt>
      <trkpt lat="41.38227" lon="0.51644">
        <ele>296.2</ele>
        <time>2020-10-31 10:25:02</time>
      </trkpt>
      <trkpt lat="41.38223" lon="0.5164">
        <ele>296.4</ele>
        <time>2020-10-31 10:25:04</time>
      </trkpt>
      <trkpt lat="41.38214" lon="0.5163">
        <ele>297.8</ele>
        <time>2020-10-31 10:25:08</time>
      </trkpt>
      <trkpt lat="41.3821" lon="0.51625">
        <ele>298.4</ele>
        <time>2020-10-31 10:25:10</time>
      </trkpt>
      <trkpt lat="41.38209" lon="0.51622">
        <ele>299</ele>
        <time>2020-10-31 10:25:11</time>
      </trkpt>
      <trkpt lat="41.38207" lon="0.51616">
        <ele>299.8</ele>
        <time>2020-10-31 10:25:13</time>
      </trkpt>
      <trkpt lat="41.38206" lon="0.51613">
        <ele>300.4</ele>
        <time>2020-10-31 10:25:14</time>
      </trkpt>
      <trkpt lat="41.38203" lon="0.51599">
        <ele>301.8</ele>
        <time>2020-10-31 10:25:19</time>
      </trkpt>
      <trkpt lat="41.38202" lon="0.51596">
        <ele>302.2</ele>
        <time>2020-10-31 10:25:20</time>
      </trkpt>
      <trkpt lat="41.382" lon="0.5159">
        <ele>303</ele>
        <time>2020-10-31 10:25:22</time>
      </trkpt>
      <trkpt lat="41.38197" lon="0.51586">
        <ele>304</ele>
        <time>2020-10-31 10:25:24</time>
      </trkpt>
      <trkpt lat="41.38192" lon="0.51579">
        <ele>305</ele>
        <time>2020-10-31 10:25:27</time>
      </trkpt>
      <trkpt lat="41.3819" lon="0.51577">
        <ele>305.2</ele>
        <time>2020-10-31 10:25:28</time>
      </trkpt>
      <trkpt lat="41.38185" lon="0.51568">
        <ele>306.4</ele>
        <time>2020-10-31 10:25:31</time>
      </trkpt>
      <trkpt lat="41.38182" lon="0.51559">
        <ele>307</ele>
        <time>2020-10-31 10:25:34</time>
      </trkpt>
      <trkpt lat="41.38178" lon="0.5155">
        <ele>307.4</ele>
        <time>2020-10-31 10:25:37</time>
      </trkpt>
      <trkpt lat="41.3817" lon="0.51533">
        <ele>308.4</ele>
        <time>2020-10-31 10:25:42</time>
      </trkpt>
      <trkpt lat="41.38168" lon="0.5153">
        <ele>308.6</ele>
        <time>2020-10-31 10:25:43</time>
      </trkpt>
      <trkpt lat="41.38164" lon="0.51524">
        <ele>308.8</ele>
        <time>2020-10-31 10:25:45</time>
      </trkpt>
      <trkpt lat="41.38153" lon="0.51511">
        <ele>309</ele>
        <time>2020-10-31 10:25:50</time>
      </trkpt>
      <trkpt lat="41.38142" lon="0.515">
        <ele>309.8</ele>
        <time>2020-10-31 10:25:55</time>
      </trkpt>
      <trkpt lat="41.38138" lon="0.51496">
        <ele>310.2</ele>
        <time>2020-10-31 10:25:57</time>
      </trkpt>
      <trkpt lat="41.38132" lon="0.5149">
        <ele>310.8</ele>
        <time>2020-10-31 10:26:00</time>
      </trkpt>
      <trkpt lat="41.38126" lon="0.51482">
        <ele>312</ele>
        <time>2020-10-31 10:26:03</time>
      </trkpt>
      <trkpt lat="41.38113" lon="0.51461">
        <ele>313</ele>
        <time>2020-10-31 10:26:10</time>
      </trkpt>
      <trkpt lat="41.38111" lon="0.51458">
        <ele>313.2</ele>
        <time>2020-10-31 10:26:11</time>
      </trkpt>
      <trkpt lat="41.38094" lon="0.51431">
        <ele>313.8</ele>
        <time>2020-10-31 10:26:20</time>
      </trkpt>
      <trkpt lat="41.38086" lon="0.51424">
        <ele>314</ele>
        <time>2020-10-31 10:26:23</time>
      </trkpt>
      <trkpt lat="41.38071" lon="0.51412">
        <ele>314.6</ele>
        <time>2020-10-31 10:26:28</time>
      </trkpt>
      <trkpt lat="41.38041" lon="0.51393">
        <ele>314.8</ele>
        <time>2020-10-31 10:26:37</time>
      </trkpt>
      <trkpt lat="41.38015" lon="0.51371">
        <ele>315.2</ele>
        <time>2020-10-31 10:26:45</time>
      </trkpt>
      <trkpt lat="41.37996" lon="0.51349">
        <ele>315.6</ele>
        <time>2020-10-31 10:26:52</time>
      </trkpt>
      <trkpt lat="41.37987" lon="0.51339">
        <ele>316.2</ele>
        <time>2020-10-31 10:26:55</time>
      </trkpt>
      <trkpt lat="41.37968" lon="0.51317">
        <ele>317</ele>
        <time>2020-10-31 10:27:02</time>
      </trkpt>
      <trkpt lat="41.37958" lon="0.513">
        <ele>317.8</ele>
        <time>2020-10-31 10:27:08</time>
      </trkpt>
      <trkpt lat="41.37956" lon="0.51297">
        <ele>318</ele>
        <time>2020-10-31 10:27:09</time>
      </trkpt>
      <trkpt lat="41.37949" lon="0.5129">
        <ele>319.4</ele>
        <time>2020-10-31 10:27:12</time>
      </trkpt>
      <trkpt lat="41.37945" lon="0.51287">
        <ele>320</ele>
        <time>2020-10-31 10:27:14</time>
      </trkpt>
      <trkpt lat="41.37942" lon="0.51286">
        <ele>320.4</ele>
        <time>2020-10-31 10:27:15</time>
      </trkpt>
      <trkpt lat="41.37934" lon="0.51278">
        <ele>321.4</ele>
        <time>2020-10-31 10:27:19</time>
      </trkpt>
      <trkpt lat="41.37932" lon="0.51276">
        <ele>321.8</ele>
        <time>2020-10-31 10:27:20</time>
      </trkpt>
      <trkpt lat="41.37927" lon="0.51273">
        <ele>322.4</ele>
        <time>2020-10-31 10:27:22</time>
      </trkpt>
      <trkpt lat="41.37921" lon="0.51267">
        <ele>323.6</ele>
        <time>2020-10-31 10:27:25</time>
      </trkpt>
      <trkpt lat="41.37918" lon="0.51263">
        <ele>324.4</ele>
        <time>2020-10-31 10:27:27</time>
      </trkpt>
      <trkpt lat="41.37916" lon="0.51262">
        <ele>324.8</ele>
        <time>2020-10-31 10:27:28</time>
      </trkpt>
      <trkpt lat="41.37909" lon="0.5126">
        <ele>325.8</ele>
        <time>2020-10-31 10:27:31</time>
      </trkpt>
      <trkpt lat="41.37901" lon="0.51261">
        <ele>326.8</ele>
        <time>2020-10-31 10:27:34</time>
      </trkpt>
      <trkpt lat="41.3789" lon="0.5126">
        <ele>327.8</ele>
        <time>2020-10-31 10:27:38</time>
      </trkpt>
      <trkpt lat="41.37882" lon="0.51261">
        <ele>328</ele>
        <time>2020-10-31 10:27:41</time>
      </trkpt>
      <trkpt lat="41.37867" lon="0.51266">
        <ele>328.6</ele>
        <time>2020-10-31 10:27:47</time>
      </trkpt>
      <trkpt lat="41.37861" lon="0.51267">
        <ele>329</ele>
        <time>2020-10-31 10:27:49</time>
      </trkpt>
      <trkpt lat="41.37848" lon="0.51267">
        <ele>329.6</ele>
        <time>2020-10-31 10:27:54</time>
      </trkpt>
      <trkpt lat="41.37843" lon="0.51265">
        <ele>330</ele>
        <time>2020-10-31 10:27:56</time>
      </trkpt>
      <trkpt lat="41.37828" lon="0.51261">
        <ele>331.4</ele>
        <time>2020-10-31 10:28:02</time>
      </trkpt>
      <trkpt lat="41.3781" lon="0.51262">
        <ele>332.4</ele>
        <time>2020-10-31 10:28:09</time>
      </trkpt>
      <trkpt lat="41.37808" lon="0.51262">
        <ele>332.6</ele>
        <time>2020-10-31 10:28:10</time>
      </trkpt>
      <trkpt lat="41.37793" lon="0.51264">
        <ele>333.6</ele>
        <time>2020-10-31 10:28:16</time>
      </trkpt>
      <trkpt lat="41.3779" lon="0.51265">
        <ele>333.6</ele>
        <time>2020-10-31 10:28:17</time>
      </trkpt>
      <trkpt lat="41.37775" lon="0.51265">
        <ele>334.8</ele>
        <time>2020-10-31 10:28:23</time>
      </trkpt>
      <trkpt lat="41.37761" lon="0.51266">
        <ele>335.8</ele>
        <time>2020-10-31 10:28:28</time>
      </trkpt>
      <trkpt lat="41.37756" lon="0.51267">
        <ele>336.6</ele>
        <time>2020-10-31 10:28:30</time>
      </trkpt>
      <trkpt lat="41.37751" lon="0.51268">
        <ele>337.2</ele>
        <time>2020-10-31 10:28:32</time>
      </trkpt>
      <trkpt lat="41.37741" lon="0.51272">
        <ele>338.2</ele>
        <time>2020-10-31 10:28:36</time>
      </trkpt>
      <trkpt lat="41.37734" lon="0.51276">
        <ele>338.8</ele>
        <time>2020-10-31 10:28:39</time>
      </trkpt>
      <trkpt lat="41.3773" lon="0.51279">
        <ele>339.2</ele>
        <time>2020-10-31 10:28:41</time>
      </trkpt>
      <trkpt lat="41.37723" lon="0.51284">
        <ele>340.2</ele>
        <time>2020-10-31 10:28:44</time>
      </trkpt>
      <trkpt lat="41.37721" lon="0.51286">
        <ele>340.4</ele>
        <time>2020-10-31 10:28:45</time>
      </trkpt>
      <trkpt lat="41.37719" lon="0.51288">
        <ele>340.6</ele>
        <time>2020-10-31 10:28:46</time>
      </trkpt>
      <trkpt lat="41.37707" lon="0.51297">
        <ele>341.4</ele>
        <time>2020-10-31 10:28:51</time>
      </trkpt>
      <trkpt lat="41.37707" lon="0.51297">
        <ele>341.6</ele>
        <time>2020-10-31 10:28:52</time>
      </trkpt>
      <trkpt lat="41.37702" lon="0.51296">
        <ele>341.8</ele>
        <time>2020-10-31 10:28:53</time>
      </trkpt>
      <trkpt lat="41.37698" lon="0.51291">
        <ele>342</ele>
        <time>2020-10-31 10:28:55</time>
      </trkpt>
      <trkpt lat="41.37693" lon="0.51283">
        <ele>342.6</ele>
        <time>2020-10-31 10:28:58</time>
      </trkpt>
      <trkpt lat="41.37691" lon="0.51275">
        <ele>343.8</ele>
        <time>2020-10-31 10:29:02</time>
      </trkpt>
      <trkpt lat="41.37691" lon="0.51275">
        <ele>344.8</ele>
        <time>2020-10-31 10:29:09</time>
      </trkpt>
      <trkpt lat="41.37691" lon="0.51275">
        <ele>344.8</ele>
        <time>2020-10-31 10:29:10</time>
      </trkpt>
      <trkpt lat="41.37691" lon="0.51275">
        <ele>344.8</ele>
        <time>2020-10-31 10:29:31</time>
      </trkpt>
      <trkpt lat="41.37691" lon="0.51275">
        <ele>344.6</ele>
        <time>2020-10-31 10:29:49</time>
      </trkpt>
      <trkpt lat="41.37689" lon="0.51269">
        <ele>344.6</ele>
        <time>2020-10-31 10:30:00</time>
      </trkpt>
      <trkpt lat="41.37676" lon="0.51249">
        <ele>344.8</ele>
        <time>2020-10-31 10:30:06</time>
      </trkpt>
      <trkpt lat="41.37662" lon="0.51231">
        <ele>345</ele>
        <time>2020-10-31 10:30:12</time>
      </trkpt>
      <trkpt lat="41.37639" lon="0.51212">
        <ele>345.8</ele>
        <time>2020-10-31 10:30:19</time>
      </trkpt>
      <trkpt lat="41.37635" lon="0.5121">
        <ele>346.2</ele>
        <time>2020-10-31 10:30:20</time>
      </trkpt>
      <trkpt lat="41.37619" lon="0.512">
        <ele>346.4</ele>
        <time>2020-10-31 10:30:25</time>
      </trkpt>
      <trkpt lat="41.37604" lon="0.51189">
        <ele>347.4</ele>
        <time>2020-10-31 10:30:30</time>
      </trkpt>
      <trkpt lat="41.37604" lon="0.51189">
        <ele>347.6</ele>
        <time>2020-10-31 10:30:31</time>
      </trkpt>
      <trkpt lat="41.37592" lon="0.51175">
        <ele>348.4</ele>
        <time>2020-10-31 10:30:34</time>
      </trkpt>
      <trkpt lat="41.37579" lon="0.51162">
        <ele>349.4</ele>
        <time>2020-10-31 10:30:38</time>
      </trkpt>
      <trkpt lat="41.37576" lon="0.51159">
        <ele>349.6</ele>
        <time>2020-10-31 10:30:39</time>
      </trkpt>
      <trkpt lat="41.37545" lon="0.51136">
        <ele>350</ele>
        <time>2020-10-31 10:30:47</time>
      </trkpt>
      <trkpt lat="41.37508" lon="0.51114">
        <ele>350.2</ele>
        <time>2020-10-31 10:30:56</time>
      </trkpt>
      <trkpt lat="41.37497" lon="0.51105">
        <ele>350.4</ele>
        <time>2020-10-31 10:30:59</time>
      </trkpt>
      <trkpt lat="41.37481" lon="0.51095">
        <ele>350.4</ele>
        <time>2020-10-31 10:31:03</time>
      </trkpt>
      <trkpt lat="41.37473" lon="0.51091">
        <ele>350.6</ele>
        <time>2020-10-31 10:31:05</time>
      </trkpt>
      <trkpt lat="41.37445" lon="0.51071">
        <ele>351.4</ele>
        <time>2020-10-31 10:31:12</time>
      </trkpt>
      <trkpt lat="41.3743" lon="0.51059">
        <ele>351.6</ele>
        <time>2020-10-31 10:31:16</time>
      </trkpt>
      <trkpt lat="41.37413" lon="0.51043">
        <ele>351.8</ele>
        <time>2020-10-31 10:31:21</time>
      </trkpt>
      <trkpt lat="41.37395" lon="0.51028">
        <ele>352.2</ele>
        <time>2020-10-31 10:31:26</time>
      </trkpt>
      <trkpt lat="41.37387" lon="0.51023">
        <ele>352.2</ele>
        <time>2020-10-31 10:31:28</time>
      </trkpt>
      <trkpt lat="41.37373" lon="0.51012">
        <ele>352.6</ele>
        <time>2020-10-31 10:31:32</time>
      </trkpt>
      <trkpt lat="41.37369" lon="0.51009">
        <ele>352.8</ele>
        <time>2020-10-31 10:31:33</time>
      </trkpt>
      <trkpt lat="41.37361" lon="0.50997">
        <ele>353.2</ele>
        <time>2020-10-31 10:31:36</time>
      </trkpt>
      <trkpt lat="41.37348" lon="0.50978">
        <ele>354.2</ele>
        <time>2020-10-31 10:31:41</time>
      </trkpt>
      <trkpt lat="41.37344" lon="0.50974">
        <ele>354.8</ele>
        <time>2020-10-31 10:31:43</time>
      </trkpt>
      <trkpt lat="41.3734" lon="0.5097">
        <ele>355.4</ele>
        <time>2020-10-31 10:31:45</time>
      </trkpt>
      <trkpt lat="41.37334" lon="0.50961">
        <ele>356.2</ele>
        <time>2020-10-31 10:31:48</time>
      </trkpt>
      <trkpt lat="41.37332" lon="0.50957">
        <ele>356.4</ele>
        <time>2020-10-31 10:31:50</time>
      </trkpt>
      <trkpt lat="41.37319" lon="0.50934">
        <ele>357.2</ele>
        <time>2020-10-31 10:31:55</time>
      </trkpt>
      <trkpt lat="41.37311" lon="0.50918">
        <ele>357.4</ele>
        <time>2020-10-31 10:31:59</time>
      </trkpt>
      <trkpt lat="41.37301" lon="0.50897">
        <ele>358.2</ele>
        <time>2020-10-31 10:32:04</time>
      </trkpt>
      <trkpt lat="41.37299" lon="0.50893">
        <ele>358.4</ele>
        <time>2020-10-31 10:32:05</time>
      </trkpt>
      <trkpt lat="41.37289" lon="0.50876">
        <ele>359.4</ele>
        <time>2020-10-31 10:32:10</time>
      </trkpt>
      <trkpt lat="41.37287" lon="0.50872">
        <ele>359.6</ele>
        <time>2020-10-31 10:32:11</time>
      </trkpt>
      <trkpt lat="41.37276" lon="0.50853">
        <ele>360.8</ele>
        <time>2020-10-31 10:32:16</time>
      </trkpt>
      <trkpt lat="41.37271" lon="0.50846">
        <ele>361.2</ele>
        <time>2020-10-31 10:32:18</time>
      </trkpt>
      <trkpt lat="41.37243" lon="0.50807">
        <ele>361.4</ele>
        <time>2020-10-31 10:32:28</time>
      </trkpt>
      <trkpt lat="41.37215" lon="0.50765">
        <ele>361.6</ele>
        <time>2020-10-31 10:32:38</time>
      </trkpt>
      <trkpt lat="41.37206" lon="0.50745">
        <ele>361.8</ele>
        <time>2020-10-31 10:32:43</time>
      </trkpt>
      <trkpt lat="41.37204" lon="0.50741">
        <ele>362</ele>
        <time>2020-10-31 10:32:44</time>
      </trkpt>
      <trkpt lat="41.37198" lon="0.50735">
        <ele>362.2</ele>
        <time>2020-10-31 10:32:46</time>
      </trkpt>
      <trkpt lat="41.37192" lon="0.50727">
        <ele>362.8</ele>
        <time>2020-10-31 10:32:48</time>
      </trkpt>
      <trkpt lat="41.37188" lon="0.50722">
        <ele>363</ele>
        <time>2020-10-31 10:32:50</time>
      </trkpt>
      <trkpt lat="41.37159" lon="0.50681">
        <ele>363</ele>
        <time>2020-10-31 10:32:58</time>
      </trkpt>
      <trkpt lat="41.37131" lon="0.50639">
        <ele>362.8</ele>
        <time>2020-10-31 10:33:07</time>
      </trkpt>
      <trkpt lat="41.37099" lon="0.50593">
        <ele>362.8</ele>
        <time>2020-10-31 10:33:17</time>
      </trkpt>
      <trkpt lat="41.37076" lon="0.50555">
        <ele>363</ele>
        <time>2020-10-31 10:33:25</time>
      </trkpt>
      <trkpt lat="41.37061" lon="0.50534">
        <ele>363.4</ele>
        <time>2020-10-31 10:33:31</time>
      </trkpt>
      <trkpt lat="41.37054" lon="0.50522">
        <ele>364.2</ele>
        <time>2020-10-31 10:33:34</time>
      </trkpt>
      <trkpt lat="41.37049" lon="0.50515">
        <ele>365.4</ele>
        <time>2020-10-31 10:33:37</time>
      </trkpt>
      <trkpt lat="41.37036" lon="0.50497">
        <ele>366</ele>
        <time>2020-10-31 10:33:41</time>
      </trkpt>
      <trkpt lat="41.37028" lon="0.50488">
        <ele>366.4</ele>
        <time>2020-10-31 10:33:44</time>
      </trkpt>
      <trkpt lat="41.37017" lon="0.50482">
        <ele>366.4</ele>
        <time>2020-10-31 10:33:47</time>
      </trkpt>
      <trkpt lat="41.37003" lon="0.50486">
        <ele>366.8</ele>
        <time>2020-10-31 10:33:51</time>
      </trkpt>
      <trkpt lat="41.36997" lon="0.50491">
        <ele>367.2</ele>
        <time>2020-10-31 10:33:53</time>
      </trkpt>
      <trkpt lat="41.36984" lon="0.50505">
        <ele>368</ele>
        <time>2020-10-31 10:33:58</time>
      </trkpt>
      <trkpt lat="41.36981" lon="0.50508">
        <ele>368.2</ele>
        <time>2020-10-31 10:33:59</time>
      </trkpt>
      <trkpt lat="41.36969" lon="0.50513">
        <ele>369.8</ele>
        <time>2020-10-31 10:34:03</time>
      </trkpt>
      <trkpt lat="41.36965" lon="0.50514">
        <ele>370</ele>
        <time>2020-10-31 10:34:04</time>
      </trkpt>
      <trkpt lat="41.36955" lon="0.50515">
        <ele>370.8</ele>
        <time>2020-10-31 10:34:07</time>
      </trkpt>
      <trkpt lat="41.36945" lon="0.50514">
        <ele>371.4</ele>
        <time>2020-10-31 10:34:10</time>
      </trkpt>
      <trkpt lat="41.36938" lon="0.50514">
        <ele>372</ele>
        <time>2020-10-31 10:34:12</time>
      </trkpt>
      <trkpt lat="41.36921" lon="0.50514">
        <ele>372.8</ele>
        <time>2020-10-31 10:34:17</time>
      </trkpt>
      <trkpt lat="41.36906" lon="0.50517">
        <ele>373.2</ele>
        <time>2020-10-31 10:34:21</time>
      </trkpt>
      <trkpt lat="41.36902" lon="0.50517">
        <ele>373.2</ele>
        <time>2020-10-31 10:34:22</time>
      </trkpt>
      <trkpt lat="41.36893" lon="0.50518">
        <ele>373.2</ele>
        <time>2020-10-31 10:34:24</time>
      </trkpt>
      <trkpt lat="41.36856" lon="0.50522">
        <ele>373.2</ele>
        <time>2020-10-31 10:34:32</time>
      </trkpt>
      <trkpt lat="41.36851" lon="0.50524">
        <ele>373.2</ele>
        <time>2020-10-31 10:34:33</time>
      </trkpt>
      <trkpt lat="41.36826" lon="0.5053">
        <ele>372.6</ele>
        <time>2020-10-31 10:34:38</time>
      </trkpt>
      <trkpt lat="41.36806" lon="0.50533">
        <ele>372</ele>
        <time>2020-10-31 10:34:42</time>
      </trkpt>
      <trkpt lat="41.36783" lon="0.50537">
        <ele>371.6</ele>
        <time>2020-10-31 10:34:47</time>
      </trkpt>
      <trkpt lat="41.36751" lon="0.50539">
        <ele>371.2</ele>
        <time>2020-10-31 10:34:54</time>
      </trkpt>
      <trkpt lat="41.36743" lon="0.50536">
        <ele>371.2</ele>
        <time>2020-10-31 10:34:56</time>
      </trkpt>
      <trkpt lat="41.36727" lon="0.50525">
        <ele>371</ele>
        <time>2020-10-31 10:35:00</time>
      </trkpt>
      <trkpt lat="41.36712" lon="0.50512">
        <ele>370.8</ele>
        <time>2020-10-31 10:35:04</time>
      </trkpt>
      <trkpt lat="41.36686" lon="0.50488">
        <ele>370.4</ele>
        <time>2020-10-31 10:35:12</time>
      </trkpt>
      <trkpt lat="41.36675" lon="0.50478">
        <ele>370.4</ele>
        <time>2020-10-31 10:35:15</time>
      </trkpt>
      <trkpt lat="41.36663" lon="0.5047">
        <ele>370.4</ele>
        <time>2020-10-31 10:35:18</time>
      </trkpt>
      <trkpt lat="41.36649" lon="0.50457">
        <ele>370.4</ele>
        <time>2020-10-31 10:35:22</time>
      </trkpt>
      <trkpt lat="41.3664" lon="0.50445">
        <ele>370.6</ele>
        <time>2020-10-31 10:35:25</time>
      </trkpt>
      <trkpt lat="41.36633" lon="0.50421">
        <ele>370.6</ele>
        <time>2020-10-31 10:35:30</time>
      </trkpt>
      <trkpt lat="41.36639" lon="0.50392">
        <ele>371</ele>
        <time>2020-10-31 10:35:35</time>
      </trkpt>
      <trkpt lat="41.36648" lon="0.50354">
        <ele>371.2</ele>
        <time>2020-10-31 10:35:41</time>
      </trkpt>
      <trkpt lat="41.36653" lon="0.50335">
        <ele>371.2</ele>
        <time>2020-10-31 10:35:44</time>
      </trkpt>
      <trkpt lat="41.36656" lon="0.50316">
        <ele>371</ele>
        <time>2020-10-31 10:35:47</time>
      </trkpt>
      <trkpt lat="41.36659" lon="0.50291">
        <ele>370.8</ele>
        <time>2020-10-31 10:35:51</time>
      </trkpt>
      <trkpt lat="41.36661" lon="0.50271">
        <ele>370.4</ele>
        <time>2020-10-31 10:35:54</time>
      </trkpt>
      <trkpt lat="41.36667" lon="0.50252">
        <ele>370.2</ele>
        <time>2020-10-31 10:35:57</time>
      </trkpt>
      <trkpt lat="41.36675" lon="0.50234">
        <ele>370.2</ele>
        <time>2020-10-31 10:36:00</time>
      </trkpt>
      <trkpt lat="41.36677" lon="0.50221">
        <ele>370</ele>
        <time>2020-10-31 10:36:02</time>
      </trkpt>
      <trkpt lat="41.36675" lon="0.50214">
        <ele>369.8</ele>
        <time>2020-10-31 10:36:03</time>
      </trkpt>
      <trkpt lat="41.36662" lon="0.50204">
        <ele>369.6</ele>
        <time>2020-10-31 10:36:06</time>
      </trkpt>
      <trkpt lat="41.36645" lon="0.50209">
        <ele>369.6</ele>
        <time>2020-10-31 10:36:09</time>
      </trkpt>
      <trkpt lat="41.3664" lon="0.50211">
        <ele>369.6</ele>
        <time>2020-10-31 10:36:10</time>
      </trkpt>
      <trkpt lat="41.36628" lon="0.50219">
        <ele>369.6</ele>
        <time>2020-10-31 10:36:12</time>
      </trkpt>
      <trkpt lat="41.36621" lon="0.50231">
        <ele>369.4</ele>
        <time>2020-10-31 10:36:14</time>
      </trkpt>
      <trkpt lat="41.36618" lon="0.50246">
        <ele>369.4</ele>
        <time>2020-10-31 10:36:16</time>
      </trkpt>
      <trkpt lat="41.36614" lon="0.50266">
        <ele>369.4</ele>
        <time>2020-10-31 10:36:19</time>
      </trkpt>
      <trkpt lat="41.36612" lon="0.50278">
        <ele>369.6</ele>
        <time>2020-10-31 10:36:21</time>
      </trkpt>
      <trkpt lat="41.36607" lon="0.50292">
        <ele>370.4</ele>
        <time>2020-10-31 10:36:24</time>
      </trkpt>
      <trkpt lat="41.36603" lon="0.503">
        <ele>371.2</ele>
        <time>2020-10-31 10:36:26</time>
      </trkpt>
      <trkpt lat="41.36596" lon="0.5031">
        <ele>372.4</ele>
        <time>2020-10-31 10:36:29</time>
      </trkpt>
      <trkpt lat="41.36591" lon="0.50317">
        <ele>373.4</ele>
        <time>2020-10-31 10:36:31</time>
      </trkpt>
      <trkpt lat="41.36589" lon="0.50321">
        <ele>373.8</ele>
        <time>2020-10-31 10:36:32</time>
      </trkpt>
      <trkpt lat="41.36584" lon="0.50327">
        <ele>374.8</ele>
        <time>2020-10-31 10:36:34</time>
      </trkpt>
      <trkpt lat="41.36577" lon="0.50335">
        <ele>376</ele>
        <time>2020-10-31 10:36:37</time>
      </trkpt>
      <trkpt lat="41.36575" lon="0.50338">
        <ele>376.2</ele>
        <time>2020-10-31 10:36:38</time>
      </trkpt>
      <trkpt lat="41.36568" lon="0.5034">
        <ele>377.2</ele>
        <time>2020-10-31 10:36:41</time>
      </trkpt>
      <trkpt lat="41.36567" lon="0.50339">
        <ele>377.4</ele>
        <time>2020-10-31 10:36:42</time>
      </trkpt>
      <trkpt lat="41.36568" lon="0.5033">
        <ele>378.2</ele>
        <time>2020-10-31 10:36:45</time>
      </trkpt>
      <trkpt lat="41.36572" lon="0.50324">
        <ele>378.8</ele>
        <time>2020-10-31 10:36:47</time>
      </trkpt>
      <trkpt lat="41.36574" lon="0.50321">
        <ele>379.6</ele>
        <time>2020-10-31 10:36:48</time>
      </trkpt>
      <trkpt lat="41.36579" lon="0.50313">
        <ele>379.8</ele>
        <time>2020-10-31 10:36:50</time>
      </trkpt>
      <trkpt lat="41.36589" lon="0.50287">
        <ele>379.8</ele>
        <time>2020-10-31 10:36:56</time>
      </trkpt>
      <trkpt lat="41.36595" lon="0.50267">
        <ele>379.8</ele>
        <time>2020-10-31 10:36:58</time>
      </trkpt>
      <trkpt lat="41.36597" lon="0.50255">
        <ele>379.6</ele>
        <time>2020-10-31 10:37:00</time>
      </trkpt>
      <trkpt lat="41.36598" lon="0.50249">
        <ele>379.2</ele>
        <time>2020-10-31 10:37:03</time>
      </trkpt>
      <trkpt lat="41.36598" lon="0.50249">
        <ele>378.4</ele>
        <time>2020-10-31 10:37:07</time>
      </trkpt>
      <trkpt lat="41.36598" lon="0.50245">
        <ele>377.8</ele>
        <time>2020-10-31 10:37:12</time>
      </trkpt>
      <trkpt lat="41.36597" lon="0.50226">
        <ele>377.6</ele>
        <time>2020-10-31 10:37:16</time>
      </trkpt>
      <trkpt lat="41.36596" lon="0.50212">
        <ele>377.6</ele>
        <time>2020-10-31 10:37:18</time>
      </trkpt>
      <trkpt lat="41.36591" lon="0.50182">
        <ele>377.6</ele>
        <time>2020-10-31 10:37:22</time>
      </trkpt>
      <trkpt lat="41.36588" lon="0.50166">
        <ele>377.4</ele>
        <time>2020-10-31 10:37:24</time>
      </trkpt>
      <trkpt lat="41.3658" lon="0.50115">
        <ele>376.2</ele>
        <time>2020-10-31 10:37:30</time>
      </trkpt>
      <trkpt lat="41.36572" lon="0.5008">
        <ele>375.6</ele>
        <time>2020-10-31 10:37:34</time>
      </trkpt>
      <trkpt lat="41.36566" lon="0.50064">
        <ele>375.4</ele>
        <time>2020-10-31 10:37:36</time>
      </trkpt>
      <trkpt lat="41.36562" lon="0.50056">
        <ele>375.2</ele>
        <time>2020-10-31 10:37:37</time>
      </trkpt>
      <trkpt lat="41.36549" lon="0.50026">
        <ele>374</ele>
        <time>2020-10-31 10:37:41</time>
      </trkpt>
      <trkpt lat="41.36534" lon="0.49995">
        <ele>373.2</ele>
        <time>2020-10-31 10:37:45</time>
      </trkpt>
      <trkpt lat="41.36531" lon="0.49987">
        <ele>373</ele>
        <time>2020-10-31 10:37:46</time>
      </trkpt>
      <trkpt lat="41.36505" lon="0.49937">
        <ele>372</ele>
        <time>2020-10-31 10:37:53</time>
      </trkpt>
      <trkpt lat="41.36501" lon="0.4993">
        <ele>372</ele>
        <time>2020-10-31 10:37:54</time>
      </trkpt>
      <trkpt lat="41.36476" lon="0.49887">
        <ele>370.8</ele>
        <time>2020-10-31 10:38:01</time>
      </trkpt>
      <trkpt lat="41.3647" lon="0.49882">
        <ele>370.8</ele>
        <time>2020-10-31 10:38:03</time>
      </trkpt>
      <trkpt lat="41.36466" lon="0.49882">
        <ele>370.6</ele>
        <time>2020-10-31 10:38:04</time>
      </trkpt>
      <trkpt lat="41.36461" lon="0.4989">
        <ele>370.2</ele>
        <time>2020-10-31 10:38:07</time>
      </trkpt>
      <trkpt lat="41.36458" lon="0.49906">
        <ele>370.2</ele>
        <time>2020-10-31 10:38:11</time>
      </trkpt>
      <trkpt lat="41.36456" lon="0.49917">
        <ele>370.2</ele>
        <time>2020-10-31 10:38:13</time>
      </trkpt>
      <trkpt lat="41.36448" lon="0.49954">
        <ele>370.6</ele>
        <time>2020-10-31 10:38:20</time>
      </trkpt>
      <trkpt lat="41.36439" lon="0.49996">
        <ele>371.8</ele>
        <time>2020-10-31 10:38:28</time>
      </trkpt>
      <trkpt lat="41.36438" lon="0.50001">
        <ele>372</ele>
        <time>2020-10-31 10:38:29</time>
      </trkpt>
      <trkpt lat="41.36429" lon="0.50024">
        <ele>373.2</ele>
        <time>2020-10-31 10:38:34</time>
      </trkpt>
      <trkpt lat="41.36418" lon="0.50034">
        <ele>374.8</ele>
        <time>2020-10-31 10:38:38</time>
      </trkpt>
      <trkpt lat="41.36402" lon="0.50037">
        <ele>375.8</ele>
        <time>2020-10-31 10:38:42</time>
      </trkpt>
      <trkpt lat="41.36391" lon="0.50041">
        <ele>376.6</ele>
        <time>2020-10-31 10:38:45</time>
      </trkpt>
      <trkpt lat="41.36384" lon="0.50046">
        <ele>376.8</ele>
        <time>2020-10-31 10:38:47</time>
      </trkpt>
      <trkpt lat="41.36375" lon="0.50057">
        <ele>377</ele>
        <time>2020-10-31 10:38:50</time>
      </trkpt>
      <trkpt lat="41.3636" lon="0.50084">
        <ele>377.6</ele>
        <time>2020-10-31 10:38:56</time>
      </trkpt>
      <trkpt lat="41.36359" lon="0.5009">
        <ele>377.8</ele>
        <time>2020-10-31 10:38:57</time>
      </trkpt>
      <trkpt lat="41.36358" lon="0.50095">
        <ele>378</ele>
        <time>2020-10-31 10:38:58</time>
      </trkpt>
      <trkpt lat="41.36356" lon="0.50106">
        <ele>378.2</ele>
        <time>2020-10-31 10:39:00</time>
      </trkpt>
      <trkpt lat="41.36356" lon="0.50122">
        <ele>378.2</ele>
        <time>2020-10-31 10:39:03</time>
      </trkpt>
      <trkpt lat="41.36357" lon="0.50127">
        <ele>378.4</ele>
        <time>2020-10-31 10:39:04</time>
      </trkpt>
      <trkpt lat="41.36358" lon="0.50158">
        <ele>378.8</ele>
        <time>2020-10-31 10:39:10</time>
      </trkpt>
      <trkpt lat="41.36358" lon="0.50164">
        <ele>379</ele>
        <time>2020-10-31 10:39:11</time>
      </trkpt>
      <trkpt lat="41.36357" lon="0.50176">
        <ele>379</ele>
        <time>2020-10-31 10:39:13</time>
      </trkpt>
      <trkpt lat="41.36358" lon="0.50188">
        <ele>379.2</ele>
        <time>2020-10-31 10:39:15</time>
      </trkpt>
      <trkpt lat="41.3636" lon="0.50217">
        <ele>379.2</ele>
        <time>2020-10-31 10:39:20</time>
      </trkpt>
      <trkpt lat="41.36361" lon="0.50223">
        <ele>379.2</ele>
        <time>2020-10-31 10:39:21</time>
      </trkpt>
      <trkpt lat="41.36361" lon="0.50228">
        <ele>379.4</ele>
        <time>2020-10-31 10:39:22</time>
      </trkpt>
      <trkpt lat="41.3636" lon="0.5024">
        <ele>379.4</ele>
        <time>2020-10-31 10:39:24</time>
      </trkpt>
      <trkpt lat="41.36358" lon="0.50258">
        <ele>379.6</ele>
        <time>2020-10-31 10:39:27</time>
      </trkpt>
      <trkpt lat="41.36354" lon="0.50289">
        <ele>380</ele>
        <time>2020-10-31 10:39:32</time>
      </trkpt>
      <trkpt lat="41.36353" lon="0.50295">
        <ele>380</ele>
        <time>2020-10-31 10:39:33</time>
      </trkpt>
      <trkpt lat="41.36351" lon="0.50329">
        <ele>380.2</ele>
        <time>2020-10-31 10:39:39</time>
      </trkpt>
      <trkpt lat="41.36345" lon="0.50357">
        <ele>380.2</ele>
        <time>2020-10-31 10:39:45</time>
      </trkpt>
      <trkpt lat="41.36337" lon="0.50388">
        <ele>380.4</ele>
        <time>2020-10-31 10:39:51</time>
      </trkpt>
      <trkpt lat="41.36331" lon="0.50417">
        <ele>380.6</ele>
        <time>2020-10-31 10:39:56</time>
      </trkpt>
      <trkpt lat="41.36328" lon="0.50437">
        <ele>380</ele>
        <time>2020-10-31 10:40:01</time>
      </trkpt>
      <trkpt lat="41.36329" lon="0.50441">
        <ele>378.8</ele>
        <time>2020-10-31 10:40:05</time>
      </trkpt>
      <trkpt lat="41.36329" lon="0.50441">
        <ele>378.8</ele>
        <time>2020-10-31 10:40:06</time>
      </trkpt>
      <trkpt lat="41.3633" lon="0.50441">
        <ele>378.6</ele>
        <time>2020-10-31 10:40:10</time>
      </trkpt>
      <trkpt lat="41.36331" lon="0.50441">
        <ele>378.4</ele>
        <time>2020-10-31 10:40:15</time>
      </trkpt>
      <trkpt lat="41.36331" lon="0.5044">
        <ele>378.4</ele>
        <time>2020-10-31 10:40:24</time>
      </trkpt>
      <trkpt lat="41.36331" lon="0.50442">
        <ele>378.4</ele>
        <time>2020-10-31 10:40:34</time>
      </trkpt>
      <trkpt lat="41.36331" lon="0.50442">
        <ele>378.4</ele>
        <time>2020-10-31 10:40:35</time>
      </trkpt>
      <trkpt lat="41.36337" lon="0.50498">
        <ele>375</ele>
        <time>2020-10-31 10:41:31</time>
      </trkpt>
      <trkpt lat="41.36337" lon="0.50512">
        <ele>374.8</ele>
        <time>2020-10-31 10:41:34</time>
      </trkpt>
      <trkpt lat="41.36337" lon="0.50518">
        <ele>374.8</ele>
        <time>2020-10-31 10:41:35</time>
      </trkpt>
      <trkpt lat="41.36336" lon="0.50555">
        <ele>374.2</ele>
        <time>2020-10-31 10:41:41</time>
      </trkpt>
      <trkpt lat="41.36336" lon="0.50562">
        <ele>374</ele>
        <time>2020-10-31 10:41:42</time>
      </trkpt>
      <trkpt lat="41.36334" lon="0.50601">
        <ele>373.4</ele>
        <time>2020-10-31 10:41:48</time>
      </trkpt>
      <trkpt lat="41.36333" lon="0.50653">
        <ele>373</ele>
        <time>2020-10-31 10:41:56</time>
      </trkpt>
      <trkpt lat="41.36333" lon="0.50662">
        <ele>373</ele>
        <time>2020-10-31 10:41:58</time>
      </trkpt>
      <trkpt lat="41.36336" lon="0.50666">
        <ele>373</ele>
        <time>2020-10-31 10:41:59</time>
      </trkpt>
      <trkpt lat="41.36345" lon="0.50684">
        <ele>372.8</ele>
        <time>2020-10-31 10:42:03</time>
      </trkpt>
      <trkpt lat="41.36346" lon="0.50688">
        <ele>372.6</ele>
        <time>2020-10-31 10:42:04</time>
      </trkpt>
      <trkpt lat="41.36348" lon="0.50718">
        <ele>372.4</ele>
        <time>2020-10-31 10:42:10</time>
      </trkpt>
      <trkpt lat="41.3634" lon="0.50739">
        <ele>372.2</ele>
        <time>2020-10-31 10:42:15</time>
      </trkpt>
      <trkpt lat="41.3634" lon="0.50743">
        <ele>372.2</ele>
        <time>2020-10-31 10:42:16</time>
      </trkpt>
      <trkpt lat="41.36339" lon="0.5075">
        <ele>372.2</ele>
        <time>2020-10-31 10:42:19</time>
      </trkpt>
      <trkpt lat="41.36337" lon="0.50755">
        <ele>372.2</ele>
        <time>2020-10-31 10:42:22</time>
      </trkpt>
      <trkpt lat="41.36337" lon="0.50757">
        <ele>372</ele>
        <time>2020-10-31 10:42:23</time>
      </trkpt>
      <trkpt lat="41.36339" lon="0.50752">
        <ele>372</ele>
        <time>2020-10-31 10:42:26</time>
      </trkpt>
      <trkpt lat="41.36342" lon="0.50739">
        <ele>372</ele>
        <time>2020-10-31 10:42:30</time>
      </trkpt>
      <trkpt lat="41.3635" lon="0.50742">
        <ele>372</ele>
        <time>2020-10-31 10:42:33</time>
      </trkpt>
      <trkpt lat="41.36358" lon="0.50761">
        <ele>372</ele>
        <time>2020-10-31 10:42:37</time>
      </trkpt>
      <trkpt lat="41.36371" lon="0.5079">
        <ele>372.4</ele>
        <time>2020-10-31 10:42:43</time>
      </trkpt>
      <trkpt lat="41.36375" lon="0.50806">
        <ele>372.6</ele>
        <time>2020-10-31 10:42:47</time>
      </trkpt>
      <trkpt lat="41.36387" lon="0.50812">
        <ele>372.6</ele>
        <time>2020-10-31 10:42:51</time>
      </trkpt>
      <trkpt lat="41.3639" lon="0.50822">
        <ele>372.8</ele>
        <time>2020-10-31 10:42:54</time>
      </trkpt>
      <trkpt lat="41.36387" lon="0.5084">
        <ele>372.8</ele>
        <time>2020-10-31 10:42:57</time>
      </trkpt>
      <trkpt lat="41.36387" lon="0.50846">
        <ele>372.8</ele>
        <time>2020-10-31 10:42:58</time>
      </trkpt>
      <trkpt lat="41.3638" lon="0.50887">
        <ele>373</ele>
        <time>2020-10-31 10:43:04</time>
      </trkpt>
      <trkpt lat="41.36379" lon="0.50894">
        <ele>373</ele>
        <time>2020-10-31 10:43:05</time>
      </trkpt>
      <trkpt lat="41.36376" lon="0.50923">
        <ele>373</ele>
        <time>2020-10-31 10:43:09</time>
      </trkpt>
      <trkpt lat="41.36373" lon="0.50944">
        <ele>373</ele>
        <time>2020-10-31 10:43:12</time>
      </trkpt>
      <trkpt lat="41.36367" lon="0.50965">
        <ele>373</ele>
        <time>2020-10-31 10:43:15</time>
      </trkpt>
      <trkpt lat="41.36349" lon="0.51009">
        <ele>372.8</ele>
        <time>2020-10-31 10:43:21</time>
      </trkpt>
      <trkpt lat="41.36334" lon="0.51041">
        <ele>372.4</ele>
        <time>2020-10-31 10:43:25</time>
      </trkpt>
      <trkpt lat="41.36324" lon="0.51054">
        <ele>371.8</ele>
        <time>2020-10-31 10:43:27</time>
      </trkpt>
      <trkpt lat="41.36318" lon="0.51061">
        <ele>371.4</ele>
        <time>2020-10-31 10:43:28</time>
      </trkpt>
      <trkpt lat="41.36294" lon="0.51084">
        <ele>370.4</ele>
        <time>2020-10-31 10:43:32</time>
      </trkpt>
      <trkpt lat="41.36267" lon="0.51112">
        <ele>369.4</ele>
        <time>2020-10-31 10:43:37</time>
      </trkpt>
      <trkpt lat="41.36258" lon="0.51127">
        <ele>368.8</ele>
        <time>2020-10-31 10:43:39</time>
      </trkpt>
      <trkpt lat="41.36254" lon="0.51134">
        <ele>368.6</ele>
        <time>2020-10-31 10:43:40</time>
      </trkpt>
      <trkpt lat="41.36237" lon="0.5115">
        <ele>368.2</ele>
        <time>2020-10-31 10:43:43</time>
      </trkpt>
      <trkpt lat="41.3623" lon="0.51153">
        <ele>368</ele>
        <time>2020-10-31 10:43:44</time>
      </trkpt>
      <trkpt lat="41.36199" lon="0.51164">
        <ele>367.6</ele>
        <time>2020-10-31 10:43:49</time>
      </trkpt>
      <trkpt lat="41.3618" lon="0.51171">
        <ele>367.4</ele>
        <time>2020-10-31 10:43:52</time>
      </trkpt>
      <trkpt lat="41.36167" lon="0.5118">
        <ele>367.4</ele>
        <time>2020-10-31 10:43:54</time>
      </trkpt>
      <trkpt lat="41.36156" lon="0.51191">
        <ele>367.4</ele>
        <time>2020-10-31 10:43:56</time>
      </trkpt>
      <trkpt lat="41.36139" lon="0.51209">
        <ele>367.2</ele>
        <time>2020-10-31 10:43:59</time>
      </trkpt>
      <trkpt lat="41.36134" lon="0.51215">
        <ele>367.2</ele>
        <time>2020-10-31 10:44:00</time>
      </trkpt>
      <trkpt lat="41.36119" lon="0.51232">
        <ele>366.6</ele>
        <time>2020-10-31 10:44:04</time>
      </trkpt>
      <trkpt lat="41.36111" lon="0.51239">
        <ele>366.6</ele>
        <time>2020-10-31 10:44:08</time>
      </trkpt>
      <trkpt lat="41.36096" lon="0.51247">
        <ele>367.2</ele>
        <time>2020-10-31 10:44:12</time>
      </trkpt>
      <trkpt lat="41.36092" lon="0.51251">
        <ele>367.2</ele>
        <time>2020-10-31 10:44:13</time>
      </trkpt>
      <trkpt lat="41.36072" lon="0.51272">
        <ele>367.4</ele>
        <time>2020-10-31 10:44:17</time>
      </trkpt>
      <trkpt lat="41.36034" lon="0.51321">
        <ele>366.2</ele>
        <time>2020-10-31 10:44:24</time>
      </trkpt>
      <trkpt lat="41.36029" lon="0.51327">
        <ele>365.8</ele>
        <time>2020-10-31 10:44:25</time>
      </trkpt>
      <trkpt lat="41.36018" lon="0.51341">
        <ele>364.6</ele>
        <time>2020-10-31 10:44:27</time>
      </trkpt>
      <trkpt lat="41.36003" lon="0.51361">
        <ele>363.4</ele>
        <time>2020-10-31 10:44:30</time>
      </trkpt>
      <trkpt lat="41.35996" lon="0.51371">
        <ele>363</ele>
        <time>2020-10-31 10:44:32</time>
      </trkpt>
      <trkpt lat="41.35991" lon="0.51382">
        <ele>362.6</ele>
        <time>2020-10-31 10:44:34</time>
      </trkpt>
      <trkpt lat="41.35989" lon="0.51388">
        <ele>362.4</ele>
        <time>2020-10-31 10:44:35</time>
      </trkpt>
      <trkpt lat="41.35982" lon="0.51407">
        <ele>361.6</ele>
        <time>2020-10-31 10:44:38</time>
      </trkpt>
      <trkpt lat="41.35979" lon="0.51414">
        <ele>361.4</ele>
        <time>2020-10-31 10:44:39</time>
      </trkpt>
      <trkpt lat="41.35974" lon="0.51429">
        <ele>361.2</ele>
        <time>2020-10-31 10:44:41</time>
      </trkpt>
      <trkpt lat="41.35962" lon="0.51458">
        <ele>361</ele>
        <time>2020-10-31 10:44:45</time>
      </trkpt>
      <trkpt lat="41.35937" lon="0.51506">
        <ele>360.6</ele>
        <time>2020-10-31 10:44:52</time>
      </trkpt>
      <trkpt lat="41.35907" lon="0.51561">
        <ele>360.6</ele>
        <time>2020-10-31 10:45:00</time>
      </trkpt>
      <trkpt lat="41.35891" lon="0.516">
        <ele>361</ele>
        <time>2020-10-31 10:45:06</time>
      </trkpt>
      <trkpt lat="41.35888" lon="0.51607">
        <ele>361</ele>
        <time>2020-10-31 10:45:07</time>
      </trkpt>
      <trkpt lat="41.35884" lon="0.51636">
        <ele>362.4</ele>
        <time>2020-10-31 10:45:11</time>
      </trkpt>
      <trkpt lat="41.35883" lon="0.51658">
        <ele>363.6</ele>
        <time>2020-10-31 10:45:14</time>
      </trkpt>
      <trkpt lat="41.35879" lon="0.51708">
        <ele>364.2</ele>
        <time>2020-10-31 10:45:21</time>
      </trkpt>
      <trkpt lat="41.35877" lon="0.51722">
        <ele>364.4</ele>
        <time>2020-10-31 10:45:23</time>
      </trkpt>
      <trkpt lat="41.35876" lon="0.51728">
        <ele>364.6</ele>
        <time>2020-10-31 10:45:24</time>
      </trkpt>
      <trkpt lat="41.35871" lon="0.51747">
        <ele>365</ele>
        <time>2020-10-31 10:45:27</time>
      </trkpt>
      <trkpt lat="41.35864" lon="0.51765">
        <ele>365.2</ele>
        <time>2020-10-31 10:45:30</time>
      </trkpt>
      <trkpt lat="41.35856" lon="0.51776">
        <ele>365.6</ele>
        <time>2020-10-31 10:45:32</time>
      </trkpt>
      <trkpt lat="41.35836" lon="0.51802">
        <ele>366.6</ele>
        <time>2020-10-31 10:45:38</time>
      </trkpt>
      <trkpt lat="41.35816" lon="0.51826">
        <ele>367.6</ele>
        <time>2020-10-31 10:45:44</time>
      </trkpt>
      <trkpt lat="41.35808" lon="0.51836">
        <ele>368</ele>
        <time>2020-10-31 10:45:47</time>
      </trkpt>
      <trkpt lat="41.35798" lon="0.51848">
        <ele>368.8</ele>
        <time>2020-10-31 10:45:51</time>
      </trkpt>
      <trkpt lat="41.35794" lon="0.51855">
        <ele>369.6</ele>
        <time>2020-10-31 10:45:53</time>
      </trkpt>
      <trkpt lat="41.35793" lon="0.51859">
        <ele>370</ele>
        <time>2020-10-31 10:45:54</time>
      </trkpt>
      <trkpt lat="41.35791" lon="0.51874">
        <ele>371</ele>
        <time>2020-10-31 10:45:57</time>
      </trkpt>
      <trkpt lat="41.3579" lon="0.51879">
        <ele>371.2</ele>
        <time>2020-10-31 10:45:58</time>
      </trkpt>
      <trkpt lat="41.35791" lon="0.519">
        <ele>372.2</ele>
        <time>2020-10-31 10:46:02</time>
      </trkpt>
      <trkpt lat="41.35793" lon="0.51921">
        <ele>372.2</ele>
        <time>2020-10-31 10:46:06</time>
      </trkpt>
      <trkpt lat="41.35801" lon="0.51973">
        <ele>372.6</ele>
        <time>2020-10-31 10:46:15</time>
      </trkpt>
      <trkpt lat="41.35806" lon="0.52007">
        <ele>373.2</ele>
        <time>2020-10-31 10:46:21</time>
      </trkpt>
      <trkpt lat="41.35807" lon="0.52018">
        <ele>373.4</ele>
        <time>2020-10-31 10:46:23</time>
      </trkpt>
      <trkpt lat="41.35811" lon="0.52061">
        <ele>374.2</ele>
        <time>2020-10-31 10:46:31</time>
      </trkpt>
      <trkpt lat="41.35806" lon="0.52087">
        <ele>374.4</ele>
        <time>2020-10-31 10:46:37</time>
      </trkpt>
      <trkpt lat="41.35796" lon="0.52105">
        <ele>374.6</ele>
        <time>2020-10-31 10:46:42</time>
      </trkpt>
      <trkpt lat="41.35774" lon="0.52133">
        <ele>374.8</ele>
        <time>2020-10-31 10:46:49</time>
      </trkpt>
      <trkpt lat="41.35751" lon="0.52152">
        <ele>374.6</ele>
        <time>2020-10-31 10:46:53</time>
      </trkpt>
      <trkpt lat="41.35743" lon="0.52157">
        <ele>374.6</ele>
        <time>2020-10-31 10:46:54</time>
      </trkpt>
      <trkpt lat="41.35728" lon="0.52163">
        <ele>374.6</ele>
        <time>2020-10-31 10:46:56</time>
      </trkpt>
      <trkpt lat="41.35688" lon="0.52169">
        <ele>373</ele>
        <time>2020-10-31 10:47:01</time>
      </trkpt>
      <trkpt lat="41.35673" lon="0.52171">
        <ele>372</ele>
        <time>2020-10-31 10:47:03</time>
      </trkpt>
      <trkpt lat="41.35645" lon="0.52175">
        <ele>371.6</ele>
        <time>2020-10-31 10:47:07</time>
      </trkpt>
      <trkpt lat="41.35639" lon="0.52177">
        <ele>371.6</ele>
        <time>2020-10-31 10:47:08</time>
      </trkpt>
      <trkpt lat="41.35624" lon="0.52185">
        <ele>371.6</ele>
        <time>2020-10-31 10:47:11</time>
      </trkpt>
      <trkpt lat="41.3562" lon="0.52187">
        <ele>371.6</ele>
        <time>2020-10-31 10:47:12</time>
      </trkpt>
      <trkpt lat="41.356" lon="0.52202">
        <ele>373</ele>
        <time>2020-10-31 10:47:17</time>
      </trkpt>
      <trkpt lat="41.35592" lon="0.52206">
        <ele>373.8</ele>
        <time>2020-10-31 10:47:19</time>
      </trkpt>
      <trkpt lat="41.35587" lon="0.52209">
        <ele>374.2</ele>
        <time>2020-10-31 10:47:20</time>
      </trkpt>
      <trkpt lat="41.35574" lon="0.52217">
        <ele>375.4</ele>
        <time>2020-10-31 10:47:23</time>
      </trkpt>
      <trkpt lat="41.35569" lon="0.52219">
        <ele>375.6</ele>
        <time>2020-10-31 10:47:24</time>
      </trkpt>
      <trkpt lat="41.35563" lon="0.52223">
        <ele>375.8</ele>
        <time>2020-10-31 10:47:25</time>
      </trkpt>
      <trkpt lat="41.35549" lon="0.52239">
        <ele>375.8</ele>
        <time>2020-10-31 10:47:28</time>
      </trkpt>
      <trkpt lat="41.35511" lon="0.52284">
        <ele>374.6</ele>
        <time>2020-10-31 10:47:36</time>
      </trkpt>
      <trkpt lat="41.35506" lon="0.52289">
        <ele>374.2</ele>
        <time>2020-10-31 10:47:37</time>
      </trkpt>
      <trkpt lat="41.35496" lon="0.523">
        <ele>373.8</ele>
        <time>2020-10-31 10:47:39</time>
      </trkpt>
      <trkpt lat="41.35492" lon="0.52307">
        <ele>373.6</ele>
        <time>2020-10-31 10:47:40</time>
      </trkpt>
      <trkpt lat="41.35485" lon="0.52328">
        <ele>373.2</ele>
        <time>2020-10-31 10:47:43</time>
      </trkpt>
      <trkpt lat="41.35484" lon="0.52334">
        <ele>373.2</ele>
        <time>2020-10-31 10:47:44</time>
      </trkpt>
      <trkpt lat="41.35482" lon="0.52346">
        <ele>372.8</ele>
        <time>2020-10-31 10:47:46</time>
      </trkpt>
      <trkpt lat="41.35478" lon="0.52358">
        <ele>372</ele>
        <time>2020-10-31 10:47:48</time>
      </trkpt>
      <trkpt lat="41.35476" lon="0.52364">
        <ele>371.6</ele>
        <time>2020-10-31 10:47:49</time>
      </trkpt>
      <trkpt lat="41.35469" lon="0.52383">
        <ele>370.8</ele>
        <time>2020-10-31 10:47:52</time>
      </trkpt>
      <trkpt lat="41.35467" lon="0.52388">
        <ele>370.8</ele>
        <time>2020-10-31 10:47:53</time>
      </trkpt>
      <trkpt lat="41.35461" lon="0.52398">
        <ele>370.6</ele>
        <time>2020-10-31 10:47:55</time>
      </trkpt>
      <trkpt lat="41.35455" lon="0.52407">
        <ele>370.4</ele>
        <time>2020-10-31 10:47:57</time>
      </trkpt>
      <trkpt lat="41.35446" lon="0.52414">
        <ele>369.6</ele>
        <time>2020-10-31 10:47:59</time>
      </trkpt>
      <trkpt lat="41.35437" lon="0.52421">
        <ele>369.4</ele>
        <time>2020-10-31 10:48:01</time>
      </trkpt>
      <trkpt lat="41.35428" lon="0.52426">
        <ele>368.6</ele>
        <time>2020-10-31 10:48:03</time>
      </trkpt>
      <trkpt lat="41.35407" lon="0.52439">
        <ele>367.4</ele>
        <time>2020-10-31 10:48:07</time>
      </trkpt>
      <trkpt lat="41.35401" lon="0.52443">
        <ele>366.8</ele>
        <time>2020-10-31 10:48:08</time>
      </trkpt>
      <trkpt lat="41.35389" lon="0.52451">
        <ele>366</ele>
        <time>2020-10-31 10:48:10</time>
      </trkpt>
      <trkpt lat="41.35377" lon="0.52457">
        <ele>365</ele>
        <time>2020-10-31 10:48:12</time>
      </trkpt>
      <trkpt lat="41.35371" lon="0.5246">
        <ele>364.4</ele>
        <time>2020-10-31 10:48:13</time>
      </trkpt>
      <trkpt lat="41.35366" lon="0.52462">
        <ele>363.8</ele>
        <time>2020-10-31 10:48:14</time>
      </trkpt>
      <trkpt lat="41.35357" lon="0.52466">
        <ele>362.6</ele>
        <time>2020-10-31 10:48:16</time>
      </trkpt>
      <trkpt lat="41.35354" lon="0.52468">
        <ele>362.2</ele>
        <time>2020-10-31 10:48:17</time>
      </trkpt>
      <trkpt lat="41.3535" lon="0.52471">
        <ele>361.2</ele>
        <time>2020-10-31 10:48:19</time>
      </trkpt>
      <trkpt lat="41.35347" lon="0.52474">
        <ele>359.6</ele>
        <time>2020-10-31 10:48:20</time>
      </trkpt>
      <trkpt lat="41.35342" lon="0.52478">
        <ele>358.6</ele>
        <time>2020-10-31 10:48:22</time>
      </trkpt>
      <trkpt lat="41.35338" lon="0.52481">
        <ele>358.4</ele>
        <time>2020-10-31 10:48:23</time>
      </trkpt>
      <trkpt lat="41.35335" lon="0.52485">
        <ele>358.2</ele>
        <time>2020-10-31 10:48:24</time>
      </trkpt>
      <trkpt lat="41.35326" lon="0.52499">
        <ele>357.4</ele>
        <time>2020-10-31 10:48:27</time>
      </trkpt>
      <trkpt lat="41.35323" lon="0.52504">
        <ele>357.4</ele>
        <time>2020-10-31 10:48:28</time>
      </trkpt>
      <trkpt lat="41.35306" lon="0.52517">
        <ele>356.4</ele>
        <time>2020-10-31 10:48:32</time>
      </trkpt>
      <trkpt lat="41.35301" lon="0.52521">
        <ele>355.8</ele>
        <time>2020-10-31 10:48:33</time>
      </trkpt>
      <trkpt lat="41.35296" lon="0.52526">
        <ele>355.4</ele>
        <time>2020-10-31 10:48:34</time>
      </trkpt>
      <trkpt lat="41.35287" lon="0.52536">
        <ele>354.2</ele>
        <time>2020-10-31 10:48:36</time>
      </trkpt>
      <trkpt lat="41.35284" lon="0.5254">
        <ele>353.4</ele>
        <time>2020-10-31 10:48:37</time>
      </trkpt>
      <trkpt lat="41.3528" lon="0.52544">
        <ele>353</ele>
        <time>2020-10-31 10:48:38</time>
      </trkpt>
      <trkpt lat="41.3527" lon="0.52549">
        <ele>351.8</ele>
        <time>2020-10-31 10:48:40</time>
      </trkpt>
      <trkpt lat="41.3526" lon="0.52556">
        <ele>350.6</ele>
        <time>2020-10-31 10:48:43</time>
      </trkpt>
      <trkpt lat="41.35257" lon="0.52559">
        <ele>350.2</ele>
        <time>2020-10-31 10:48:44</time>
      </trkpt>
      <trkpt lat="41.3525" lon="0.52563">
        <ele>349.4</ele>
        <time>2020-10-31 10:48:46</time>
      </trkpt>
      <trkpt lat="41.35246" lon="0.52565">
        <ele>348.6</ele>
        <time>2020-10-31 10:48:47</time>
      </trkpt>
      <trkpt lat="41.35242" lon="0.52567">
        <ele>348.2</ele>
        <time>2020-10-31 10:48:48</time>
      </trkpt>
      <trkpt lat="41.35237" lon="0.52569">
        <ele>347.8</ele>
        <time>2020-10-31 10:48:49</time>
      </trkpt>
      <trkpt lat="41.35233" lon="0.52571">
        <ele>347.6</ele>
        <time>2020-10-31 10:48:50</time>
      </trkpt>
      <trkpt lat="41.35227" lon="0.52578">
        <ele>347</ele>
        <time>2020-10-31 10:48:52</time>
      </trkpt>
      <trkpt lat="41.35221" lon="0.52586">
        <ele>345.4</ele>
        <time>2020-10-31 10:48:55</time>
      </trkpt>
      <trkpt lat="41.35219" lon="0.52589">
        <ele>344.4</ele>
        <time>2020-10-31 10:48:56</time>
      </trkpt>
      <trkpt lat="41.35218" lon="0.52592">
        <ele>343.6</ele>
        <time>2020-10-31 10:48:57</time>
      </trkpt>
      <trkpt lat="41.35217" lon="0.52595">
        <ele>343.2</ele>
        <time>2020-10-31 10:48:58</time>
      </trkpt>
      <trkpt lat="41.35215" lon="0.52607">
        <ele>342</ele>
        <time>2020-10-31 10:49:02</time>
      </trkpt>
      <trkpt lat="41.35215" lon="0.52611">
        <ele>341.8</ele>
        <time>2020-10-31 10:49:03</time>
      </trkpt>
      <trkpt lat="41.35213" lon="0.52628">
        <ele>341.4</ele>
        <time>2020-10-31 10:49:06</time>
      </trkpt>
      <trkpt lat="41.35213" lon="0.52633">
        <ele>341.2</ele>
        <time>2020-10-31 10:49:07</time>
      </trkpt>
      <trkpt lat="41.35212" lon="0.52637">
        <ele>340.8</ele>
        <time>2020-10-31 10:49:08</time>
      </trkpt>
      <trkpt lat="41.35211" lon="0.52644">
        <ele>340</ele>
        <time>2020-10-31 10:49:11</time>
      </trkpt>
      <trkpt lat="41.35211" lon="0.52645">
        <ele>339.6</ele>
        <time>2020-10-31 10:49:12</time>
      </trkpt>
      <trkpt lat="41.35212" lon="0.52653">
        <ele>338.2</ele>
        <time>2020-10-31 10:49:15</time>
      </trkpt>
      <trkpt lat="41.35212" lon="0.52656">
        <ele>337.4</ele>
        <time>2020-10-31 10:49:16</time>
      </trkpt>
      <trkpt lat="41.35213" lon="0.5266">
        <ele>337</ele>
        <time>2020-10-31 10:49:17</time>
      </trkpt>
      <trkpt lat="41.35215" lon="0.52682">
        <ele>336.6</ele>
        <time>2020-10-31 10:49:23</time>
      </trkpt>
      <trkpt lat="41.35219" lon="0.52703">
        <ele>336.6</ele>
        <time>2020-10-31 10:49:28</time>
      </trkpt>
      <trkpt lat="41.35222" lon="0.52717">
        <ele>336.4</ele>
        <time>2020-10-31 10:49:31</time>
      </trkpt>
      <trkpt lat="41.35224" lon="0.52731">
        <ele>336.4</ele>
        <time>2020-10-31 10:49:34</time>
      </trkpt>
      <trkpt lat="41.35225" lon="0.52736">
        <ele>336.4</ele>
        <time>2020-10-31 10:49:35</time>
      </trkpt>
      <trkpt lat="41.35227" lon="0.52748">
        <ele>336.4</ele>
        <time>2020-10-31 10:49:37</time>
      </trkpt>
      <trkpt lat="41.35229" lon="0.52759">
        <ele>336</ele>
        <time>2020-10-31 10:49:39</time>
      </trkpt>
      <trkpt lat="41.35223" lon="0.52782">
        <ele>335.8</ele>
        <time>2020-10-31 10:49:43</time>
      </trkpt>
      <trkpt lat="41.35221" lon="0.52788">
        <ele>335.6</ele>
        <time>2020-10-31 10:49:44</time>
      </trkpt>
      <trkpt lat="41.35217" lon="0.52799">
        <ele>335.2</ele>
        <time>2020-10-31 10:49:46</time>
      </trkpt>
      <trkpt lat="41.35214" lon="0.5281">
        <ele>334.2</ele>
        <time>2020-10-31 10:49:48</time>
      </trkpt>
      <trkpt lat="41.35212" lon="0.52822">
        <ele>333</ele>
        <time>2020-10-31 10:49:51</time>
      </trkpt>
      <trkpt lat="41.35211" lon="0.52824">
        <ele>332.4</ele>
        <time>2020-10-31 10:49:52</time>
      </trkpt>
      <trkpt lat="41.35208" lon="0.52827">
        <ele>331.4</ele>
        <time>2020-10-31 10:49:54</time>
      </trkpt>
      <trkpt lat="41.35204" lon="0.52831">
        <ele>330.8</ele>
        <time>2020-10-31 10:49:57</time>
      </trkpt>
      <trkpt lat="41.35203" lon="0.52833">
        <ele>330.6</ele>
        <time>2020-10-31 10:50:01</time>
      </trkpt>
      <trkpt lat="41.35202" lon="0.52834">
        <ele>330.4</ele>
        <time>2020-10-31 10:50:05</time>
      </trkpt>
      <trkpt lat="41.35202" lon="0.52834">
        <ele>330.4</ele>
        <time>2020-10-31 10:50:07</time>
      </trkpt>
      <trkpt lat="41.35202" lon="0.52833">
        <ele>330.6</ele>
        <time>2020-10-31 10:50:20</time>
      </trkpt>
      <trkpt lat="41.35202" lon="0.52833">
        <ele>330.2</ele>
        <time>2020-10-31 10:50:58</time>
      </trkpt>
      <trkpt lat="41.35202" lon="0.52833">
        <ele>330.2</ele>
        <time>2020-10-31 10:51:02</time>
      </trkpt>
      <trkpt lat="41.35203" lon="0.52833">
        <ele>330.4</ele>
        <time>2020-10-31 10:51:17</time>
      </trkpt>
      <trkpt lat="41.35203" lon="0.52831">
        <ele>330.4</ele>
        <time>2020-10-31 10:51:24</time>
      </trkpt>
      <trkpt lat="41.35204" lon="0.52831">
        <ele>330.4</ele>
        <time>2020-10-31 10:51:28</time>
      </trkpt>
      <trkpt lat="41.35205" lon="0.52827">
        <ele>330.2</ele>
        <time>2020-10-31 10:51:31</time>
      </trkpt>
      <trkpt lat="41.35209" lon="0.52823">
        <ele>330.2</ele>
        <time>2020-10-31 10:51:34</time>
      </trkpt>
      <trkpt lat="41.35212" lon="0.52824">
        <ele>330.2</ele>
        <time>2020-10-31 10:51:36</time>
      </trkpt>
      <trkpt lat="41.35218" lon="0.52828">
        <ele>330.2</ele>
        <time>2020-10-31 10:51:40</time>
      </trkpt>
      <trkpt lat="41.3522" lon="0.52831">
        <ele>330.4</ele>
        <time>2020-10-31 10:51:42</time>
      </trkpt>
      <trkpt lat="41.35223" lon="0.52847">
        <ele>331.2</ele>
        <time>2020-10-31 10:51:48</time>
      </trkpt>
      <trkpt lat="41.35222" lon="0.52849">
        <ele>331.2</ele>
        <time>2020-10-31 10:51:49</time>
      </trkpt>
      <trkpt lat="41.35216" lon="0.52862">
        <ele>332.2</ele>
        <time>2020-10-31 10:51:53</time>
      </trkpt>
      <trkpt lat="41.35214" lon="0.52865">
        <ele>332.6</ele>
        <time>2020-10-31 10:51:54</time>
      </trkpt>
      <trkpt lat="41.35211" lon="0.52884">
        <ele>333.2</ele>
        <time>2020-10-31 10:51:58</time>
      </trkpt>
      <trkpt lat="41.35214" lon="0.52902">
        <ele>333.6</ele>
        <time>2020-10-31 10:52:03</time>
      </trkpt>
      <trkpt lat="41.35216" lon="0.52903">
        <ele>333.6</ele>
        <time>2020-10-31 10:52:04</time>
      </trkpt>
      <trkpt lat="41.35219" lon="0.52901">
        <ele>334.2</ele>
        <time>2020-10-31 10:52:06</time>
      </trkpt>
      <trkpt lat="41.35222" lon="0.52897">
        <ele>335</ele>
        <time>2020-10-31 10:52:08</time>
      </trkpt>
      <trkpt lat="41.35224" lon="0.52895">
        <ele>335.4</ele>
        <time>2020-10-31 10:52:09</time>
      </trkpt>
      <trkpt lat="41.35228" lon="0.52891">
        <ele>336.4</ele>
        <time>2020-10-31 10:52:11</time>
      </trkpt>
      <trkpt lat="41.35232" lon="0.52888">
        <ele>337.6</ele>
        <time>2020-10-31 10:52:13</time>
      </trkpt>
      <trkpt lat="41.35237" lon="0.52886">
        <ele>338.4</ele>
        <time>2020-10-31 10:52:16</time>
      </trkpt>
      <trkpt lat="41.3524" lon="0.52885">
        <ele>338.6</ele>
        <time>2020-10-31 10:52:18</time>
      </trkpt>
      <trkpt lat="41.35249" lon="0.52879">
        <ele>339</ele>
        <time>2020-10-31 10:52:21</time>
      </trkpt>
      <trkpt lat="41.35267" lon="0.52866">
        <ele>339.8</ele>
        <time>2020-10-31 10:52:25</time>
      </trkpt>
      <trkpt lat="41.35289" lon="0.52864">
        <ele>339.8</ele>
        <time>2020-10-31 10:52:29</time>
      </trkpt>
      <trkpt lat="41.353" lon="0.52871">
        <ele>338.6</ele>
        <time>2020-10-31 10:52:32</time>
      </trkpt>
      <trkpt lat="41.35306" lon="0.52877">
        <ele>337.4</ele>
        <time>2020-10-31 10:52:34</time>
      </trkpt>
      <trkpt lat="41.35313" lon="0.52899">
        <ele>336.4</ele>
        <time>2020-10-31 10:52:38</time>
      </trkpt>
      <trkpt lat="41.35316" lon="0.52904">
        <ele>336.2</ele>
        <time>2020-10-31 10:52:39</time>
      </trkpt>
      <trkpt lat="41.35322" lon="0.5291">
        <ele>335.8</ele>
        <time>2020-10-31 10:52:41</time>
      </trkpt>
      <trkpt lat="41.35331" lon="0.52911">
        <ele>335</ele>
        <time>2020-10-31 10:52:44</time>
      </trkpt>
      <trkpt lat="41.35341" lon="0.52909">
        <ele>334.2</ele>
        <time>2020-10-31 10:52:47</time>
      </trkpt>
      <trkpt lat="41.35355" lon="0.52905">
        <ele>334</ele>
        <time>2020-10-31 10:52:51</time>
      </trkpt>
      <trkpt lat="41.35366" lon="0.52903">
        <ele>334</ele>
        <time>2020-10-31 10:52:54</time>
      </trkpt>
      <trkpt lat="41.35385" lon="0.52899">
        <ele>334</ele>
        <time>2020-10-31 10:53:00</time>
      </trkpt>
      <trkpt lat="41.35412" lon="0.52898">
        <ele>334</ele>
        <time>2020-10-31 10:53:08</time>
      </trkpt>
      <trkpt lat="41.35439" lon="0.52896">
        <ele>334.4</ele>
        <time>2020-10-31 10:53:16</time>
      </trkpt>
      <trkpt lat="41.35458" lon="0.52896">
        <ele>334.6</ele>
        <time>2020-10-31 10:53:22</time>
      </trkpt>
      <trkpt lat="41.35471" lon="0.52894">
        <ele>335.4</ele>
        <time>2020-10-31 10:53:26</time>
      </trkpt>
      <trkpt lat="41.35481" lon="0.52894">
        <ele>335.8</ele>
        <time>2020-10-31 10:53:29</time>
      </trkpt>
      <trkpt lat="41.35497" lon="0.52898">
        <ele>336.2</ele>
        <time>2020-10-31 10:53:34</time>
      </trkpt>
      <trkpt lat="41.35504" lon="0.52899">
        <ele>336.4</ele>
        <time>2020-10-31 10:53:36</time>
      </trkpt>
      <trkpt lat="41.35511" lon="0.52899">
        <ele>336.6</ele>
        <time>2020-10-31 10:53:38</time>
      </trkpt>
      <trkpt lat="41.35536" lon="0.52894">
        <ele>337.4</ele>
        <time>2020-10-31 10:53:45</time>
      </trkpt>
      <trkpt lat="41.35539" lon="0.52894">
        <ele>337.4</ele>
        <time>2020-10-31 10:53:46</time>
      </trkpt>
      <trkpt lat="41.35553" lon="0.52889">
        <ele>338.4</ele>
        <time>2020-10-31 10:53:52</time>
      </trkpt>
      <trkpt lat="41.35556" lon="0.52887">
        <ele>339.4</ele>
        <time>2020-10-31 10:53:53</time>
      </trkpt>
      <trkpt lat="41.35564" lon="0.52882">
        <ele>340.8</ele>
        <time>2020-10-31 10:53:56</time>
      </trkpt>
      <trkpt lat="41.35569" lon="0.5288">
        <ele>341.2</ele>
        <time>2020-10-31 10:53:58</time>
      </trkpt>
      <trkpt lat="41.35577" lon="0.52874">
        <ele>341.8</ele>
        <time>2020-10-31 10:54:01</time>
      </trkpt>
      <trkpt lat="41.35583" lon="0.5287">
        <ele>342</ele>
        <time>2020-10-31 10:54:03</time>
      </trkpt>
      <trkpt lat="41.35603" lon="0.52851">
        <ele>342.4</ele>
        <time>2020-10-31 10:54:10</time>
      </trkpt>
      <trkpt lat="41.3561" lon="0.52844">
        <ele>342.6</ele>
        <time>2020-10-31 10:54:12</time>
      </trkpt>
      <trkpt lat="41.3562" lon="0.52836">
        <ele>342.6</ele>
        <time>2020-10-31 10:54:15</time>
      </trkpt>
      <trkpt lat="41.35624" lon="0.52835">
        <ele>342.6</ele>
        <time>2020-10-31 10:54:16</time>
      </trkpt>
      <trkpt lat="41.35628" lon="0.52832">
        <ele>342.6</ele>
        <time>2020-10-31 10:54:17</time>
      </trkpt>
      <trkpt lat="41.35637" lon="0.52821">
        <ele>342.6</ele>
        <time>2020-10-31 10:54:20</time>
      </trkpt>
      <trkpt lat="41.35659" lon="0.52795">
        <ele>342</ele>
        <time>2020-10-31 10:54:27</time>
      </trkpt>
      <trkpt lat="41.35666" lon="0.52789">
        <ele>342</ele>
        <time>2020-10-31 10:54:29</time>
      </trkpt>
      <trkpt lat="41.3568" lon="0.52778">
        <ele>342</ele>
        <time>2020-10-31 10:54:33</time>
      </trkpt>
      <trkpt lat="41.35682" lon="0.52775">
        <ele>342</ele>
        <time>2020-10-31 10:54:34</time>
      </trkpt>
      <trkpt lat="41.35697" lon="0.5276">
        <ele>342.2</ele>
        <time>2020-10-31 10:54:39</time>
      </trkpt>
      <trkpt lat="41.35708" lon="0.52748">
        <ele>342.8</ele>
        <time>2020-10-31 10:54:43</time>
      </trkpt>
      <trkpt lat="41.35713" lon="0.52741">
        <ele>343.2</ele>
        <time>2020-10-31 10:54:45</time>
      </trkpt>
      <trkpt lat="41.3572" lon="0.52723">
        <ele>343.8</ele>
        <time>2020-10-31 10:54:49</time>
      </trkpt>
      <trkpt lat="41.35722" lon="0.52713">
        <ele>344.2</ele>
        <time>2020-10-31 10:54:51</time>
      </trkpt>
      <trkpt lat="41.35729" lon="0.52692">
        <ele>344.4</ele>
        <time>2020-10-31 10:54:55</time>
      </trkpt>
      <trkpt lat="41.35731" lon="0.52681">
        <ele>344.4</ele>
        <time>2020-10-31 10:54:57</time>
      </trkpt>
      <trkpt lat="41.35738" lon="0.5265">
        <ele>344.6</ele>
        <time>2020-10-31 10:55:03</time>
      </trkpt>
      <trkpt lat="41.3574" lon="0.52644">
        <ele>344.6</ele>
        <time>2020-10-31 10:55:04</time>
      </trkpt>
      <trkpt lat="41.35744" lon="0.52636">
        <ele>344.8</ele>
        <time>2020-10-31 10:55:06</time>
      </trkpt>
      <trkpt lat="41.35753" lon="0.52624">
        <ele>345.2</ele>
        <time>2020-10-31 10:55:11</time>
      </trkpt>
      <trkpt lat="41.35763" lon="0.52625">
        <ele>346.2</ele>
        <time>2020-10-31 10:55:15</time>
      </trkpt>
      <trkpt lat="41.35766" lon="0.52628">
        <ele>347.6</ele>
        <time>2020-10-31 10:55:17</time>
      </trkpt>
      <trkpt lat="41.35771" lon="0.52633">
        <ele>348.6</ele>
        <time>2020-10-31 10:55:20</time>
      </trkpt>
      <trkpt lat="41.35774" lon="0.52635">
        <ele>348.8</ele>
        <time>2020-10-31 10:55:21</time>
      </trkpt>
      <trkpt lat="41.35783" lon="0.5264">
        <ele>350</ele>
        <time>2020-10-31 10:55:24</time>
      </trkpt>
      <trkpt lat="41.35796" lon="0.52647">
        <ele>350.2</ele>
        <time>2020-10-31 10:55:28</time>
      </trkpt>
      <trkpt lat="41.3581" lon="0.52652">
        <ele>350.4</ele>
        <time>2020-10-31 10:55:32</time>
      </trkpt>
      <trkpt lat="41.35814" lon="0.52651">
        <ele>350.4</ele>
        <time>2020-10-31 10:55:33</time>
      </trkpt>
      <trkpt lat="41.35826" lon="0.52643">
        <ele>350.4</ele>
        <time>2020-10-31 10:55:36</time>
      </trkpt>
      <trkpt lat="41.35834" lon="0.52642">
        <ele>350.2</ele>
        <time>2020-10-31 10:55:38</time>
      </trkpt>
      <trkpt lat="41.3584" lon="0.52642">
        <ele>350.2</ele>
        <time>2020-10-31 10:55:40</time>
      </trkpt>
      <trkpt lat="41.35844" lon="0.52643">
        <ele>350.2</ele>
        <time>2020-10-31 10:55:42</time>
      </trkpt>
      <trkpt lat="41.35853" lon="0.52643">
        <ele>348.8</ele>
        <time>2020-10-31 10:55:48</time>
      </trkpt>
      <trkpt lat="41.35853" lon="0.52643">
        <ele>347.6</ele>
        <time>2020-10-31 10:55:52</time>
      </trkpt>
      <trkpt lat="41.35853" lon="0.52643">
        <ele>347</ele>
        <time>2020-10-31 10:55:59</time>
      </trkpt>
      <trkpt lat="41.35853" lon="0.52644">
        <ele>347</ele>
        <time>2020-10-31 10:56:13</time>
      </trkpt>
      <trkpt lat="41.35852" lon="0.52645">
        <ele>347.2</ele>
        <time>2020-10-31 10:56:21</time>
      </trkpt>
      <trkpt lat="41.35851" lon="0.52645">
        <ele>347.2</ele>
        <time>2020-10-31 10:56:23</time>
      </trkpt>
      <trkpt lat="41.35847" lon="0.52648">
        <ele>347.2</ele>
        <time>2020-10-31 10:56:26</time>
      </trkpt>
      <trkpt lat="41.35842" lon="0.5265">
        <ele>347.2</ele>
        <time>2020-10-31 10:56:28</time>
      </trkpt>
      <trkpt lat="41.35831" lon="0.52653">
        <ele>347.2</ele>
        <time>2020-10-31 10:56:32</time>
      </trkpt>
      <trkpt lat="41.3582" lon="0.52666">
        <ele>348</ele>
        <time>2020-10-31 10:56:37</time>
      </trkpt>
      <trkpt lat="41.35817" lon="0.52675">
        <ele>349</ele>
        <time>2020-10-31 10:56:40</time>
      </trkpt>
      <trkpt lat="41.35815" lon="0.52683">
        <ele>350.2</ele>
        <time>2020-10-31 10:56:42</time>
      </trkpt>
      <trkpt lat="41.35812" lon="0.52691">
        <ele>350.8</ele>
        <time>2020-10-31 10:56:44</time>
      </trkpt>
      <trkpt lat="41.35811" lon="0.52694">
        <ele>351.4</ele>
        <time>2020-10-31 10:56:45</time>
      </trkpt>
      <trkpt lat="41.35807" lon="0.52704">
        <ele>352.4</ele>
        <time>2020-10-31 10:56:48</time>
      </trkpt>
      <trkpt lat="41.35802" lon="0.52717">
        <ele>353.4</ele>
        <time>2020-10-31 10:56:52</time>
      </trkpt>
      <trkpt lat="41.358" lon="0.52721">
        <ele>353.8</ele>
        <time>2020-10-31 10:56:53</time>
      </trkpt>
      <trkpt lat="41.35797" lon="0.52731">
        <ele>354.8</ele>
        <time>2020-10-31 10:56:56</time>
      </trkpt>
      <trkpt lat="41.35798" lon="0.52737">
        <ele>355.4</ele>
        <time>2020-10-31 10:56:58</time>
      </trkpt>
      <trkpt lat="41.35799" lon="0.52743">
        <ele>356.2</ele>
        <time>2020-10-31 10:57:00</time>
      </trkpt>
      <trkpt lat="41.35799" lon="0.52752">
        <ele>357.4</ele>
        <time>2020-10-31 10:57:03</time>
      </trkpt>
      <trkpt lat="41.35799" lon="0.52759">
        <ele>358.6</ele>
        <time>2020-10-31 10:57:06</time>
      </trkpt>
      <trkpt lat="41.35796" lon="0.5278">
        <ele>359.6</ele>
        <time>2020-10-31 10:57:11</time>
      </trkpt>
      <trkpt lat="41.35795" lon="0.52784">
        <ele>359.8</ele>
        <time>2020-10-31 10:57:12</time>
      </trkpt>
      <trkpt lat="41.35787" lon="0.52808">
        <ele>360.2</ele>
        <time>2020-10-31 10:57:18</time>
      </trkpt>
      <trkpt lat="41.3578" lon="0.52828">
        <ele>360.4</ele>
        <time>2020-10-31 10:57:23</time>
      </trkpt>
      <trkpt lat="41.35766" lon="0.52846">
        <ele>360.8</ele>
        <time>2020-10-31 10:57:29</time>
      </trkpt>
      <trkpt lat="41.35759" lon="0.52863">
        <ele>360.8</ele>
        <time>2020-10-31 10:57:34</time>
      </trkpt>
      <trkpt lat="41.35757" lon="0.52875">
        <ele>362</ele>
        <time>2020-10-31 10:57:37</time>
      </trkpt>
      <trkpt lat="41.35756" lon="0.52887">
        <ele>362.4</ele>
        <time>2020-10-31 10:57:40</time>
      </trkpt>
      <trkpt lat="41.35756" lon="0.52906">
        <ele>363</ele>
        <time>2020-10-31 10:57:44</time>
      </trkpt>
      <trkpt lat="41.35756" lon="0.52921">
        <ele>363</ele>
        <time>2020-10-31 10:57:47</time>
      </trkpt>
      <trkpt lat="41.35756" lon="0.52946">
        <ele>363.2</ele>
        <time>2020-10-31 10:57:53</time>
      </trkpt>
      <trkpt lat="41.3576" lon="0.52979">
        <ele>363.2</ele>
        <time>2020-10-31 10:58:00</time>
      </trkpt>
      <trkpt lat="41.35756" lon="0.52994">
        <ele>363.2</ele>
        <time>2020-10-31 10:58:03</time>
      </trkpt>
      <trkpt lat="41.35753" lon="0.52996">
        <ele>363.2</ele>
        <time>2020-10-31 10:58:04</time>
      </trkpt>
      <trkpt lat="41.35738" lon="0.53005">
        <ele>363.2</ele>
        <time>2020-10-31 10:58:08</time>
      </trkpt>
      <trkpt lat="41.35727" lon="0.53019">
        <ele>363.2</ele>
        <time>2020-10-31 10:58:12</time>
      </trkpt>
      <trkpt lat="41.3572" lon="0.53027">
        <ele>363.2</ele>
        <time>2020-10-31 10:58:14</time>
      </trkpt>
      <trkpt lat="41.35709" lon="0.53034">
        <ele>363.2</ele>
        <time>2020-10-31 10:58:17</time>
      </trkpt>
      <trkpt lat="41.35699" lon="0.5304">
        <ele>363.4</ele>
        <time>2020-10-31 10:58:20</time>
      </trkpt>
      <trkpt lat="41.35688" lon="0.53051">
        <ele>363.8</ele>
        <time>2020-10-31 10:58:24</time>
      </trkpt>
      <trkpt lat="41.35683" lon="0.53062">
        <ele>364.2</ele>
        <time>2020-10-31 10:58:27</time>
      </trkpt>
      <trkpt lat="41.35681" lon="0.5307">
        <ele>364.4</ele>
        <time>2020-10-31 10:58:29</time>
      </trkpt>
      <trkpt lat="41.3568" lon="0.53094">
        <ele>365.2</ele>
        <time>2020-10-31 10:58:34</time>
      </trkpt>
      <trkpt lat="41.35679" lon="0.531">
        <ele>365.2</ele>
        <time>2020-10-31 10:58:35</time>
      </trkpt>
      <trkpt lat="41.35676" lon="0.53154">
        <ele>365</ele>
        <time>2020-10-31 10:58:45</time>
      </trkpt>
      <trkpt lat="41.35675" lon="0.53185">
        <ele>364.8</ele>
        <time>2020-10-31 10:58:52</time>
      </trkpt>
      <trkpt lat="41.35673" lon="0.53213">
        <ele>365</ele>
        <time>2020-10-31 10:58:59</time>
      </trkpt>
      <trkpt lat="41.35676" lon="0.53239">
        <ele>366.2</ele>
        <time>2020-10-31 10:59:04</time>
      </trkpt>
      <trkpt lat="41.35684" lon="0.53281">
        <ele>367</ele>
        <time>2020-10-31 10:59:11</time>
      </trkpt>
      <trkpt lat="41.35685" lon="0.53294">
        <ele>367</ele>
        <time>2020-10-31 10:59:13</time>
      </trkpt>
      <trkpt lat="41.35686" lon="0.53319">
        <ele>367</ele>
        <time>2020-10-31 10:59:17</time>
      </trkpt>
      <trkpt lat="41.35686" lon="0.53331">
        <ele>367</ele>
        <time>2020-10-31 10:59:19</time>
      </trkpt>
      <trkpt lat="41.35684" lon="0.53355">
        <ele>367.2</ele>
        <time>2020-10-31 10:59:23</time>
      </trkpt>
      <trkpt lat="41.35682" lon="0.53368">
        <ele>367.2</ele>
        <time>2020-10-31 10:59:25</time>
      </trkpt>
      <trkpt lat="41.3568" lon="0.53381">
        <ele>367.4</ele>
        <time>2020-10-31 10:59:27</time>
      </trkpt>
      <trkpt lat="41.35679" lon="0.53388">
        <ele>367.4</ele>
        <time>2020-10-31 10:59:28</time>
      </trkpt>
      <trkpt lat="41.35677" lon="0.53422">
        <ele>367.8</ele>
        <time>2020-10-31 10:59:34</time>
      </trkpt>
      <trkpt lat="41.35677" lon="0.53427">
        <ele>367.8</ele>
        <time>2020-10-31 10:59:35</time>
      </trkpt>
      <trkpt lat="41.35678" lon="0.53446">
        <ele>368.4</ele>
        <time>2020-10-31 10:59:39</time>
      </trkpt>
      <trkpt lat="41.35678" lon="0.5345">
        <ele>368.8</ele>
        <time>2020-10-31 10:59:41</time>
      </trkpt>
      <trkpt lat="41.35679" lon="0.5345">
        <ele>368.8</ele>
        <time>2020-10-31 10:59:43</time>
      </trkpt>
      <trkpt lat="41.35679" lon="0.53448">
        <ele>369</ele>
        <time>2020-10-31 10:59:45</time>
      </trkpt>
      <trkpt lat="41.35677" lon="0.53442">
        <ele>369</ele>
        <time>2020-10-31 10:59:48</time>
      </trkpt>
      <trkpt lat="41.35676" lon="0.53438">
        <ele>369</ele>
        <time>2020-10-31 10:59:49</time>
      </trkpt>
      <trkpt lat="41.35676" lon="0.53423">
        <ele>369.2</ele>
        <time>2020-10-31 10:59:53</time>
      </trkpt>
      <trkpt lat="41.35677" lon="0.53411">
        <ele>369.2</ele>
        <time>2020-10-31 10:59:57</time>
      </trkpt>
      <trkpt lat="41.35679" lon="0.5341">
        <ele>369.2</ele>
        <time>2020-10-31 10:59:58</time>
      </trkpt>
      <trkpt lat="41.35686" lon="0.53415">
        <ele>369.2</ele>
        <time>2020-10-31 11:00:02</time>
      </trkpt>
      <trkpt lat="41.35695" lon="0.53424">
        <ele>369.4</ele>
        <time>2020-10-31 11:00:07</time>
      </trkpt>
      <trkpt lat="41.35698" lon="0.53424">
        <ele>369.8</ele>
        <time>2020-10-31 11:00:08</time>
      </trkpt>
      <trkpt lat="41.35703" lon="0.53424">
        <ele>370.2</ele>
        <time>2020-10-31 11:00:10</time>
      </trkpt>
      <trkpt lat="41.35706" lon="0.53423">
        <ele>370.6</ele>
        <time>2020-10-31 11:00:11</time>
      </trkpt>
      <trkpt lat="41.35712" lon="0.53422">
        <ele>371.2</ele>
        <time>2020-10-31 11:00:13</time>
      </trkpt>
      <trkpt lat="41.35717" lon="0.5342">
        <ele>371.8</ele>
        <time>2020-10-31 11:00:15</time>
      </trkpt>
      <trkpt lat="41.35722" lon="0.53423">
        <ele>372.4</ele>
        <time>2020-10-31 11:00:17</time>
      </trkpt>
      <trkpt lat="41.35724" lon="0.53429">
        <ele>372.8</ele>
        <time>2020-10-31 11:00:19</time>
      </trkpt>
      <trkpt lat="41.35723" lon="0.53436">
        <ele>373</ele>
        <time>2020-10-31 11:00:21</time>
      </trkpt>
      <trkpt lat="41.35722" lon="0.5344">
        <ele>374</ele>
        <time>2020-10-31 11:00:22</time>
      </trkpt>
      <trkpt lat="41.35721" lon="0.53448">
        <ele>374.6</ele>
        <time>2020-10-31 11:00:24</time>
      </trkpt>
      <trkpt lat="41.35719" lon="0.5346">
        <ele>375.2</ele>
        <time>2020-10-31 11:00:27</time>
      </trkpt>
      <trkpt lat="41.35718" lon="0.53464">
        <ele>375.4</ele>
        <time>2020-10-31 11:00:28</time>
      </trkpt>
      <trkpt lat="41.35714" lon="0.53497">
        <ele>376</ele>
        <time>2020-10-31 11:00:35</time>
      </trkpt>
      <trkpt lat="41.35711" lon="0.5353">
        <ele>376.2</ele>
        <time>2020-10-31 11:00:42</time>
      </trkpt>
      <trkpt lat="41.3571" lon="0.53534">
        <ele>376.4</ele>
        <time>2020-10-31 11:00:43</time>
      </trkpt>
      <trkpt lat="41.3571" lon="0.53552">
        <ele>376.8</ele>
        <time>2020-10-31 11:00:48</time>
      </trkpt>
      <trkpt lat="41.35711" lon="0.53554">
        <ele>376.8</ele>
        <time>2020-10-31 11:00:49</time>
      </trkpt>
      <trkpt lat="41.3572" lon="0.53559">
        <ele>377.2</ele>
        <time>2020-10-31 11:00:53</time>
      </trkpt>
      <trkpt lat="41.35722" lon="0.53559">
        <ele>377.4</ele>
        <time>2020-10-31 11:00:54</time>
      </trkpt>
      <trkpt lat="41.35731" lon="0.53561">
        <ele>378</ele>
        <time>2020-10-31 11:00:58</time>
      </trkpt>
      <trkpt lat="41.35731" lon="0.53561">
        <ele>378.2</ele>
        <time>2020-10-31 11:00:59</time>
      </trkpt>
      <trkpt lat="41.35733" lon="0.53566">
        <ele>378.6</ele>
        <time>2020-10-31 11:01:00</time>
      </trkpt>
      <trkpt lat="41.35736" lon="0.53575">
        <ele>379.6</ele>
        <time>2020-10-31 11:01:03</time>
      </trkpt>
      <trkpt lat="41.35737" lon="0.53578">
        <ele>380</ele>
        <time>2020-10-31 11:01:04</time>
      </trkpt>
      <trkpt lat="41.35738" lon="0.53588">
        <ele>381.2</ele>
        <time>2020-10-31 11:01:08</time>
      </trkpt>
      <trkpt lat="41.35739" lon="0.53591">
        <ele>381.4</ele>
        <time>2020-10-31 11:01:09</time>
      </trkpt>
      <trkpt lat="41.35743" lon="0.53609">
        <ele>382.4</ele>
        <time>2020-10-31 11:01:15</time>
      </trkpt>
      <trkpt lat="41.35744" lon="0.53616">
        <ele>382.8</ele>
        <time>2020-10-31 11:01:17</time>
      </trkpt>
      <trkpt lat="41.35746" lon="0.53626">
        <ele>383.4</ele>
        <time>2020-10-31 11:01:20</time>
      </trkpt>
      <trkpt lat="41.35749" lon="0.53643">
        <ele>384.2</ele>
        <time>2020-10-31 11:01:25</time>
      </trkpt>
      <trkpt lat="41.35751" lon="0.53649">
        <ele>384.6</ele>
        <time>2020-10-31 11:01:27</time>
      </trkpt>
      <trkpt lat="41.35754" lon="0.53654">
        <ele>385</ele>
        <time>2020-10-31 11:01:29</time>
      </trkpt>
      <trkpt lat="41.35755" lon="0.53657">
        <ele>385.2</ele>
        <time>2020-10-31 11:01:30</time>
      </trkpt>
      <trkpt lat="41.35756" lon="0.53667">
        <ele>385.8</ele>
        <time>2020-10-31 11:01:33</time>
      </trkpt>
      <trkpt lat="41.35757" lon="0.53681">
        <ele>386.6</ele>
        <time>2020-10-31 11:01:37</time>
      </trkpt>
      <trkpt lat="41.35758" lon="0.5369">
        <ele>387</ele>
        <time>2020-10-31 11:01:39</time>
      </trkpt>
      <trkpt lat="41.35759" lon="0.53723">
        <ele>387.8</ele>
        <time>2020-10-31 11:01:46</time>
      </trkpt>
      <trkpt lat="41.3576" lon="0.53752">
        <ele>388</ele>
        <time>2020-10-31 11:01:52</time>
      </trkpt>
      <trkpt lat="41.35762" lon="0.53775">
        <ele>388.2</ele>
        <time>2020-10-31 11:01:56</time>
      </trkpt>
      <trkpt lat="41.35763" lon="0.53821">
        <ele>388.2</ele>
        <time>2020-10-31 11:02:04</time>
      </trkpt>
      <trkpt lat="41.35762" lon="0.53832">
        <ele>388.2</ele>
        <time>2020-10-31 11:02:06</time>
      </trkpt>
      <trkpt lat="41.35757" lon="0.53859">
        <ele>388.2</ele>
        <time>2020-10-31 11:02:11</time>
      </trkpt>
      <trkpt lat="41.35756" lon="0.53889">
        <ele>388.4</ele>
        <time>2020-10-31 11:02:17</time>
      </trkpt>
      <trkpt lat="41.35752" lon="0.53918">
        <ele>389</ele>
        <time>2020-10-31 11:02:22</time>
      </trkpt>
      <trkpt lat="41.35751" lon="0.53925">
        <ele>389.2</ele>
        <time>2020-10-31 11:02:23</time>
      </trkpt>
      <trkpt lat="41.35749" lon="0.53932">
        <ele>389.2</ele>
        <time>2020-10-31 11:02:24</time>
      </trkpt>
      <trkpt lat="41.35743" lon="0.53954">
        <ele>389.2</ele>
        <time>2020-10-31 11:02:27</time>
      </trkpt>
      <trkpt lat="41.35731" lon="0.53991">
        <ele>389.2</ele>
        <time>2020-10-31 11:02:32</time>
      </trkpt>
      <trkpt lat="41.35728" lon="0.53998">
        <ele>388.4</ele>
        <time>2020-10-31 11:02:34</time>
      </trkpt>
      <trkpt lat="41.35723" lon="0.54012">
        <ele>388.4</ele>
        <time>2020-10-31 11:02:35</time>
      </trkpt>
      <trkpt lat="41.35717" lon="0.5403">
        <ele>388.2</ele>
        <time>2020-10-31 11:02:38</time>
      </trkpt>
      <trkpt lat="41.35703" lon="0.54064">
        <ele>389.2</ele>
        <time>2020-10-31 11:02:45</time>
      </trkpt>
      <trkpt lat="41.35697" lon="0.54078">
        <ele>390.2</ele>
        <time>2020-10-31 11:02:48</time>
      </trkpt>
      <trkpt lat="41.35687" lon="0.54101">
        <ele>391.2</ele>
        <time>2020-10-31 11:02:53</time>
      </trkpt>
      <trkpt lat="41.35669" lon="0.54141">
        <ele>392</ele>
        <time>2020-10-31 11:03:01</time>
      </trkpt>
      <trkpt lat="41.35653" lon="0.54182">
        <ele>392.2</ele>
        <time>2020-10-31 11:03:09</time>
      </trkpt>
      <trkpt lat="41.35646" lon="0.54198">
        <ele>392.2</ele>
        <time>2020-10-31 11:03:12</time>
      </trkpt>
      <trkpt lat="41.35629" lon="0.54239">
        <ele>392.8</ele>
        <time>2020-10-31 11:03:20</time>
      </trkpt>
      <trkpt lat="41.35609" lon="0.54279">
        <ele>393.2</ele>
        <time>2020-10-31 11:03:28</time>
      </trkpt>
      <trkpt lat="41.35607" lon="0.54284">
        <ele>393.4</ele>
        <time>2020-10-31 11:03:29</time>
      </trkpt>
      <trkpt lat="41.3559" lon="0.54314">
        <ele>394.2</ele>
        <time>2020-10-31 11:03:35</time>
      </trkpt>
      <trkpt lat="41.35585" lon="0.54325">
        <ele>394.4</ele>
        <time>2020-10-31 11:03:37</time>
      </trkpt>
      <trkpt lat="41.3557" lon="0.54357">
        <ele>394.8</ele>
        <time>2020-10-31 11:03:43</time>
      </trkpt>
      <trkpt lat="41.35549" lon="0.54398">
        <ele>395.4</ele>
        <time>2020-10-31 11:03:51</time>
      </trkpt>
      <trkpt lat="41.35527" lon="0.54441">
        <ele>396.4</ele>
        <time>2020-10-31 11:03:59</time>
      </trkpt>
      <trkpt lat="41.35525" lon="0.54446">
        <ele>396.6</ele>
        <time>2020-10-31 11:04:00</time>
      </trkpt>
      <trkpt lat="41.35509" lon="0.54484">
        <ele>397</ele>
        <time>2020-10-31 11:04:07</time>
      </trkpt>
      <trkpt lat="41.35503" lon="0.54499">
        <ele>397.4</ele>
        <time>2020-10-31 11:04:10</time>
      </trkpt>
      <trkpt lat="41.35494" lon="0.54525">
        <ele>398.8</ele>
        <time>2020-10-31 11:04:15</time>
      </trkpt>
      <trkpt lat="41.35493" lon="0.5453">
        <ele>399.2</ele>
        <time>2020-10-31 11:04:16</time>
      </trkpt>
      <trkpt lat="41.35483" lon="0.54555">
        <ele>400</ele>
        <time>2020-10-31 11:04:21</time>
      </trkpt>
      <trkpt lat="41.35478" lon="0.54569">
        <ele>401</ele>
        <time>2020-10-31 11:04:24</time>
      </trkpt>
      <trkpt lat="41.35476" lon="0.54573">
        <ele>401</ele>
        <time>2020-10-31 11:04:25</time>
      </trkpt>
      <trkpt lat="41.3547" lon="0.5459">
        <ele>402.2</ele>
        <time>2020-10-31 11:04:29</time>
      </trkpt>
      <trkpt lat="41.35463" lon="0.54608">
        <ele>403</ele>
        <time>2020-10-31 11:04:33</time>
      </trkpt>
      <trkpt lat="41.3546" lon="0.54617">
        <ele>403.2</ele>
        <time>2020-10-31 11:04:35</time>
      </trkpt>
      <trkpt lat="41.35444" lon="0.54652">
        <ele>403.8</ele>
        <time>2020-10-31 11:04:43</time>
      </trkpt>
      <trkpt lat="41.3543" lon="0.54679">
        <ele>404.4</ele>
        <time>2020-10-31 11:04:49</time>
      </trkpt>
      <trkpt lat="41.35423" lon="0.54692">
        <ele>404.6</ele>
        <time>2020-10-31 11:04:52</time>
      </trkpt>
      <trkpt lat="41.35413" lon="0.54712">
        <ele>405.4</ele>
        <time>2020-10-31 11:04:57</time>
      </trkpt>
      <trkpt lat="41.35405" lon="0.54727">
        <ele>406.8</ele>
        <time>2020-10-31 11:05:01</time>
      </trkpt>
      <trkpt lat="41.35394" lon="0.54747">
        <ele>407.8</ele>
        <time>2020-10-31 11:05:06</time>
      </trkpt>
      <trkpt lat="41.35386" lon="0.54761">
        <ele>408</ele>
        <time>2020-10-31 11:05:09</time>
      </trkpt>
      <trkpt lat="41.35381" lon="0.54779">
        <ele>408</ele>
        <time>2020-10-31 11:05:13</time>
      </trkpt>
      <trkpt lat="41.35389" lon="0.54785">
        <ele>407.8</ele>
        <time>2020-10-31 11:05:16</time>
      </trkpt>
      <trkpt lat="41.35397" lon="0.5479">
        <ele>407.8</ele>
        <time>2020-10-31 11:05:19</time>
      </trkpt>
      <trkpt lat="41.35403" lon="0.54794">
        <ele>407.8</ele>
        <time>2020-10-31 11:05:22</time>
      </trkpt>
      <trkpt lat="41.35417" lon="0.54806">
        <ele>409</ele>
        <time>2020-10-31 11:05:29</time>
      </trkpt>
      <trkpt lat="41.3542" lon="0.54812">
        <ele>410.2</ele>
        <time>2020-10-31 11:05:33</time>
      </trkpt>
      <trkpt lat="41.35421" lon="0.54817">
        <ele>410.4</ele>
        <time>2020-10-31 11:05:34</time>
      </trkpt>
      <trkpt lat="41.35421" lon="0.5482">
        <ele>410.6</ele>
        <time>2020-10-31 11:05:35</time>
      </trkpt>
      <trkpt lat="41.35421" lon="0.54827">
        <ele>411.2</ele>
        <time>2020-10-31 11:05:37</time>
      </trkpt>
      <trkpt lat="41.35424" lon="0.54842">
        <ele>411.8</ele>
        <time>2020-10-31 11:05:40</time>
      </trkpt>
      <trkpt lat="41.35433" lon="0.54869">
        <ele>412.2</ele>
        <time>2020-10-31 11:05:46</time>
      </trkpt>
      <trkpt lat="41.35435" lon="0.54874">
        <ele>412.2</ele>
        <time>2020-10-31 11:05:47</time>
      </trkpt>
      <trkpt lat="41.35437" lon="0.54879">
        <ele>412.2</ele>
        <time>2020-10-31 11:05:48</time>
      </trkpt>
      <trkpt lat="41.35439" lon="0.54889">
        <ele>412.2</ele>
        <time>2020-10-31 11:05:50</time>
      </trkpt>
      <trkpt lat="41.35439" lon="0.549">
        <ele>412.2</ele>
        <time>2020-10-31 11:05:52</time>
      </trkpt>
      <trkpt lat="41.35439" lon="0.54912">
        <ele>412.2</ele>
        <time>2020-10-31 11:05:54</time>
      </trkpt>
      <trkpt lat="41.35437" lon="0.54942">
        <ele>412.4</ele>
        <time>2020-10-31 11:05:59</time>
      </trkpt>
      <trkpt lat="41.35437" lon="0.54976">
        <ele>413</ele>
        <time>2020-10-31 11:06:05</time>
      </trkpt>
      <trkpt lat="41.35438" lon="0.54986">
        <ele>413.2</ele>
        <time>2020-10-31 11:06:07</time>
      </trkpt>
      <trkpt lat="41.35438" lon="0.54997">
        <ele>413.4</ele>
        <time>2020-10-31 11:06:09</time>
      </trkpt>
      <trkpt lat="41.35436" lon="0.55008">
        <ele>413.8</ele>
        <time>2020-10-31 11:06:11</time>
      </trkpt>
      <trkpt lat="41.35432" lon="0.55047">
        <ele>414.2</ele>
        <time>2020-10-31 11:06:18</time>
      </trkpt>
      <trkpt lat="41.35431" lon="0.55063">
        <ele>414.4</ele>
        <time>2020-10-31 11:06:21</time>
      </trkpt>
      <trkpt lat="41.3543" lon="0.55075">
        <ele>414.6</ele>
        <time>2020-10-31 11:06:23</time>
      </trkpt>
      <trkpt lat="41.35429" lon="0.5508">
        <ele>414.6</ele>
        <time>2020-10-31 11:06:24</time>
      </trkpt>
      <trkpt lat="41.35422" lon="0.55109">
        <ele>415.2</ele>
        <time>2020-10-31 11:06:29</time>
      </trkpt>
      <trkpt lat="41.35422" lon="0.55121">
        <ele>415.2</ele>
        <time>2020-10-31 11:06:31</time>
      </trkpt>
      <trkpt lat="41.35424" lon="0.55132">
        <ele>415.4</ele>
        <time>2020-10-31 11:06:33</time>
      </trkpt>
      <trkpt lat="41.35426" lon="0.55138">
        <ele>415.6</ele>
        <time>2020-10-31 11:06:34</time>
      </trkpt>
      <trkpt lat="41.35427" lon="0.5515">
        <ele>415.6</ele>
        <time>2020-10-31 11:06:36</time>
      </trkpt>
      <trkpt lat="41.35428" lon="0.55156">
        <ele>415.8</ele>
        <time>2020-10-31 11:06:37</time>
      </trkpt>
      <trkpt lat="41.35422" lon="0.55177">
        <ele>416.2</ele>
        <time>2020-10-31 11:06:41</time>
      </trkpt>
      <trkpt lat="41.35413" lon="0.55198">
        <ele>416.6</ele>
        <time>2020-10-31 11:06:45</time>
      </trkpt>
      <trkpt lat="41.3541" lon="0.5521">
        <ele>416.8</ele>
        <time>2020-10-31 11:06:47</time>
      </trkpt>
      <trkpt lat="41.35395" lon="0.55251">
        <ele>417.4</ele>
        <time>2020-10-31 11:06:55</time>
      </trkpt>
      <trkpt lat="41.35391" lon="0.55261">
        <ele>417.6</ele>
        <time>2020-10-31 11:06:57</time>
      </trkpt>
      <trkpt lat="41.35386" lon="0.55281">
        <ele>418.6</ele>
        <time>2020-10-31 11:07:02</time>
      </trkpt>
      <trkpt lat="41.35376" lon="0.553">
        <ele>419.6</ele>
        <time>2020-10-31 11:07:08</time>
      </trkpt>
      <trkpt lat="41.35371" lon="0.55304">
        <ele>419.8</ele>
        <time>2020-10-31 11:07:09</time>
      </trkpt>
      <trkpt lat="41.35363" lon="0.55309">
        <ele>421</ele>
        <time>2020-10-31 11:07:12</time>
      </trkpt>
      <trkpt lat="41.35357" lon="0.55316">
        <ele>422</ele>
        <time>2020-10-31 11:07:15</time>
      </trkpt>
      <trkpt lat="41.3535" lon="0.55322">
        <ele>423.2</ele>
        <time>2020-10-31 11:07:18</time>
      </trkpt>
      <trkpt lat="41.35336" lon="0.55341">
        <ele>424.2</ele>
        <time>2020-10-31 11:07:25</time>
      </trkpt>
      <trkpt lat="41.35321" lon="0.55365">
        <ele>425.2</ele>
        <time>2020-10-31 11:07:32</time>
      </trkpt>
      <trkpt lat="41.35318" lon="0.55369">
        <ele>425.4</ele>
        <time>2020-10-31 11:07:33</time>
      </trkpt>
      <trkpt lat="41.35302" lon="0.554">
        <ele>426.2</ele>
        <time>2020-10-31 11:07:41</time>
      </trkpt>
      <trkpt lat="41.353" lon="0.55405">
        <ele>426.4</ele>
        <time>2020-10-31 11:07:42</time>
      </trkpt>
      <trkpt lat="41.35285" lon="0.55452">
        <ele>427.2</ele>
        <time>2020-10-31 11:07:50</time>
      </trkpt>
      <trkpt lat="41.35282" lon="0.55463">
        <ele>427.4</ele>
        <time>2020-10-31 11:07:52</time>
      </trkpt>
      <trkpt lat="41.35275" lon="0.55502">
        <ele>427.8</ele>
        <time>2020-10-31 11:07:59</time>
      </trkpt>
      <trkpt lat="41.35272" lon="0.55524">
        <ele>428.4</ele>
        <time>2020-10-31 11:08:03</time>
      </trkpt>
      <trkpt lat="41.35272" lon="0.55524">
        <ele>428.4</ele>
        <time>2020-10-31 11:08:04</time>
      </trkpt>
      <trkpt lat="41.35273" lon="0.55546">
        <ele>428.8</ele>
        <time>2020-10-31 11:08:07</time>
      </trkpt>
      <trkpt lat="41.35274" lon="0.55575">
        <ele>429.6</ele>
        <time>2020-10-31 11:08:12</time>
      </trkpt>
      <trkpt lat="41.35273" lon="0.55593">
        <ele>430</ele>
        <time>2020-10-31 11:08:15</time>
      </trkpt>
      <trkpt lat="41.35273" lon="0.55604">
        <ele>430.2</ele>
        <time>2020-10-31 11:08:17</time>
      </trkpt>
      <trkpt lat="41.35271" lon="0.55615">
        <ele>430.8</ele>
        <time>2020-10-31 11:08:20</time>
      </trkpt>
      <trkpt lat="41.35268" lon="0.55626">
        <ele>431</ele>
        <time>2020-10-31 11:08:22</time>
      </trkpt>
      <trkpt lat="41.3526" lon="0.55653">
        <ele>431.4</ele>
        <time>2020-10-31 11:08:26</time>
      </trkpt>
      <trkpt lat="41.35254" lon="0.55669">
        <ele>431.8</ele>
        <time>2020-10-31 11:08:29</time>
      </trkpt>
      <trkpt lat="41.35252" lon="0.55674">
        <ele>431.8</ele>
        <time>2020-10-31 11:08:30</time>
      </trkpt>
      <trkpt lat="41.35243" lon="0.55689">
        <ele>432.2</ele>
        <time>2020-10-31 11:08:33</time>
      </trkpt>
      <trkpt lat="41.35234" lon="0.55701">
        <ele>432.4</ele>
        <time>2020-10-31 11:08:36</time>
      </trkpt>
      <trkpt lat="41.35231" lon="0.55705">
        <ele>432.4</ele>
        <time>2020-10-31 11:08:37</time>
      </trkpt>
      <trkpt lat="41.35225" lon="0.55714">
        <ele>433</ele>
        <time>2020-10-31 11:08:39</time>
      </trkpt>
      <trkpt lat="41.35217" lon="0.55728">
        <ele>433.2</ele>
        <time>2020-10-31 11:08:42</time>
      </trkpt>
      <trkpt lat="41.35217" lon="0.55728">
        <ele>433.2</ele>
        <time>2020-10-31 11:08:43</time>
      </trkpt>
      <trkpt lat="41.35204" lon="0.55758">
        <ele>434</ele>
        <time>2020-10-31 11:08:48</time>
      </trkpt>
      <trkpt lat="41.35199" lon="0.55768">
        <ele>434.2</ele>
        <time>2020-10-31 11:08:50</time>
      </trkpt>
      <trkpt lat="41.35189" lon="0.55794">
        <ele>435</ele>
        <time>2020-10-31 11:08:55</time>
      </trkpt>
      <trkpt lat="41.35181" lon="0.55815">
        <ele>435.6</ele>
        <time>2020-10-31 11:08:59</time>
      </trkpt>
      <trkpt lat="41.35167" lon="0.5585">
        <ele>436</ele>
        <time>2020-10-31 11:09:06</time>
      </trkpt>
      <trkpt lat="41.35163" lon="0.55861">
        <ele>436.2</ele>
        <time>2020-10-31 11:09:08</time>
      </trkpt>
      <trkpt lat="41.35154" lon="0.55887">
        <ele>436.8</ele>
        <time>2020-10-31 11:09:14</time>
      </trkpt>
      <trkpt lat="41.35154" lon="0.55888">
        <ele>437.2</ele>
        <time>2020-10-31 11:09:17</time>
      </trkpt>
      <trkpt lat="41.35154" lon="0.55888">
        <ele>437.4</ele>
        <time>2020-10-31 11:09:19</time>
      </trkpt>
      <trkpt lat="41.35154" lon="0.55888">
        <ele>437.6</ele>
        <time>2020-10-31 11:09:46</time>
      </trkpt>
      <trkpt lat="41.35154" lon="0.55896">
        <ele>437.6</ele>
        <time>2020-10-31 11:09:53</time>
      </trkpt>
      <trkpt lat="41.35156" lon="0.55909">
        <ele>437.6</ele>
        <time>2020-10-31 11:09:56</time>
      </trkpt>
      <trkpt lat="41.35158" lon="0.5592">
        <ele>437.6</ele>
        <time>2020-10-31 11:09:58</time>
      </trkpt>
      <trkpt lat="41.35166" lon="0.55953">
        <ele>437.8</ele>
        <time>2020-10-31 11:10:04</time>
      </trkpt>
      <trkpt lat="41.35167" lon="0.55958">
        <ele>438</ele>
        <time>2020-10-31 11:10:05</time>
      </trkpt>
      <trkpt lat="41.35167" lon="0.55983">
        <ele>438</ele>
        <time>2020-10-31 11:10:09</time>
      </trkpt>
      <trkpt lat="41.35164" lon="0.55995">
        <ele>438</ele>
        <time>2020-10-31 11:10:11</time>
      </trkpt>
      <trkpt lat="41.35158" lon="0.56012">
        <ele>438.2</ele>
        <time>2020-10-31 11:10:14</time>
      </trkpt>
      <trkpt lat="41.35155" lon="0.56018">
        <ele>438.2</ele>
        <time>2020-10-31 11:10:15</time>
      </trkpt>
      <trkpt lat="41.35153" lon="0.56024">
        <ele>438.2</ele>
        <time>2020-10-31 11:10:16</time>
      </trkpt>
      <trkpt lat="41.35145" lon="0.5604">
        <ele>438.2</ele>
        <time>2020-10-31 11:10:19</time>
      </trkpt>
      <trkpt lat="41.35132" lon="0.5606">
        <ele>438.8</ele>
        <time>2020-10-31 11:10:23</time>
      </trkpt>
      <trkpt lat="41.35121" lon="0.56081">
        <ele>439.2</ele>
        <time>2020-10-31 11:10:27</time>
      </trkpt>
      <trkpt lat="41.35113" lon="0.56098">
        <ele>439.6</ele>
        <time>2020-10-31 11:10:30</time>
      </trkpt>
      <trkpt lat="41.35111" lon="0.56104">
        <ele>439.6</ele>
        <time>2020-10-31 11:10:31</time>
      </trkpt>
      <trkpt lat="41.35107" lon="0.56123">
        <ele>439.8</ele>
        <time>2020-10-31 11:10:34</time>
      </trkpt>
      <trkpt lat="41.35103" lon="0.56142">
        <ele>440.2</ele>
        <time>2020-10-31 11:10:37</time>
      </trkpt>
      <trkpt lat="41.35099" lon="0.56167">
        <ele>440.4</ele>
        <time>2020-10-31 11:10:41</time>
      </trkpt>
      <trkpt lat="41.35093" lon="0.562">
        <ele>440.8</ele>
        <time>2020-10-31 11:10:46</time>
      </trkpt>
      <trkpt lat="41.35087" lon="0.56249">
        <ele>441.4</ele>
        <time>2020-10-31 11:10:53</time>
      </trkpt>
      <trkpt lat="41.35086" lon="0.56263">
        <ele>441.6</ele>
        <time>2020-10-31 11:10:55</time>
      </trkpt>
      <trkpt lat="41.35081" lon="0.56306">
        <ele>441.8</ele>
        <time>2020-10-31 11:11:01</time>
      </trkpt>
      <trkpt lat="41.35082" lon="0.56363">
        <ele>442.4</ele>
        <time>2020-10-31 11:11:09</time>
      </trkpt>
      <trkpt lat="41.35081" lon="0.56384">
        <ele>442.6</ele>
        <time>2020-10-31 11:11:12</time>
      </trkpt>
      <trkpt lat="41.3508" lon="0.56412">
        <ele>443</ele>
        <time>2020-10-31 11:11:16</time>
      </trkpt>
      <trkpt lat="41.35075" lon="0.56439">
        <ele>443.6</ele>
        <time>2020-10-31 11:11:20</time>
      </trkpt>
      <trkpt lat="41.35068" lon="0.56473">
        <ele>444.2</ele>
        <time>2020-10-31 11:11:25</time>
      </trkpt>
      <trkpt lat="41.35053" lon="0.56512">
        <ele>444.6</ele>
        <time>2020-10-31 11:11:31</time>
      </trkpt>
      <trkpt lat="41.35051" lon="0.56518">
        <ele>444.8</ele>
        <time>2020-10-31 11:11:32</time>
      </trkpt>
      <trkpt lat="41.35029" lon="0.56567">
        <ele>445.2</ele>
        <time>2020-10-31 11:11:40</time>
      </trkpt>
      <trkpt lat="41.35021" lon="0.56579">
        <ele>445.2</ele>
        <time>2020-10-31 11:11:42</time>
      </trkpt>
      <trkpt lat="41.35008" lon="0.56593">
        <ele>445.4</ele>
        <time>2020-10-31 11:11:45</time>
      </trkpt>
      <trkpt lat="41.34978" lon="0.56625">
        <ele>445.8</ele>
        <time>2020-10-31 11:11:52</time>
      </trkpt>
      <trkpt lat="41.34964" lon="0.56639">
        <ele>446</ele>
        <time>2020-10-31 11:11:55</time>
      </trkpt>
      <trkpt lat="41.34923" lon="0.56679">
        <ele>446.6</ele>
        <time>2020-10-31 11:12:04</time>
      </trkpt>
      <trkpt lat="41.34919" lon="0.56684">
        <ele>446.8</ele>
        <time>2020-10-31 11:12:05</time>
      </trkpt>
      <trkpt lat="41.34883" lon="0.56717">
        <ele>447.6</ele>
        <time>2020-10-31 11:12:13</time>
      </trkpt>
      <trkpt lat="41.34874" lon="0.56733">
        <ele>448.2</ele>
        <time>2020-10-31 11:12:16</time>
      </trkpt>
      <trkpt lat="41.34871" lon="0.56739">
        <ele>448.2</ele>
        <time>2020-10-31 11:12:17</time>
      </trkpt>
      <trkpt lat="41.34869" lon="0.56745">
        <ele>448.4</ele>
        <time>2020-10-31 11:12:18</time>
      </trkpt>
      <trkpt lat="41.34867" lon="0.56751">
        <ele>448.6</ele>
        <time>2020-10-31 11:12:19</time>
      </trkpt>
      <trkpt lat="41.34864" lon="0.56776">
        <ele>449.2</ele>
        <time>2020-10-31 11:12:23</time>
      </trkpt>
      <trkpt lat="41.34866" lon="0.56789">
        <ele>449.4</ele>
        <time>2020-10-31 11:12:25</time>
      </trkpt>
      <trkpt lat="41.34867" lon="0.56795">
        <ele>449.6</ele>
        <time>2020-10-31 11:12:26</time>
      </trkpt>
      <trkpt lat="41.34871" lon="0.56807">
        <ele>450</ele>
        <time>2020-10-31 11:12:28</time>
      </trkpt>
      <trkpt lat="41.34876" lon="0.56818">
        <ele>450.2</ele>
        <time>2020-10-31 11:12:30</time>
      </trkpt>
      <trkpt lat="41.34879" lon="0.56823">
        <ele>450.2</ele>
        <time>2020-10-31 11:12:31</time>
      </trkpt>
      <trkpt lat="41.34889" lon="0.56838">
        <ele>450.4</ele>
        <time>2020-10-31 11:12:34</time>
      </trkpt>
      <trkpt lat="41.34921" lon="0.56881">
        <ele>450.8</ele>
        <time>2020-10-31 11:12:43</time>
      </trkpt>
      <trkpt lat="41.34928" lon="0.56892">
        <ele>450.8</ele>
        <time>2020-10-31 11:12:45</time>
      </trkpt>
      <trkpt lat="41.34939" lon="0.56916">
        <ele>451</ele>
        <time>2020-10-31 11:12:49</time>
      </trkpt>
      <trkpt lat="41.34941" lon="0.56923">
        <ele>451</ele>
        <time>2020-10-31 11:12:50</time>
      </trkpt>
      <trkpt lat="41.34945" lon="0.56965">
        <ele>451</ele>
        <time>2020-10-31 11:12:56</time>
      </trkpt>
      <trkpt lat="41.34942" lon="0.57018">
        <ele>451</ele>
        <time>2020-10-31 11:13:03</time>
      </trkpt>
      <trkpt lat="41.34935" lon="0.57096">
        <ele>451.2</ele>
        <time>2020-10-31 11:13:13</time>
      </trkpt>
      <trkpt lat="41.34934" lon="0.57104">
        <ele>451.2</ele>
        <time>2020-10-31 11:13:14</time>
      </trkpt>
      <trkpt lat="41.34933" lon="0.57112">
        <ele>451.2</ele>
        <time>2020-10-31 11:13:15</time>
      </trkpt>
      <trkpt lat="41.34926" lon="0.57144">
        <ele>451.4</ele>
        <time>2020-10-31 11:13:19</time>
      </trkpt>
      <trkpt lat="41.34923" lon="0.57151">
        <ele>451.6</ele>
        <time>2020-10-31 11:13:20</time>
      </trkpt>
      <trkpt lat="41.34916" lon="0.57164">
        <ele>451.8</ele>
        <time>2020-10-31 11:13:22</time>
      </trkpt>
      <trkpt lat="41.34912" lon="0.57169">
        <ele>451.8</ele>
        <time>2020-10-31 11:13:23</time>
      </trkpt>
      <trkpt lat="41.34897" lon="0.57182">
        <ele>452</ele>
        <time>2020-10-31 11:13:26</time>
      </trkpt>
      <trkpt lat="41.34887" lon="0.57189">
        <ele>452</ele>
        <time>2020-10-31 11:13:28</time>
      </trkpt>
      <trkpt lat="41.34871" lon="0.57199">
        <ele>452.4</ele>
        <time>2020-10-31 11:13:31</time>
      </trkpt>
      <trkpt lat="41.34849" lon="0.57212">
        <ele>452.8</ele>
        <time>2020-10-31 11:13:35</time>
      </trkpt>
      <trkpt lat="41.34802" lon="0.57245">
        <ele>453</ele>
        <time>2020-10-31 11:13:44</time>
      </trkpt>
      <trkpt lat="41.34798" lon="0.5725">
        <ele>453.2</ele>
        <time>2020-10-31 11:13:45</time>
      </trkpt>
      <trkpt lat="41.34787" lon="0.57263">
        <ele>453.2</ele>
        <time>2020-10-31 11:13:48</time>
      </trkpt>
      <trkpt lat="41.34785" lon="0.57268">
        <ele>453.2</ele>
        <time>2020-10-31 11:13:49</time>
      </trkpt>
      <trkpt lat="41.34783" lon="0.57274">
        <ele>453.4</ele>
        <time>2020-10-31 11:13:50</time>
      </trkpt>
      <trkpt lat="41.34779" lon="0.57285">
        <ele>453.8</ele>
        <time>2020-10-31 11:13:52</time>
      </trkpt>
      <trkpt lat="41.34777" lon="0.57299">
        <ele>454.4</ele>
        <time>2020-10-31 11:13:54</time>
      </trkpt>
      <trkpt lat="41.34775" lon="0.57305">
        <ele>454.6</ele>
        <time>2020-10-31 11:13:55</time>
      </trkpt>
      <trkpt lat="41.34767" lon="0.57349">
        <ele>455.2</ele>
        <time>2020-10-31 11:14:01</time>
      </trkpt>
      <trkpt lat="41.34758" lon="0.57399">
        <ele>455.2</ele>
        <time>2020-10-31 11:14:07</time>
      </trkpt>
      <trkpt lat="41.34756" lon="0.57408">
        <ele>455.2</ele>
        <time>2020-10-31 11:14:08</time>
      </trkpt>
      <trkpt lat="41.34756" lon="0.57437">
        <ele>455</ele>
        <time>2020-10-31 11:14:11</time>
      </trkpt>
      <trkpt lat="41.34764" lon="0.57474">
        <ele>452.6</ele>
        <time>2020-10-31 11:14:15</time>
      </trkpt>
      <trkpt lat="41.34767" lon="0.57483">
        <ele>451.2</ele>
        <time>2020-10-31 11:14:16</time>
      </trkpt>
      <trkpt lat="41.34776" lon="0.57498">
        <ele>449.8</ele>
        <time>2020-10-31 11:14:18</time>
      </trkpt>
      <trkpt lat="41.34781" lon="0.57505">
        <ele>449.2</ele>
        <time>2020-10-31 11:14:19</time>
      </trkpt>
      <trkpt lat="41.34785" lon="0.57511">
        <ele>448.4</ele>
        <time>2020-10-31 11:14:20</time>
      </trkpt>
      <trkpt lat="41.34793" lon="0.57525">
        <ele>447.4</ele>
        <time>2020-10-31 11:14:22</time>
      </trkpt>
      <trkpt lat="41.34796" lon="0.57532">
        <ele>446.8</ele>
        <time>2020-10-31 11:14:23</time>
      </trkpt>
      <trkpt lat="41.34798" lon="0.5754">
        <ele>446.4</ele>
        <time>2020-10-31 11:14:24</time>
      </trkpt>
      <trkpt lat="41.34798" lon="0.57554">
        <ele>445.6</ele>
        <time>2020-10-31 11:14:26</time>
      </trkpt>
      <trkpt lat="41.34797" lon="0.5756">
        <ele>445.2</ele>
        <time>2020-10-31 11:14:27</time>
      </trkpt>
      <trkpt lat="41.34792" lon="0.57571">
        <ele>445</ele>
        <time>2020-10-31 11:14:29</time>
      </trkpt>
      <trkpt lat="41.3479" lon="0.57577">
        <ele>445</ele>
        <time>2020-10-31 11:14:30</time>
      </trkpt>
      <trkpt lat="41.34782" lon="0.576">
        <ele>444.8</ele>
        <time>2020-10-31 11:14:33</time>
      </trkpt>
      <trkpt lat="41.34779" lon="0.57616">
        <ele>444.4</ele>
        <time>2020-10-31 11:14:35</time>
      </trkpt>
      <trkpt lat="41.34777" lon="0.57628">
        <ele>444</ele>
        <time>2020-10-31 11:14:37</time>
      </trkpt>
      <trkpt lat="41.34776" lon="0.57633">
        <ele>443.6</ele>
        <time>2020-10-31 11:14:38</time>
      </trkpt>
      <trkpt lat="41.34776" lon="0.57644">
        <ele>441.6</ele>
        <time>2020-10-31 11:14:40</time>
      </trkpt>
      <trkpt lat="41.34778" lon="0.57656">
        <ele>440.4</ele>
        <time>2020-10-31 11:14:42</time>
      </trkpt>
      <trkpt lat="41.34783" lon="0.57666">
        <ele>439</ele>
        <time>2020-10-31 11:14:44</time>
      </trkpt>
      <trkpt lat="41.34791" lon="0.5768">
        <ele>437.8</ele>
        <time>2020-10-31 11:14:47</time>
      </trkpt>
      <trkpt lat="41.34794" lon="0.57686">
        <ele>437.2</ele>
        <time>2020-10-31 11:14:48</time>
      </trkpt>
      <trkpt lat="41.348" lon="0.57698">
        <ele>436.6</ele>
        <time>2020-10-31 11:14:50</time>
      </trkpt>
      <trkpt lat="41.34808" lon="0.5771">
        <ele>435.2</ele>
        <time>2020-10-31 11:14:52</time>
      </trkpt>
      <trkpt lat="41.34815" lon="0.57723">
        <ele>434</ele>
        <time>2020-10-31 11:14:54</time>
      </trkpt>
      <trkpt lat="41.34826" lon="0.57742">
        <ele>432.8</ele>
        <time>2020-10-31 11:14:57</time>
      </trkpt>
      <trkpt lat="41.34839" lon="0.5776">
        <ele>431.6</ele>
        <time>2020-10-31 11:15:00</time>
      </trkpt>
      <trkpt lat="41.34843" lon="0.57765">
        <ele>431.2</ele>
        <time>2020-10-31 11:15:01</time>
      </trkpt>
      <trkpt lat="41.34859" lon="0.57788">
        <ele>430.6</ele>
        <time>2020-10-31 11:15:05</time>
      </trkpt>
      <trkpt lat="41.34868" lon="0.57807">
        <ele>430.6</ele>
        <time>2020-10-31 11:15:08</time>
      </trkpt>
      <trkpt lat="41.34888" lon="0.57845">
        <ele>430.8</ele>
        <time>2020-10-31 11:15:15</time>
      </trkpt>
      <trkpt lat="41.34905" lon="0.57868">
        <ele>432</ele>
        <time>2020-10-31 11:15:22</time>
      </trkpt>
      <trkpt lat="41.34909" lon="0.57874">
        <ele>432.6</ele>
        <time>2020-10-31 11:15:24</time>
      </trkpt>
      <trkpt lat="41.34913" lon="0.57883">
        <ele>433.6</ele>
        <time>2020-10-31 11:15:27</time>
      </trkpt>
      <trkpt lat="41.34914" lon="0.57886">
        <ele>434</ele>
        <time>2020-10-31 11:15:28</time>
      </trkpt>
      <trkpt lat="41.34915" lon="0.57895">
        <ele>435</ele>
        <time>2020-10-31 11:15:31</time>
      </trkpt>
      <trkpt lat="41.34915" lon="0.57904">
        <ele>436.4</ele>
        <time>2020-10-31 11:15:34</time>
      </trkpt>
      <trkpt lat="41.34915" lon="0.57907">
        <ele>436.6</ele>
        <time>2020-10-31 11:15:35</time>
      </trkpt>
      <trkpt lat="41.34915" lon="0.57914">
        <ele>437.6</ele>
        <time>2020-10-31 11:15:37</time>
      </trkpt>
      <trkpt lat="41.34914" lon="0.57923">
        <ele>438.6</ele>
        <time>2020-10-31 11:15:40</time>
      </trkpt>
      <trkpt lat="41.34913" lon="0.57929">
        <ele>439.2</ele>
        <time>2020-10-31 11:15:42</time>
      </trkpt>
      <trkpt lat="41.34911" lon="0.57935">
        <ele>440</ele>
        <time>2020-10-31 11:15:44</time>
      </trkpt>
      <trkpt lat="41.34907" lon="0.57949">
        <ele>441</ele>
        <time>2020-10-31 11:15:48</time>
      </trkpt>
      <trkpt lat="41.34904" lon="0.57958">
        <ele>441.2</ele>
        <time>2020-10-31 11:15:50</time>
      </trkpt>
      <trkpt lat="41.34896" lon="0.57988">
        <ele>441.2</ele>
        <time>2020-10-31 11:15:56</time>
      </trkpt>
      <trkpt lat="41.34891" lon="0.58018">
        <ele>441.2</ele>
        <time>2020-10-31 11:16:02</time>
      </trkpt>
      <trkpt lat="41.34883" lon="0.58046">
        <ele>441.2</ele>
        <time>2020-10-31 11:16:08</time>
      </trkpt>
      <trkpt lat="41.3488" lon="0.58062">
        <ele>441.6</ele>
        <time>2020-10-31 11:16:11</time>
      </trkpt>
      <trkpt lat="41.34879" lon="0.58073">
        <ele>441.8</ele>
        <time>2020-10-31 11:16:13</time>
      </trkpt>
      <trkpt lat="41.34877" lon="0.58078">
        <ele>441.8</ele>
        <time>2020-10-31 11:16:14</time>
      </trkpt>
      <trkpt lat="41.34869" lon="0.58091">
        <ele>442</ele>
        <time>2020-10-31 11:16:18</time>
      </trkpt>
      <trkpt lat="41.34868" lon="0.58091">
        <ele>442.2</ele>
        <time>2020-10-31 11:16:19</time>
      </trkpt>
      <trkpt lat="41.34868" lon="0.58091">
        <ele>442.6</ele>
        <time>2020-10-31 11:16:22</time>
      </trkpt>
      <trkpt lat="41.34867" lon="0.58091">
        <ele>443.2</ele>
        <time>2020-10-31 11:16:25</time>
      </trkpt>
      <trkpt lat="41.34867" lon="0.58091">
        <ele>443.6</ele>
        <time>2020-10-31 11:16:37</time>
      </trkpt>
      <trkpt lat="41.34867" lon="0.58093">
        <ele>443.4</ele>
        <time>2020-10-31 11:16:49</time>
      </trkpt>
      <trkpt lat="41.34866" lon="0.58094">
        <ele>443.4</ele>
        <time>2020-10-31 11:16:50</time>
      </trkpt>
      <trkpt lat="41.34861" lon="0.58102">
        <ele>443.6</ele>
        <time>2020-10-31 11:16:53</time>
      </trkpt>
      <trkpt lat="41.34845" lon="0.58126">
        <ele>443.6</ele>
        <time>2020-10-31 11:16:59</time>
      </trkpt>
      <trkpt lat="41.34843" lon="0.58131">
        <ele>443.6</ele>
        <time>2020-10-31 11:17:00</time>
      </trkpt>
      <trkpt lat="41.34838" lon="0.58149">
        <ele>443.6</ele>
        <time>2020-10-31 11:17:03</time>
      </trkpt>
      <trkpt lat="41.34836" lon="0.58183">
        <ele>443.6</ele>
        <time>2020-10-31 11:17:08</time>
      </trkpt>
      <trkpt lat="41.34836" lon="0.5819">
        <ele>443.6</ele>
        <time>2020-10-31 11:17:09</time>
      </trkpt>
      <trkpt lat="41.34838" lon="0.58203">
        <ele>443.8</ele>
        <time>2020-10-31 11:17:11</time>
      </trkpt>
      <trkpt lat="41.34841" lon="0.58231">
        <ele>444</ele>
        <time>2020-10-31 11:17:15</time>
      </trkpt>
      <trkpt lat="41.34841" lon="0.58238">
        <ele>444</ele>
        <time>2020-10-31 11:17:16</time>
      </trkpt>
      <trkpt lat="41.34838" lon="0.58264">
        <ele>444</ele>
        <time>2020-10-31 11:17:20</time>
      </trkpt>
      <trkpt lat="41.34835" lon="0.58297">
        <ele>444.4</ele>
        <time>2020-10-31 11:17:25</time>
      </trkpt>
      <trkpt lat="41.34831" lon="0.5831">
        <ele>444.4</ele>
        <time>2020-10-31 11:17:27</time>
      </trkpt>
      <trkpt lat="41.3482" lon="0.58328">
        <ele>444.4</ele>
        <time>2020-10-31 11:17:30</time>
      </trkpt>
      <trkpt lat="41.34816" lon="0.58334">
        <ele>444.4</ele>
        <time>2020-10-31 11:17:31</time>
      </trkpt>
      <trkpt lat="41.34796" lon="0.58361">
        <ele>444.4</ele>
        <time>2020-10-31 11:17:36</time>
      </trkpt>
      <trkpt lat="41.34793" lon="0.58367">
        <ele>444.4</ele>
        <time>2020-10-31 11:17:37</time>
      </trkpt>
      <trkpt lat="41.34787" lon="0.58384">
        <ele>444.2</ele>
        <time>2020-10-31 11:17:40</time>
      </trkpt>
      <trkpt lat="41.34783" lon="0.58396">
        <ele>444.2</ele>
        <time>2020-10-31 11:17:42</time>
      </trkpt>
      <trkpt lat="41.34781" lon="0.58419">
        <ele>444</ele>
        <time>2020-10-31 11:17:45</time>
      </trkpt>
      <trkpt lat="41.34788" lon="0.58438">
        <ele>444</ele>
        <time>2020-10-31 11:17:48</time>
      </trkpt>
      <trkpt lat="41.34795" lon="0.58454">
        <ele>443.2</ele>
        <time>2020-10-31 11:17:51</time>
      </trkpt>
      <trkpt lat="41.34802" lon="0.58471">
        <ele>442</ele>
        <time>2020-10-31 11:17:54</time>
      </trkpt>
      <trkpt lat="41.34805" lon="0.58477">
        <ele>441.8</ele>
        <time>2020-10-31 11:17:55</time>
      </trkpt>
      <trkpt lat="41.34808" lon="0.58482">
        <ele>441.6</ele>
        <time>2020-10-31 11:17:56</time>
      </trkpt>
      <trkpt lat="41.34827" lon="0.58499">
        <ele>441.4</ele>
        <time>2020-10-31 11:18:00</time>
      </trkpt>
      <trkpt lat="41.34833" lon="0.585">
        <ele>441.2</ele>
        <time>2020-10-31 11:18:01</time>
      </trkpt>
      <trkpt lat="41.34838" lon="0.58503">
        <ele>441.2</ele>
        <time>2020-10-31 11:18:02</time>
      </trkpt>
      <trkpt lat="41.34853" lon="0.58515">
        <ele>441.2</ele>
        <time>2020-10-31 11:18:05</time>
      </trkpt>
      <trkpt lat="41.34856" lon="0.58528">
        <ele>440.8</ele>
        <time>2020-10-31 11:18:07</time>
      </trkpt>
      <trkpt lat="41.34859" lon="0.58542">
        <ele>440.4</ele>
        <time>2020-10-31 11:18:09</time>
      </trkpt>
      <trkpt lat="41.34859" lon="0.58557">
        <ele>439.6</ele>
        <time>2020-10-31 11:18:11</time>
      </trkpt>
      <trkpt lat="41.3486" lon="0.58565">
        <ele>439.4</ele>
        <time>2020-10-31 11:18:12</time>
      </trkpt>
      <trkpt lat="41.34862" lon="0.5858">
        <ele>439</ele>
        <time>2020-10-31 11:18:14</time>
      </trkpt>
      <trkpt lat="41.34867" lon="0.58618">
        <ele>438.8</ele>
        <time>2020-10-31 11:18:19</time>
      </trkpt>
      <trkpt lat="41.34868" lon="0.58625">
        <ele>438.8</ele>
        <time>2020-10-31 11:18:20</time>
      </trkpt>
      <trkpt lat="41.34872" lon="0.58638">
        <ele>439</ele>
        <time>2020-10-31 11:18:22</time>
      </trkpt>
      <trkpt lat="41.34874" lon="0.58653">
        <ele>439</ele>
        <time>2020-10-31 11:18:24</time>
      </trkpt>
      <trkpt lat="41.34875" lon="0.58661">
        <ele>439</ele>
        <time>2020-10-31 11:18:25</time>
      </trkpt>
      <trkpt lat="41.34879" lon="0.587">
        <ele>439.2</ele>
        <time>2020-10-31 11:18:30</time>
      </trkpt>
      <trkpt lat="41.34883" lon="0.58735">
        <ele>439.4</ele>
        <time>2020-10-31 11:18:34</time>
      </trkpt>
      <trkpt lat="41.3488" lon="0.58751">
        <ele>439.4</ele>
        <time>2020-10-31 11:18:36</time>
      </trkpt>
      <trkpt lat="41.34877" lon="0.58765">
        <ele>439.4</ele>
        <time>2020-10-31 11:18:38</time>
      </trkpt>
      <trkpt lat="41.34875" lon="0.58779">
        <ele>439.4</ele>
        <time>2020-10-31 11:18:40</time>
      </trkpt>
      <trkpt lat="41.34874" lon="0.58785">
        <ele>439.6</ele>
        <time>2020-10-31 11:18:41</time>
      </trkpt>
      <trkpt lat="41.34874" lon="0.58833">
        <ele>440.8</ele>
        <time>2020-10-31 11:18:48</time>
      </trkpt>
      <trkpt lat="41.3487" lon="0.58859">
        <ele>441.2</ele>
        <time>2020-10-31 11:18:52</time>
      </trkpt>
      <trkpt lat="41.34866" lon="0.58872">
        <ele>441.4</ele>
        <time>2020-10-31 11:18:54</time>
      </trkpt>
      <trkpt lat="41.34863" lon="0.58886">
        <ele>441.8</ele>
        <time>2020-10-31 11:18:56</time>
      </trkpt>
      <trkpt lat="41.34862" lon="0.58907">
        <ele>442.2</ele>
        <time>2020-10-31 11:18:59</time>
      </trkpt>
      <trkpt lat="41.34861" lon="0.58927">
        <ele>442.2</ele>
        <time>2020-10-31 11:19:02</time>
      </trkpt>
      <trkpt lat="41.34859" lon="0.5894">
        <ele>442.2</ele>
        <time>2020-10-31 11:19:04</time>
      </trkpt>
      <trkpt lat="41.3485" lon="0.58977">
        <ele>443</ele>
        <time>2020-10-31 11:19:10</time>
      </trkpt>
      <trkpt lat="41.34838" lon="0.59015">
        <ele>444</ele>
        <time>2020-10-31 11:19:16</time>
      </trkpt>
      <trkpt lat="41.34837" lon="0.59022">
        <ele>444.2</ele>
        <time>2020-10-31 11:19:17</time>
      </trkpt>
      <trkpt lat="41.34831" lon="0.59061">
        <ele>444.8</ele>
        <time>2020-10-31 11:19:23</time>
      </trkpt>
      <trkpt lat="41.34829" lon="0.59078">
        <ele>445</ele>
        <time>2020-10-31 11:19:26</time>
      </trkpt>
      <trkpt lat="41.34829" lon="0.59085">
        <ele>445.2</ele>
        <time>2020-10-31 11:19:27</time>
      </trkpt>
      <trkpt lat="41.34831" lon="0.59097">
        <ele>445.2</ele>
        <time>2020-10-31 11:19:29</time>
      </trkpt>
      <trkpt lat="41.34832" lon="0.59133">
        <ele>446.2</ele>
        <time>2020-10-31 11:19:35</time>
      </trkpt>
      <trkpt lat="41.34834" lon="0.5914">
        <ele>446.2</ele>
        <time>2020-10-31 11:19:36</time>
      </trkpt>
      <trkpt lat="41.3484" lon="0.59158">
        <ele>446.2</ele>
        <time>2020-10-31 11:19:39</time>
      </trkpt>
      <trkpt lat="41.34842" lon="0.59164">
        <ele>446.2</ele>
        <time>2020-10-31 11:19:40</time>
      </trkpt>
      <trkpt lat="41.34849" lon="0.59183">
        <ele>446.2</ele>
        <time>2020-10-31 11:19:43</time>
      </trkpt>
      <trkpt lat="41.34855" lon="0.59196">
        <ele>446.2</ele>
        <time>2020-10-31 11:19:45</time>
      </trkpt>
      <trkpt lat="41.34858" lon="0.59203">
        <ele>446.2</ele>
        <time>2020-10-31 11:19:46</time>
      </trkpt>
      <trkpt lat="41.34878" lon="0.59258">
        <ele>445.4</ele>
        <time>2020-10-31 11:19:53</time>
      </trkpt>
      <trkpt lat="41.34882" lon="0.59274">
        <ele>445</ele>
        <time>2020-10-31 11:19:55</time>
      </trkpt>
      <trkpt lat="41.34888" lon="0.59297">
        <ele>443.8</ele>
        <time>2020-10-31 11:19:58</time>
      </trkpt>
      <trkpt lat="41.34891" lon="0.59313">
        <ele>443.8</ele>
        <time>2020-10-31 11:20:00</time>
      </trkpt>
      <trkpt lat="41.349" lon="0.5936">
        <ele>443.6</ele>
        <time>2020-10-31 11:20:06</time>
      </trkpt>
      <trkpt lat="41.34915" lon="0.59415">
        <ele>443.4</ele>
        <time>2020-10-31 11:20:13</time>
      </trkpt>
      <trkpt lat="41.34917" lon="0.59422">
        <ele>443.4</ele>
        <time>2020-10-31 11:20:14</time>
      </trkpt>
      <trkpt lat="41.34918" lon="0.59445">
        <ele>443.4</ele>
        <time>2020-10-31 11:20:17</time>
      </trkpt>
      <trkpt lat="41.34914" lon="0.59466">
        <ele>443.4</ele>
        <time>2020-10-31 11:20:20</time>
      </trkpt>
      <trkpt lat="41.3491" lon="0.59479">
        <ele>443.4</ele>
        <time>2020-10-31 11:20:22</time>
      </trkpt>
      <trkpt lat="41.34897" lon="0.59519">
        <ele>443.6</ele>
        <time>2020-10-31 11:20:28</time>
      </trkpt>
      <trkpt lat="41.34882" lon="0.59555">
        <ele>443.8</ele>
        <time>2020-10-31 11:20:32</time>
      </trkpt>
      <trkpt lat="41.34855" lon="0.5961">
        <ele>443.6</ele>
        <time>2020-10-31 11:20:38</time>
      </trkpt>
      <trkpt lat="41.34843" lon="0.59625">
        <ele>442.2</ele>
        <time>2020-10-31 11:20:40</time>
      </trkpt>
      <trkpt lat="41.34828" lon="0.59644">
        <ele>441.8</ele>
        <time>2020-10-31 11:20:43</time>
      </trkpt>
      <trkpt lat="41.34812" lon="0.59682">
        <ele>441.8</ele>
        <time>2020-10-31 11:20:48</time>
      </trkpt>
      <trkpt lat="41.34797" lon="0.59721">
        <ele>443.4</ele>
        <time>2020-10-31 11:20:53</time>
      </trkpt>
      <trkpt lat="41.34788" lon="0.59744">
        <ele>443.8</ele>
        <time>2020-10-31 11:20:56</time>
      </trkpt>
      <trkpt lat="41.34773" lon="0.5978">
        <ele>444.4</ele>
        <time>2020-10-31 11:21:01</time>
      </trkpt>
      <trkpt lat="41.34768" lon="0.59795">
        <ele>444.8</ele>
        <time>2020-10-31 11:21:03</time>
      </trkpt>
      <trkpt lat="41.3476" lon="0.59817">
        <ele>445.4</ele>
        <time>2020-10-31 11:21:06</time>
      </trkpt>
      <trkpt lat="41.34751" lon="0.59843">
        <ele>445.8</ele>
        <time>2020-10-31 11:21:10</time>
      </trkpt>
      <trkpt lat="41.34739" lon="0.59866">
        <ele>446.8</ele>
        <time>2020-10-31 11:21:15</time>
      </trkpt>
      <trkpt lat="41.34736" lon="0.59871">
        <ele>447</ele>
        <time>2020-10-31 11:21:16</time>
      </trkpt>
      <trkpt lat="41.34733" lon="0.59875">
        <ele>447.4</ele>
        <time>2020-10-31 11:21:17</time>
      </trkpt>
      <trkpt lat="41.34726" lon="0.59883">
        <ele>448</ele>
        <time>2020-10-31 11:21:19</time>
      </trkpt>
      <trkpt lat="41.34714" lon="0.59894">
        <ele>448.8</ele>
        <time>2020-10-31 11:21:22</time>
      </trkpt>
      <trkpt lat="41.3471" lon="0.59898">
        <ele>449</ele>
        <time>2020-10-31 11:21:23</time>
      </trkpt>
      <trkpt lat="41.34688" lon="0.59924">
        <ele>449.4</ele>
        <time>2020-10-31 11:21:29</time>
      </trkpt>
      <trkpt lat="41.34665" lon="0.59968">
        <ele>449.6</ele>
        <time>2020-10-31 11:21:37</time>
      </trkpt>
      <trkpt lat="41.34663" lon="0.59974">
        <ele>449.6</ele>
        <time>2020-10-31 11:21:38</time>
      </trkpt>
      <trkpt lat="41.3466" lon="0.59994">
        <ele>449.6</ele>
        <time>2020-10-31 11:21:41</time>
      </trkpt>
      <trkpt lat="41.34661" lon="0.60001">
        <ele>449.6</ele>
        <time>2020-10-31 11:21:42</time>
      </trkpt>
      <trkpt lat="41.34663" lon="0.60042">
        <ele>449.6</ele>
        <time>2020-10-31 11:21:47</time>
      </trkpt>
      <trkpt lat="41.34666" lon="0.60075">
        <ele>449.4</ele>
        <time>2020-10-31 11:21:51</time>
      </trkpt>
      <trkpt lat="41.34669" lon="0.60083">
        <ele>449.4</ele>
        <time>2020-10-31 11:21:52</time>
      </trkpt>
      <trkpt lat="41.34684" lon="0.60133">
        <ele>449.4</ele>
        <time>2020-10-31 11:21:58</time>
      </trkpt>
      <trkpt lat="41.34691" lon="0.60187">
        <ele>448.4</ele>
        <time>2020-10-31 11:22:04</time>
      </trkpt>
      <trkpt lat="41.34694" lon="0.60225">
        <ele>448</ele>
        <time>2020-10-31 11:22:08</time>
      </trkpt>
      <trkpt lat="41.34696" lon="0.60244">
        <ele>447.8</ele>
        <time>2020-10-31 11:22:10</time>
      </trkpt>
      <trkpt lat="41.34694" lon="0.60292">
        <ele>447.8</ele>
        <time>2020-10-31 11:22:16</time>
      </trkpt>
      <trkpt lat="41.34691" lon="0.60335">
        <ele>448</ele>
        <time>2020-10-31 11:22:23</time>
      </trkpt>
      <trkpt lat="41.34689" lon="0.60353">
        <ele>449.2</ele>
        <time>2020-10-31 11:22:26</time>
      </trkpt>
      <trkpt lat="41.34684" lon="0.60376">
        <ele>450.4</ele>
        <time>2020-10-31 11:22:30</time>
      </trkpt>
      <trkpt lat="41.34682" lon="0.60388">
        <ele>451.4</ele>
        <time>2020-10-31 11:22:32</time>
      </trkpt>
      <trkpt lat="41.3468" lon="0.60394">
        <ele>451.4</ele>
        <time>2020-10-31 11:22:33</time>
      </trkpt>
      <trkpt lat="41.34675" lon="0.60415">
        <ele>452.4</ele>
        <time>2020-10-31 11:22:37</time>
      </trkpt>
      <trkpt lat="41.34673" lon="0.6042">
        <ele>452.6</ele>
        <time>2020-10-31 11:22:38</time>
      </trkpt>
      <trkpt lat="41.34671" lon="0.60425">
        <ele>452.8</ele>
        <time>2020-10-31 11:22:39</time>
      </trkpt>
      <trkpt lat="41.34663" lon="0.60445">
        <ele>453.8</ele>
        <time>2020-10-31 11:22:43</time>
      </trkpt>
      <trkpt lat="41.34656" lon="0.6046">
        <ele>454.4</ele>
        <time>2020-10-31 11:22:46</time>
      </trkpt>
      <trkpt lat="41.34653" lon="0.60471">
        <ele>454.6</ele>
        <time>2020-10-31 11:22:48</time>
      </trkpt>
      <trkpt lat="41.34647" lon="0.60495">
        <ele>454.8</ele>
        <time>2020-10-31 11:22:52</time>
      </trkpt>
      <trkpt lat="41.34646" lon="0.60501">
        <ele>454.8</ele>
        <time>2020-10-31 11:22:53</time>
      </trkpt>
      <trkpt lat="41.34641" lon="0.60518">
        <ele>455</ele>
        <time>2020-10-31 11:22:56</time>
      </trkpt>
      <trkpt lat="41.34637" lon="0.60529">
        <ele>455</ele>
        <time>2020-10-31 11:22:58</time>
      </trkpt>
      <trkpt lat="41.34634" lon="0.60533">
        <ele>455.2</ele>
        <time>2020-10-31 11:22:59</time>
      </trkpt>
      <trkpt lat="41.34632" lon="0.60538">
        <ele>455.2</ele>
        <time>2020-10-31 11:23:00</time>
      </trkpt>
      <trkpt lat="41.34616" lon="0.60556">
        <ele>455.8</ele>
        <time>2020-10-31 11:23:05</time>
      </trkpt>
      <trkpt lat="41.34612" lon="0.60559">
        <ele>456</ele>
        <time>2020-10-31 11:23:06</time>
      </trkpt>
      <trkpt lat="41.34594" lon="0.60573">
        <ele>457</ele>
        <time>2020-10-31 11:23:11</time>
      </trkpt>
      <trkpt lat="41.34589" lon="0.6058">
        <ele>457.4</ele>
        <time>2020-10-31 11:23:13</time>
      </trkpt>
      <trkpt lat="41.34585" lon="0.60588">
        <ele>457.8</ele>
        <time>2020-10-31 11:23:15</time>
      </trkpt>
      <trkpt lat="41.3458" lon="0.60598">
        <ele>458.4</ele>
        <time>2020-10-31 11:23:18</time>
      </trkpt>
      <trkpt lat="41.34577" lon="0.60604">
        <ele>458.6</ele>
        <time>2020-10-31 11:23:20</time>
      </trkpt>
      <trkpt lat="41.34572" lon="0.60615">
        <ele>459.8</ele>
        <time>2020-10-31 11:23:23</time>
      </trkpt>
      <trkpt lat="41.34569" lon="0.60623">
        <ele>460.8</ele>
        <time>2020-10-31 11:23:25</time>
      </trkpt>
      <trkpt lat="41.34564" lon="0.60635">
        <ele>462</ele>
        <time>2020-10-31 11:23:28</time>
      </trkpt>
      <trkpt lat="41.34554" lon="0.60656">
        <ele>462.6</ele>
        <time>2020-10-31 11:23:33</time>
      </trkpt>
      <trkpt lat="41.34538" lon="0.60681">
        <ele>462.8</ele>
        <time>2020-10-31 11:23:39</time>
      </trkpt>
      <trkpt lat="41.34532" lon="0.607">
        <ele>463</ele>
        <time>2020-10-31 11:23:43</time>
      </trkpt>
      <trkpt lat="41.34531" lon="0.60705">
        <ele>463.2</ele>
        <time>2020-10-31 11:23:44</time>
      </trkpt>
      <trkpt lat="41.34532" lon="0.6072">
        <ele>463.4</ele>
        <time>2020-10-31 11:23:47</time>
      </trkpt>
      <trkpt lat="41.3453" lon="0.60731">
        <ele>463.4</ele>
        <time>2020-10-31 11:23:49</time>
      </trkpt>
      <trkpt lat="41.34525" lon="0.60741">
        <ele>463.6</ele>
        <time>2020-10-31 11:23:51</time>
      </trkpt>
      <trkpt lat="41.34521" lon="0.60749">
        <ele>464.4</ele>
        <time>2020-10-31 11:23:53</time>
      </trkpt>
      <trkpt lat="41.34512" lon="0.60773">
        <ele>465</ele>
        <time>2020-10-31 11:23:59</time>
      </trkpt>
      <trkpt lat="41.34507" lon="0.60788">
        <ele>465.4</ele>
        <time>2020-10-31 11:24:01</time>
      </trkpt>
      <trkpt lat="41.34502" lon="0.60808">
        <ele>466.6</ele>
        <time>2020-10-31 11:24:06</time>
      </trkpt>
      <trkpt lat="41.345" lon="0.6082">
        <ele>466.8</ele>
        <time>2020-10-31 11:24:07</time>
      </trkpt>
      <trkpt lat="41.34499" lon="0.6084">
        <ele>467.6</ele>
        <time>2020-10-31 11:24:12</time>
      </trkpt>
      <trkpt lat="41.34499" lon="0.6084">
        <ele>467.8</ele>
        <time>2020-10-31 11:24:13</time>
      </trkpt>
      <trkpt lat="41.34503" lon="0.60864">
        <ele>469.4</ele>
        <time>2020-10-31 11:24:18</time>
      </trkpt>
      <trkpt lat="41.34504" lon="0.60868">
        <ele>470</ele>
        <time>2020-10-31 11:24:19</time>
      </trkpt>
      <trkpt lat="41.34506" lon="0.60872">
        <ele>470.4</ele>
        <time>2020-10-31 11:24:20</time>
      </trkpt>
      <trkpt lat="41.34516" lon="0.60888">
        <ele>470.8</ele>
        <time>2020-10-31 11:24:24</time>
      </trkpt>
      <trkpt lat="41.34519" lon="0.60893">
        <ele>470.8</ele>
        <time>2020-10-31 11:24:25</time>
      </trkpt>
      <trkpt lat="41.34524" lon="0.60913">
        <ele>471</ele>
        <time>2020-10-31 11:24:28</time>
      </trkpt>
      <trkpt lat="41.34523" lon="0.60928">
        <ele>471</ele>
        <time>2020-10-31 11:24:30</time>
      </trkpt>
      <trkpt lat="41.34522" lon="0.60936">
        <ele>470.6</ele>
        <time>2020-10-31 11:24:31</time>
      </trkpt>
      <trkpt lat="41.34522" lon="0.60944">
        <ele>470.6</ele>
        <time>2020-10-31 11:24:32</time>
      </trkpt>
      <trkpt lat="41.3453" lon="0.6097">
        <ele>470.4</ele>
        <time>2020-10-31 11:24:35</time>
      </trkpt>
      <trkpt lat="41.3454" lon="0.60985">
        <ele>469.6</ele>
        <time>2020-10-31 11:24:37</time>
      </trkpt>
      <trkpt lat="41.34545" lon="0.6099">
        <ele>469.4</ele>
        <time>2020-10-31 11:24:38</time>
      </trkpt>
      <trkpt lat="41.34548" lon="0.60997">
        <ele>469.2</ele>
        <time>2020-10-31 11:24:39</time>
      </trkpt>
      <trkpt lat="41.34553" lon="0.6102">
        <ele>467.8</ele>
        <time>2020-10-31 11:24:42</time>
      </trkpt>
      <trkpt lat="41.34553" lon="0.61029">
        <ele>466.6</ele>
        <time>2020-10-31 11:24:43</time>
      </trkpt>
      <trkpt lat="41.34553" lon="0.61039">
        <ele>466</ele>
        <time>2020-10-31 11:24:44</time>
      </trkpt>
      <trkpt lat="41.34552" lon="0.61047">
        <ele>465.4</ele>
        <time>2020-10-31 11:24:45</time>
      </trkpt>
      <trkpt lat="41.34551" lon="0.61065">
        <ele>464.8</ele>
        <time>2020-10-31 11:24:47</time>
      </trkpt>
      <trkpt lat="41.3455" lon="0.61084">
        <ele>464.4</ele>
        <time>2020-10-31 11:24:49</time>
      </trkpt>
      <trkpt lat="41.34547" lon="0.61104">
        <ele>463.4</ele>
        <time>2020-10-31 11:24:51</time>
      </trkpt>
      <trkpt lat="41.34545" lon="0.61114">
        <ele>463.2</ele>
        <time>2020-10-31 11:24:52</time>
      </trkpt>
      <trkpt lat="41.34538" lon="0.61145">
        <ele>462.2</ele>
        <time>2020-10-31 11:24:55</time>
      </trkpt>
      <trkpt lat="41.34537" lon="0.61155">
        <ele>462</ele>
        <time>2020-10-31 11:24:56</time>
      </trkpt>
      <trkpt lat="41.34536" lon="0.61165">
        <ele>461.6</ele>
        <time>2020-10-31 11:24:57</time>
      </trkpt>
      <trkpt lat="41.34535" lon="0.61184">
        <ele>460.8</ele>
        <time>2020-10-31 11:24:59</time>
      </trkpt>
      <trkpt lat="41.3453" lon="0.612">
        <ele>460.2</ele>
        <time>2020-10-31 11:25:01</time>
      </trkpt>
      <trkpt lat="41.34522" lon="0.61222">
        <ele>460</ele>
        <time>2020-10-31 11:25:05</time>
      </trkpt>
      <trkpt lat="41.34518" lon="0.61233">
        <ele>460</ele>
        <time>2020-10-31 11:25:07</time>
      </trkpt>
      <trkpt lat="41.34511" lon="0.61241">
        <ele>460</ele>
        <time>2020-10-31 11:25:09</time>
      </trkpt>
      <trkpt lat="41.34497" lon="0.61256">
        <ele>462</ele>
        <time>2020-10-31 11:25:13</time>
      </trkpt>
      <trkpt lat="41.34494" lon="0.61267">
        <ele>462.6</ele>
        <time>2020-10-31 11:25:15</time>
      </trkpt>
      <trkpt lat="41.3449" lon="0.61282">
        <ele>463</ele>
        <time>2020-10-31 11:25:18</time>
      </trkpt>
      <trkpt lat="41.34484" lon="0.61297">
        <ele>463.8</ele>
        <time>2020-10-31 11:25:21</time>
      </trkpt>
      <trkpt lat="41.34482" lon="0.61302">
        <ele>464</ele>
        <time>2020-10-31 11:25:22</time>
      </trkpt>
      <trkpt lat="41.34474" lon="0.61322">
        <ele>465.4</ele>
        <time>2020-10-31 11:25:26</time>
      </trkpt>
      <trkpt lat="41.34469" lon="0.61336">
        <ele>466</ele>
        <time>2020-10-31 11:25:29</time>
      </trkpt>
      <trkpt lat="41.34468" lon="0.61346">
        <ele>466.4</ele>
        <time>2020-10-31 11:25:31</time>
      </trkpt>
      <trkpt lat="41.34464" lon="0.61361">
        <ele>467.2</ele>
        <time>2020-10-31 11:25:35</time>
      </trkpt>
      <trkpt lat="41.34462" lon="0.61364">
        <ele>467.6</ele>
        <time>2020-10-31 11:25:36</time>
      </trkpt>
      <trkpt lat="41.34459" lon="0.61379">
        <ele>468.6</ele>
        <time>2020-10-31 11:25:40</time>
      </trkpt>
      <trkpt lat="41.34458" lon="0.61384">
        <ele>468.8</ele>
        <time>2020-10-31 11:25:41</time>
      </trkpt>
      <trkpt lat="41.34456" lon="0.61393">
        <ele>470</ele>
        <time>2020-10-31 11:25:43</time>
      </trkpt>
      <trkpt lat="41.34454" lon="0.61409">
        <ele>470.2</ele>
        <time>2020-10-31 11:25:46</time>
      </trkpt>
      <trkpt lat="41.34452" lon="0.61453">
        <ele>470.4</ele>
        <time>2020-10-31 11:25:52</time>
      </trkpt>
      <trkpt lat="41.34451" lon="0.6146">
        <ele>470.2</ele>
        <time>2020-10-31 11:25:53</time>
      </trkpt>
      <trkpt lat="41.34447" lon="0.61481">
        <ele>469.2</ele>
        <time>2020-10-31 11:25:56</time>
      </trkpt>
      <trkpt lat="41.34445" lon="0.61488">
        <ele>468.8</ele>
        <time>2020-10-31 11:25:57</time>
      </trkpt>
      <trkpt lat="41.3444" lon="0.61508">
        <ele>468</ele>
        <time>2020-10-31 11:26:01</time>
      </trkpt>
      <trkpt lat="41.3444" lon="0.61508">
        <ele>467.8</ele>
        <time>2020-10-31 11:26:02</time>
      </trkpt>
      <trkpt lat="41.34439" lon="0.61518">
        <ele>467.8</ele>
        <time>2020-10-31 11:26:03</time>
      </trkpt>
      <trkpt lat="41.34442" lon="0.6153">
        <ele>467.4</ele>
        <time>2020-10-31 11:26:05</time>
      </trkpt>
      <trkpt lat="41.34453" lon="0.61545">
        <ele>467.2</ele>
        <time>2020-10-31 11:26:08</time>
      </trkpt>
      <trkpt lat="41.34457" lon="0.6155">
        <ele>467.2</ele>
        <time>2020-10-31 11:26:09</time>
      </trkpt>
      <trkpt lat="41.3446" lon="0.61556">
        <ele>467.2</ele>
        <time>2020-10-31 11:26:10</time>
      </trkpt>
      <trkpt lat="41.34463" lon="0.61562">
        <ele>466.8</ele>
        <time>2020-10-31 11:26:11</time>
      </trkpt>
      <trkpt lat="41.34466" lon="0.61569">
        <ele>466.4</ele>
        <time>2020-10-31 11:26:12</time>
      </trkpt>
      <trkpt lat="41.34471" lon="0.6158">
        <ele>465.6</ele>
        <time>2020-10-31 11:26:14</time>
      </trkpt>
      <trkpt lat="41.34479" lon="0.61588">
        <ele>464.6</ele>
        <time>2020-10-31 11:26:16</time>
      </trkpt>
      <trkpt lat="41.34484" lon="0.61591">
        <ele>464.2</ele>
        <time>2020-10-31 11:26:17</time>
      </trkpt>
      <trkpt lat="41.3449" lon="0.61594">
        <ele>463.6</ele>
        <time>2020-10-31 11:26:18</time>
      </trkpt>
      <trkpt lat="41.34501" lon="0.616">
        <ele>463</ele>
        <time>2020-10-31 11:26:20</time>
      </trkpt>
      <trkpt lat="41.34539" lon="0.61629">
        <ele>462.2</ele>
        <time>2020-10-31 11:26:27</time>
      </trkpt>
      <trkpt lat="41.34544" lon="0.61633">
        <ele>462</ele>
        <time>2020-10-31 11:26:28</time>
      </trkpt>
      <trkpt lat="41.34582" lon="0.61671">
        <ele>461.6</ele>
        <time>2020-10-31 11:26:36</time>
      </trkpt>
      <trkpt lat="41.34607" lon="0.6169">
        <ele>462.4</ele>
        <time>2020-10-31 11:26:42</time>
      </trkpt>
      <trkpt lat="41.34611" lon="0.61693">
        <ele>462.6</ele>
        <time>2020-10-31 11:26:43</time>
      </trkpt>
      <trkpt lat="41.34618" lon="0.61696">
        <ele>463.2</ele>
        <time>2020-10-31 11:26:45</time>
      </trkpt>
      <trkpt lat="41.34626" lon="0.61697">
        <ele>463.8</ele>
        <time>2020-10-31 11:26:47</time>
      </trkpt>
      <trkpt lat="41.34635" lon="0.61697">
        <ele>464.4</ele>
        <time>2020-10-31 11:26:50</time>
      </trkpt>
      <trkpt lat="41.34642" lon="0.617">
        <ele>465.8</ele>
        <time>2020-10-31 11:26:53</time>
      </trkpt>
      <trkpt lat="41.34648" lon="0.61707">
        <ele>467.4</ele>
        <time>2020-10-31 11:26:56</time>
      </trkpt>
      <trkpt lat="41.34652" lon="0.61711">
        <ele>468.4</ele>
        <time>2020-10-31 11:26:58</time>
      </trkpt>
      <trkpt lat="41.34657" lon="0.61716">
        <ele>469.6</ele>
        <time>2020-10-31 11:27:00</time>
      </trkpt>
      <trkpt lat="41.34667" lon="0.61729">
        <ele>470.6</ele>
        <time>2020-10-31 11:27:05</time>
      </trkpt>
      <trkpt lat="41.34671" lon="0.61734">
        <ele>471.2</ele>
        <time>2020-10-31 11:27:07</time>
      </trkpt>
      <trkpt lat="41.34677" lon="0.61741">
        <ele>471.8</ele>
        <time>2020-10-31 11:27:10</time>
      </trkpt>
      <trkpt lat="41.34687" lon="0.61754">
        <ele>472.8</ele>
        <time>2020-10-31 11:27:15</time>
      </trkpt>
      <trkpt lat="41.34689" lon="0.61756">
        <ele>473</ele>
        <time>2020-10-31 11:27:16</time>
      </trkpt>
      <trkpt lat="41.34706" lon="0.61774">
        <ele>473.8</ele>
        <time>2020-10-31 11:27:24</time>
      </trkpt>
      <trkpt lat="41.34708" lon="0.61777">
        <ele>474</ele>
        <time>2020-10-31 11:27:25</time>
      </trkpt>
      <trkpt lat="41.34719" lon="0.6179">
        <ele>475.2</ele>
        <time>2020-10-31 11:27:31</time>
      </trkpt>
      <trkpt lat="41.34728" lon="0.61803">
        <ele>476.2</ele>
        <time>2020-10-31 11:27:36</time>
      </trkpt>
      <trkpt lat="41.34733" lon="0.61812">
        <ele>476.4</ele>
        <time>2020-10-31 11:27:39</time>
      </trkpt>
      <trkpt lat="41.34744" lon="0.6183">
        <ele>477.4</ele>
        <time>2020-10-31 11:27:45</time>
      </trkpt>
      <trkpt lat="41.34746" lon="0.61833">
        <ele>477.6</ele>
        <time>2020-10-31 11:27:46</time>
      </trkpt>
      <trkpt lat="41.3475" lon="0.61847">
        <ele>478.6</ele>
        <time>2020-10-31 11:27:50</time>
      </trkpt>
      <trkpt lat="41.34751" lon="0.6185">
        <ele>478.8</ele>
        <time>2020-10-31 11:27:51</time>
      </trkpt>
      <trkpt lat="41.34755" lon="0.61864">
        <ele>479.6</ele>
        <time>2020-10-31 11:27:55</time>
      </trkpt>
      <trkpt lat="41.34761" lon="0.61876">
        <ele>480.8</ele>
        <time>2020-10-31 11:27:59</time>
      </trkpt>
      <trkpt lat="41.34772" lon="0.61887">
        <ele>481.8</ele>
        <time>2020-10-31 11:28:04</time>
      </trkpt>
      <trkpt lat="41.34774" lon="0.61889">
        <ele>482</ele>
        <time>2020-10-31 11:28:05</time>
      </trkpt>
      <trkpt lat="41.34788" lon="0.61901">
        <ele>483.2</ele>
        <time>2020-10-31 11:28:11</time>
      </trkpt>
      <trkpt lat="41.34793" lon="0.61905">
        <ele>483.6</ele>
        <time>2020-10-31 11:28:13</time>
      </trkpt>
      <trkpt lat="41.34802" lon="0.61911">
        <ele>484.4</ele>
        <time>2020-10-31 11:28:17</time>
      </trkpt>
      <trkpt lat="41.34807" lon="0.61914">
        <ele>484.8</ele>
        <time>2020-10-31 11:28:19</time>
      </trkpt>
      <trkpt lat="41.34816" lon="0.61919">
        <ele>485.6</ele>
        <time>2020-10-31 11:28:23</time>
      </trkpt>
      <trkpt lat="41.34823" lon="0.61924">
        <ele>486.4</ele>
        <time>2020-10-31 11:28:26</time>
      </trkpt>
      <trkpt lat="41.34825" lon="0.61926">
        <ele>486.6</ele>
        <time>2020-10-31 11:28:27</time>
      </trkpt>
      <trkpt lat="41.34839" lon="0.61936">
        <ele>487.8</ele>
        <time>2020-10-31 11:28:33</time>
      </trkpt>
      <trkpt lat="41.34856" lon="0.61949">
        <ele>488</ele>
        <time>2020-10-31 11:28:40</time>
      </trkpt>
      <trkpt lat="41.34865" lon="0.61974">
        <ele>488.4</ele>
        <time>2020-10-31 11:28:46</time>
      </trkpt>
      <trkpt lat="41.34867" lon="0.61983">
        <ele>488.8</ele>
        <time>2020-10-31 11:28:48</time>
      </trkpt>
      <trkpt lat="41.34874" lon="0.62004">
        <ele>489.2</ele>
        <time>2020-10-31 11:28:53</time>
      </trkpt>
      <trkpt lat="41.34887" lon="0.62031">
        <ele>489.8</ele>
        <time>2020-10-31 11:29:00</time>
      </trkpt>
      <trkpt lat="41.34903" lon="0.62061">
        <ele>490.8</ele>
        <time>2020-10-31 11:29:08</time>
      </trkpt>
      <trkpt lat="41.34906" lon="0.62065">
        <ele>491</ele>
        <time>2020-10-31 11:29:09</time>
      </trkpt>
      <trkpt lat="41.34919" lon="0.62086">
        <ele>492.2</ele>
        <time>2020-10-31 11:29:15</time>
      </trkpt>
      <trkpt lat="41.34926" lon="0.621">
        <ele>493.2</ele>
        <time>2020-10-31 11:29:19</time>
      </trkpt>
      <trkpt lat="41.34933" lon="0.62113">
        <ele>494.4</ele>
        <time>2020-10-31 11:29:23</time>
      </trkpt>
      <trkpt lat="41.34944" lon="0.62135">
        <ele>495.4</ele>
        <time>2020-10-31 11:29:29</time>
      </trkpt>
      <trkpt lat="41.34946" lon="0.62139">
        <ele>495.4</ele>
        <time>2020-10-31 11:29:30</time>
      </trkpt>
      <trkpt lat="41.3496" lon="0.62168">
        <ele>495.8</ele>
        <time>2020-10-31 11:29:37</time>
      </trkpt>
      <trkpt lat="41.34972" lon="0.62191">
        <ele>496.4</ele>
        <time>2020-10-31 11:29:42</time>
      </trkpt>
      <trkpt lat="41.34975" lon="0.62196">
        <ele>496.6</ele>
        <time>2020-10-31 11:29:43</time>
      </trkpt>
      <trkpt lat="41.34994" lon="0.62227">
        <ele>496.8</ele>
        <time>2020-10-31 11:29:50</time>
      </trkpt>
      <trkpt lat="41.35009" lon="0.62257">
        <ele>497</ele>
        <time>2020-10-31 11:29:56</time>
      </trkpt>
      <trkpt lat="41.35024" lon="0.62293">
        <ele>497</ele>
        <time>2020-10-31 11:30:03</time>
      </trkpt>
      <trkpt lat="41.35042" lon="0.62323">
        <ele>497.4</ele>
        <time>2020-10-31 11:30:10</time>
      </trkpt>
      <trkpt lat="41.35048" lon="0.62331">
        <ele>497.6</ele>
        <time>2020-10-31 11:30:12</time>
      </trkpt>
      <trkpt lat="41.35067" lon="0.62355">
        <ele>498</ele>
        <time>2020-10-31 11:30:18</time>
      </trkpt>
      <trkpt lat="41.35092" lon="0.62376">
        <ele>498.4</ele>
        <time>2020-10-31 11:30:24</time>
      </trkpt>
      <trkpt lat="41.35102" lon="0.62391">
        <ele>498.6</ele>
        <time>2020-10-31 11:30:27</time>
      </trkpt>
      <trkpt lat="41.35104" lon="0.62396">
        <ele>498.6</ele>
        <time>2020-10-31 11:30:28</time>
      </trkpt>
      <trkpt lat="41.35107" lon="0.624">
        <ele>499</ele>
        <time>2020-10-31 11:30:29</time>
      </trkpt>
      <trkpt lat="41.35113" lon="0.62418">
        <ele>499.6</ele>
        <time>2020-10-31 11:30:33</time>
      </trkpt>
      <trkpt lat="41.35113" lon="0.62422">
        <ele>500</ele>
        <time>2020-10-31 11:30:34</time>
      </trkpt>
      <trkpt lat="41.35114" lon="0.6243">
        <ele>501.2</ele>
        <time>2020-10-31 11:30:36</time>
      </trkpt>
      <trkpt lat="41.35114" lon="0.62438">
        <ele>502.4</ele>
        <time>2020-10-31 11:30:39</time>
      </trkpt>
      <trkpt lat="41.35114" lon="0.62441">
        <ele>503</ele>
        <time>2020-10-31 11:30:40</time>
      </trkpt>
      <trkpt lat="41.35115" lon="0.62442">
        <ele>503.4</ele>
        <time>2020-10-31 11:30:41</time>
      </trkpt>
      <trkpt lat="41.35115" lon="0.62444">
        <ele>504.4</ele>
        <time>2020-10-31 11:30:43</time>
      </trkpt>
      <trkpt lat="41.35114" lon="0.62445">
        <ele>505.8</ele>
        <time>2020-10-31 11:30:45</time>
      </trkpt>
      <trkpt lat="41.35114" lon="0.62445">
        <ele>506.2</ele>
        <time>2020-10-31 11:30:46</time>
      </trkpt>
      <trkpt lat="41.35114" lon="0.62445">
        <ele>507</ele>
        <time>2020-10-31 11:30:48</time>
      </trkpt>
      <trkpt lat="41.35114" lon="0.62445">
        <ele>508</ele>
        <time>2020-10-31 11:31:01</time>
      </trkpt>
      <trkpt lat="41.35114" lon="0.62444">
        <ele>507.8</ele>
        <time>2020-10-31 11:31:16</time>
      </trkpt>
      <trkpt lat="41.35114" lon="0.62445">
        <ele>507</ele>
        <time>2020-10-31 11:31:26</time>
      </trkpt>
      <trkpt lat="41.35114" lon="0.62445">
        <ele>507</ele>
        <time>2020-10-31 11:31:30</time>
      </trkpt>
      <trkpt lat="41.35114" lon="0.62445">
        <ele>507</ele>
        <time>2020-10-31 11:31:52</time>
      </trkpt>
      <trkpt lat="41.35114" lon="0.62444">
        <ele>508</ele>
        <time>2020-10-31 11:32:07</time>
      </trkpt>
      <trkpt lat="41.35114" lon="0.62448">
        <ele>507.8</ele>
        <time>2020-10-31 11:32:12</time>
      </trkpt>
      <trkpt lat="41.35115" lon="0.6245">
        <ele>507.8</ele>
        <time>2020-10-31 11:32:13</time>
      </trkpt>
      <trkpt lat="41.35118" lon="0.62465">
        <ele>507.8</ele>
        <time>2020-10-31 11:32:19</time>
      </trkpt>
      <trkpt lat="41.35123" lon="0.62491">
        <ele>508.2</ele>
        <time>2020-10-31 11:32:29</time>
      </trkpt>
      <trkpt lat="41.35124" lon="0.62493">
        <ele>508.2</ele>
        <time>2020-10-31 11:32:33</time>
      </trkpt>
      <trkpt lat="41.35124" lon="0.62492">
        <ele>507.8</ele>
        <time>2020-10-31 11:32:42</time>
      </trkpt>
      <trkpt lat="41.35124" lon="0.62492">
        <ele>507.8</ele>
        <time>2020-10-31 11:32:51</time>
      </trkpt>
      <trkpt lat="41.35124" lon="0.62492">
        <ele>507.6</ele>
        <time>2020-10-31 11:33:25</time>
      </trkpt>
      <trkpt lat="41.35124" lon="0.62492">
        <ele>507.6</ele>
        <time>2020-10-31 11:33:52</time>
      </trkpt>
      <trkpt lat="41.35125" lon="0.62496">
        <ele>507.4</ele>
        <time>2020-10-31 11:34:01</time>
      </trkpt>
      <trkpt lat="41.35129" lon="0.62514">
        <ele>507.2</ele>
        <time>2020-10-31 11:34:05</time>
      </trkpt>
      <trkpt lat="41.35131" lon="0.62545">
        <ele>506.8</ele>
        <time>2020-10-31 11:34:09</time>
      </trkpt>
      <trkpt lat="41.35134" lon="0.62596">
        <ele>506.2</ele>
        <time>2020-10-31 11:34:14</time>
      </trkpt>
      <trkpt lat="41.35134" lon="0.62607">
        <ele>506</ele>
        <time>2020-10-31 11:34:15</time>
      </trkpt>
      <trkpt lat="41.35135" lon="0.6264">
        <ele>504</ele>
        <time>2020-10-31 11:34:18</time>
      </trkpt>
      <trkpt lat="41.35137" lon="0.62663">
        <ele>503</ele>
        <time>2020-10-31 11:34:20</time>
      </trkpt>
      <trkpt lat="41.35139" lon="0.62685">
        <ele>501.8</ele>
        <time>2020-10-31 11:34:22</time>
      </trkpt>
      <trkpt lat="41.3514" lon="0.62696">
        <ele>501.4</ele>
        <time>2020-10-31 11:34:23</time>
      </trkpt>
      <trkpt lat="41.35143" lon="0.62717">
        <ele>500.8</ele>
        <time>2020-10-31 11:34:25</time>
      </trkpt>
      <trkpt lat="41.35155" lon="0.62778">
        <ele>499.6</ele>
        <time>2020-10-31 11:34:31</time>
      </trkpt>
      <trkpt lat="41.35169" lon="0.62839">
        <ele>499</ele>
        <time>2020-10-31 11:34:38</time>
      </trkpt>
      <trkpt lat="41.35176" lon="0.62886">
        <ele>499</ele>
        <time>2020-10-31 11:34:44</time>
      </trkpt>
      <trkpt lat="41.35181" lon="0.6293">
        <ele>500.4</ele>
        <time>2020-10-31 11:34:51</time>
      </trkpt>
      <trkpt lat="41.35181" lon="0.62937">
        <ele>500.6</ele>
        <time>2020-10-31 11:34:52</time>
      </trkpt>
      <trkpt lat="41.35184" lon="0.62963">
        <ele>501.8</ele>
        <time>2020-10-31 11:34:56</time>
      </trkpt>
      <trkpt lat="41.35184" lon="0.62977">
        <ele>502</ele>
        <time>2020-10-31 11:34:58</time>
      </trkpt>
      <trkpt lat="41.35191" lon="0.63028">
        <ele>502</ele>
        <time>2020-10-31 11:35:05</time>
      </trkpt>
      <trkpt lat="41.35203" lon="0.63092">
        <ele>501.2</ele>
        <time>2020-10-31 11:35:13</time>
      </trkpt>
      <trkpt lat="41.35212" lon="0.63134">
        <ele>500.6</ele>
        <time>2020-10-31 11:35:18</time>
      </trkpt>
      <trkpt lat="41.35219" lon="0.63158">
        <ele>500.2</ele>
        <time>2020-10-31 11:35:21</time>
      </trkpt>
      <trkpt lat="41.35235" lon="0.63213">
        <ele>500</ele>
        <time>2020-10-31 11:35:28</time>
      </trkpt>
      <trkpt lat="41.35243" lon="0.6327">
        <ele>500.2</ele>
        <time>2020-10-31 11:35:35</time>
      </trkpt>
      <trkpt lat="41.35244" lon="0.63312">
        <ele>501.2</ele>
        <time>2020-10-31 11:35:41</time>
      </trkpt>
      <trkpt lat="41.35245" lon="0.63325">
        <ele>501.6</ele>
        <time>2020-10-31 11:35:43</time>
      </trkpt>
      <trkpt lat="41.35246" lon="0.63343">
        <ele>502.6</ele>
        <time>2020-10-31 11:35:46</time>
      </trkpt>
      <trkpt lat="41.35247" lon="0.63355">
        <ele>503.2</ele>
        <time>2020-10-31 11:35:48</time>
      </trkpt>
      <trkpt lat="41.3525" lon="0.63373">
        <ele>503.6</ele>
        <time>2020-10-31 11:35:51</time>
      </trkpt>
      <trkpt lat="41.35256" lon="0.63394">
        <ele>504.2</ele>
        <time>2020-10-31 11:35:55</time>
      </trkpt>
      <trkpt lat="41.3526" lon="0.63422">
        <ele>504.2</ele>
        <time>2020-10-31 11:36:00</time>
      </trkpt>
      <trkpt lat="41.35261" lon="0.63468">
        <ele>503.8</ele>
        <time>2020-10-31 11:36:06</time>
      </trkpt>
      <trkpt lat="41.35263" lon="0.63514">
        <ele>502.6</ele>
        <time>2020-10-31 11:36:11</time>
      </trkpt>
      <trkpt lat="41.35264" lon="0.63524">
        <ele>502.2</ele>
        <time>2020-10-31 11:36:12</time>
      </trkpt>
      <trkpt lat="41.35267" lon="0.63545">
        <ele>500.8</ele>
        <time>2020-10-31 11:36:14</time>
      </trkpt>
      <trkpt lat="41.35272" lon="0.63568">
        <ele>499.6</ele>
        <time>2020-10-31 11:36:16</time>
      </trkpt>
      <trkpt lat="41.35275" lon="0.63579">
        <ele>499</ele>
        <time>2020-10-31 11:36:17</time>
      </trkpt>
      <trkpt lat="41.35279" lon="0.6359">
        <ele>498.4</ele>
        <time>2020-10-31 11:36:18</time>
      </trkpt>
      <trkpt lat="41.35287" lon="0.63611">
        <ele>496.6</ele>
        <time>2020-10-31 11:36:20</time>
      </trkpt>
      <trkpt lat="41.35295" lon="0.63632">
        <ele>495.4</ele>
        <time>2020-10-31 11:36:22</time>
      </trkpt>
      <trkpt lat="41.35303" lon="0.63652">
        <ele>494.4</ele>
        <time>2020-10-31 11:36:24</time>
      </trkpt>
      <trkpt lat="41.35308" lon="0.63673">
        <ele>493.2</ele>
        <time>2020-10-31 11:36:26</time>
      </trkpt>
      <trkpt lat="41.35309" lon="0.63683">
        <ele>492.6</ele>
        <time>2020-10-31 11:36:27</time>
      </trkpt>
      <trkpt lat="41.3531" lon="0.63693">
        <ele>492.2</ele>
        <time>2020-10-31 11:36:28</time>
      </trkpt>
      <trkpt lat="41.3531" lon="0.63704">
        <ele>491.6</ele>
        <time>2020-10-31 11:36:29</time>
      </trkpt>
      <trkpt lat="41.35311" lon="0.63724">
        <ele>491.2</ele>
        <time>2020-10-31 11:36:31</time>
      </trkpt>
      <trkpt lat="41.35312" lon="0.63744">
        <ele>490.4</ele>
        <time>2020-10-31 11:36:33</time>
      </trkpt>
      <trkpt lat="41.35312" lon="0.63754">
        <ele>490.2</ele>
        <time>2020-10-31 11:36:34</time>
      </trkpt>
      <trkpt lat="41.35318" lon="0.63794">
        <ele>489.2</ele>
        <time>2020-10-31 11:36:38</time>
      </trkpt>
      <trkpt lat="41.35319" lon="0.63803">
        <ele>489</ele>
        <time>2020-10-31 11:36:39</time>
      </trkpt>
      <trkpt lat="41.35325" lon="0.63838">
        <ele>488.8</ele>
        <time>2020-10-31 11:36:43</time>
      </trkpt>
      <trkpt lat="41.3532" lon="0.63869">
        <ele>488.8</ele>
        <time>2020-10-31 11:36:47</time>
      </trkpt>
      <trkpt lat="41.35303" lon="0.63926">
        <ele>490.2</ele>
        <time>2020-10-31 11:36:55</time>
      </trkpt>
      <trkpt lat="41.35291" lon="0.63972">
        <ele>491.2</ele>
        <time>2020-10-31 11:37:01</time>
      </trkpt>
      <trkpt lat="41.3529" lon="0.6398">
        <ele>491.4</ele>
        <time>2020-10-31 11:37:02</time>
      </trkpt>
      <trkpt lat="41.3528" lon="0.64043">
        <ele>491.4</ele>
        <time>2020-10-31 11:37:10</time>
      </trkpt>
      <trkpt lat="41.35278" lon="0.64074">
        <ele>491.6</ele>
        <time>2020-10-31 11:37:14</time>
      </trkpt>
      <trkpt lat="41.3528" lon="0.64089">
        <ele>491.6</ele>
        <time>2020-10-31 11:37:16</time>
      </trkpt>
      <trkpt lat="41.35291" lon="0.64119">
        <ele>491.4</ele>
        <time>2020-10-31 11:37:20</time>
      </trkpt>
      <trkpt lat="41.35299" lon="0.64131">
        <ele>491.4</ele>
        <time>2020-10-31 11:37:22</time>
      </trkpt>
      <trkpt lat="41.35311" lon="0.64148">
        <ele>491.6</ele>
        <time>2020-10-31 11:37:25</time>
      </trkpt>
      <trkpt lat="41.35343" lon="0.64192">
        <ele>491.8</ele>
        <time>2020-10-31 11:37:33</time>
      </trkpt>
      <trkpt lat="41.35346" lon="0.64199">
        <ele>492</ele>
        <time>2020-10-31 11:37:34</time>
      </trkpt>
      <trkpt lat="41.35351" lon="0.64218">
        <ele>492.2</ele>
        <time>2020-10-31 11:37:37</time>
      </trkpt>
      <trkpt lat="41.35356" lon="0.64236">
        <ele>492.4</ele>
        <time>2020-10-31 11:37:40</time>
      </trkpt>
      <trkpt lat="41.35359" lon="0.64254">
        <ele>492.8</ele>
        <time>2020-10-31 11:37:43</time>
      </trkpt>
      <trkpt lat="41.35362" lon="0.64267">
        <ele>493.4</ele>
        <time>2020-10-31 11:37:45</time>
      </trkpt>
      <trkpt lat="41.35367" lon="0.64292">
        <ele>494.4</ele>
        <time>2020-10-31 11:37:49</time>
      </trkpt>
      <trkpt lat="41.35369" lon="0.64338">
        <ele>495</ele>
        <time>2020-10-31 11:37:56</time>
      </trkpt>
      <trkpt lat="41.35368" lon="0.64358">
        <ele>495.4</ele>
        <time>2020-10-31 11:37:59</time>
      </trkpt>
      <trkpt lat="41.35368" lon="0.64376">
        <ele>495.8</ele>
        <time>2020-10-31 11:38:02</time>
      </trkpt>
      <trkpt lat="41.35371" lon="0.64398">
        <ele>496.6</ele>
        <time>2020-10-31 11:38:06</time>
      </trkpt>
      <trkpt lat="41.35373" lon="0.64403">
        <ele>496.8</ele>
        <time>2020-10-31 11:38:07</time>
      </trkpt>
      <trkpt lat="41.35375" lon="0.64408">
        <ele>497.2</ele>
        <time>2020-10-31 11:38:08</time>
      </trkpt>
      <trkpt lat="41.35382" lon="0.64422">
        <ele>497.8</ele>
        <time>2020-10-31 11:38:11</time>
      </trkpt>
      <trkpt lat="41.35392" lon="0.64434">
        <ele>499</ele>
        <time>2020-10-31 11:38:14</time>
      </trkpt>
      <trkpt lat="41.35407" lon="0.64445">
        <ele>499.8</ele>
        <time>2020-10-31 11:38:18</time>
      </trkpt>
      <trkpt lat="41.35415" lon="0.64448">
        <ele>500.2</ele>
        <time>2020-10-31 11:38:20</time>
      </trkpt>
      <trkpt lat="41.35419" lon="0.64449">
        <ele>500.2</ele>
        <time>2020-10-31 11:38:21</time>
      </trkpt>
      <trkpt lat="41.35423" lon="0.6445">
        <ele>500.2</ele>
        <time>2020-10-31 11:38:22</time>
      </trkpt>
      <trkpt lat="41.35441" lon="0.64457">
        <ele>500.6</ele>
        <time>2020-10-31 11:38:26</time>
      </trkpt>
      <trkpt lat="41.35475" lon="0.64468">
        <ele>501.2</ele>
        <time>2020-10-31 11:38:34</time>
      </trkpt>
      <trkpt lat="41.35479" lon="0.6447">
        <ele>501.4</ele>
        <time>2020-10-31 11:38:35</time>
      </trkpt>
      <trkpt lat="41.355" lon="0.64477">
        <ele>502.4</ele>
        <time>2020-10-31 11:38:41</time>
      </trkpt>
      <trkpt lat="41.35504" lon="0.64478">
        <ele>502.6</ele>
        <time>2020-10-31 11:38:42</time>
      </trkpt>
      <trkpt lat="41.35516" lon="0.64484">
        <ele>503.4</ele>
        <time>2020-10-31 11:38:46</time>
      </trkpt>
      <trkpt lat="41.35522" lon="0.64486">
        <ele>504</ele>
        <time>2020-10-31 11:38:48</time>
      </trkpt>
      <trkpt lat="41.35527" lon="0.64488">
        <ele>504.6</ele>
        <time>2020-10-31 11:38:50</time>
      </trkpt>
      <trkpt lat="41.35538" lon="0.64493">
        <ele>505.8</ele>
        <time>2020-10-31 11:38:54</time>
      </trkpt>
      <trkpt lat="41.35543" lon="0.64496">
        <ele>506.2</ele>
        <time>2020-10-31 11:38:56</time>
      </trkpt>
      <trkpt lat="41.35548" lon="0.64499">
        <ele>506.8</ele>
        <time>2020-10-31 11:38:58</time>
      </trkpt>
      <trkpt lat="41.35559" lon="0.6451">
        <ele>508</ele>
        <time>2020-10-31 11:39:03</time>
      </trkpt>
      <trkpt lat="41.35561" lon="0.64513">
        <ele>508.2</ele>
        <time>2020-10-31 11:39:04</time>
      </trkpt>
      <trkpt lat="41.3557" lon="0.64526">
        <ele>509.2</ele>
        <time>2020-10-31 11:39:09</time>
      </trkpt>
      <trkpt lat="41.35572" lon="0.64529">
        <ele>509.4</ele>
        <time>2020-10-31 11:39:10</time>
      </trkpt>
      <trkpt lat="41.35576" lon="0.64537">
        <ele>510.4</ele>
        <time>2020-10-31 11:39:13</time>
      </trkpt>
      <trkpt lat="41.35581" lon="0.64548">
        <ele>511.4</ele>
        <time>2020-10-31 11:39:17</time>
      </trkpt>
      <trkpt lat="41.35582" lon="0.6455">
        <ele>511.6</ele>
        <time>2020-10-31 11:39:18</time>
      </trkpt>
      <trkpt lat="41.35588" lon="0.64565">
        <ele>512.8</ele>
        <time>2020-10-31 11:39:23</time>
      </trkpt>
      <trkpt lat="41.35589" lon="0.64567">
        <ele>513</ele>
        <time>2020-10-31 11:39:24</time>
      </trkpt>
      <trkpt lat="41.35594" lon="0.64578">
        <ele>513.8</ele>
        <time>2020-10-31 11:39:28</time>
      </trkpt>
      <trkpt lat="41.35599" lon="0.64589">
        <ele>514.8</ele>
        <time>2020-10-31 11:39:32</time>
      </trkpt>
      <trkpt lat="41.35606" lon="0.64604">
        <ele>516.2</ele>
        <time>2020-10-31 11:39:38</time>
      </trkpt>
      <trkpt lat="41.35608" lon="0.6461">
        <ele>516.8</ele>
        <time>2020-10-31 11:39:40</time>
      </trkpt>
      <trkpt lat="41.35609" lon="0.64612">
        <ele>517.2</ele>
        <time>2020-10-31 11:39:41</time>
      </trkpt>
      <trkpt lat="41.35612" lon="0.6463">
        <ele>518.2</ele>
        <time>2020-10-31 11:39:47</time>
      </trkpt>
      <trkpt lat="41.35613" lon="0.64642">
        <ele>519.4</ele>
        <time>2020-10-31 11:39:51</time>
      </trkpt>
      <trkpt lat="41.35614" lon="0.64658">
        <ele>520.2</ele>
        <time>2020-10-31 11:39:56</time>
      </trkpt>
      <trkpt lat="41.35615" lon="0.64661">
        <ele>520.6</ele>
        <time>2020-10-31 11:39:57</time>
      </trkpt>
      <trkpt lat="41.35616" lon="0.64676">
        <ele>521.6</ele>
        <time>2020-10-31 11:40:02</time>
      </trkpt>
      <trkpt lat="41.35616" lon="0.64679">
        <ele>521.8</ele>
        <time>2020-10-31 11:40:03</time>
      </trkpt>
      <trkpt lat="41.35617" lon="0.64691">
        <ele>522.6</ele>
        <time>2020-10-31 11:40:07</time>
      </trkpt>
      <trkpt lat="41.35619" lon="0.64704">
        <ele>523.4</ele>
        <time>2020-10-31 11:40:11</time>
      </trkpt>
      <trkpt lat="41.35621" lon="0.64714">
        <ele>523.8</ele>
        <time>2020-10-31 11:40:14</time>
      </trkpt>
      <trkpt lat="41.35627" lon="0.6473">
        <ele>524.4</ele>
        <time>2020-10-31 11:40:19</time>
      </trkpt>
      <trkpt lat="41.35633" lon="0.64741">
        <ele>525</ele>
        <time>2020-10-31 11:40:23</time>
      </trkpt>
      <trkpt lat="41.35639" lon="0.64752">
        <ele>525.6</ele>
        <time>2020-10-31 11:40:27</time>
      </trkpt>
      <trkpt lat="41.35643" lon="0.64763">
        <ele>526.2</ele>
        <time>2020-10-31 11:40:31</time>
      </trkpt>
      <trkpt lat="41.35646" lon="0.64771">
        <ele>526.8</ele>
        <time>2020-10-31 11:40:34</time>
      </trkpt>
      <trkpt lat="41.35651" lon="0.64778">
        <ele>527.4</ele>
        <time>2020-10-31 11:40:39</time>
      </trkpt>
      <trkpt lat="41.35652" lon="0.6478">
        <ele>527.4</ele>
        <time>2020-10-31 11:40:40</time>
      </trkpt>
      <trkpt lat="41.35653" lon="0.64791">
        <ele>528</ele>
        <time>2020-10-31 11:40:47</time>
      </trkpt>
      <trkpt lat="41.35652" lon="0.64791">
        <ele>528.4</ele>
        <time>2020-10-31 11:40:52</time>
      </trkpt>
      <trkpt lat="41.35652" lon="0.64791">
        <ele>528.6</ele>
        <time>2020-10-31 11:40:57</time>
      </trkpt>
      <trkpt lat="41.35652" lon="0.64791">
        <ele>528.4</ele>
        <time>2020-10-31 11:41:13</time>
      </trkpt>
      <trkpt lat="41.35652" lon="0.64791">
        <ele>528.2</ele>
        <time>2020-10-31 11:41:46</time>
      </trkpt>
      <trkpt lat="41.35652" lon="0.64791">
        <ele>528.2</ele>
        <time>2020-10-31 11:42:25</time>
      </trkpt>
      <trkpt lat="41.35654" lon="0.64792">
        <ele>528.2</ele>
        <time>2020-10-31 11:42:40</time>
      </trkpt>
      <trkpt lat="41.35654" lon="0.64792">
        <ele>528.2</ele>
        <time>2020-10-31 11:42:54</time>
      </trkpt>
      <trkpt lat="41.35654" lon="0.64792">
        <ele>528.4</ele>
        <time>2020-10-31 11:43:09</time>
      </trkpt>
      <trkpt lat="41.35654" lon="0.64792">
        <ele>528.6</ele>
        <time>2020-10-31 11:43:33</time>
      </trkpt>
      <trkpt lat="41.35654" lon="0.64792">
        <ele>528.8</ele>
        <time>2020-10-31 11:43:46</time>
      </trkpt>
      <trkpt lat="41.35656" lon="0.64801">
        <ele>528.8</ele>
        <time>2020-10-31 11:43:50</time>
      </trkpt>
      <trkpt lat="41.35663" lon="0.6483">
        <ele>528.6</ele>
        <time>2020-10-31 11:43:56</time>
      </trkpt>
      <trkpt lat="41.35676" lon="0.64866">
        <ele>528.4</ele>
        <time>2020-10-31 11:44:02</time>
      </trkpt>
      <trkpt lat="41.35691" lon="0.64898">
        <ele>527.2</ele>
        <time>2020-10-31 11:44:07</time>
      </trkpt>
      <trkpt lat="41.35693" lon="0.64905">
        <ele>527.2</ele>
        <time>2020-10-31 11:44:08</time>
      </trkpt>
      <trkpt lat="41.35697" lon="0.64951">
        <ele>526.2</ele>
        <time>2020-10-31 11:44:13</time>
      </trkpt>
      <trkpt lat="41.35697" lon="0.64962">
        <ele>525.8</ele>
        <time>2020-10-31 11:44:14</time>
      </trkpt>
      <trkpt lat="41.35699" lon="0.65006">
        <ele>524.6</ele>
        <time>2020-10-31 11:44:18</time>
      </trkpt>
      <trkpt lat="41.357" lon="0.65018">
        <ele>524.2</ele>
        <time>2020-10-31 11:44:19</time>
      </trkpt>
      <trkpt lat="41.35702" lon="0.65043">
        <ele>523.4</ele>
        <time>2020-10-31 11:44:21</time>
      </trkpt>
      <trkpt lat="41.35705" lon="0.65069">
        <ele>521.8</ele>
        <time>2020-10-31 11:44:23</time>
      </trkpt>
      <trkpt lat="41.35708" lon="0.65095">
        <ele>520.6</ele>
        <time>2020-10-31 11:44:25</time>
      </trkpt>
      <trkpt lat="41.35714" lon="0.65135">
        <ele>518.8</ele>
        <time>2020-10-31 11:44:28</time>
      </trkpt>
      <trkpt lat="41.35719" lon="0.65161">
        <ele>517.4</ele>
        <time>2020-10-31 11:44:30</time>
      </trkpt>
      <trkpt lat="41.35721" lon="0.65173">
        <ele>516.4</ele>
        <time>2020-10-31 11:44:31</time>
      </trkpt>
      <trkpt lat="41.35727" lon="0.65195">
        <ele>513.8</ele>
        <time>2020-10-31 11:44:33</time>
      </trkpt>
      <trkpt lat="41.35735" lon="0.65227">
        <ele>512.6</ele>
        <time>2020-10-31 11:44:36</time>
      </trkpt>
      <trkpt lat="41.35742" lon="0.65245">
        <ele>511.4</ele>
        <time>2020-10-31 11:44:38</time>
      </trkpt>
      <trkpt lat="41.35755" lon="0.65268">
        <ele>511</ele>
        <time>2020-10-31 11:44:41</time>
      </trkpt>
      <trkpt lat="41.35765" lon="0.65283">
        <ele>510.4</ele>
        <time>2020-10-31 11:44:43</time>
      </trkpt>
      <trkpt lat="41.35784" lon="0.65306">
        <ele>510.2</ele>
        <time>2020-10-31 11:44:46</time>
      </trkpt>
      <trkpt lat="41.35803" lon="0.65333">
        <ele>509.4</ele>
        <time>2020-10-31 11:44:49</time>
      </trkpt>
      <trkpt lat="41.35823" lon="0.65362">
        <ele>508.6</ele>
        <time>2020-10-31 11:44:52</time>
      </trkpt>
      <trkpt lat="41.35829" lon="0.65372">
        <ele>508</ele>
        <time>2020-10-31 11:44:53</time>
      </trkpt>
      <trkpt lat="41.35836" lon="0.65382">
        <ele>507</ele>
        <time>2020-10-31 11:44:54</time>
      </trkpt>
      <trkpt lat="41.35848" lon="0.65399">
        <ele>505.4</ele>
        <time>2020-10-31 11:44:56</time>
      </trkpt>
      <trkpt lat="41.35853" lon="0.65407">
        <ele>504.4</ele>
        <time>2020-10-31 11:44:57</time>
      </trkpt>
      <trkpt lat="41.35858" lon="0.65415">
        <ele>503.8</ele>
        <time>2020-10-31 11:44:58</time>
      </trkpt>
      <trkpt lat="41.35862" lon="0.65423">
        <ele>502.8</ele>
        <time>2020-10-31 11:44:59</time>
      </trkpt>
      <trkpt lat="41.35871" lon="0.65437">
        <ele>501.2</ele>
        <time>2020-10-31 11:45:01</time>
      </trkpt>
      <trkpt lat="41.35878" lon="0.65448">
        <ele>499.8</ele>
        <time>2020-10-31 11:45:03</time>
      </trkpt>
      <trkpt lat="41.35881" lon="0.65466">
        <ele>499.6</ele>
        <time>2020-10-31 11:45:06</time>
      </trkpt>
      <trkpt lat="41.35872" lon="0.65481">
        <ele>499.6</ele>
        <time>2020-10-31 11:45:09</time>
      </trkpt>
      <trkpt lat="41.35868" lon="0.65487">
        <ele>499.6</ele>
        <time>2020-10-31 11:45:10</time>
      </trkpt>
      <trkpt lat="41.35845" lon="0.65521">
        <ele>500.2</ele>
        <time>2020-10-31 11:45:16</time>
      </trkpt>
      <trkpt lat="41.35824" lon="0.65555">
        <ele>501</ele>
        <time>2020-10-31 11:45:22</time>
      </trkpt>
      <trkpt lat="41.35821" lon="0.65562">
        <ele>501</ele>
        <time>2020-10-31 11:45:23</time>
      </trkpt>
      <trkpt lat="41.35813" lon="0.65581">
        <ele>501.2</ele>
        <time>2020-10-31 11:45:26</time>
      </trkpt>
      <trkpt lat="41.35807" lon="0.65603">
        <ele>501.4</ele>
        <time>2020-10-31 11:45:29</time>
      </trkpt>
      <trkpt lat="41.35801" lon="0.65632">
        <ele>502</ele>
        <time>2020-10-31 11:45:33</time>
      </trkpt>
      <trkpt lat="41.35796" lon="0.65654">
        <ele>502</ele>
        <time>2020-10-31 11:45:36</time>
      </trkpt>
      <trkpt lat="41.35787" lon="0.65695">
        <ele>502.6</ele>
        <time>2020-10-31 11:45:42</time>
      </trkpt>
      <trkpt lat="41.35783" lon="0.65718">
        <ele>502.8</ele>
        <time>2020-10-31 11:45:45</time>
      </trkpt>
      <trkpt lat="41.35775" lon="0.65756">
        <ele>503.4</ele>
        <time>2020-10-31 11:45:50</time>
      </trkpt>
      <trkpt lat="41.35768" lon="0.65785">
        <ele>504</ele>
        <time>2020-10-31 11:45:54</time>
      </trkpt>
      <trkpt lat="41.35761" lon="0.65806">
        <ele>504.2</ele>
        <time>2020-10-31 11:45:57</time>
      </trkpt>
      <trkpt lat="41.35753" lon="0.65832">
        <ele>505</ele>
        <time>2020-10-31 11:46:01</time>
      </trkpt>
      <trkpt lat="41.35747" lon="0.65845">
        <ele>505.4</ele>
        <time>2020-10-31 11:46:03</time>
      </trkpt>
      <trkpt lat="41.35739" lon="0.65864">
        <ele>506</ele>
        <time>2020-10-31 11:46:06</time>
      </trkpt>
      <trkpt lat="41.35725" lon="0.65886">
        <ele>506.8</ele>
        <time>2020-10-31 11:46:10</time>
      </trkpt>
      <trkpt lat="41.35721" lon="0.65891">
        <ele>507</ele>
        <time>2020-10-31 11:46:11</time>
      </trkpt>
      <trkpt lat="41.35718" lon="0.65896">
        <ele>507.2</ele>
        <time>2020-10-31 11:46:12</time>
      </trkpt>
      <trkpt lat="41.3571" lon="0.65914">
        <ele>507.6</ele>
        <time>2020-10-31 11:46:15</time>
      </trkpt>
      <trkpt lat="41.35705" lon="0.65925">
        <ele>508</ele>
        <time>2020-10-31 11:46:17</time>
      </trkpt>
      <trkpt lat="41.35693" lon="0.65956">
        <ele>509</ele>
        <time>2020-10-31 11:46:22</time>
      </trkpt>
      <trkpt lat="41.35688" lon="0.65968">
        <ele>509.4</ele>
        <time>2020-10-31 11:46:24</time>
      </trkpt>
      <trkpt lat="41.35673" lon="0.66011">
        <ele>510.2</ele>
        <time>2020-10-31 11:46:31</time>
      </trkpt>
      <trkpt lat="41.35669" lon="0.66023">
        <ele>510.4</ele>
        <time>2020-10-31 11:46:33</time>
      </trkpt>
      <trkpt lat="41.35655" lon="0.6606">
        <ele>511.2</ele>
        <time>2020-10-31 11:46:39</time>
      </trkpt>
      <trkpt lat="41.35646" lon="0.66085">
        <ele>511.8</ele>
        <time>2020-10-31 11:46:43</time>
      </trkpt>
      <trkpt lat="41.35638" lon="0.66103">
        <ele>512.2</ele>
        <time>2020-10-31 11:46:46</time>
      </trkpt>
      <trkpt lat="41.35624" lon="0.66131">
        <ele>512.6</ele>
        <time>2020-10-31 11:46:51</time>
      </trkpt>
      <trkpt lat="41.35613" lon="0.66152">
        <ele>513.4</ele>
        <time>2020-10-31 11:46:55</time>
      </trkpt>
      <trkpt lat="41.35602" lon="0.66171">
        <ele>514</ele>
        <time>2020-10-31 11:46:59</time>
      </trkpt>
      <trkpt lat="41.35595" lon="0.66186">
        <ele>514.6</ele>
        <time>2020-10-31 11:47:02</time>
      </trkpt>
      <trkpt lat="41.35585" lon="0.66205">
        <ele>515.2</ele>
        <time>2020-10-31 11:47:06</time>
      </trkpt>
      <trkpt lat="41.3558" lon="0.66213">
        <ele>515.6</ele>
        <time>2020-10-31 11:47:08</time>
      </trkpt>
      <trkpt lat="41.35566" lon="0.6624">
        <ele>516.4</ele>
        <time>2020-10-31 11:47:14</time>
      </trkpt>
      <trkpt lat="41.35565" lon="0.66245">
        <ele>516.6</ele>
        <time>2020-10-31 11:47:15</time>
      </trkpt>
      <trkpt lat="41.35557" lon="0.66268">
        <ele>517.6</ele>
        <time>2020-10-31 11:47:20</time>
      </trkpt>
      <trkpt lat="41.35555" lon="0.66273">
        <ele>517.8</ele>
        <time>2020-10-31 11:47:21</time>
      </trkpt>
      <trkpt lat="41.35553" lon="0.66284">
        <ele>518.6</ele>
        <time>2020-10-31 11:47:23</time>
      </trkpt>
      <trkpt lat="41.35552" lon="0.6629">
        <ele>518.8</ele>
        <time>2020-10-31 11:47:24</time>
      </trkpt>
      <trkpt lat="41.35551" lon="0.66301">
        <ele>519.2</ele>
        <time>2020-10-31 11:47:26</time>
      </trkpt>
      <trkpt lat="41.3555" lon="0.66307">
        <ele>519.6</ele>
        <time>2020-10-31 11:47:27</time>
      </trkpt>
      <trkpt lat="41.35549" lon="0.66318">
        <ele>520</ele>
        <time>2020-10-31 11:47:29</time>
      </trkpt>
      <trkpt lat="41.35548" lon="0.66334">
        <ele>520.8</ele>
        <time>2020-10-31 11:47:32</time>
      </trkpt>
      <trkpt lat="41.35547" lon="0.6634">
        <ele>520.8</ele>
        <time>2020-10-31 11:47:33</time>
      </trkpt>
      <trkpt lat="41.35546" lon="0.6635">
        <ele>521.2</ele>
        <time>2020-10-31 11:47:35</time>
      </trkpt>
      <trkpt lat="41.35544" lon="0.66365">
        <ele>521.8</ele>
        <time>2020-10-31 11:47:38</time>
      </trkpt>
      <trkpt lat="41.35543" lon="0.66375">
        <ele>522.4</ele>
        <time>2020-10-31 11:47:40</time>
      </trkpt>
      <trkpt lat="41.35538" lon="0.66398">
        <ele>523.2</ele>
        <time>2020-10-31 11:47:45</time>
      </trkpt>
      <trkpt lat="41.35538" lon="0.66402">
        <ele>523.4</ele>
        <time>2020-10-31 11:47:46</time>
      </trkpt>
      <trkpt lat="41.3554" lon="0.66424">
        <ele>524.2</ele>
        <time>2020-10-31 11:47:51</time>
      </trkpt>
      <trkpt lat="41.35542" lon="0.66428">
        <ele>524.8</ele>
        <time>2020-10-31 11:47:52</time>
      </trkpt>
      <trkpt lat="41.35547" lon="0.66439">
        <ele>525.4</ele>
        <time>2020-10-31 11:47:55</time>
      </trkpt>
      <trkpt lat="41.35554" lon="0.66454">
        <ele>526</ele>
        <time>2020-10-31 11:47:59</time>
      </trkpt>
      <trkpt lat="41.35557" lon="0.66462">
        <ele>526.4</ele>
        <time>2020-10-31 11:48:01</time>
      </trkpt>
      <trkpt lat="41.35563" lon="0.66478">
        <ele>527</ele>
        <time>2020-10-31 11:48:05</time>
      </trkpt>
      <trkpt lat="41.35564" lon="0.66498">
        <ele>527</ele>
        <time>2020-10-31 11:48:10</time>
      </trkpt>
      <trkpt lat="41.35555" lon="0.66511">
        <ele>527.4</ele>
        <time>2020-10-31 11:48:14</time>
      </trkpt>
      <trkpt lat="41.35542" lon="0.66531">
        <ele>527.4</ele>
        <time>2020-10-31 11:48:19</time>
      </trkpt>
      <trkpt lat="41.35535" lon="0.66544">
        <ele>527.6</ele>
        <time>2020-10-31 11:48:22</time>
      </trkpt>
      <trkpt lat="41.35521" lon="0.66565">
        <ele>527.6</ele>
        <time>2020-10-31 11:48:28</time>
      </trkpt>
      <trkpt lat="41.35505" lon="0.66585">
        <ele>528.2</ele>
        <time>2020-10-31 11:48:33</time>
      </trkpt>
      <trkpt lat="41.35502" lon="0.66589">
        <ele>528.4</ele>
        <time>2020-10-31 11:48:34</time>
      </trkpt>
      <trkpt lat="41.35499" lon="0.66593">
        <ele>528.6</ele>
        <time>2020-10-31 11:48:35</time>
      </trkpt>
      <trkpt lat="41.35496" lon="0.66598">
        <ele>529</ele>
        <time>2020-10-31 11:48:36</time>
      </trkpt>
      <trkpt lat="41.35489" lon="0.6661">
        <ele>529.6</ele>
        <time>2020-10-31 11:48:39</time>
      </trkpt>
      <trkpt lat="41.35487" lon="0.66614">
        <ele>529.8</ele>
        <time>2020-10-31 11:48:40</time>
      </trkpt>
      <trkpt lat="41.35478" lon="0.66631">
        <ele>531.2</ele>
        <time>2020-10-31 11:48:44</time>
      </trkpt>
      <trkpt lat="41.35476" lon="0.66636">
        <ele>531.4</ele>
        <time>2020-10-31 11:48:45</time>
      </trkpt>
      <trkpt lat="41.35467" lon="0.66653">
        <ele>532.2</ele>
        <time>2020-10-31 11:48:49</time>
      </trkpt>
      <trkpt lat="41.35461" lon="0.66663">
        <ele>532.8</ele>
        <time>2020-10-31 11:48:51</time>
      </trkpt>
      <trkpt lat="41.35441" lon="0.66687">
        <ele>533.2</ele>
        <time>2020-10-31 11:48:56</time>
      </trkpt>
      <trkpt lat="41.35415" lon="0.66726">
        <ele>533.2</ele>
        <time>2020-10-31 11:49:02</time>
      </trkpt>
      <trkpt lat="41.35386" lon="0.6677">
        <ele>532.8</ele>
        <time>2020-10-31 11:49:08</time>
      </trkpt>
      <trkpt lat="41.35368" lon="0.668">
        <ele>532</ele>
        <time>2020-10-31 11:49:12</time>
      </trkpt>
      <trkpt lat="41.35359" lon="0.66815">
        <ele>531.8</ele>
        <time>2020-10-31 11:49:14</time>
      </trkpt>
      <trkpt lat="41.35336" lon="0.6685">
        <ele>531</ele>
        <time>2020-10-31 11:49:19</time>
      </trkpt>
      <trkpt lat="41.35314" lon="0.66882">
        <ele>530.4</ele>
        <time>2020-10-31 11:49:24</time>
      </trkpt>
      <trkpt lat="41.3531" lon="0.66888">
        <ele>530.4</ele>
        <time>2020-10-31 11:49:25</time>
      </trkpt>
      <trkpt lat="41.35307" lon="0.66902">
        <ele>530</ele>
        <time>2020-10-31 11:49:27</time>
      </trkpt>
      <trkpt lat="41.35313" lon="0.66911">
        <ele>530</ele>
        <time>2020-10-31 11:49:29</time>
      </trkpt>
      <trkpt lat="41.3533" lon="0.66906">
        <ele>530</ele>
        <time>2020-10-31 11:49:32</time>
      </trkpt>
      <trkpt lat="41.35336" lon="0.66903">
        <ele>530</ele>
        <time>2020-10-31 11:49:33</time>
      </trkpt>
      <trkpt lat="41.35355" lon="0.66892">
        <ele>529.8</ele>
        <time>2020-10-31 11:49:36</time>
      </trkpt>
      <trkpt lat="41.35368" lon="0.66884">
        <ele>529.8</ele>
        <time>2020-10-31 11:49:38</time>
      </trkpt>
      <trkpt lat="41.35408" lon="0.66863">
        <ele>529</ele>
        <time>2020-10-31 11:49:44</time>
      </trkpt>
      <trkpt lat="41.35422" lon="0.66855">
        <ele>527.8</ele>
        <time>2020-10-31 11:49:46</time>
      </trkpt>
      <trkpt lat="41.35443" lon="0.66844">
        <ele>526.8</ele>
        <time>2020-10-31 11:49:49</time>
      </trkpt>
      <trkpt lat="41.35457" lon="0.66836">
        <ele>526.4</ele>
        <time>2020-10-31 11:49:51</time>
      </trkpt>
      <trkpt lat="41.35468" lon="0.66831">
        <ele>525.8</ele>
        <time>2020-10-31 11:49:53</time>
      </trkpt>
      <trkpt lat="41.35471" lon="0.66829">
        <ele>525.4</ele>
        <time>2020-10-31 11:49:54</time>
      </trkpt>
      <trkpt lat="41.35478" lon="0.66827">
        <ele>524.6</ele>
        <time>2020-10-31 11:49:57</time>
      </trkpt>
      <trkpt lat="41.35478" lon="0.66827">
        <ele>524.4</ele>
        <time>2020-10-31 11:49:58</time>
      </trkpt>
      <trkpt lat="41.35478" lon="0.66827">
        <ele>523.4</ele>
        <time>2020-10-31 11:50:01</time>
      </trkpt>
      <trkpt lat="41.35478" lon="0.66827">
        <ele>523</ele>
        <time>2020-10-31 11:50:11</time>
      </trkpt>
      <trkpt lat="41.35479" lon="0.66826">
        <ele>523</ele>
        <time>2020-10-31 11:50:12</time>
      </trkpt>
      <trkpt lat="41.35487" lon="0.6682">
        <ele>523</ele>
        <time>2020-10-31 11:50:15</time>
      </trkpt>
      <trkpt lat="41.35508" lon="0.66803">
        <ele>522.8</ele>
        <time>2020-10-31 11:50:20</time>
      </trkpt>
      <trkpt lat="41.35539" lon="0.66766">
        <ele>522.4</ele>
        <time>2020-10-31 11:50:27</time>
      </trkpt>
      <trkpt lat="41.35556" lon="0.66744">
        <ele>522</ele>
        <time>2020-10-31 11:50:31</time>
      </trkpt>
      <trkpt lat="41.35581" lon="0.66712">
        <ele>521.8</ele>
        <time>2020-10-31 11:50:37</time>
      </trkpt>
      <trkpt lat="41.35617" lon="0.66663">
        <ele>521.4</ele>
        <time>2020-10-31 11:50:45</time>
      </trkpt>
      <trkpt lat="41.35622" lon="0.66656">
        <ele>521.4</ele>
        <time>2020-10-31 11:50:46</time>
      </trkpt>
      <trkpt lat="41.35647" lon="0.66621">
        <ele>520.4</ele>
        <time>2020-10-31 11:50:51</time>
      </trkpt>
      <trkpt lat="41.35653" lon="0.66614">
        <ele>520</ele>
        <time>2020-10-31 11:50:52</time>
      </trkpt>
      <trkpt lat="41.35664" lon="0.66599">
        <ele>519.2</ele>
        <time>2020-10-31 11:50:54</time>
      </trkpt>
      <trkpt lat="41.35689" lon="0.66572">
        <ele>518</ele>
        <time>2020-10-31 11:50:58</time>
      </trkpt>
      <trkpt lat="41.3571" lon="0.66559">
        <ele>516.8</ele>
        <time>2020-10-31 11:51:01</time>
      </trkpt>
      <trkpt lat="41.35718" lon="0.66555">
        <ele>516.6</ele>
        <time>2020-10-31 11:51:02</time>
      </trkpt>
      <trkpt lat="41.35725" lon="0.66553">
        <ele>516.2</ele>
        <time>2020-10-31 11:51:03</time>
      </trkpt>
      <trkpt lat="41.35739" lon="0.66549">
        <ele>515.6</ele>
        <time>2020-10-31 11:51:05</time>
      </trkpt>
      <trkpt lat="41.35773" lon="0.66539">
        <ele>515</ele>
        <time>2020-10-31 11:51:10</time>
      </trkpt>
      <trkpt lat="41.35798" lon="0.66525">
        <ele>514.8</ele>
        <time>2020-10-31 11:51:14</time>
      </trkpt>
      <trkpt lat="41.35804" lon="0.6652">
        <ele>514.8</ele>
        <time>2020-10-31 11:51:15</time>
      </trkpt>
      <trkpt lat="41.35814" lon="0.66499">
        <ele>514.6</ele>
        <time>2020-10-31 11:51:18</time>
      </trkpt>
      <trkpt lat="41.35829" lon="0.66462">
        <ele>514.6</ele>
        <time>2020-10-31 11:51:23</time>
      </trkpt>
      <trkpt lat="41.35843" lon="0.66443">
        <ele>514.4</ele>
        <time>2020-10-31 11:51:26</time>
      </trkpt>
      <trkpt lat="41.35853" lon="0.6643">
        <ele>514.4</ele>
        <time>2020-10-31 11:51:28</time>
      </trkpt>
      <trkpt lat="41.35885" lon="0.66392">
        <ele>513.8</ele>
        <time>2020-10-31 11:51:34</time>
      </trkpt>
      <trkpt lat="41.35902" lon="0.66374">
        <ele>513</ele>
        <time>2020-10-31 11:51:37</time>
      </trkpt>
      <trkpt lat="41.35912" lon="0.66361">
        <ele>511.8</ele>
        <time>2020-10-31 11:51:39</time>
      </trkpt>
      <trkpt lat="41.35927" lon="0.66342">
        <ele>510.8</ele>
        <time>2020-10-31 11:51:42</time>
      </trkpt>
      <trkpt lat="41.35951" lon="0.66319">
        <ele>509.8</ele>
        <time>2020-10-31 11:51:46</time>
      </trkpt>
      <trkpt lat="41.35959" lon="0.66314">
        <ele>509.4</ele>
        <time>2020-10-31 11:51:47</time>
      </trkpt>
      <trkpt lat="41.3599" lon="0.66295">
        <ele>508.4</ele>
        <time>2020-10-31 11:51:51</time>
      </trkpt>
      <trkpt lat="41.35998" lon="0.6629">
        <ele>508</ele>
        <time>2020-10-31 11:51:52</time>
      </trkpt>
      <trkpt lat="41.36015" lon="0.66281">
        <ele>507.2</ele>
        <time>2020-10-31 11:51:54</time>
      </trkpt>
      <trkpt lat="41.36041" lon="0.66266">
        <ele>505.8</ele>
        <time>2020-10-31 11:51:57</time>
      </trkpt>
      <trkpt lat="41.36059" lon="0.66256">
        <ele>504.6</ele>
        <time>2020-10-31 11:51:59</time>
      </trkpt>
      <trkpt lat="41.36068" lon="0.66251">
        <ele>504.2</ele>
        <time>2020-10-31 11:52:00</time>
      </trkpt>
      <trkpt lat="41.36087" lon="0.66238">
        <ele>503.2</ele>
        <time>2020-10-31 11:52:02</time>
      </trkpt>
      <trkpt lat="41.36105" lon="0.66225">
        <ele>502</ele>
        <time>2020-10-31 11:52:04</time>
      </trkpt>
      <trkpt lat="41.36125" lon="0.66213">
        <ele>500.2</ele>
        <time>2020-10-31 11:52:06</time>
      </trkpt>
      <trkpt lat="41.36135" lon="0.66209">
        <ele>499.8</ele>
        <time>2020-10-31 11:52:07</time>
      </trkpt>
      <trkpt lat="41.36146" lon="0.66206">
        <ele>499</ele>
        <time>2020-10-31 11:52:08</time>
      </trkpt>
      <trkpt lat="41.36156" lon="0.66204">
        <ele>498.4</ele>
        <time>2020-10-31 11:52:09</time>
      </trkpt>
      <trkpt lat="41.36166" lon="0.66202">
        <ele>497.4</ele>
        <time>2020-10-31 11:52:10</time>
      </trkpt>
      <trkpt lat="41.36176" lon="0.66201">
        <ele>496.8</ele>
        <time>2020-10-31 11:52:11</time>
      </trkpt>
      <trkpt lat="41.36185" lon="0.66202">
        <ele>496.2</ele>
        <time>2020-10-31 11:52:12</time>
      </trkpt>
      <trkpt lat="41.36193" lon="0.66206">
        <ele>495.4</ele>
        <time>2020-10-31 11:52:13</time>
      </trkpt>
      <trkpt lat="41.362" lon="0.66212">
        <ele>494.8</ele>
        <time>2020-10-31 11:52:14</time>
      </trkpt>
      <trkpt lat="41.36206" lon="0.66221">
        <ele>494.2</ele>
        <time>2020-10-31 11:52:15</time>
      </trkpt>
      <trkpt lat="41.3621" lon="0.66231">
        <ele>493.4</ele>
        <time>2020-10-31 11:52:16</time>
      </trkpt>
      <trkpt lat="41.36213" lon="0.66241">
        <ele>492.4</ele>
        <time>2020-10-31 11:52:17</time>
      </trkpt>
      <trkpt lat="41.36217" lon="0.6625">
        <ele>491.8</ele>
        <time>2020-10-31 11:52:18</time>
      </trkpt>
      <trkpt lat="41.3622" lon="0.6626">
        <ele>491.4</ele>
        <time>2020-10-31 11:52:19</time>
      </trkpt>
      <trkpt lat="41.36234" lon="0.66298">
        <ele>491.2</ele>
        <time>2020-10-31 11:52:24</time>
      </trkpt>
      <trkpt lat="41.36237" lon="0.66305">
        <ele>491.2</ele>
        <time>2020-10-31 11:52:25</time>
      </trkpt>
      <trkpt lat="41.36248" lon="0.66319">
        <ele>491.4</ele>
        <time>2020-10-31 11:52:28</time>
      </trkpt>
      <trkpt lat="41.36261" lon="0.66319">
        <ele>492.8</ele>
        <time>2020-10-31 11:52:31</time>
      </trkpt>
      <trkpt lat="41.36265" lon="0.66318">
        <ele>493.2</ele>
        <time>2020-10-31 11:52:32</time>
      </trkpt>
      <trkpt lat="41.36279" lon="0.66312">
        <ele>494.6</ele>
        <time>2020-10-31 11:52:36</time>
      </trkpt>
      <trkpt lat="41.3629" lon="0.66307">
        <ele>496.2</ele>
        <time>2020-10-31 11:52:39</time>
      </trkpt>
      <trkpt lat="41.36301" lon="0.66302">
        <ele>497.2</ele>
        <time>2020-10-31 11:52:42</time>
      </trkpt>
      <trkpt lat="41.36324" lon="0.66292">
        <ele>498.2</ele>
        <time>2020-10-31 11:52:48</time>
      </trkpt>
      <trkpt lat="41.36332" lon="0.66289">
        <ele>498.2</ele>
        <time>2020-10-31 11:52:50</time>
      </trkpt>
      <trkpt lat="41.3635" lon="0.66282">
        <ele>498.8</ele>
        <time>2020-10-31 11:52:55</time>
      </trkpt>
      <trkpt lat="41.36363" lon="0.66276">
        <ele>499.4</ele>
        <time>2020-10-31 11:52:59</time>
      </trkpt>
      <trkpt lat="41.36369" lon="0.66275">
        <ele>500</ele>
        <time>2020-10-31 11:53:01</time>
      </trkpt>
      <trkpt lat="41.36378" lon="0.66271">
        <ele>500.6</ele>
        <time>2020-10-31 11:53:04</time>
      </trkpt>
      <trkpt lat="41.36386" lon="0.66269">
        <ele>501.8</ele>
        <time>2020-10-31 11:53:07</time>
      </trkpt>
      <trkpt lat="41.36388" lon="0.66268">
        <ele>502.2</ele>
        <time>2020-10-31 11:53:08</time>
      </trkpt>
      <trkpt lat="41.36393" lon="0.66266">
        <ele>503</ele>
        <time>2020-10-31 11:53:10</time>
      </trkpt>
      <trkpt lat="41.364" lon="0.66263">
        <ele>504</ele>
        <time>2020-10-31 11:53:13</time>
      </trkpt>
      <trkpt lat="41.36408" lon="0.66259">
        <ele>504.8</ele>
        <time>2020-10-31 11:53:16</time>
      </trkpt>
      <trkpt lat="41.36414" lon="0.66257">
        <ele>505.2</ele>
        <time>2020-10-31 11:53:18</time>
      </trkpt>
      <trkpt lat="41.36429" lon="0.66252">
        <ele>505.8</ele>
        <time>2020-10-31 11:53:23</time>
      </trkpt>
      <trkpt lat="41.3644" lon="0.66248">
        <ele>506.2</ele>
        <time>2020-10-31 11:53:27</time>
      </trkpt>
      <trkpt lat="41.36447" lon="0.66245">
        <ele>506.8</ele>
        <time>2020-10-31 11:53:30</time>
      </trkpt>
      <trkpt lat="41.36455" lon="0.66244">
        <ele>507.6</ele>
        <time>2020-10-31 11:53:33</time>
      </trkpt>
      <trkpt lat="41.36465" lon="0.66242">
        <ele>508.2</ele>
        <time>2020-10-31 11:53:36</time>
      </trkpt>
      <trkpt lat="41.36468" lon="0.66241">
        <ele>508.4</ele>
        <time>2020-10-31 11:53:37</time>
      </trkpt>
      <trkpt lat="41.36477" lon="0.66236">
        <ele>509</ele>
        <time>2020-10-31 11:53:40</time>
      </trkpt>
      <trkpt lat="41.36482" lon="0.66232">
        <ele>509.2</ele>
        <time>2020-10-31 11:53:42</time>
      </trkpt>
      <trkpt lat="41.3649" lon="0.66226">
        <ele>509.6</ele>
        <time>2020-10-31 11:53:45</time>
      </trkpt>
      <trkpt lat="41.36505" lon="0.66217">
        <ele>510.6</ele>
        <time>2020-10-31 11:53:50</time>
      </trkpt>
      <trkpt lat="41.36508" lon="0.66215">
        <ele>510.8</ele>
        <time>2020-10-31 11:53:51</time>
      </trkpt>
      <trkpt lat="41.36524" lon="0.66201">
        <ele>511.2</ele>
        <time>2020-10-31 11:53:56</time>
      </trkpt>
      <trkpt lat="41.36536" lon="0.66188">
        <ele>511.8</ele>
        <time>2020-10-31 11:54:00</time>
      </trkpt>
      <trkpt lat="41.36548" lon="0.66175">
        <ele>511.8</ele>
        <time>2020-10-31 11:54:04</time>
      </trkpt>
      <trkpt lat="41.36569" lon="0.66145">
        <ele>512</ele>
        <time>2020-10-31 11:54:11</time>
      </trkpt>
      <trkpt lat="41.36594" lon="0.66111">
        <ele>512</ele>
        <time>2020-10-31 11:54:19</time>
      </trkpt>
      <trkpt lat="41.36624" lon="0.66077">
        <ele>512.2</ele>
        <time>2020-10-31 11:54:26</time>
      </trkpt>
      <trkpt lat="41.36664" lon="0.66027">
        <ele>510.6</ele>
        <time>2020-10-31 11:54:35</time>
      </trkpt>
      <trkpt lat="41.36668" lon="0.66021">
        <ele>510.6</ele>
        <time>2020-10-31 11:54:36</time>
      </trkpt>
      <trkpt lat="41.36672" lon="0.66016">
        <ele>510.4</ele>
        <time>2020-10-31 11:54:37</time>
      </trkpt>
      <trkpt lat="41.36714" lon="0.65959">
        <ele>510.2</ele>
        <time>2020-10-31 11:54:47</time>
      </trkpt>
      <trkpt lat="41.36718" lon="0.65953">
        <ele>510.2</ele>
        <time>2020-10-31 11:54:48</time>
      </trkpt>
      <trkpt lat="41.36741" lon="0.65922">
        <ele>510.4</ele>
        <time>2020-10-31 11:54:54</time>
      </trkpt>
      <trkpt lat="41.36764" lon="0.65886">
        <ele>511.2</ele>
        <time>2020-10-31 11:55:01</time>
      </trkpt>
      <trkpt lat="41.36766" lon="0.65881">
        <ele>511.4</ele>
        <time>2020-10-31 11:55:02</time>
      </trkpt>
      <trkpt lat="41.36767" lon="0.65876">
        <ele>511.6</ele>
        <time>2020-10-31 11:55:03</time>
      </trkpt>
      <trkpt lat="41.36773" lon="0.65859">
        <ele>512.6</ele>
        <time>2020-10-31 11:55:06</time>
      </trkpt>
      <trkpt lat="41.36779" lon="0.65843">
        <ele>514</ele>
        <time>2020-10-31 11:55:09</time>
      </trkpt>
      <trkpt lat="41.36787" lon="0.65828">
        <ele>515</ele>
        <time>2020-10-31 11:55:12</time>
      </trkpt>
      <trkpt lat="41.36801" lon="0.65806">
        <ele>516.2</ele>
        <time>2020-10-31 11:55:17</time>
      </trkpt>
      <trkpt lat="41.3682" lon="0.65785">
        <ele>517.2</ele>
        <time>2020-10-31 11:55:23</time>
      </trkpt>
      <trkpt lat="41.36823" lon="0.65782">
        <ele>517.4</ele>
        <time>2020-10-31 11:55:24</time>
      </trkpt>
      <trkpt lat="41.36835" lon="0.6577">
        <ele>518.4</ele>
        <time>2020-10-31 11:55:28</time>
      </trkpt>
      <trkpt lat="41.36842" lon="0.65762">
        <ele>519.2</ele>
        <time>2020-10-31 11:55:31</time>
      </trkpt>
      <trkpt lat="41.36844" lon="0.65758">
        <ele>519.6</ele>
        <time>2020-10-31 11:55:32</time>
      </trkpt>
      <trkpt lat="41.36859" lon="0.65739">
        <ele>520.6</ele>
        <time>2020-10-31 11:55:37</time>
      </trkpt>
      <trkpt lat="41.36886" lon="0.65691">
        <ele>520.8</ele>
        <time>2020-10-31 11:55:47</time>
      </trkpt>
      <trkpt lat="41.3691" lon="0.65651">
        <ele>520.6</ele>
        <time>2020-10-31 11:55:55</time>
      </trkpt>
      <trkpt lat="41.36929" lon="0.65621">
        <ele>520.6</ele>
        <time>2020-10-31 11:56:02</time>
      </trkpt>
      <trkpt lat="41.36948" lon="0.65593">
        <ele>521.8</ele>
        <time>2020-10-31 11:56:09</time>
      </trkpt>
      <trkpt lat="41.36951" lon="0.65588">
        <ele>521.8</ele>
        <time>2020-10-31 11:56:10</time>
      </trkpt>
      <trkpt lat="41.36956" lon="0.6558">
        <ele>522.2</ele>
        <time>2020-10-31 11:56:12</time>
      </trkpt>
      <trkpt lat="41.36968" lon="0.65563">
        <ele>522.8</ele>
        <time>2020-10-31 11:56:16</time>
      </trkpt>
      <trkpt lat="41.36974" lon="0.65555">
        <ele>523</ele>
        <time>2020-10-31 11:56:18</time>
      </trkpt>
      <trkpt lat="41.36986" lon="0.65536">
        <ele>523.2</ele>
        <time>2020-10-31 11:56:22</time>
      </trkpt>
      <trkpt lat="41.36992" lon="0.65528">
        <ele>523.2</ele>
        <time>2020-10-31 11:56:24</time>
      </trkpt>
      <trkpt lat="41.3701" lon="0.65501">
        <ele>523.4</ele>
        <time>2020-10-31 11:56:30</time>
      </trkpt>
      <trkpt lat="41.37028" lon="0.65484">
        <ele>524</ele>
        <time>2020-10-31 11:56:36</time>
      </trkpt>
      <trkpt lat="41.37037" lon="0.65476">
        <ele>525.2</ele>
        <time>2020-10-31 11:56:39</time>
      </trkpt>
      <trkpt lat="41.37059" lon="0.65455">
        <ele>526.2</ele>
        <time>2020-10-31 11:56:45</time>
      </trkpt>
      <trkpt lat="41.37084" lon="0.65425">
        <ele>526.2</ele>
        <time>2020-10-31 11:56:51</time>
      </trkpt>
      <trkpt lat="41.37094" lon="0.65407">
        <ele>526</ele>
        <time>2020-10-31 11:56:54</time>
      </trkpt>
      <trkpt lat="41.37102" lon="0.65388">
        <ele>525.4</ele>
        <time>2020-10-31 11:56:57</time>
      </trkpt>
      <trkpt lat="41.37123" lon="0.65353">
        <ele>524.8</ele>
        <time>2020-10-31 11:57:03</time>
      </trkpt>
      <trkpt lat="41.37151" lon="0.65306">
        <ele>524.2</ele>
        <time>2020-10-31 11:57:10</time>
      </trkpt>
      <trkpt lat="41.37156" lon="0.653">
        <ele>524</ele>
        <time>2020-10-31 11:57:11</time>
      </trkpt>
      <trkpt lat="41.37175" lon="0.65284">
        <ele>523.8</ele>
        <time>2020-10-31 11:57:14</time>
      </trkpt>
      <trkpt lat="41.37204" lon="0.65261">
        <ele>522.8</ele>
        <time>2020-10-31 11:57:18</time>
      </trkpt>
      <trkpt lat="41.37212" lon="0.65254">
        <ele>522.4</ele>
        <time>2020-10-31 11:57:19</time>
      </trkpt>
      <trkpt lat="41.37229" lon="0.65242">
        <ele>521.4</ele>
        <time>2020-10-31 11:57:21</time>
      </trkpt>
      <trkpt lat="41.37255" lon="0.65225">
        <ele>520</ele>
        <time>2020-10-31 11:57:24</time>
      </trkpt>
      <trkpt lat="41.37263" lon="0.65219">
        <ele>519.8</ele>
        <time>2020-10-31 11:57:25</time>
      </trkpt>
      <trkpt lat="41.37263" lon="0.65219">
        <ele>519</ele>
        <time>2020-10-31 11:57:26</time>
      </trkpt>
      <trkpt lat="41.37281" lon="0.65213">
        <ele>518.4</ele>
        <time>2020-10-31 11:57:27</time>
      </trkpt>
      <trkpt lat="41.37281" lon="0.65213">
        <ele>517.6</ele>
        <time>2020-10-31 11:57:28</time>
      </trkpt>
      <trkpt lat="41.37298" lon="0.65216">
        <ele>516.6</ele>
        <time>2020-10-31 11:57:29</time>
      </trkpt>
      <trkpt lat="41.37305" lon="0.65221">
        <ele>516.2</ele>
        <time>2020-10-31 11:57:30</time>
      </trkpt>
      <trkpt lat="41.37319" lon="0.65233">
        <ele>514.4</ele>
        <time>2020-10-31 11:57:32</time>
      </trkpt>
      <trkpt lat="41.37326" lon="0.65239">
        <ele>514</ele>
        <time>2020-10-31 11:57:33</time>
      </trkpt>
      <trkpt lat="41.3734" lon="0.65251">
        <ele>512.8</ele>
        <time>2020-10-31 11:57:35</time>
      </trkpt>
      <trkpt lat="41.37354" lon="0.65262">
        <ele>511.6</ele>
        <time>2020-10-31 11:57:37</time>
      </trkpt>
      <trkpt lat="41.37362" lon="0.65265">
        <ele>510.8</ele>
        <time>2020-10-31 11:57:38</time>
      </trkpt>
      <trkpt lat="41.3737" lon="0.65266">
        <ele>510.4</ele>
        <time>2020-10-31 11:57:39</time>
      </trkpt>
      <trkpt lat="41.37385" lon="0.65261">
        <ele>509.8</ele>
        <time>2020-10-31 11:57:41</time>
      </trkpt>
      <trkpt lat="41.37406" lon="0.6525">
        <ele>509.4</ele>
        <time>2020-10-31 11:57:44</time>
      </trkpt>
      <trkpt lat="41.3742" lon="0.6524">
        <ele>509</ele>
        <time>2020-10-31 11:57:46</time>
      </trkpt>
      <trkpt lat="41.37466" lon="0.65206">
        <ele>508.6</ele>
        <time>2020-10-31 11:57:53</time>
      </trkpt>
      <trkpt lat="41.37508" lon="0.6518">
        <ele>508.4</ele>
        <time>2020-10-31 11:57:59</time>
      </trkpt>
      <trkpt lat="41.37523" lon="0.65169">
        <ele>508.2</ele>
        <time>2020-10-31 11:58:01</time>
      </trkpt>
      <trkpt lat="41.37559" lon="0.65144">
        <ele>507</ele>
        <time>2020-10-31 11:58:06</time>
      </trkpt>
      <trkpt lat="41.37572" lon="0.65136">
        <ele>506</ele>
        <time>2020-10-31 11:58:08</time>
      </trkpt>
      <trkpt lat="41.37592" lon="0.6512">
        <ele>504.6</ele>
        <time>2020-10-31 11:58:11</time>
      </trkpt>
      <trkpt lat="41.37612" lon="0.65102">
        <ele>503.6</ele>
        <time>2020-10-31 11:58:14</time>
      </trkpt>
      <trkpt lat="41.37644" lon="0.65072">
        <ele>503</ele>
        <time>2020-10-31 11:58:19</time>
      </trkpt>
      <trkpt lat="41.37651" lon="0.65065">
        <ele>502.6</ele>
        <time>2020-10-31 11:58:20</time>
      </trkpt>
      <trkpt lat="41.37677" lon="0.65042">
        <ele>501.4</ele>
        <time>2020-10-31 11:58:24</time>
      </trkpt>
      <trkpt lat="41.37697" lon="0.65026">
        <ele>500.8</ele>
        <time>2020-10-31 11:58:27</time>
      </trkpt>
      <trkpt lat="41.37709" lon="0.65014">
        <ele>500.2</ele>
        <time>2020-10-31 11:58:29</time>
      </trkpt>
      <trkpt lat="41.37726" lon="0.64998">
        <ele>499.8</ele>
        <time>2020-10-31 11:58:32</time>
      </trkpt>
      <trkpt lat="41.37755" lon="0.64961">
        <ele>499.6</ele>
        <time>2020-10-31 11:58:38</time>
      </trkpt>
      <trkpt lat="41.37777" lon="0.64927">
        <ele>499.6</ele>
        <time>2020-10-31 11:58:44</time>
      </trkpt>
      <trkpt lat="41.3779" lon="0.64898">
        <ele>501.2</ele>
        <time>2020-10-31 11:58:50</time>
      </trkpt>
      <trkpt lat="41.37795" lon="0.64885">
        <ele>502.4</ele>
        <time>2020-10-31 11:58:53</time>
      </trkpt>
      <trkpt lat="41.37803" lon="0.64866">
        <ele>503.6</ele>
        <time>2020-10-31 11:58:57</time>
      </trkpt>
      <trkpt lat="41.37807" lon="0.64856">
        <ele>504</ele>
        <time>2020-10-31 11:58:59</time>
      </trkpt>
      <trkpt lat="41.3782" lon="0.64821">
        <ele>504.2</ele>
        <time>2020-10-31 11:59:05</time>
      </trkpt>
      <trkpt lat="41.37843" lon="0.64769">
        <ele>504.4</ele>
        <time>2020-10-31 11:59:14</time>
      </trkpt>
      <trkpt lat="41.37867" lon="0.64736">
        <ele>504.6</ele>
        <time>2020-10-31 11:59:21</time>
      </trkpt>
      <trkpt lat="41.37904" lon="0.64696">
        <ele>504.6</ele>
        <time>2020-10-31 11:59:30</time>
      </trkpt>
      <trkpt lat="41.37937" lon="0.64669">
        <ele>504.6</ele>
        <time>2020-10-31 11:59:37</time>
      </trkpt>
      <trkpt lat="41.37946" lon="0.64663">
        <ele>504.8</ele>
        <time>2020-10-31 11:59:39</time>
      </trkpt>
      <trkpt lat="41.37951" lon="0.64659">
        <ele>504.8</ele>
        <time>2020-10-31 11:59:40</time>
      </trkpt>
      <trkpt lat="41.37959" lon="0.64651">
        <ele>504.8</ele>
        <time>2020-10-31 11:59:42</time>
      </trkpt>
      <trkpt lat="41.37962" lon="0.64646">
        <ele>504.8</ele>
        <time>2020-10-31 11:59:43</time>
      </trkpt>
      <trkpt lat="41.37983" lon="0.64613">
        <ele>505</ele>
        <time>2020-10-31 11:59:49</time>
      </trkpt>
      <trkpt lat="41.37998" lon="0.64572">
        <ele>505</ele>
        <time>2020-10-31 11:59:56</time>
      </trkpt>
      <trkpt lat="41.38002" lon="0.64561">
        <ele>505</ele>
        <time>2020-10-31 11:59:58</time>
      </trkpt>
      <trkpt lat="41.38008" lon="0.64547">
        <ele>505</ele>
        <time>2020-10-31 12:00:01</time>
      </trkpt>
      <trkpt lat="41.38011" lon="0.64541">
        <ele>505</ele>
        <time>2020-10-31 12:00:02</time>
      </trkpt>
      <trkpt lat="41.38021" lon="0.64528">
        <ele>505</ele>
        <time>2020-10-31 12:00:04</time>
      </trkpt>
      <trkpt lat="41.38034" lon="0.64516">
        <ele>505</ele>
        <time>2020-10-31 12:00:06</time>
      </trkpt>
      <trkpt lat="41.38056" lon="0.64496">
        <ele>504.8</ele>
        <time>2020-10-31 12:00:09</time>
      </trkpt>
      <trkpt lat="41.38069" lon="0.64482">
        <ele>503.6</ele>
        <time>2020-10-31 12:00:12</time>
      </trkpt>
      <trkpt lat="41.38082" lon="0.64466">
        <ele>502.6</ele>
        <time>2020-10-31 12:00:13</time>
      </trkpt>
      <trkpt lat="41.38087" lon="0.64457">
        <ele>501.6</ele>
        <time>2020-10-31 12:00:14</time>
      </trkpt>
      <trkpt lat="41.38092" lon="0.64448">
        <ele>500.8</ele>
        <time>2020-10-31 12:00:15</time>
      </trkpt>
      <trkpt lat="41.38096" lon="0.64439">
        <ele>500</ele>
        <time>2020-10-31 12:00:16</time>
      </trkpt>
      <trkpt lat="41.381" lon="0.6443">
        <ele>498.8</ele>
        <time>2020-10-31 12:00:17</time>
      </trkpt>
      <trkpt lat="41.38106" lon="0.64412">
        <ele>497.6</ele>
        <time>2020-10-31 12:00:19</time>
      </trkpt>
      <trkpt lat="41.38108" lon="0.64403">
        <ele>497</ele>
        <time>2020-10-31 12:00:20</time>
      </trkpt>
      <trkpt lat="41.38109" lon="0.64393">
        <ele>496.6</ele>
        <time>2020-10-31 12:00:21</time>
      </trkpt>
      <trkpt lat="41.38114" lon="0.64373">
        <ele>496</ele>
        <time>2020-10-31 12:00:23</time>
      </trkpt>
      <trkpt lat="41.38114" lon="0.64373">
        <ele>495.8</ele>
        <time>2020-10-31 12:00:24</time>
      </trkpt>
      <trkpt lat="41.38123" lon="0.64355">
        <ele>495.6</ele>
        <time>2020-10-31 12:00:25</time>
      </trkpt>
      <trkpt lat="41.38129" lon="0.64348">
        <ele>495.4</ele>
        <time>2020-10-31 12:00:26</time>
      </trkpt>
      <trkpt lat="41.38134" lon="0.64341">
        <ele>495.2</ele>
        <time>2020-10-31 12:00:27</time>
      </trkpt>
      <trkpt lat="41.3815" lon="0.64319">
        <ele>494</ele>
        <time>2020-10-31 12:00:30</time>
      </trkpt>
      <trkpt lat="41.38161" lon="0.64305">
        <ele>492.6</ele>
        <time>2020-10-31 12:00:32</time>
      </trkpt>
      <trkpt lat="41.38172" lon="0.64292">
        <ele>491.4</ele>
        <time>2020-10-31 12:00:34</time>
      </trkpt>
      <trkpt lat="41.38178" lon="0.64286">
        <ele>491.2</ele>
        <time>2020-10-31 12:00:35</time>
      </trkpt>
      <trkpt lat="41.38189" lon="0.64273">
        <ele>491</ele>
        <time>2020-10-31 12:00:37</time>
      </trkpt>
      <trkpt lat="41.38195" lon="0.64265">
        <ele>490.8</ele>
        <time>2020-10-31 12:00:39</time>
      </trkpt>
      <trkpt lat="41.38213" lon="0.64244">
        <ele>490.4</ele>
        <time>2020-10-31 12:00:41</time>
      </trkpt>
      <trkpt lat="41.38227" lon="0.64234">
        <ele>490.2</ele>
        <time>2020-10-31 12:00:43</time>
      </trkpt>
      <trkpt lat="41.38249" lon="0.6422">
        <ele>488.8</ele>
        <time>2020-10-31 12:00:46</time>
      </trkpt>
      <trkpt lat="41.38262" lon="0.64207">
        <ele>487.8</ele>
        <time>2020-10-31 12:00:48</time>
      </trkpt>
      <trkpt lat="41.38268" lon="0.64201">
        <ele>487.2</ele>
        <time>2020-10-31 12:00:49</time>
      </trkpt>
      <trkpt lat="41.38285" lon="0.6418">
        <ele>486.2</ele>
        <time>2020-10-31 12:00:52</time>
      </trkpt>
      <trkpt lat="41.38296" lon="0.64165">
        <ele>485.6</ele>
        <time>2020-10-31 12:00:54</time>
      </trkpt>
      <trkpt lat="41.38308" lon="0.64152">
        <ele>484.6</ele>
        <time>2020-10-31 12:00:56</time>
      </trkpt>
      <trkpt lat="41.38327" lon="0.64136">
        <ele>483.8</ele>
        <time>2020-10-31 12:00:59</time>
      </trkpt>
      <trkpt lat="41.38333" lon="0.64131">
        <ele>483.6</ele>
        <time>2020-10-31 12:01:00</time>
      </trkpt>
      <trkpt lat="41.38347" lon="0.64123">
        <ele>483</ele>
        <time>2020-10-31 12:01:02</time>
      </trkpt>
      <trkpt lat="41.38361" lon="0.64121">
        <ele>482.8</ele>
        <time>2020-10-31 12:01:04</time>
      </trkpt>
      <trkpt lat="41.38375" lon="0.64125">
        <ele>482.6</ele>
        <time>2020-10-31 12:01:06</time>
      </trkpt>
      <trkpt lat="41.38388" lon="0.64131">
        <ele>482.6</ele>
        <time>2020-10-31 12:01:08</time>
      </trkpt>
      <trkpt lat="41.384" lon="0.64138">
        <ele>482.6</ele>
        <time>2020-10-31 12:01:10</time>
      </trkpt>
      <trkpt lat="41.38418" lon="0.64153">
        <ele>482.4</ele>
        <time>2020-10-31 12:01:13</time>
      </trkpt>
      <trkpt lat="41.38424" lon="0.64159">
        <ele>482.4</ele>
        <time>2020-10-31 12:01:14</time>
      </trkpt>
      <trkpt lat="41.38435" lon="0.64168">
        <ele>482.4</ele>
        <time>2020-10-31 12:01:16</time>
      </trkpt>
      <trkpt lat="41.38455" lon="0.64169">
        <ele>482.4</ele>
        <time>2020-10-31 12:01:19</time>
      </trkpt>
      <trkpt lat="41.38455" lon="0.64169">
        <ele>482.2</ele>
        <time>2020-10-31 12:01:20</time>
      </trkpt>
      <trkpt lat="41.38462" lon="0.64167">
        <ele>482</ele>
        <time>2020-10-31 12:01:21</time>
      </trkpt>
      <trkpt lat="41.38483" lon="0.64154">
        <ele>481.4</ele>
        <time>2020-10-31 12:01:23</time>
      </trkpt>
      <trkpt lat="41.3849" lon="0.6415">
        <ele>481</ele>
        <time>2020-10-31 12:01:24</time>
      </trkpt>
      <trkpt lat="41.38504" lon="0.64144">
        <ele>479.8</ele>
        <time>2020-10-31 12:01:26</time>
      </trkpt>
      <trkpt lat="41.38525" lon="0.64135">
        <ele>478.4</ele>
        <time>2020-10-31 12:01:29</time>
      </trkpt>
      <trkpt lat="41.38532" lon="0.64131">
        <ele>477.8</ele>
        <time>2020-10-31 12:01:30</time>
      </trkpt>
      <trkpt lat="41.38539" lon="0.64127">
        <ele>477.6</ele>
        <time>2020-10-31 12:01:31</time>
      </trkpt>
      <trkpt lat="41.38546" lon="0.64122">
        <ele>477.4</ele>
        <time>2020-10-31 12:01:32</time>
      </trkpt>
      <trkpt lat="41.38571" lon="0.64103">
        <ele>476.6</ele>
        <time>2020-10-31 12:01:36</time>
      </trkpt>
      <trkpt lat="41.38577" lon="0.64098">
        <ele>476.4</ele>
        <time>2020-10-31 12:01:37</time>
      </trkpt>
      <trkpt lat="41.38583" lon="0.64092">
        <ele>476.4</ele>
        <time>2020-10-31 12:01:38</time>
      </trkpt>
      <trkpt lat="41.38593" lon="0.64078">
        <ele>476</ele>
        <time>2020-10-31 12:01:40</time>
      </trkpt>
      <trkpt lat="41.38609" lon="0.64057">
        <ele>475.2</ele>
        <time>2020-10-31 12:01:43</time>
      </trkpt>
      <trkpt lat="41.3863" lon="0.64028">
        <ele>474.4</ele>
        <time>2020-10-31 12:01:47</time>
      </trkpt>
      <trkpt lat="41.38635" lon="0.64019">
        <ele>474</ele>
        <time>2020-10-31 12:01:48</time>
      </trkpt>
      <trkpt lat="41.38649" lon="0.63993">
        <ele>473</ele>
        <time>2020-10-31 12:01:51</time>
      </trkpt>
      <trkpt lat="41.38654" lon="0.63984">
        <ele>472.6</ele>
        <time>2020-10-31 12:01:52</time>
      </trkpt>
      <trkpt lat="41.38663" lon="0.63967">
        <ele>471.8</ele>
        <time>2020-10-31 12:01:54</time>
      </trkpt>
      <trkpt lat="41.38671" lon="0.63951">
        <ele>470.6</ele>
        <time>2020-10-31 12:01:56</time>
      </trkpt>
      <trkpt lat="41.38674" lon="0.63943">
        <ele>470</ele>
        <time>2020-10-31 12:01:57</time>
      </trkpt>
      <trkpt lat="41.38681" lon="0.63926">
        <ele>469</ele>
        <time>2020-10-31 12:01:59</time>
      </trkpt>
      <trkpt lat="41.38692" lon="0.639">
        <ele>468</ele>
        <time>2020-10-31 12:02:02</time>
      </trkpt>
      <trkpt lat="41.387" lon="0.63883">
        <ele>467.6</ele>
        <time>2020-10-31 12:02:04</time>
      </trkpt>
      <trkpt lat="41.38725" lon="0.63846">
        <ele>466.6</ele>
        <time>2020-10-31 12:02:09</time>
      </trkpt>
      <trkpt lat="41.38737" lon="0.63809">
        <ele>465.4</ele>
        <time>2020-10-31 12:02:13</time>
      </trkpt>
      <trkpt lat="41.38738" lon="0.63799">
        <ele>465</ele>
        <time>2020-10-31 12:02:14</time>
      </trkpt>
      <trkpt lat="41.38739" lon="0.63782">
        <ele>464.4</ele>
        <time>2020-10-31 12:02:16</time>
      </trkpt>
      <trkpt lat="41.38737" lon="0.63774">
        <ele>464.2</ele>
        <time>2020-10-31 12:02:17</time>
      </trkpt>
      <trkpt lat="41.38737" lon="0.63759">
        <ele>463.2</ele>
        <time>2020-10-31 12:02:19</time>
      </trkpt>
      <trkpt lat="41.3874" lon="0.63752">
        <ele>462.8</ele>
        <time>2020-10-31 12:02:20</time>
      </trkpt>
      <trkpt lat="41.38748" lon="0.63743">
        <ele>462</ele>
        <time>2020-10-31 12:02:22</time>
      </trkpt>
      <trkpt lat="41.38753" lon="0.63742">
        <ele>462</ele>
        <time>2020-10-31 12:02:23</time>
      </trkpt>
      <trkpt lat="41.38771" lon="0.63746">
        <ele>460.4</ele>
        <time>2020-10-31 12:02:26</time>
      </trkpt>
      <trkpt lat="41.38771" lon="0.63746">
        <ele>460</ele>
        <time>2020-10-31 12:02:27</time>
      </trkpt>
      <trkpt lat="41.38783" lon="0.63754">
        <ele>459.4</ele>
        <time>2020-10-31 12:02:28</time>
      </trkpt>
      <trkpt lat="41.38797" lon="0.63762">
        <ele>458.8</ele>
        <time>2020-10-31 12:02:30</time>
      </trkpt>
      <trkpt lat="41.38812" lon="0.63763">
        <ele>458.4</ele>
        <time>2020-10-31 12:02:32</time>
      </trkpt>
      <trkpt lat="41.3882" lon="0.6376">
        <ele>458.2</ele>
        <time>2020-10-31 12:02:33</time>
      </trkpt>
      <trkpt lat="41.38833" lon="0.6375">
        <ele>457.2</ele>
        <time>2020-10-31 12:02:35</time>
      </trkpt>
      <trkpt lat="41.38839" lon="0.63744">
        <ele>456.6</ele>
        <time>2020-10-31 12:02:36</time>
      </trkpt>
      <trkpt lat="41.38845" lon="0.63739">
        <ele>456</ele>
        <time>2020-10-31 12:02:37</time>
      </trkpt>
      <trkpt lat="41.38857" lon="0.63727">
        <ele>454.4</ele>
        <time>2020-10-31 12:02:39</time>
      </trkpt>
      <trkpt lat="41.38867" lon="0.63714">
        <ele>452.8</ele>
        <time>2020-10-31 12:02:41</time>
      </trkpt>
      <trkpt lat="41.38872" lon="0.63706">
        <ele>452.4</ele>
        <time>2020-10-31 12:02:42</time>
      </trkpt>
      <trkpt lat="41.38883" lon="0.63683">
        <ele>451.8</ele>
        <time>2020-10-31 12:02:45</time>
      </trkpt>
      <trkpt lat="41.38892" lon="0.63669">
        <ele>451.4</ele>
        <time>2020-10-31 12:02:47</time>
      </trkpt>
      <trkpt lat="41.38925" lon="0.63634">
        <ele>451</ele>
        <time>2020-10-31 12:02:53</time>
      </trkpt>
      <trkpt lat="41.38959" lon="0.63595">
        <ele>450.8</ele>
        <time>2020-10-31 12:02:59</time>
      </trkpt>
      <trkpt lat="41.38964" lon="0.63588">
        <ele>450.6</ele>
        <time>2020-10-31 12:03:00</time>
      </trkpt>
      <trkpt lat="41.38974" lon="0.63574">
        <ele>449.6</ele>
        <time>2020-10-31 12:03:02</time>
      </trkpt>
      <trkpt lat="41.38991" lon="0.63555">
        <ele>448.6</ele>
        <time>2020-10-31 12:03:05</time>
      </trkpt>
      <trkpt lat="41.39015" lon="0.63534">
        <ele>447.8</ele>
        <time>2020-10-31 12:03:09</time>
      </trkpt>
      <trkpt lat="41.39025" lon="0.6352">
        <ele>447.6</ele>
        <time>2020-10-31 12:03:11</time>
      </trkpt>
      <trkpt lat="41.39032" lon="0.63503">
        <ele>447.4</ele>
        <time>2020-10-31 12:03:13</time>
      </trkpt>
      <trkpt lat="41.39036" lon="0.63494">
        <ele>447.2</ele>
        <time>2020-10-31 12:03:14</time>
      </trkpt>
      <trkpt lat="41.39039" lon="0.63486">
        <ele>447.2</ele>
        <time>2020-10-31 12:03:15</time>
      </trkpt>
      <trkpt lat="41.39045" lon="0.63469">
        <ele>446.4</ele>
        <time>2020-10-31 12:03:17</time>
      </trkpt>
      <trkpt lat="41.39054" lon="0.63453">
        <ele>445.8</ele>
        <time>2020-10-31 12:03:19</time>
      </trkpt>
      <trkpt lat="41.39059" lon="0.63447">
        <ele>445.4</ele>
        <time>2020-10-31 12:03:20</time>
      </trkpt>
      <trkpt lat="41.39064" lon="0.6344">
        <ele>445.2</ele>
        <time>2020-10-31 12:03:21</time>
      </trkpt>
      <trkpt lat="41.39076" lon="0.63428">
        <ele>444</ele>
        <time>2020-10-31 12:03:23</time>
      </trkpt>
      <trkpt lat="41.39088" lon="0.63417">
        <ele>443.6</ele>
        <time>2020-10-31 12:03:25</time>
      </trkpt>
      <trkpt lat="41.39095" lon="0.63413">
        <ele>443.2</ele>
        <time>2020-10-31 12:03:26</time>
      </trkpt>
      <trkpt lat="41.39102" lon="0.63409">
        <ele>443</ele>
        <time>2020-10-31 12:03:27</time>
      </trkpt>
      <trkpt lat="41.39118" lon="0.63405">
        <ele>442</ele>
        <time>2020-10-31 12:03:29</time>
      </trkpt>
      <trkpt lat="41.39125" lon="0.63402">
        <ele>441.4</ele>
        <time>2020-10-31 12:03:30</time>
      </trkpt>
      <trkpt lat="41.39146" lon="0.63384">
        <ele>440.6</ele>
        <time>2020-10-31 12:03:33</time>
      </trkpt>
      <trkpt lat="41.39153" lon="0.63376">
        <ele>440.4</ele>
        <time>2020-10-31 12:03:34</time>
      </trkpt>
      <trkpt lat="41.39166" lon="0.63363">
        <ele>439.2</ele>
        <time>2020-10-31 12:03:36</time>
      </trkpt>
      <trkpt lat="41.39173" lon="0.63357">
        <ele>438.8</ele>
        <time>2020-10-31 12:03:37</time>
      </trkpt>
      <trkpt lat="41.3918" lon="0.63353">
        <ele>438.4</ele>
        <time>2020-10-31 12:03:38</time>
      </trkpt>
      <trkpt lat="41.39187" lon="0.63349">
        <ele>438</ele>
        <time>2020-10-31 12:03:39</time>
      </trkpt>
      <trkpt lat="41.39201" lon="0.63341">
        <ele>436.8</ele>
        <time>2020-10-31 12:03:41</time>
      </trkpt>
      <trkpt lat="41.39208" lon="0.63337">
        <ele>436</ele>
        <time>2020-10-31 12:03:43</time>
      </trkpt>
      <trkpt lat="41.39223" lon="0.63325">
        <ele>435.8</ele>
        <time>2020-10-31 12:03:44</time>
      </trkpt>
      <trkpt lat="41.39247" lon="0.63309">
        <ele>434.8</ele>
        <time>2020-10-31 12:03:47</time>
      </trkpt>
      <trkpt lat="41.39254" lon="0.63305">
        <ele>434.6</ele>
        <time>2020-10-31 12:03:48</time>
      </trkpt>
      <trkpt lat="41.39279" lon="0.63288">
        <ele>433.4</ele>
        <time>2020-10-31 12:03:52</time>
      </trkpt>
      <trkpt lat="41.39286" lon="0.63284">
        <ele>432.8</ele>
        <time>2020-10-31 12:03:53</time>
      </trkpt>
      <trkpt lat="41.39298" lon="0.63275">
        <ele>432.2</ele>
        <time>2020-10-31 12:03:55</time>
      </trkpt>
      <trkpt lat="41.39344" lon="0.63247">
        <ele>431.6</ele>
        <time>2020-10-31 12:04:02</time>
      </trkpt>
      <trkpt lat="41.39371" lon="0.63218">
        <ele>431.6</ele>
        <time>2020-10-31 12:04:07</time>
      </trkpt>
      <trkpt lat="41.39399" lon="0.63175">
        <ele>431.2</ele>
        <time>2020-10-31 12:04:14</time>
      </trkpt>
      <trkpt lat="41.39404" lon="0.63169">
        <ele>431.2</ele>
        <time>2020-10-31 12:04:15</time>
      </trkpt>
      <trkpt lat="41.39418" lon="0.63152">
        <ele>431</ele>
        <time>2020-10-31 12:04:18</time>
      </trkpt>
      <trkpt lat="41.39429" lon="0.63143">
        <ele>431</ele>
        <time>2020-10-31 12:04:20</time>
      </trkpt>
      <trkpt lat="41.39464" lon="0.63122">
        <ele>430.2</ele>
        <time>2020-10-31 12:04:26</time>
      </trkpt>
      <trkpt lat="41.3947" lon="0.63119">
        <ele>430.2</ele>
        <time>2020-10-31 12:04:27</time>
      </trkpt>
      <trkpt lat="41.39499" lon="0.63105">
        <ele>429.8</ele>
        <time>2020-10-31 12:04:32</time>
      </trkpt>
      <trkpt lat="41.39537" lon="0.63083">
        <ele>429.6</ele>
        <time>2020-10-31 12:04:39</time>
      </trkpt>
      <trkpt lat="41.39543" lon="0.63079">
        <ele>429.6</ele>
        <time>2020-10-31 12:04:40</time>
      </trkpt>
      <trkpt lat="41.39554" lon="0.6307">
        <ele>429.6</ele>
        <time>2020-10-31 12:04:42</time>
      </trkpt>
      <trkpt lat="41.39567" lon="0.63053">
        <ele>429.4</ele>
        <time>2020-10-31 12:04:45</time>
      </trkpt>
      <trkpt lat="41.39579" lon="0.63032">
        <ele>429.2</ele>
        <time>2020-10-31 12:04:48</time>
      </trkpt>
      <trkpt lat="41.39585" lon="0.63018">
        <ele>428.8</ele>
        <time>2020-10-31 12:04:50</time>
      </trkpt>
      <trkpt lat="41.39588" lon="0.6301">
        <ele>428.6</ele>
        <time>2020-10-31 12:04:51</time>
      </trkpt>
      <trkpt lat="41.39592" lon="0.63003">
        <ele>428.4</ele>
        <time>2020-10-31 12:04:52</time>
      </trkpt>
      <trkpt lat="41.39605" lon="0.62984">
        <ele>428</ele>
        <time>2020-10-31 12:04:55</time>
      </trkpt>
      <trkpt lat="41.3961" lon="0.62977">
        <ele>427.8</ele>
        <time>2020-10-31 12:04:56</time>
      </trkpt>
      <trkpt lat="41.39613" lon="0.62969">
        <ele>427.6</ele>
        <time>2020-10-31 12:04:57</time>
      </trkpt>
      <trkpt lat="41.3962" lon="0.62951">
        <ele>427.4</ele>
        <time>2020-10-31 12:04:59</time>
      </trkpt>
      <trkpt lat="41.39629" lon="0.62925">
        <ele>426.6</ele>
        <time>2020-10-31 12:05:02</time>
      </trkpt>
      <trkpt lat="41.39636" lon="0.6291">
        <ele>425.8</ele>
        <time>2020-10-31 12:05:04</time>
      </trkpt>
      <trkpt lat="41.3964" lon="0.62902">
        <ele>425.4</ele>
        <time>2020-10-31 12:05:05</time>
      </trkpt>
      <trkpt lat="41.39666" lon="0.62859">
        <ele>424.4</ele>
        <time>2020-10-31 12:05:11</time>
      </trkpt>
      <trkpt lat="41.39676" lon="0.62847">
        <ele>424.2</ele>
        <time>2020-10-31 12:05:13</time>
      </trkpt>
      <trkpt lat="41.39709" lon="0.62814">
        <ele>423.6</ele>
        <time>2020-10-31 12:05:19</time>
      </trkpt>
      <trkpt lat="41.39719" lon="0.62803">
        <ele>423.2</ele>
        <time>2020-10-31 12:05:21</time>
      </trkpt>
      <trkpt lat="41.39747" lon="0.62776">
        <ele>422.6</ele>
        <time>2020-10-31 12:05:26</time>
      </trkpt>
      <trkpt lat="41.39778" lon="0.62736">
        <ele>422.2</ele>
        <time>2020-10-31 12:05:32</time>
      </trkpt>
      <trkpt lat="41.39789" lon="0.62721">
        <ele>421.2</ele>
        <time>2020-10-31 12:05:34</time>
      </trkpt>
      <trkpt lat="41.39813" lon="0.62689">
        <ele>420</ele>
        <time>2020-10-31 12:05:39</time>
      </trkpt>
      <trkpt lat="41.39824" lon="0.62678">
        <ele>419</ele>
        <time>2020-10-31 12:05:41</time>
      </trkpt>
      <trkpt lat="41.3983" lon="0.62672">
        <ele>418.6</ele>
        <time>2020-10-31 12:05:42</time>
      </trkpt>
      <trkpt lat="41.39842" lon="0.6266">
        <ele>418.2</ele>
        <time>2020-10-31 12:05:44</time>
      </trkpt>
      <trkpt lat="41.3986" lon="0.62643">
        <ele>417.6</ele>
        <time>2020-10-31 12:05:47</time>
      </trkpt>
      <trkpt lat="41.39866" lon="0.6264">
        <ele>417.4</ele>
        <time>2020-10-31 12:05:48</time>
      </trkpt>
      <trkpt lat="41.39886" lon="0.62637">
        <ele>416.8</ele>
        <time>2020-10-31 12:05:51</time>
      </trkpt>
      <trkpt lat="41.39893" lon="0.62637">
        <ele>416.2</ele>
        <time>2020-10-31 12:05:52</time>
      </trkpt>
      <trkpt lat="41.399" lon="0.62636">
        <ele>415.4</ele>
        <time>2020-10-31 12:05:53</time>
      </trkpt>
      <trkpt lat="41.39928" lon="0.62629">
        <ele>414.6</ele>
        <time>2020-10-31 12:05:57</time>
      </trkpt>
      <trkpt lat="41.39935" lon="0.62627">
        <ele>414.4</ele>
        <time>2020-10-31 12:05:58</time>
      </trkpt>
      <trkpt lat="41.39962" lon="0.62616">
        <ele>413.2</ele>
        <time>2020-10-31 12:06:02</time>
      </trkpt>
      <trkpt lat="41.39976" lon="0.6261">
        <ele>412.4</ele>
        <time>2020-10-31 12:06:04</time>
      </trkpt>
      <trkpt lat="41.39989" lon="0.62604">
        <ele>412</ele>
        <time>2020-10-31 12:06:06</time>
      </trkpt>
      <trkpt lat="41.40015" lon="0.62594">
        <ele>410.8</ele>
        <time>2020-10-31 12:06:10</time>
      </trkpt>
      <trkpt lat="41.40034" lon="0.62581">
        <ele>409.6</ele>
        <time>2020-10-31 12:06:13</time>
      </trkpt>
      <trkpt lat="41.40054" lon="0.62569">
        <ele>409.2</ele>
        <time>2020-10-31 12:06:16</time>
      </trkpt>
      <trkpt lat="41.40083" lon="0.62556">
        <ele>408.4</ele>
        <time>2020-10-31 12:06:20</time>
      </trkpt>
      <trkpt lat="41.40091" lon="0.62553">
        <ele>408</ele>
        <time>2020-10-31 12:06:21</time>
      </trkpt>
      <trkpt lat="41.40099" lon="0.6255">
        <ele>407.2</ele>
        <time>2020-10-31 12:06:22</time>
      </trkpt>
      <trkpt lat="41.40114" lon="0.62544">
        <ele>406.4</ele>
        <time>2020-10-31 12:06:24</time>
      </trkpt>
      <trkpt lat="41.40121" lon="0.6254">
        <ele>406</ele>
        <time>2020-10-31 12:06:25</time>
      </trkpt>
      <trkpt lat="41.40128" lon="0.62536">
        <ele>405.8</ele>
        <time>2020-10-31 12:06:26</time>
      </trkpt>
      <trkpt lat="41.40142" lon="0.62535">
        <ele>404.8</ele>
        <time>2020-10-31 12:06:28</time>
      </trkpt>
      <trkpt lat="41.40149" lon="0.62537">
        <ele>404.2</ele>
        <time>2020-10-31 12:06:29</time>
      </trkpt>
      <trkpt lat="41.40162" lon="0.62541">
        <ele>403.2</ele>
        <time>2020-10-31 12:06:31</time>
      </trkpt>
      <trkpt lat="41.40169" lon="0.62543">
        <ele>401.6</ele>
        <time>2020-10-31 12:06:33</time>
      </trkpt>
      <trkpt lat="41.40184" lon="0.62546">
        <ele>400.6</ele>
        <time>2020-10-31 12:06:34</time>
      </trkpt>
      <trkpt lat="41.40191" lon="0.62545">
        <ele>399.8</ele>
        <time>2020-10-31 12:06:35</time>
      </trkpt>
      <trkpt lat="41.40198" lon="0.62543">
        <ele>399.4</ele>
        <time>2020-10-31 12:06:36</time>
      </trkpt>
      <trkpt lat="41.40219" lon="0.62533">
        <ele>398</ele>
        <time>2020-10-31 12:06:39</time>
      </trkpt>
      <trkpt lat="41.40225" lon="0.62529">
        <ele>397.6</ele>
        <time>2020-10-31 12:06:40</time>
      </trkpt>
      <trkpt lat="41.40238" lon="0.6252">
        <ele>396.8</ele>
        <time>2020-10-31 12:06:42</time>
      </trkpt>
      <trkpt lat="41.40265" lon="0.62502">
        <ele>395.6</ele>
        <time>2020-10-31 12:06:46</time>
      </trkpt>
      <trkpt lat="41.40297" lon="0.62476">
        <ele>394.6</ele>
        <time>2020-10-31 12:06:51</time>
      </trkpt>
      <trkpt lat="41.40317" lon="0.62463">
        <ele>393.8</ele>
        <time>2020-10-31 12:06:54</time>
      </trkpt>
      <trkpt lat="41.40324" lon="0.62459">
        <ele>393.6</ele>
        <time>2020-10-31 12:06:55</time>
      </trkpt>
      <trkpt lat="41.40343" lon="0.62445">
        <ele>392.6</ele>
        <time>2020-10-31 12:06:58</time>
      </trkpt>
      <trkpt lat="41.4035" lon="0.62442">
        <ele>392.4</ele>
        <time>2020-10-31 12:06:59</time>
      </trkpt>
      <trkpt lat="41.40357" lon="0.62439">
        <ele>392</ele>
        <time>2020-10-31 12:07:00</time>
      </trkpt>
      <trkpt lat="41.4039" lon="0.62428">
        <ele>391.2</ele>
        <time>2020-10-31 12:07:04</time>
      </trkpt>
      <trkpt lat="41.40406" lon="0.62422">
        <ele>389.8</ele>
        <time>2020-10-31 12:07:06</time>
      </trkpt>
      <trkpt lat="41.40414" lon="0.62418">
        <ele>389</ele>
        <time>2020-10-31 12:07:07</time>
      </trkpt>
      <trkpt lat="41.40422" lon="0.62414">
        <ele>388.2</ele>
        <time>2020-10-31 12:07:08</time>
      </trkpt>
      <trkpt lat="41.40437" lon="0.62402">
        <ele>387</ele>
        <time>2020-10-31 12:07:10</time>
      </trkpt>
      <trkpt lat="41.40444" lon="0.62395">
        <ele>386.2</ele>
        <time>2020-10-31 12:07:11</time>
      </trkpt>
      <trkpt lat="41.40449" lon="0.62388">
        <ele>385.6</ele>
        <time>2020-10-31 12:07:12</time>
      </trkpt>
      <trkpt lat="41.40464" lon="0.62363">
        <ele>384.4</ele>
        <time>2020-10-31 12:07:15</time>
      </trkpt>
      <trkpt lat="41.40473" lon="0.62346">
        <ele>383.4</ele>
        <time>2020-10-31 12:07:17</time>
      </trkpt>
      <trkpt lat="41.40485" lon="0.62322">
        <ele>382.2</ele>
        <time>2020-10-31 12:07:20</time>
      </trkpt>
      <trkpt lat="41.4049" lon="0.62315">
        <ele>381.8</ele>
        <time>2020-10-31 12:07:21</time>
      </trkpt>
      <trkpt lat="41.40508" lon="0.62297">
        <ele>381</ele>
        <time>2020-10-31 12:07:24</time>
      </trkpt>
      <trkpt lat="41.40522" lon="0.62286">
        <ele>380.8</ele>
        <time>2020-10-31 12:07:26</time>
      </trkpt>
      <trkpt lat="41.40548" lon="0.62265">
        <ele>379.8</ele>
        <time>2020-10-31 12:07:30</time>
      </trkpt>
      <trkpt lat="41.40566" lon="0.62248">
        <ele>378.6</ele>
        <time>2020-10-31 12:07:33</time>
      </trkpt>
      <trkpt lat="41.40571" lon="0.62241">
        <ele>378.2</ele>
        <time>2020-10-31 12:07:34</time>
      </trkpt>
      <trkpt lat="41.40581" lon="0.62228">
        <ele>377.4</ele>
        <time>2020-10-31 12:07:36</time>
      </trkpt>
      <trkpt lat="41.4059" lon="0.62213">
        <ele>376.8</ele>
        <time>2020-10-31 12:07:38</time>
      </trkpt>
      <trkpt lat="41.40599" lon="0.62199">
        <ele>376.2</ele>
        <time>2020-10-31 12:07:40</time>
      </trkpt>
      <trkpt lat="41.40609" lon="0.62174">
        <ele>375.8</ele>
        <time>2020-10-31 12:07:43</time>
      </trkpt>
      <trkpt lat="41.40622" lon="0.62143">
        <ele>375.2</ele>
        <time>2020-10-31 12:07:47</time>
      </trkpt>
      <trkpt lat="41.40628" lon="0.62137">
        <ele>375</ele>
        <time>2020-10-31 12:07:48</time>
      </trkpt>
      <trkpt lat="41.40634" lon="0.62131">
        <ele>374.8</ele>
        <time>2020-10-31 12:07:49</time>
      </trkpt>
      <trkpt lat="41.4065" lon="0.62111">
        <ele>374.2</ele>
        <time>2020-10-31 12:07:52</time>
      </trkpt>
      <trkpt lat="41.4066" lon="0.62096">
        <ele>374</ele>
        <time>2020-10-31 12:07:54</time>
      </trkpt>
      <trkpt lat="41.40677" lon="0.62065">
        <ele>372.8</ele>
        <time>2020-10-31 12:07:58</time>
      </trkpt>
      <trkpt lat="41.40682" lon="0.62057">
        <ele>372.2</ele>
        <time>2020-10-31 12:07:59</time>
      </trkpt>
      <trkpt lat="41.40692" lon="0.62045">
        <ele>371.6</ele>
        <time>2020-10-31 12:08:01</time>
      </trkpt>
      <trkpt lat="41.40703" lon="0.62034">
        <ele>371</ele>
        <time>2020-10-31 12:08:03</time>
      </trkpt>
      <trkpt lat="41.40714" lon="0.62021">
        <ele>370.8</ele>
        <time>2020-10-31 12:08:05</time>
      </trkpt>
      <trkpt lat="41.40722" lon="0.62006">
        <ele>370.6</ele>
        <time>2020-10-31 12:08:07</time>
      </trkpt>
      <trkpt lat="41.40741" lon="0.61956">
        <ele>369.8</ele>
        <time>2020-10-31 12:08:13</time>
      </trkpt>
      <trkpt lat="41.40743" lon="0.61948">
        <ele>369.6</ele>
        <time>2020-10-31 12:08:14</time>
      </trkpt>
      <trkpt lat="41.4076" lon="0.61904">
        <ele>368.8</ele>
        <time>2020-10-31 12:08:20</time>
      </trkpt>
      <trkpt lat="41.40762" lon="0.61896">
        <ele>368.6</ele>
        <time>2020-10-31 12:08:21</time>
      </trkpt>
      <trkpt lat="41.40773" lon="0.61851">
        <ele>368.4</ele>
        <time>2020-10-31 12:08:26</time>
      </trkpt>
      <trkpt lat="41.40794" lon="0.61805">
        <ele>367.4</ele>
        <time>2020-10-31 12:08:32</time>
      </trkpt>
      <trkpt lat="41.40809" lon="0.61777">
        <ele>366.2</ele>
        <time>2020-10-31 12:08:36</time>
      </trkpt>
      <trkpt lat="41.40819" lon="0.61755">
        <ele>366</ele>
        <time>2020-10-31 12:08:39</time>
      </trkpt>
      <trkpt lat="41.40839" lon="0.61712">
        <ele>365.6</ele>
        <time>2020-10-31 12:08:44</time>
      </trkpt>
      <trkpt lat="41.40842" lon="0.61702">
        <ele>365.4</ele>
        <time>2020-10-31 12:08:45</time>
      </trkpt>
      <trkpt lat="41.40847" lon="0.61681">
        <ele>365.2</ele>
        <time>2020-10-31 12:08:47</time>
      </trkpt>
      <trkpt lat="41.40849" lon="0.6167">
        <ele>365</ele>
        <time>2020-10-31 12:08:48</time>
      </trkpt>
      <trkpt lat="41.40852" lon="0.61649">
        <ele>364</ele>
        <time>2020-10-31 12:08:50</time>
      </trkpt>
      <trkpt lat="41.40855" lon="0.61628">
        <ele>362.4</ele>
        <time>2020-10-31 12:08:52</time>
      </trkpt>
      <trkpt lat="41.4086" lon="0.61596">
        <ele>361</ele>
        <time>2020-10-31 12:08:55</time>
      </trkpt>
      <trkpt lat="41.40861" lon="0.61586">
        <ele>360.6</ele>
        <time>2020-10-31 12:08:56</time>
      </trkpt>
      <trkpt lat="41.40864" lon="0.61566">
        <ele>359.4</ele>
        <time>2020-10-31 12:08:58</time>
      </trkpt>
      <trkpt lat="41.40869" lon="0.61537">
        <ele>358.4</ele>
        <time>2020-10-31 12:09:01</time>
      </trkpt>
      <trkpt lat="41.40871" lon="0.61528">
        <ele>358.2</ele>
        <time>2020-10-31 12:09:02</time>
      </trkpt>
      <trkpt lat="41.40874" lon="0.61519">
        <ele>358</ele>
        <time>2020-10-31 12:09:03</time>
      </trkpt>
      <trkpt lat="41.40888" lon="0.61486">
        <ele>357.2</ele>
        <time>2020-10-31 12:09:07</time>
      </trkpt>
      <trkpt lat="41.40895" lon="0.6147">
        <ele>357.2</ele>
        <time>2020-10-31 12:09:09</time>
      </trkpt>
      <trkpt lat="41.40912" lon="0.61442">
        <ele>357</ele>
        <time>2020-10-31 12:09:13</time>
      </trkpt>
      <trkpt lat="41.40917" lon="0.61436">
        <ele>356.8</ele>
        <time>2020-10-31 12:09:14</time>
      </trkpt>
      <trkpt lat="41.40943" lon="0.61402">
        <ele>356.4</ele>
        <time>2020-10-31 12:09:19</time>
      </trkpt>
      <trkpt lat="41.40958" lon="0.61378">
        <ele>356.2</ele>
        <time>2020-10-31 12:09:22</time>
      </trkpt>
      <trkpt lat="41.40972" lon="0.6135">
        <ele>355</ele>
        <time>2020-10-31 12:09:25</time>
      </trkpt>
      <trkpt lat="41.40985" lon="0.61322">
        <ele>353.8</ele>
        <time>2020-10-31 12:09:28</time>
      </trkpt>
      <trkpt lat="41.40995" lon="0.61304">
        <ele>352.6</ele>
        <time>2020-10-31 12:09:30</time>
      </trkpt>
      <trkpt lat="41.41006" lon="0.61286">
        <ele>351.6</ele>
        <time>2020-10-31 12:09:32</time>
      </trkpt>
      <trkpt lat="41.41017" lon="0.61268">
        <ele>350</ele>
        <time>2020-10-31 12:09:34</time>
      </trkpt>
      <trkpt lat="41.41023" lon="0.61258">
        <ele>349</ele>
        <time>2020-10-31 12:09:35</time>
      </trkpt>
      <trkpt lat="41.41034" lon="0.61238">
        <ele>347.8</ele>
        <time>2020-10-31 12:09:37</time>
      </trkpt>
      <trkpt lat="41.4104" lon="0.61229">
        <ele>347.4</ele>
        <time>2020-10-31 12:09:38</time>
      </trkpt>
      <trkpt lat="41.41052" lon="0.61209">
        <ele>346.8</ele>
        <time>2020-10-31 12:09:40</time>
      </trkpt>
      <trkpt lat="41.41058" lon="0.61199">
        <ele>345.6</ele>
        <time>2020-10-31 12:09:41</time>
      </trkpt>
      <trkpt lat="41.4107" lon="0.6118">
        <ele>344</ele>
        <time>2020-10-31 12:09:43</time>
      </trkpt>
      <trkpt lat="41.41076" lon="0.61171">
        <ele>343.4</ele>
        <time>2020-10-31 12:09:44</time>
      </trkpt>
      <trkpt lat="41.41082" lon="0.61162">
        <ele>342.8</ele>
        <time>2020-10-31 12:09:45</time>
      </trkpt>
      <trkpt lat="41.411" lon="0.61138">
        <ele>341.4</ele>
        <time>2020-10-31 12:09:48</time>
      </trkpt>
      <trkpt lat="41.41117" lon="0.61113">
        <ele>339.8</ele>
        <time>2020-10-31 12:09:51</time>
      </trkpt>
      <trkpt lat="41.41126" lon="0.61096">
        <ele>338.8</ele>
        <time>2020-10-31 12:09:53</time>
      </trkpt>
      <trkpt lat="41.4113" lon="0.61087">
        <ele>338.4</ele>
        <time>2020-10-31 12:09:54</time>
      </trkpt>
      <trkpt lat="41.41132" lon="0.61079">
        <ele>338</ele>
        <time>2020-10-31 12:09:55</time>
      </trkpt>
      <trkpt lat="41.41135" lon="0.6107">
        <ele>337.6</ele>
        <time>2020-10-31 12:09:56</time>
      </trkpt>
      <trkpt lat="41.41148" lon="0.61035">
        <ele>336.6</ele>
        <time>2020-10-31 12:10:00</time>
      </trkpt>
      <trkpt lat="41.41165" lon="0.60985">
        <ele>335.8</ele>
        <time>2020-10-31 12:10:06</time>
      </trkpt>
      <trkpt lat="41.41168" lon="0.60977">
        <ele>335.2</ele>
        <time>2020-10-31 12:10:07</time>
      </trkpt>
      <trkpt lat="41.41185" lon="0.60944">
        <ele>334.2</ele>
        <time>2020-10-31 12:10:11</time>
      </trkpt>
      <trkpt lat="41.41189" lon="0.60935">
        <ele>334</ele>
        <time>2020-10-31 12:10:12</time>
      </trkpt>
      <trkpt lat="41.41197" lon="0.60915">
        <ele>333.8</ele>
        <time>2020-10-31 12:10:14</time>
      </trkpt>
      <trkpt lat="41.41202" lon="0.60907">
        <ele>333.4</ele>
        <time>2020-10-31 12:10:15</time>
      </trkpt>
      <trkpt lat="41.41212" lon="0.60891">
        <ele>333</ele>
        <time>2020-10-31 12:10:17</time>
      </trkpt>
      <trkpt lat="41.4122" lon="0.60875">
        <ele>331.8</ele>
        <time>2020-10-31 12:10:19</time>
      </trkpt>
      <trkpt lat="41.41223" lon="0.60866">
        <ele>331.2</ele>
        <time>2020-10-31 12:10:20</time>
      </trkpt>
      <trkpt lat="41.41227" lon="0.60858">
        <ele>330.8</ele>
        <time>2020-10-31 12:10:21</time>
      </trkpt>
      <trkpt lat="41.41232" lon="0.60849">
        <ele>330.2</ele>
        <time>2020-10-31 12:10:22</time>
      </trkpt>
      <trkpt lat="41.41243" lon="0.60836">
        <ele>329.2</ele>
        <time>2020-10-31 12:10:24</time>
      </trkpt>
      <trkpt lat="41.41267" lon="0.60824">
        <ele>328.4</ele>
        <time>2020-10-31 12:10:27</time>
      </trkpt>
      <trkpt lat="41.41275" lon="0.6082">
        <ele>328.2</ele>
        <time>2020-10-31 12:10:28</time>
      </trkpt>
      <trkpt lat="41.41283" lon="0.60817">
        <ele>327.8</ele>
        <time>2020-10-31 12:10:29</time>
      </trkpt>
      <trkpt lat="41.41298" lon="0.60814">
        <ele>326.6</ele>
        <time>2020-10-31 12:10:31</time>
      </trkpt>
      <trkpt lat="41.41305" lon="0.60814">
        <ele>325.4</ele>
        <time>2020-10-31 12:10:32</time>
      </trkpt>
      <trkpt lat="41.41318" lon="0.60819">
        <ele>323.6</ele>
        <time>2020-10-31 12:10:34</time>
      </trkpt>
      <trkpt lat="41.41324" lon="0.60821">
        <ele>323</ele>
        <time>2020-10-31 12:10:35</time>
      </trkpt>
      <trkpt lat="41.41329" lon="0.60821">
        <ele>322</ele>
        <time>2020-10-31 12:10:36</time>
      </trkpt>
      <trkpt lat="41.41338" lon="0.60815">
        <ele>320.8</ele>
        <time>2020-10-31 12:10:38</time>
      </trkpt>
      <trkpt lat="41.41341" lon="0.60809">
        <ele>320.2</ele>
        <time>2020-10-31 12:10:39</time>
      </trkpt>
      <trkpt lat="41.41343" lon="0.60794">
        <ele>319.6</ele>
        <time>2020-10-31 12:10:41</time>
      </trkpt>
      <trkpt lat="41.41345" lon="0.60785">
        <ele>319.4</ele>
        <time>2020-10-31 12:10:42</time>
      </trkpt>
      <trkpt lat="41.4135" lon="0.60767">
        <ele>318.4</ele>
        <time>2020-10-31 12:10:44</time>
      </trkpt>
      <trkpt lat="41.41358" lon="0.6075">
        <ele>318</ele>
        <time>2020-10-31 12:10:46</time>
      </trkpt>
      <trkpt lat="41.41363" lon="0.60742">
        <ele>317.6</ele>
        <time>2020-10-31 12:10:47</time>
      </trkpt>
      <trkpt lat="41.41368" lon="0.60735">
        <ele>317.4</ele>
        <time>2020-10-31 12:10:48</time>
      </trkpt>
      <trkpt lat="41.41381" lon="0.6072">
        <ele>316.4</ele>
        <time>2020-10-31 12:10:50</time>
      </trkpt>
      <trkpt lat="41.41388" lon="0.60713">
        <ele>315.8</ele>
        <time>2020-10-31 12:10:51</time>
      </trkpt>
      <trkpt lat="41.41402" lon="0.607">
        <ele>314.6</ele>
        <time>2020-10-31 12:10:53</time>
      </trkpt>
      <trkpt lat="41.41408" lon="0.60692">
        <ele>314.2</ele>
        <time>2020-10-31 12:10:54</time>
      </trkpt>
      <trkpt lat="41.41414" lon="0.60685">
        <ele>313.8</ele>
        <time>2020-10-31 12:10:55</time>
      </trkpt>
      <trkpt lat="41.4142" lon="0.60679">
        <ele>313.2</ele>
        <time>2020-10-31 12:10:56</time>
      </trkpt>
      <trkpt lat="41.41433" lon="0.60668">
        <ele>311.6</ele>
        <time>2020-10-31 12:10:58</time>
      </trkpt>
      <trkpt lat="41.41445" lon="0.60657">
        <ele>310.4</ele>
        <time>2020-10-31 12:11:00</time>
      </trkpt>
      <trkpt lat="41.41463" lon="0.6064">
        <ele>309.6</ele>
        <time>2020-10-31 12:11:03</time>
      </trkpt>
      <trkpt lat="41.41469" lon="0.60635">
        <ele>309.2</ele>
        <time>2020-10-31 12:11:04</time>
      </trkpt>
      <trkpt lat="41.41477" lon="0.6063">
        <ele>309</ele>
        <time>2020-10-31 12:11:05</time>
      </trkpt>
      <trkpt lat="41.41509" lon="0.60615">
        <ele>308</ele>
        <time>2020-10-31 12:11:09</time>
      </trkpt>
      <trkpt lat="41.41529" lon="0.60602">
        <ele>307</ele>
        <time>2020-10-31 12:11:12</time>
      </trkpt>
      <trkpt lat="41.41541" lon="0.60593">
        <ele>305</ele>
        <time>2020-10-31 12:11:14</time>
      </trkpt>
      <trkpt lat="41.41547" lon="0.60587">
        <ele>304</ele>
        <time>2020-10-31 12:11:15</time>
      </trkpt>
      <trkpt lat="41.41554" lon="0.60581">
        <ele>302.8</ele>
        <time>2020-10-31 12:11:16</time>
      </trkpt>
      <trkpt lat="41.41568" lon="0.60566">
        <ele>301.4</ele>
        <time>2020-10-31 12:11:18</time>
      </trkpt>
      <trkpt lat="41.41587" lon="0.60539">
        <ele>300.4</ele>
        <time>2020-10-31 12:11:21</time>
      </trkpt>
      <trkpt lat="41.41598" lon="0.60521">
        <ele>299.6</ele>
        <time>2020-10-31 12:11:23</time>
      </trkpt>
      <trkpt lat="41.41603" lon="0.60513">
        <ele>298.8</ele>
        <time>2020-10-31 12:11:24</time>
      </trkpt>
      <trkpt lat="41.41607" lon="0.60505">
        <ele>297.4</ele>
        <time>2020-10-31 12:11:25</time>
      </trkpt>
      <trkpt lat="41.41611" lon="0.60498">
        <ele>296</ele>
        <time>2020-10-31 12:11:26</time>
      </trkpt>
      <trkpt lat="41.41614" lon="0.60491">
        <ele>295</ele>
        <time>2020-10-31 12:11:27</time>
      </trkpt>
      <trkpt lat="41.41618" lon="0.60476">
        <ele>293.8</ele>
        <time>2020-10-31 12:11:29</time>
      </trkpt>
      <trkpt lat="41.41618" lon="0.60468">
        <ele>293.2</ele>
        <time>2020-10-31 12:11:30</time>
      </trkpt>
      <trkpt lat="41.41618" lon="0.60461">
        <ele>292.8</ele>
        <time>2020-10-31 12:11:31</time>
      </trkpt>
      <trkpt lat="41.41615" lon="0.60447">
        <ele>292.8</ele>
        <time>2020-10-31 12:11:33</time>
      </trkpt>
      <trkpt lat="41.41608" lon="0.60421">
        <ele>292.6</ele>
        <time>2020-10-31 12:11:37</time>
      </trkpt>
      <trkpt lat="41.41603" lon="0.60411">
        <ele>292.4</ele>
        <time>2020-10-31 12:11:39</time>
      </trkpt>
      <trkpt lat="41.41596" lon="0.60402">
        <ele>292.2</ele>
        <time>2020-10-31 12:11:41</time>
      </trkpt>
      <trkpt lat="41.41582" lon="0.60392">
        <ele>291.8</ele>
        <time>2020-10-31 12:11:44</time>
      </trkpt>
      <trkpt lat="41.41577" lon="0.6039">
        <ele>291.4</ele>
        <time>2020-10-31 12:11:45</time>
      </trkpt>
      <trkpt lat="41.41571" lon="0.60389">
        <ele>291</ele>
        <time>2020-10-31 12:11:46</time>
      </trkpt>
      <trkpt lat="41.41566" lon="0.60388">
        <ele>290.2</ele>
        <time>2020-10-31 12:11:47</time>
      </trkpt>
      <trkpt lat="41.41555" lon="0.60392">
        <ele>289.2</ele>
        <time>2020-10-31 12:11:49</time>
      </trkpt>
      <trkpt lat="41.4155" lon="0.60394">
        <ele>288.8</ele>
        <time>2020-10-31 12:11:50</time>
      </trkpt>
      <trkpt lat="41.4154" lon="0.60399">
        <ele>287.8</ele>
        <time>2020-10-31 12:11:52</time>
      </trkpt>
      <trkpt lat="41.41531" lon="0.60402">
        <ele>286.6</ele>
        <time>2020-10-31 12:11:54</time>
      </trkpt>
      <trkpt lat="41.41528" lon="0.60401">
        <ele>286.2</ele>
        <time>2020-10-31 12:11:55</time>
      </trkpt>
      <trkpt lat="41.41525" lon="0.6039">
        <ele>285.6</ele>
        <time>2020-10-31 12:11:58</time>
      </trkpt>
      <trkpt lat="41.41534" lon="0.60385">
        <ele>285.2</ele>
        <time>2020-10-31 12:12:01</time>
      </trkpt>
      <trkpt lat="41.41539" lon="0.60385">
        <ele>285.2</ele>
        <time>2020-10-31 12:12:02</time>
      </trkpt>
      <trkpt lat="41.41544" lon="0.60384">
        <ele>285.2</ele>
        <time>2020-10-31 12:12:03</time>
      </trkpt>
      <trkpt lat="41.41553" lon="0.60379">
        <ele>285</ele>
        <time>2020-10-31 12:12:05</time>
      </trkpt>
      <trkpt lat="41.41579" lon="0.60369">
        <ele>284.2</ele>
        <time>2020-10-31 12:12:10</time>
      </trkpt>
      <trkpt lat="41.41599" lon="0.60354">
        <ele>282.8</ele>
        <time>2020-10-31 12:12:13</time>
      </trkpt>
      <trkpt lat="41.41606" lon="0.60347">
        <ele>282.8</ele>
        <time>2020-10-31 12:12:14</time>
      </trkpt>
      <trkpt lat="41.41618" lon="0.60335">
        <ele>282</ele>
        <time>2020-10-31 12:12:16</time>
      </trkpt>
      <trkpt lat="41.41622" lon="0.60329">
        <ele>281.6</ele>
        <time>2020-10-31 12:12:17</time>
      </trkpt>
      <trkpt lat="41.41632" lon="0.60313">
        <ele>279.6</ele>
        <time>2020-10-31 12:12:20</time>
      </trkpt>
      <trkpt lat="41.4164" lon="0.60305">
        <ele>278</ele>
        <time>2020-10-31 12:12:22</time>
      </trkpt>
      <trkpt lat="41.4165" lon="0.60305">
        <ele>276.8</ele>
        <time>2020-10-31 12:12:24</time>
      </trkpt>
      <trkpt lat="41.41654" lon="0.60308">
        <ele>276.4</ele>
        <time>2020-10-31 12:12:25</time>
      </trkpt>
      <trkpt lat="41.41661" lon="0.60318">
        <ele>275.6</ele>
        <time>2020-10-31 12:12:27</time>
      </trkpt>
      <trkpt lat="41.41663" lon="0.60325">
        <ele>275</ele>
        <time>2020-10-31 12:12:28</time>
      </trkpt>
      <trkpt lat="41.41666" lon="0.60331">
        <ele>274.4</ele>
        <time>2020-10-31 12:12:29</time>
      </trkpt>
      <trkpt lat="41.41671" lon="0.60344">
        <ele>273.2</ele>
        <time>2020-10-31 12:12:31</time>
      </trkpt>
      <trkpt lat="41.41682" lon="0.60358">
        <ele>272.4</ele>
        <time>2020-10-31 12:12:34</time>
      </trkpt>
      <trkpt lat="41.41691" lon="0.6036">
        <ele>272.2</ele>
        <time>2020-10-31 12:12:36</time>
      </trkpt>
      <trkpt lat="41.41695" lon="0.60358">
        <ele>272</ele>
        <time>2020-10-31 12:12:37</time>
      </trkpt>
      <trkpt lat="41.41703" lon="0.60338">
        <ele>271.6</ele>
        <time>2020-10-31 12:12:40</time>
      </trkpt>
      <trkpt lat="41.41712" lon="0.60306">
        <ele>271</ele>
        <time>2020-10-31 12:12:44</time>
      </trkpt>
      <trkpt lat="41.41715" lon="0.603">
        <ele>271</ele>
        <time>2020-10-31 12:12:45</time>
      </trkpt>
      <trkpt lat="41.41729" lon="0.60298">
        <ele>270.4</ele>
        <time>2020-10-31 12:12:48</time>
      </trkpt>
      <trkpt lat="41.41733" lon="0.60301">
        <ele>270</ele>
        <time>2020-10-31 12:12:49</time>
      </trkpt>
      <trkpt lat="41.41738" lon="0.60305">
        <ele>269.4</ele>
        <time>2020-10-31 12:12:50</time>
      </trkpt>
      <trkpt lat="41.41743" lon="0.60309">
        <ele>268.8</ele>
        <time>2020-10-31 12:12:51</time>
      </trkpt>
      <trkpt lat="41.41752" lon="0.60317">
        <ele>267.6</ele>
        <time>2020-10-31 12:12:53</time>
      </trkpt>
      <trkpt lat="41.41761" lon="0.60326">
        <ele>266.2</ele>
        <time>2020-10-31 12:12:55</time>
      </trkpt>
      <trkpt lat="41.41789" lon="0.6035">
        <ele>265.2</ele>
        <time>2020-10-31 12:13:01</time>
      </trkpt>
      <trkpt lat="41.41833" lon="0.60386">
        <ele>265</ele>
        <time>2020-10-31 12:13:10</time>
      </trkpt>
      <trkpt lat="41.41853" lon="0.604">
        <ele>265</ele>
        <time>2020-10-31 12:13:14</time>
      </trkpt>
      <trkpt lat="41.41864" lon="0.60401">
        <ele>265</ele>
        <time>2020-10-31 12:13:16</time>
      </trkpt>
      <trkpt lat="41.41877" lon="0.60392">
        <ele>265</ele>
        <time>2020-10-31 12:13:19</time>
      </trkpt>
      <trkpt lat="41.41881" lon="0.60388">
        <ele>265</ele>
        <time>2020-10-31 12:13:20</time>
      </trkpt>
      <trkpt lat="41.41892" lon="0.60374">
        <ele>265.2</ele>
        <time>2020-10-31 12:13:23</time>
      </trkpt>
      <trkpt lat="41.41901" lon="0.60369">
        <ele>265.4</ele>
        <time>2020-10-31 12:13:25</time>
      </trkpt>
      <trkpt lat="41.41917" lon="0.6037">
        <ele>266</ele>
        <time>2020-10-31 12:13:29</time>
      </trkpt>
      <trkpt lat="41.41925" lon="0.60373">
        <ele>266.4</ele>
        <time>2020-10-31 12:13:31</time>
      </trkpt>
      <trkpt lat="41.41939" lon="0.6037">
        <ele>267</ele>
        <time>2020-10-31 12:13:34</time>
      </trkpt>
      <trkpt lat="41.41948" lon="0.60365">
        <ele>267.4</ele>
        <time>2020-10-31 12:13:36</time>
      </trkpt>
      <trkpt lat="41.41955" lon="0.60357">
        <ele>267.8</ele>
        <time>2020-10-31 12:13:38</time>
      </trkpt>
      <trkpt lat="41.41959" lon="0.60349">
        <ele>268</ele>
        <time>2020-10-31 12:13:40</time>
      </trkpt>
      <trkpt lat="41.4197" lon="0.60336">
        <ele>268.4</ele>
        <time>2020-10-31 12:13:44</time>
      </trkpt>
      <trkpt lat="41.41977" lon="0.6033">
        <ele>268.6</ele>
        <time>2020-10-31 12:13:46</time>
      </trkpt>
      <trkpt lat="41.41983" lon="0.60322">
        <ele>269.6</ele>
        <time>2020-10-31 12:13:48</time>
      </trkpt>
      <trkpt lat="41.41986" lon="0.60317">
        <ele>269.8</ele>
        <time>2020-10-31 12:13:49</time>
      </trkpt>
      <trkpt lat="41.4199" lon="0.60308">
        <ele>270.2</ele>
        <time>2020-10-31 12:13:51</time>
      </trkpt>
      <trkpt lat="41.41992" lon="0.60303">
        <ele>270.2</ele>
        <time>2020-10-31 12:13:52</time>
      </trkpt>
      <trkpt lat="41.41999" lon="0.60288">
        <ele>270.6</ele>
        <time>2020-10-31 12:13:55</time>
      </trkpt>
      <trkpt lat="41.42013" lon="0.60259">
        <ele>271.6</ele>
        <time>2020-10-31 12:14:01</time>
      </trkpt>
      <trkpt lat="41.4202" lon="0.60244">
        <ele>272.2</ele>
        <time>2020-10-31 12:14:04</time>
      </trkpt>
      <trkpt lat="41.42024" lon="0.60217">
        <ele>272.4</ele>
        <time>2020-10-31 12:14:09</time>
      </trkpt>
      <trkpt lat="41.42025" lon="0.60211">
        <ele>272.6</ele>
        <time>2020-10-31 12:14:10</time>
      </trkpt>
      <trkpt lat="41.42027" lon="0.6019">
        <ele>272.6</ele>
        <time>2020-10-31 12:14:14</time>
      </trkpt>
      <trkpt lat="41.42026" lon="0.60186">
        <ele>272.6</ele>
        <time>2020-10-31 12:14:15</time>
      </trkpt>
      <trkpt lat="41.42025" lon="0.60166">
        <ele>273</ele>
        <time>2020-10-31 12:14:20</time>
      </trkpt>
      <trkpt lat="41.42032" lon="0.60156">
        <ele>274</ele>
        <time>2020-10-31 12:14:23</time>
      </trkpt>
      <trkpt lat="41.42035" lon="0.60153">
        <ele>274</ele>
        <time>2020-10-31 12:14:24</time>
      </trkpt>
      <trkpt lat="41.42068" lon="0.6013">
        <ele>274.2</ele>
        <time>2020-10-31 12:14:33</time>
      </trkpt>
      <trkpt lat="41.42088" lon="0.60133">
        <ele>274.2</ele>
        <time>2020-10-31 12:14:38</time>
      </trkpt>
      <trkpt lat="41.42095" lon="0.60137">
        <ele>274.2</ele>
        <time>2020-10-31 12:14:40</time>
      </trkpt>
      <trkpt lat="41.42103" lon="0.60139">
        <ele>274.2</ele>
        <time>2020-10-31 12:14:42</time>
      </trkpt>
      <trkpt lat="41.42107" lon="0.60139">
        <ele>274.2</ele>
        <time>2020-10-31 12:14:43</time>
      </trkpt>
      <trkpt lat="41.42121" lon="0.60133">
        <ele>274.6</ele>
        <time>2020-10-31 12:14:46</time>
      </trkpt>
      <trkpt lat="41.42126" lon="0.6013">
        <ele>274.6</ele>
        <time>2020-10-31 12:14:47</time>
      </trkpt>
      <trkpt lat="41.42131" lon="0.60127">
        <ele>274.6</ele>
        <time>2020-10-31 12:14:48</time>
      </trkpt>
      <trkpt lat="41.42146" lon="0.60128">
        <ele>274.6</ele>
        <time>2020-10-31 12:14:51</time>
      </trkpt>
      <trkpt lat="41.4216" lon="0.60144">
        <ele>274.6</ele>
        <time>2020-10-31 12:14:54</time>
      </trkpt>
      <trkpt lat="41.4219" lon="0.60185">
        <ele>273.2</ele>
        <time>2020-10-31 12:15:00</time>
      </trkpt>
      <trkpt lat="41.42196" lon="0.60192">
        <ele>272.8</ele>
        <time>2020-10-31 12:15:01</time>
      </trkpt>
      <trkpt lat="41.42215" lon="0.60211">
        <ele>271.6</ele>
        <time>2020-10-31 12:15:04</time>
      </trkpt>
      <trkpt lat="41.42222" lon="0.60216">
        <ele>271</ele>
        <time>2020-10-31 12:15:05</time>
      </trkpt>
      <trkpt lat="41.4223" lon="0.6022">
        <ele>270.6</ele>
        <time>2020-10-31 12:15:06</time>
      </trkpt>
      <trkpt lat="41.42254" lon="0.60232">
        <ele>269.2</ele>
        <time>2020-10-31 12:15:09</time>
      </trkpt>
      <trkpt lat="41.42262" lon="0.60236">
        <ele>268.8</ele>
        <time>2020-10-31 12:15:10</time>
      </trkpt>
      <trkpt lat="41.42278" lon="0.60243">
        <ele>268</ele>
        <time>2020-10-31 12:15:12</time>
      </trkpt>
      <trkpt lat="41.423" lon="0.60253">
        <ele>266.6</ele>
        <time>2020-10-31 12:15:15</time>
      </trkpt>
      <trkpt lat="41.42314" lon="0.60259">
        <ele>265.4</ele>
        <time>2020-10-31 12:15:17</time>
      </trkpt>
      <trkpt lat="41.42326" lon="0.60266">
        <ele>264.4</ele>
        <time>2020-10-31 12:15:19</time>
      </trkpt>
      <trkpt lat="41.42336" lon="0.6027">
        <ele>263.6</ele>
        <time>2020-10-31 12:15:21</time>
      </trkpt>
      <trkpt lat="41.4234" lon="0.6027">
        <ele>263.6</ele>
        <time>2020-10-31 12:15:22</time>
      </trkpt>
      <trkpt lat="41.42349" lon="0.60255">
        <ele>263.4</ele>
        <time>2020-10-31 12:15:26</time>
      </trkpt>
      <trkpt lat="41.42363" lon="0.60221">
        <ele>263.4</ele>
        <time>2020-10-31 12:15:31</time>
      </trkpt>
      <trkpt lat="41.42366" lon="0.60213">
        <ele>263.4</ele>
        <time>2020-10-31 12:15:32</time>
      </trkpt>
      <trkpt lat="41.42388" lon="0.60179">
        <ele>262.8</ele>
        <time>2020-10-31 12:15:37</time>
      </trkpt>
      <trkpt lat="41.42398" lon="0.60167">
        <ele>262.2</ele>
        <time>2020-10-31 12:15:39</time>
      </trkpt>
      <trkpt lat="41.42419" lon="0.60142">
        <ele>261.2</ele>
        <time>2020-10-31 12:15:43</time>
      </trkpt>
      <trkpt lat="41.42424" lon="0.60136">
        <ele>261</ele>
        <time>2020-10-31 12:15:44</time>
      </trkpt>
      <trkpt lat="41.42446" lon="0.60097">
        <ele>260.8</ele>
        <time>2020-10-31 12:15:50</time>
      </trkpt>
      <trkpt lat="41.42459" lon="0.60064">
        <ele>262.2</ele>
        <time>2020-10-31 12:15:56</time>
      </trkpt>
      <trkpt lat="41.42464" lon="0.60053">
        <ele>263.4</ele>
        <time>2020-10-31 12:15:59</time>
      </trkpt>
      <trkpt lat="41.42466" lon="0.6005">
        <ele>263.8</ele>
        <time>2020-10-31 12:16:00</time>
      </trkpt>
      <trkpt lat="41.4247" lon="0.60049">
        <ele>264.4</ele>
        <time>2020-10-31 12:16:02</time>
      </trkpt>
      <trkpt lat="41.4247" lon="0.6005">
        <ele>264.8</ele>
        <time>2020-10-31 12:16:03</time>
      </trkpt>
      <trkpt lat="41.4247" lon="0.60057">
        <ele>266</ele>
        <time>2020-10-31 12:16:05</time>
      </trkpt>
      <trkpt lat="41.42469" lon="0.60061">
        <ele>266.4</ele>
        <time>2020-10-31 12:16:06</time>
      </trkpt>
      <trkpt lat="41.42467" lon="0.60071">
        <ele>267.2</ele>
        <time>2020-10-31 12:16:08</time>
      </trkpt>
      <trkpt lat="41.42463" lon="0.60086">
        <ele>268.2</ele>
        <time>2020-10-31 12:16:11</time>
      </trkpt>
      <trkpt lat="41.42459" lon="0.60102">
        <ele>268.6</ele>
        <time>2020-10-31 12:16:14</time>
      </trkpt>
      <trkpt lat="41.42459" lon="0.60107">
        <ele>268.6</ele>
        <time>2020-10-31 12:16:15</time>
      </trkpt>
      <trkpt lat="41.42465" lon="0.60122">
        <ele>268.8</ele>
        <time>2020-10-31 12:16:18</time>
      </trkpt>
      <trkpt lat="41.42479" lon="0.60138">
        <ele>268.8</ele>
        <time>2020-10-31 12:16:22</time>
      </trkpt>
      <trkpt lat="41.42479" lon="0.60161">
        <ele>268.8</ele>
        <time>2020-10-31 12:16:25</time>
      </trkpt>
      <trkpt lat="41.42477" lon="0.6017">
        <ele>268.8</ele>
        <time>2020-10-31 12:16:26</time>
      </trkpt>
      <trkpt lat="41.42474" lon="0.60194">
        <ele>268.8</ele>
        <time>2020-10-31 12:16:29</time>
      </trkpt>
      <trkpt lat="41.42473" lon="0.60211">
        <ele>268.4</ele>
        <time>2020-10-31 12:16:31</time>
      </trkpt>
      <trkpt lat="41.42477" lon="0.60251">
        <ele>267.2</ele>
        <time>2020-10-31 12:16:36</time>
      </trkpt>
      <trkpt lat="41.4248" lon="0.60266">
        <ele>267</ele>
        <time>2020-10-31 12:16:38</time>
      </trkpt>
      <trkpt lat="41.42493" lon="0.60329">
        <ele>267</ele>
        <time>2020-10-31 12:16:46</time>
      </trkpt>
      <trkpt lat="41.42496" lon="0.60358">
        <ele>267</ele>
        <time>2020-10-31 12:16:50</time>
      </trkpt>
      <trkpt lat="41.42496" lon="0.60365">
        <ele>267</ele>
        <time>2020-10-31 12:16:51</time>
      </trkpt>
      <trkpt lat="41.42493" lon="0.60401">
        <ele>267.6</ele>
        <time>2020-10-31 12:16:57</time>
      </trkpt>
      <trkpt lat="41.42491" lon="0.60411">
        <ele>268.2</ele>
        <time>2020-10-31 12:16:59</time>
      </trkpt>
      <trkpt lat="41.4249" lon="0.60423">
        <ele>269</ele>
        <time>2020-10-31 12:17:01</time>
      </trkpt>
      <trkpt lat="41.42489" lon="0.60429">
        <ele>269.4</ele>
        <time>2020-10-31 12:17:02</time>
      </trkpt>
      <trkpt lat="41.42489" lon="0.60436">
        <ele>269.8</ele>
        <time>2020-10-31 12:17:03</time>
      </trkpt>
      <trkpt lat="41.42489" lon="0.6045">
        <ele>270.6</ele>
        <time>2020-10-31 12:17:05</time>
      </trkpt>
      <trkpt lat="41.42487" lon="0.60465">
        <ele>270.6</ele>
        <time>2020-10-31 12:17:07</time>
      </trkpt>
      <trkpt lat="41.42474" lon="0.60481">
        <ele>270.8</ele>
        <time>2020-10-31 12:17:10</time>
      </trkpt>
      <trkpt lat="41.42469" lon="0.60485">
        <ele>270.8</ele>
        <time>2020-10-31 12:17:11</time>
      </trkpt>
      <trkpt lat="41.42443" lon="0.60505">
        <ele>270.2</ele>
        <time>2020-10-31 12:17:16</time>
      </trkpt>
      <trkpt lat="41.42438" lon="0.60507">
        <ele>270</ele>
        <time>2020-10-31 12:17:17</time>
      </trkpt>
      <trkpt lat="41.42421" lon="0.60509">
        <ele>270</ele>
        <time>2020-10-31 12:17:21</time>
      </trkpt>
      <trkpt lat="41.42413" lon="0.60512">
        <ele>270</ele>
        <time>2020-10-31 12:17:23</time>
      </trkpt>
      <trkpt lat="41.42408" lon="0.60514">
        <ele>270</ele>
        <time>2020-10-31 12:17:24</time>
      </trkpt>
      <trkpt lat="41.42403" lon="0.60517">
        <ele>270.2</ele>
        <time>2020-10-31 12:17:25</time>
      </trkpt>
      <trkpt lat="41.42391" lon="0.60536">
        <ele>270.6</ele>
        <time>2020-10-31 12:17:28</time>
      </trkpt>
      <trkpt lat="41.42385" lon="0.60551">
        <ele>270.8</ele>
        <time>2020-10-31 12:17:30</time>
      </trkpt>
      <trkpt lat="41.42379" lon="0.60567">
        <ele>270.8</ele>
        <time>2020-10-31 12:17:32</time>
      </trkpt>
      <trkpt lat="41.42377" lon="0.60583">
        <ele>270.8</ele>
        <time>2020-10-31 12:17:34</time>
      </trkpt>
      <trkpt lat="41.42382" lon="0.60607">
        <ele>270</ele>
        <time>2020-10-31 12:17:37</time>
      </trkpt>
      <trkpt lat="41.42384" lon="0.60614">
        <ele>269.8</ele>
        <time>2020-10-31 12:17:38</time>
      </trkpt>
      <trkpt lat="41.42389" lon="0.60629">
        <ele>269.6</ele>
        <time>2020-10-31 12:17:40</time>
      </trkpt>
      <trkpt lat="41.42391" lon="0.60653">
        <ele>269.6</ele>
        <time>2020-10-31 12:17:43</time>
      </trkpt>
      <trkpt lat="41.42391" lon="0.6066">
        <ele>269.6</ele>
        <time>2020-10-31 12:17:44</time>
      </trkpt>
      <trkpt lat="41.42395" lon="0.60707">
        <ele>269.8</ele>
        <time>2020-10-31 12:17:50</time>
      </trkpt>
      <trkpt lat="41.42397" lon="0.6075">
        <ele>270</ele>
        <time>2020-10-31 12:17:55</time>
      </trkpt>
      <trkpt lat="41.42407" lon="0.60791">
        <ele>270.2</ele>
        <time>2020-10-31 12:18:00</time>
      </trkpt>
      <trkpt lat="41.4242" lon="0.60846">
        <ele>270.2</ele>
        <time>2020-10-31 12:18:07</time>
      </trkpt>
      <trkpt lat="41.42443" lon="0.60905">
        <ele>270.6</ele>
        <time>2020-10-31 12:18:15</time>
      </trkpt>
      <trkpt lat="41.4246" lon="0.60946">
        <ele>271.4</ele>
        <time>2020-10-31 12:18:22</time>
      </trkpt>
      <trkpt lat="41.42462" lon="0.60951">
        <ele>271.6</ele>
        <time>2020-10-31 12:18:23</time>
      </trkpt>
      <trkpt lat="41.42473" lon="0.60975">
        <ele>272.8</ele>
        <time>2020-10-31 12:18:28</time>
      </trkpt>
      <trkpt lat="41.42475" lon="0.60979">
        <ele>273.2</ele>
        <time>2020-10-31 12:18:29</time>
      </trkpt>
      <trkpt lat="41.42477" lon="0.60984">
        <ele>273.4</ele>
        <time>2020-10-31 12:18:30</time>
      </trkpt>
      <trkpt lat="41.4248" lon="0.60995">
        <ele>274</ele>
        <time>2020-10-31 12:18:32</time>
      </trkpt>
      <trkpt lat="41.42482" lon="0.6101">
        <ele>274.6</ele>
        <time>2020-10-31 12:18:35</time>
      </trkpt>
      <trkpt lat="41.42483" lon="0.61025">
        <ele>275.2</ele>
        <time>2020-10-31 12:18:38</time>
      </trkpt>
      <trkpt lat="41.42484" lon="0.61035">
        <ele>275.4</ele>
        <time>2020-10-31 12:18:40</time>
      </trkpt>
      <trkpt lat="41.42486" lon="0.6105">
        <ele>276.2</ele>
        <time>2020-10-31 12:18:43</time>
      </trkpt>
      <trkpt lat="41.42489" lon="0.61069">
        <ele>277</ele>
        <time>2020-10-31 12:18:47</time>
      </trkpt>
      <trkpt lat="41.42489" lon="0.61077">
        <ele>277.2</ele>
        <time>2020-10-31 12:18:49</time>
      </trkpt>
      <trkpt lat="41.4249" lon="0.61096">
        <ele>278.4</ele>
        <time>2020-10-31 12:18:54</time>
      </trkpt>
      <trkpt lat="41.4249" lon="0.61099">
        <ele>278.8</ele>
        <time>2020-10-31 12:18:55</time>
      </trkpt>
      <trkpt lat="41.42491" lon="0.61108">
        <ele>279.6</ele>
        <time>2020-10-31 12:18:57</time>
      </trkpt>
      <trkpt lat="41.42492" lon="0.61118">
        <ele>280.2</ele>
        <time>2020-10-31 12:18:59</time>
      </trkpt>
      <trkpt lat="41.42493" lon="0.61124">
        <ele>280.4</ele>
        <time>2020-10-31 12:19:00</time>
      </trkpt>
      <trkpt lat="41.42496" lon="0.61137">
        <ele>280.6</ele>
        <time>2020-10-31 12:19:02</time>
      </trkpt>
      <trkpt lat="41.42497" lon="0.61152">
        <ele>280.6</ele>
        <time>2020-10-31 12:19:04</time>
      </trkpt>
      <trkpt lat="41.42497" lon="0.61159">
        <ele>280.6</ele>
        <time>2020-10-31 12:19:05</time>
      </trkpt>
      <trkpt lat="41.42494" lon="0.61178">
        <ele>280.6</ele>
        <time>2020-10-31 12:19:08</time>
      </trkpt>
      <trkpt lat="41.42491" lon="0.6119">
        <ele>280.4</ele>
        <time>2020-10-31 12:19:10</time>
      </trkpt>
      <trkpt lat="41.42481" lon="0.6123">
        <ele>279.8</ele>
        <time>2020-10-31 12:19:16</time>
      </trkpt>
      <trkpt lat="41.42474" lon="0.61257">
        <ele>279.6</ele>
        <time>2020-10-31 12:19:19</time>
      </trkpt>
      <trkpt lat="41.42472" lon="0.61276">
        <ele>279.6</ele>
        <time>2020-10-31 12:19:21</time>
      </trkpt>
      <trkpt lat="41.42475" lon="0.61302">
        <ele>279.2</ele>
        <time>2020-10-31 12:19:24</time>
      </trkpt>
      <trkpt lat="41.42476" lon="0.6131">
        <ele>278.8</ele>
        <time>2020-10-31 12:19:25</time>
      </trkpt>
      <trkpt lat="41.42477" lon="0.61326">
        <ele>278.4</ele>
        <time>2020-10-31 12:19:27</time>
      </trkpt>
      <trkpt lat="41.42475" lon="0.61341">
        <ele>278.4</ele>
        <time>2020-10-31 12:19:29</time>
      </trkpt>
      <trkpt lat="41.42472" lon="0.61356">
        <ele>278.4</ele>
        <time>2020-10-31 12:19:31</time>
      </trkpt>
      <trkpt lat="41.42463" lon="0.61387">
        <ele>278.6</ele>
        <time>2020-10-31 12:19:36</time>
      </trkpt>
      <trkpt lat="41.4245" lon="0.61427">
        <ele>279.4</ele>
        <time>2020-10-31 12:19:43</time>
      </trkpt>
      <trkpt lat="41.42449" lon="0.61433">
        <ele>279.6</ele>
        <time>2020-10-31 12:19:44</time>
      </trkpt>
      <trkpt lat="41.42444" lon="0.61472">
        <ele>280</ele>
        <time>2020-10-31 12:19:49</time>
      </trkpt>
      <trkpt lat="41.42445" lon="0.61517">
        <ele>280</ele>
        <time>2020-10-31 12:19:54</time>
      </trkpt>
      <trkpt lat="41.42445" lon="0.61525">
        <ele>280</ele>
        <time>2020-10-31 12:19:55</time>
      </trkpt>
      <trkpt lat="41.42441" lon="0.61551">
        <ele>279.2</ele>
        <time>2020-10-31 12:19:58</time>
      </trkpt>
      <trkpt lat="41.42436" lon="0.61576">
        <ele>278.6</ele>
        <time>2020-10-31 12:20:01</time>
      </trkpt>
      <trkpt lat="41.42429" lon="0.6163">
        <ele>278.6</ele>
        <time>2020-10-31 12:20:08</time>
      </trkpt>
      <trkpt lat="41.4242" lon="0.6168">
        <ele>279.4</ele>
        <time>2020-10-31 12:20:15</time>
      </trkpt>
      <trkpt lat="41.42419" lon="0.61692">
        <ele>279.8</ele>
        <time>2020-10-31 12:20:17</time>
      </trkpt>
      <trkpt lat="41.4242" lon="0.61709">
        <ele>280.8</ele>
        <time>2020-10-31 12:20:20</time>
      </trkpt>
      <trkpt lat="41.42421" lon="0.61728">
        <ele>281.6</ele>
        <time>2020-10-31 12:20:23</time>
      </trkpt>
      <trkpt lat="41.42425" lon="0.61743">
        <ele>281.8</ele>
        <time>2020-10-31 12:20:25</time>
      </trkpt>
      <trkpt lat="41.42427" lon="0.61752">
        <ele>281.8</ele>
        <time>2020-10-31 12:20:26</time>
      </trkpt>
      <trkpt lat="41.42429" lon="0.6176">
        <ele>281.8</ele>
        <time>2020-10-31 12:20:27</time>
      </trkpt>
      <trkpt lat="41.42437" lon="0.61776">
        <ele>281.8</ele>
        <time>2020-10-31 12:20:29</time>
      </trkpt>
      <trkpt lat="41.42452" lon="0.61802">
        <ele>281.8</ele>
        <time>2020-10-31 12:20:33</time>
      </trkpt>
      <trkpt lat="41.4246" lon="0.61823">
        <ele>281</ele>
        <time>2020-10-31 12:20:36</time>
      </trkpt>
      <trkpt lat="41.42466" lon="0.61832">
        <ele>281</ele>
        <time>2020-10-31 12:20:38</time>
      </trkpt>
      <trkpt lat="41.42475" lon="0.61845">
        <ele>281</ele>
        <time>2020-10-31 12:20:41</time>
      </trkpt>
      <trkpt lat="41.42483" lon="0.61859">
        <ele>281</ele>
        <time>2020-10-31 12:20:44</time>
      </trkpt>
      <trkpt lat="41.42487" lon="0.61865">
        <ele>281</ele>
        <time>2020-10-31 12:20:45</time>
      </trkpt>
      <trkpt lat="41.42491" lon="0.6188">
        <ele>281</ele>
        <time>2020-10-31 12:20:47</time>
      </trkpt>
      <trkpt lat="41.42502" lon="0.61927">
        <ele>281</ele>
        <time>2020-10-31 12:20:53</time>
      </trkpt>
      <trkpt lat="41.42503" lon="0.61935">
        <ele>280.8</ele>
        <time>2020-10-31 12:20:54</time>
      </trkpt>
      <trkpt lat="41.42504" lon="0.61942">
        <ele>280.6</ele>
        <time>2020-10-31 12:20:55</time>
      </trkpt>
      <trkpt lat="41.42512" lon="0.61963">
        <ele>280.4</ele>
        <time>2020-10-31 12:20:58</time>
      </trkpt>
      <trkpt lat="41.42517" lon="0.61978">
        <ele>280.4</ele>
        <time>2020-10-31 12:21:00</time>
      </trkpt>
      <trkpt lat="41.4252" lon="0.61995">
        <ele>280.4</ele>
        <time>2020-10-31 12:21:02</time>
      </trkpt>
      <trkpt lat="41.42521" lon="0.62021">
        <ele>280.4</ele>
        <time>2020-10-31 12:21:06</time>
      </trkpt>
      <trkpt lat="41.4253" lon="0.62038">
        <ele>280.4</ele>
        <time>2020-10-31 12:21:10</time>
      </trkpt>
      <trkpt lat="41.42535" lon="0.62043">
        <ele>280.4</ele>
        <time>2020-10-31 12:21:11</time>
      </trkpt>
      <trkpt lat="41.42539" lon="0.62048">
        <ele>280.6</ele>
        <time>2020-10-31 12:21:12</time>
      </trkpt>
      <trkpt lat="41.42546" lon="0.62063">
        <ele>280.6</ele>
        <time>2020-10-31 12:21:14</time>
      </trkpt>
      <trkpt lat="41.42545" lon="0.62088">
        <ele>280.6</ele>
        <time>2020-10-31 12:21:17</time>
      </trkpt>
      <trkpt lat="41.42536" lon="0.62117">
        <ele>280.6</ele>
        <time>2020-10-31 12:21:21</time>
      </trkpt>
      <trkpt lat="41.4254" lon="0.62139">
        <ele>280.6</ele>
        <time>2020-10-31 12:21:24</time>
      </trkpt>
      <trkpt lat="41.42548" lon="0.62175">
        <ele>280.6</ele>
        <time>2020-10-31 12:21:29</time>
      </trkpt>
      <trkpt lat="41.42543" lon="0.62203">
        <ele>280.6</ele>
        <time>2020-10-31 12:21:33</time>
      </trkpt>
      <trkpt lat="41.42544" lon="0.62223">
        <ele>280.6</ele>
        <time>2020-10-31 12:21:36</time>
      </trkpt>
      <trkpt lat="41.42555" lon="0.62232">
        <ele>280.8</ele>
        <time>2020-10-31 12:21:39</time>
      </trkpt>
      <trkpt lat="41.42568" lon="0.62229">
        <ele>280.8</ele>
        <time>2020-10-31 12:21:42</time>
      </trkpt>
      <trkpt lat="41.42573" lon="0.62227">
        <ele>280.8</ele>
        <time>2020-10-31 12:21:43</time>
      </trkpt>
      <trkpt lat="41.42577" lon="0.62227">
        <ele>280.8</ele>
        <time>2020-10-31 12:21:44</time>
      </trkpt>
      <trkpt lat="41.42585" lon="0.62235">
        <ele>280.8</ele>
        <time>2020-10-31 12:21:47</time>
      </trkpt>
      <trkpt lat="41.42584" lon="0.62255">
        <ele>280.8</ele>
        <time>2020-10-31 12:21:51</time>
      </trkpt>
      <trkpt lat="41.42584" lon="0.62261">
        <ele>280.8</ele>
        <time>2020-10-31 12:21:52</time>
      </trkpt>
      <trkpt lat="41.42588" lon="0.62301">
        <ele>281.4</ele>
        <time>2020-10-31 12:21:58</time>
      </trkpt>
      <trkpt lat="41.42587" lon="0.62308">
        <ele>281.4</ele>
        <time>2020-10-31 12:21:59</time>
      </trkpt>
      <trkpt lat="41.42583" lon="0.62342">
        <ele>281.4</ele>
        <time>2020-10-31 12:22:04</time>
      </trkpt>
      <trkpt lat="41.42577" lon="0.62398">
        <ele>281.6</ele>
        <time>2020-10-31 12:22:12</time>
      </trkpt>
      <trkpt lat="41.42578" lon="0.62432">
        <ele>281.6</ele>
        <time>2020-10-31 12:22:17</time>
      </trkpt>
      <trkpt lat="41.4258" lon="0.62438">
        <ele>281.6</ele>
        <time>2020-10-31 12:22:18</time>
      </trkpt>
      <trkpt lat="41.42589" lon="0.62453">
        <ele>281.6</ele>
        <time>2020-10-31 12:22:21</time>
      </trkpt>
      <trkpt lat="41.42591" lon="0.62459">
        <ele>281.6</ele>
        <time>2020-10-31 12:22:22</time>
      </trkpt>
      <trkpt lat="41.42593" lon="0.62491">
        <ele>282</ele>
        <time>2020-10-31 12:22:27</time>
      </trkpt>
      <trkpt lat="41.42591" lon="0.62498">
        <ele>282</ele>
        <time>2020-10-31 12:22:28</time>
      </trkpt>
      <trkpt lat="41.4259" lon="0.62505">
        <ele>282.2</ele>
        <time>2020-10-31 12:22:29</time>
      </trkpt>
      <trkpt lat="41.4259" lon="0.62511">
        <ele>282.4</ele>
        <time>2020-10-31 12:22:30</time>
      </trkpt>
      <trkpt lat="41.42591" lon="0.62523">
        <ele>282.6</ele>
        <time>2020-10-31 12:22:32</time>
      </trkpt>
      <trkpt lat="41.42594" lon="0.62542">
        <ele>282.8</ele>
        <time>2020-10-31 12:22:35</time>
      </trkpt>
      <trkpt lat="41.42595" lon="0.62556">
        <ele>282.8</ele>
        <time>2020-10-31 12:22:37</time>
      </trkpt>
      <trkpt lat="41.42592" lon="0.62569">
        <ele>283.4</ele>
        <time>2020-10-31 12:22:39</time>
      </trkpt>
      <trkpt lat="41.42588" lon="0.62581">
        <ele>283.6</ele>
        <time>2020-10-31 12:22:41</time>
      </trkpt>
      <trkpt lat="41.42586" lon="0.62586">
        <ele>283.8</ele>
        <time>2020-10-31 12:22:42</time>
      </trkpt>
      <trkpt lat="41.42582" lon="0.62602">
        <ele>284</ele>
        <time>2020-10-31 12:22:45</time>
      </trkpt>
      <trkpt lat="41.42583" lon="0.62619">
        <ele>284.4</ele>
        <time>2020-10-31 12:22:49</time>
      </trkpt>
      <trkpt lat="41.42584" lon="0.62623">
        <ele>284.4</ele>
        <time>2020-10-31 12:22:50</time>
      </trkpt>
      <trkpt lat="41.42586" lon="0.62641">
        <ele>285.6</ele>
        <time>2020-10-31 12:22:54</time>
      </trkpt>
      <trkpt lat="41.42586" lon="0.62651">
        <ele>286.2</ele>
        <time>2020-10-31 12:22:56</time>
      </trkpt>
      <trkpt lat="41.42585" lon="0.6266">
        <ele>286.8</ele>
        <time>2020-10-31 12:22:58</time>
      </trkpt>
      <trkpt lat="41.42585" lon="0.62673">
        <ele>287.2</ele>
        <time>2020-10-31 12:23:01</time>
      </trkpt>
      <trkpt lat="41.42581" lon="0.62717">
        <ele>287.6</ele>
        <time>2020-10-31 12:23:10</time>
      </trkpt>
      <trkpt lat="41.42576" lon="0.62739">
        <ele>287.8</ele>
        <time>2020-10-31 12:23:15</time>
      </trkpt>
      <trkpt lat="41.42575" lon="0.62748">
        <ele>287.8</ele>
        <time>2020-10-31 12:23:17</time>
      </trkpt>
      <trkpt lat="41.42573" lon="0.62756">
        <ele>288</ele>
        <time>2020-10-31 12:23:20</time>
      </trkpt>
      <trkpt lat="41.42573" lon="0.62757">
        <ele>288.2</ele>
        <time>2020-10-31 12:23:21</time>
      </trkpt>
      <trkpt lat="41.42574" lon="0.62755">
        <ele>288.2</ele>
        <time>2020-10-31 12:23:23</time>
      </trkpt>
      <trkpt lat="41.42576" lon="0.62749">
        <ele>288.4</ele>
        <time>2020-10-31 12:23:26</time>
      </trkpt>
      <trkpt lat="41.42576" lon="0.62745">
        <ele>288.6</ele>
        <time>2020-10-31 12:23:27</time>
      </trkpt>
      <trkpt lat="41.42579" lon="0.62731">
        <ele>288.6</ele>
        <time>2020-10-31 12:23:30</time>
      </trkpt>
      <trkpt lat="41.42582" lon="0.62714">
        <ele>288.6</ele>
        <time>2020-10-31 12:23:33</time>
      </trkpt>
      <trkpt lat="41.42584" lon="0.62695">
        <ele>288.6</ele>
        <time>2020-10-31 12:23:36</time>
      </trkpt>
      <trkpt lat="41.42586" lon="0.62634">
        <ele>288</ele>
        <time>2020-10-31 12:23:45</time>
      </trkpt>
      <trkpt lat="41.42586" lon="0.62627">
        <ele>287.8</ele>
        <time>2020-10-31 12:23:46</time>
      </trkpt>
      <trkpt lat="41.42583" lon="0.62607">
        <ele>287.8</ele>
        <time>2020-10-31 12:23:49</time>
      </trkpt>
      <trkpt lat="41.42583" lon="0.626">
        <ele>287.8</ele>
        <time>2020-10-31 12:23:50</time>
      </trkpt>
      <trkpt lat="41.42589" lon="0.62575">
        <ele>287.4</ele>
        <time>2020-10-31 12:23:53</time>
      </trkpt>
      <trkpt lat="41.42592" lon="0.62567">
        <ele>287.4</ele>
        <time>2020-10-31 12:23:54</time>
      </trkpt>
      <trkpt lat="41.42594" lon="0.62558">
        <ele>287.2</ele>
        <time>2020-10-31 12:23:55</time>
      </trkpt>
      <trkpt lat="41.42595" lon="0.6254">
        <ele>287</ele>
        <time>2020-10-31 12:23:57</time>
      </trkpt>
      <trkpt lat="41.42592" lon="0.62524">
        <ele>286.8</ele>
        <time>2020-10-31 12:23:59</time>
      </trkpt>
      <trkpt lat="41.42591" lon="0.62516">
        <ele>286</ele>
        <time>2020-10-31 12:24:00</time>
      </trkpt>
      <trkpt lat="41.4259" lon="0.62508">
        <ele>285.4</ele>
        <time>2020-10-31 12:24:01</time>
      </trkpt>
      <trkpt lat="41.42591" lon="0.62491">
        <ele>285</ele>
        <time>2020-10-31 12:24:03</time>
      </trkpt>
      <trkpt lat="41.42592" lon="0.62482">
        <ele>284.6</ele>
        <time>2020-10-31 12:24:04</time>
      </trkpt>
      <trkpt lat="41.42592" lon="0.62473">
        <ele>284.6</ele>
        <time>2020-10-31 12:24:05</time>
      </trkpt>
      <trkpt lat="41.42583" lon="0.62442">
        <ele>284.2</ele>
        <time>2020-10-31 12:24:09</time>
      </trkpt>
      <trkpt lat="41.42577" lon="0.62428">
        <ele>283.8</ele>
        <time>2020-10-31 12:24:11</time>
      </trkpt>
      <trkpt lat="41.42575" lon="0.62419">
        <ele>283.6</ele>
        <time>2020-10-31 12:24:12</time>
      </trkpt>
      <trkpt lat="41.42574" lon="0.62402">
        <ele>283.4</ele>
        <time>2020-10-31 12:24:14</time>
      </trkpt>
      <trkpt lat="41.42575" lon="0.62377">
        <ele>283</ele>
        <time>2020-10-31 12:24:17</time>
      </trkpt>
      <trkpt lat="41.42576" lon="0.62368">
        <ele>282.8</ele>
        <time>2020-10-31 12:24:18</time>
      </trkpt>
      <trkpt lat="41.42583" lon="0.62319">
        <ele>282</ele>
        <time>2020-10-31 12:24:24</time>
      </trkpt>
      <trkpt lat="41.42585" lon="0.62294">
        <ele>281.8</ele>
        <time>2020-10-31 12:24:27</time>
      </trkpt>
      <trkpt lat="41.42585" lon="0.62278">
        <ele>281.8</ele>
        <time>2020-10-31 12:24:29</time>
      </trkpt>
      <trkpt lat="41.42582" lon="0.62255">
        <ele>281.8</ele>
        <time>2020-10-31 12:24:32</time>
      </trkpt>
      <trkpt lat="41.42582" lon="0.62234">
        <ele>281.8</ele>
        <time>2020-10-31 12:24:35</time>
      </trkpt>
      <trkpt lat="41.42581" lon="0.62229">
        <ele>281.8</ele>
        <time>2020-10-31 12:24:36</time>
      </trkpt>
      <trkpt lat="41.42578" lon="0.62221">
        <ele>281.8</ele>
        <time>2020-10-31 12:24:38</time>
      </trkpt>
      <trkpt lat="41.42568" lon="0.6222">
        <ele>281.8</ele>
        <time>2020-10-31 12:24:41</time>
      </trkpt>
      <trkpt lat="41.42564" lon="0.62222">
        <ele>281.8</ele>
        <time>2020-10-31 12:24:42</time>
      </trkpt>
      <trkpt lat="41.42559" lon="0.62224">
        <ele>281.8</ele>
        <time>2020-10-31 12:24:43</time>
      </trkpt>
      <trkpt lat="41.42548" lon="0.62225">
        <ele>281.8</ele>
        <time>2020-10-31 12:24:45</time>
      </trkpt>
      <trkpt lat="41.42541" lon="0.62216">
        <ele>281.6</ele>
        <time>2020-10-31 12:24:47</time>
      </trkpt>
      <trkpt lat="41.4254" lon="0.62203">
        <ele>281.4</ele>
        <time>2020-10-31 12:24:49</time>
      </trkpt>
      <trkpt lat="41.42545" lon="0.62165">
        <ele>281</ele>
        <time>2020-10-31 12:24:54</time>
      </trkpt>
      <trkpt lat="41.42541" lon="0.6215">
        <ele>280.8</ele>
        <time>2020-10-31 12:24:56</time>
      </trkpt>
      <trkpt lat="41.4254" lon="0.62142">
        <ele>280.8</ele>
        <time>2020-10-31 12:24:57</time>
      </trkpt>
      <trkpt lat="41.42536" lon="0.62127">
        <ele>280.6</ele>
        <time>2020-10-31 12:24:59</time>
      </trkpt>
      <trkpt lat="41.42534" lon="0.62112">
        <ele>280.6</ele>
        <time>2020-10-31 12:25:01</time>
      </trkpt>
      <trkpt lat="41.42537" lon="0.62097">
        <ele>280.6</ele>
        <time>2020-10-31 12:25:03</time>
      </trkpt>
      <trkpt lat="41.42544" lon="0.62068">
        <ele>280.6</ele>
        <time>2020-10-31 12:25:07</time>
      </trkpt>
      <trkpt lat="41.42539" lon="0.62044">
        <ele>280.4</ele>
        <time>2020-10-31 12:25:10</time>
      </trkpt>
      <trkpt lat="41.42524" lon="0.62021">
        <ele>280.4</ele>
        <time>2020-10-31 12:25:14</time>
      </trkpt>
      <trkpt lat="41.42521" lon="0.62003">
        <ele>280.4</ele>
        <time>2020-10-31 12:25:17</time>
      </trkpt>
      <trkpt lat="41.4252" lon="0.61995">
        <ele>280.4</ele>
        <time>2020-10-31 12:25:18</time>
      </trkpt>
      <trkpt lat="41.4252" lon="0.61987">
        <ele>280.4</ele>
        <time>2020-10-31 12:25:19</time>
      </trkpt>
      <trkpt lat="41.42517" lon="0.6197">
        <ele>280.6</ele>
        <time>2020-10-31 12:25:21</time>
      </trkpt>
      <trkpt lat="41.42511" lon="0.61953">
        <ele>280.6</ele>
        <time>2020-10-31 12:25:23</time>
      </trkpt>
      <trkpt lat="41.42505" lon="0.6194">
        <ele>280.8</ele>
        <time>2020-10-31 12:25:25</time>
      </trkpt>
      <trkpt lat="41.42496" lon="0.61902">
        <ele>280.8</ele>
        <time>2020-10-31 12:25:30</time>
      </trkpt>
      <trkpt lat="41.4249" lon="0.6188">
        <ele>280.8</ele>
        <time>2020-10-31 12:25:33</time>
      </trkpt>
      <trkpt lat="41.42487" lon="0.61865">
        <ele>280.6</ele>
        <time>2020-10-31 12:25:35</time>
      </trkpt>
      <trkpt lat="41.42484" lon="0.61858">
        <ele>280.6</ele>
        <time>2020-10-31 12:25:36</time>
      </trkpt>
      <trkpt lat="41.42472" lon="0.61837">
        <ele>280.6</ele>
        <time>2020-10-31 12:25:40</time>
      </trkpt>
      <trkpt lat="41.42458" lon="0.61815">
        <ele>280.8</ele>
        <time>2020-10-31 12:25:45</time>
      </trkpt>
      <trkpt lat="41.42456" lon="0.61808">
        <ele>280.8</ele>
        <time>2020-10-31 12:25:46</time>
      </trkpt>
      <trkpt lat="41.42434" lon="0.61766">
        <ele>280.8</ele>
        <time>2020-10-31 12:25:52</time>
      </trkpt>
      <trkpt lat="41.42427" lon="0.61751">
        <ele>280.8</ele>
        <time>2020-10-31 12:25:54</time>
      </trkpt>
      <trkpt lat="41.42423" lon="0.61735">
        <ele>280.8</ele>
        <time>2020-10-31 12:25:56</time>
      </trkpt>
      <trkpt lat="41.4242" lon="0.61714">
        <ele>280.8</ele>
        <time>2020-10-31 12:25:59</time>
      </trkpt>
      <trkpt lat="41.42419" lon="0.61702">
        <ele>280.8</ele>
        <time>2020-10-31 12:26:01</time>
      </trkpt>
      <trkpt lat="41.42419" lon="0.61675">
        <ele>281.4</ele>
        <time>2020-10-31 12:26:06</time>
      </trkpt>
      <trkpt lat="41.4242" lon="0.61669">
        <ele>281.8</ele>
        <time>2020-10-31 12:26:07</time>
      </trkpt>
      <trkpt lat="41.42423" lon="0.61657">
        <ele>283</ele>
        <time>2020-10-31 12:26:09</time>
      </trkpt>
      <trkpt lat="41.42427" lon="0.61635">
        <ele>283.4</ele>
        <time>2020-10-31 12:26:12</time>
      </trkpt>
      <trkpt lat="41.42435" lon="0.61576">
        <ele>283.2</ele>
        <time>2020-10-31 12:26:19</time>
      </trkpt>
      <trkpt lat="41.4244" lon="0.6155">
        <ele>281.4</ele>
        <time>2020-10-31 12:26:22</time>
      </trkpt>
      <trkpt lat="41.42444" lon="0.61524">
        <ele>280.4</ele>
        <time>2020-10-31 12:26:25</time>
      </trkpt>
      <trkpt lat="41.42446" lon="0.61507">
        <ele>279.8</ele>
        <time>2020-10-31 12:26:27</time>
      </trkpt>
      <trkpt lat="41.42444" lon="0.61481">
        <ele>279.4</ele>
        <time>2020-10-31 12:26:30</time>
      </trkpt>
      <trkpt lat="41.42443" lon="0.61472">
        <ele>279.4</ele>
        <time>2020-10-31 12:26:31</time>
      </trkpt>
      <trkpt lat="41.42443" lon="0.61463">
        <ele>279.2</ele>
        <time>2020-10-31 12:26:32</time>
      </trkpt>
      <trkpt lat="41.42445" lon="0.61445">
        <ele>279</ele>
        <time>2020-10-31 12:26:34</time>
      </trkpt>
      <trkpt lat="41.4245" lon="0.61422">
        <ele>279</ele>
        <time>2020-10-31 12:26:37</time>
      </trkpt>
      <trkpt lat="41.42454" lon="0.61408">
        <ele>279.2</ele>
        <time>2020-10-31 12:26:39</time>
      </trkpt>
      <trkpt lat="41.42469" lon="0.61363">
        <ele>280.4</ele>
        <time>2020-10-31 12:26:46</time>
      </trkpt>
      <trkpt lat="41.42477" lon="0.61324">
        <ele>280.6</ele>
        <time>2020-10-31 12:26:51</time>
      </trkpt>
      <trkpt lat="41.42477" lon="0.61316">
        <ele>280.6</ele>
        <time>2020-10-31 12:26:52</time>
      </trkpt>
      <trkpt lat="41.42475" lon="0.61292">
        <ele>280.6</ele>
        <time>2020-10-31 12:26:55</time>
      </trkpt>
      <trkpt lat="41.42473" lon="0.61276">
        <ele>280.4</ele>
        <time>2020-10-31 12:26:57</time>
      </trkpt>
      <trkpt lat="41.42476" lon="0.61243">
        <ele>279.8</ele>
        <time>2020-10-31 12:27:01</time>
      </trkpt>
      <trkpt lat="41.42478" lon="0.61235">
        <ele>279.8</ele>
        <time>2020-10-31 12:27:02</time>
      </trkpt>
      <trkpt lat="41.4248" lon="0.61228">
        <ele>279.6</ele>
        <time>2020-10-31 12:27:03</time>
      </trkpt>
      <trkpt lat="41.42485" lon="0.61208">
        <ele>279.4</ele>
        <time>2020-10-31 12:27:06</time>
      </trkpt>
      <trkpt lat="41.42486" lon="0.61202">
        <ele>279.4</ele>
        <time>2020-10-31 12:27:07</time>
      </trkpt>
      <trkpt lat="41.42489" lon="0.61186">
        <ele>279.4</ele>
        <time>2020-10-31 12:27:10</time>
      </trkpt>
      <trkpt lat="41.42491" lon="0.61181">
        <ele>279.4</ele>
        <time>2020-10-31 12:27:11</time>
      </trkpt>
      <trkpt lat="41.42494" lon="0.6117">
        <ele>279.4</ele>
        <time>2020-10-31 12:27:13</time>
      </trkpt>
      <trkpt lat="41.42496" lon="0.61151">
        <ele>280</ele>
        <time>2020-10-31 12:27:16</time>
      </trkpt>
      <trkpt lat="41.42494" lon="0.61138">
        <ele>280.4</ele>
        <time>2020-10-31 12:27:18</time>
      </trkpt>
      <trkpt lat="41.4249" lon="0.61112">
        <ele>280.8</ele>
        <time>2020-10-31 12:27:22</time>
      </trkpt>
      <trkpt lat="41.42487" lon="0.61087">
        <ele>281.4</ele>
        <time>2020-10-31 12:27:27</time>
      </trkpt>
      <trkpt lat="41.42486" lon="0.61055">
        <ele>281.4</ele>
        <time>2020-10-31 12:27:32</time>
      </trkpt>
      <trkpt lat="41.42481" lon="0.61019">
        <ele>281.4</ele>
        <time>2020-10-31 12:27:36</time>
      </trkpt>
      <trkpt lat="41.42481" lon="0.6101">
        <ele>281.4</ele>
        <time>2020-10-31 12:27:37</time>
      </trkpt>
      <trkpt lat="41.42479" lon="0.60992">
        <ele>281.4</ele>
        <time>2020-10-31 12:27:39</time>
      </trkpt>
      <trkpt lat="41.42474" lon="0.60975">
        <ele>281</ele>
        <time>2020-10-31 12:27:41</time>
      </trkpt>
      <trkpt lat="41.42467" lon="0.60958">
        <ele>279.6</ele>
        <time>2020-10-31 12:27:43</time>
      </trkpt>
      <trkpt lat="41.42464" lon="0.6095">
        <ele>279</ele>
        <time>2020-10-31 12:27:44</time>
      </trkpt>
      <trkpt lat="41.42453" lon="0.60924">
        <ele>278.2</ele>
        <time>2020-10-31 12:27:47</time>
      </trkpt>
      <trkpt lat="41.42445" lon="0.60906">
        <ele>277.6</ele>
        <time>2020-10-31 12:27:49</time>
      </trkpt>
      <trkpt lat="41.42434" lon="0.60878">
        <ele>276.4</ele>
        <time>2020-10-31 12:27:52</time>
      </trkpt>
      <trkpt lat="41.42424" lon="0.60851">
        <ele>275.2</ele>
        <time>2020-10-31 12:27:55</time>
      </trkpt>
      <trkpt lat="41.42418" lon="0.60832">
        <ele>274.6</ele>
        <time>2020-10-31 12:27:57</time>
      </trkpt>
      <trkpt lat="41.42414" lon="0.60814">
        <ele>273.8</ele>
        <time>2020-10-31 12:27:59</time>
      </trkpt>
      <trkpt lat="41.42412" lon="0.60805">
        <ele>273.6</ele>
        <time>2020-10-31 12:28:00</time>
      </trkpt>
      <trkpt lat="41.42404" lon="0.60779">
        <ele>272.8</ele>
        <time>2020-10-31 12:28:03</time>
      </trkpt>
      <trkpt lat="41.42397" lon="0.60744">
        <ele>272.2</ele>
        <time>2020-10-31 12:28:07</time>
      </trkpt>
      <trkpt lat="41.42396" lon="0.60699">
        <ele>271.8</ele>
        <time>2020-10-31 12:28:12</time>
      </trkpt>
      <trkpt lat="41.42393" lon="0.60675">
        <ele>271.6</ele>
        <time>2020-10-31 12:28:15</time>
      </trkpt>
      <trkpt lat="41.42392" lon="0.60652">
        <ele>271.4</ele>
        <time>2020-10-31 12:28:18</time>
      </trkpt>
      <trkpt lat="41.4239" lon="0.60627">
        <ele>271.4</ele>
        <time>2020-10-31 12:28:21</time>
      </trkpt>
      <trkpt lat="41.42386" lon="0.60611">
        <ele>271.4</ele>
        <time>2020-10-31 12:28:23</time>
      </trkpt>
      <trkpt lat="41.42378" lon="0.60579">
        <ele>271.4</ele>
        <time>2020-10-31 12:28:27</time>
      </trkpt>
      <trkpt lat="41.42379" lon="0.60563">
        <ele>271.4</ele>
        <time>2020-10-31 12:28:29</time>
      </trkpt>
      <trkpt lat="41.42388" lon="0.60541">
        <ele>271.2</ele>
        <time>2020-10-31 12:28:32</time>
      </trkpt>
      <trkpt lat="41.42393" lon="0.60526">
        <ele>271</ele>
        <time>2020-10-31 12:28:34</time>
      </trkpt>
      <trkpt lat="41.42399" lon="0.60514">
        <ele>270.6</ele>
        <time>2020-10-31 12:28:36</time>
      </trkpt>
      <trkpt lat="41.42408" lon="0.60507">
        <ele>270.4</ele>
        <time>2020-10-31 12:28:38</time>
      </trkpt>
      <trkpt lat="41.42421" lon="0.60503">
        <ele>270.4</ele>
        <time>2020-10-31 12:28:41</time>
      </trkpt>
      <trkpt lat="41.42429" lon="0.60503">
        <ele>270.4</ele>
        <time>2020-10-31 12:28:43</time>
      </trkpt>
      <trkpt lat="41.42437" lon="0.60502">
        <ele>270.4</ele>
        <time>2020-10-31 12:28:45</time>
      </trkpt>
      <trkpt lat="41.42447" lon="0.60497">
        <ele>270.8</ele>
        <time>2020-10-31 12:28:47</time>
      </trkpt>
      <trkpt lat="41.42482" lon="0.60464">
        <ele>271.2</ele>
        <time>2020-10-31 12:28:54</time>
      </trkpt>
      <trkpt lat="41.42489" lon="0.60444">
        <ele>271</ele>
        <time>2020-10-31 12:28:57</time>
      </trkpt>
      <trkpt lat="41.42492" lon="0.60409">
        <ele>270.8</ele>
        <time>2020-10-31 12:29:02</time>
      </trkpt>
      <trkpt lat="41.42494" lon="0.60389">
        <ele>270.8</ele>
        <time>2020-10-31 12:29:05</time>
      </trkpt>
      <trkpt lat="41.42495" lon="0.60376">
        <ele>270.8</ele>
        <time>2020-10-31 12:29:07</time>
      </trkpt>
      <trkpt lat="41.42496" lon="0.60351">
        <ele>271.2</ele>
        <time>2020-10-31 12:29:10</time>
      </trkpt>
      <trkpt lat="41.42495" lon="0.60332">
        <ele>271.2</ele>
        <time>2020-10-31 12:29:12</time>
      </trkpt>
      <trkpt lat="41.42491" lon="0.60313">
        <ele>271.2</ele>
        <time>2020-10-31 12:29:14</time>
      </trkpt>
      <trkpt lat="41.42483" lon="0.60274">
        <ele>271.2</ele>
        <time>2020-10-31 12:29:18</time>
      </trkpt>
      <trkpt lat="41.42478" lon="0.60246">
        <ele>269.6</ele>
        <time>2020-10-31 12:29:21</time>
      </trkpt>
      <trkpt lat="41.42475" lon="0.60218">
        <ele>268.8</ele>
        <time>2020-10-31 12:29:24</time>
      </trkpt>
      <trkpt lat="41.42474" lon="0.6019">
        <ele>268.4</ele>
        <time>2020-10-31 12:29:27</time>
      </trkpt>
      <trkpt lat="41.42477" lon="0.60173">
        <ele>268.4</ele>
        <time>2020-10-31 12:29:29</time>
      </trkpt>
      <trkpt lat="41.42481" lon="0.60147">
        <ele>268.2</ele>
        <time>2020-10-31 12:29:32</time>
      </trkpt>
      <trkpt lat="41.42478" lon="0.60132">
        <ele>268.2</ele>
        <time>2020-10-31 12:29:34</time>
      </trkpt>
      <trkpt lat="41.42468" lon="0.60119">
        <ele>268.4</ele>
        <time>2020-10-31 12:29:37</time>
      </trkpt>
      <trkpt lat="41.4246" lon="0.60104">
        <ele>268.4</ele>
        <time>2020-10-31 12:29:40</time>
      </trkpt>
      <trkpt lat="41.4246" lon="0.60104">
        <ele>268.4</ele>
        <time>2020-10-31 12:29:41</time>
      </trkpt>
      <trkpt lat="41.42461" lon="0.60092">
        <ele>268.4</ele>
        <time>2020-10-31 12:29:42</time>
      </trkpt>
      <trkpt lat="41.42465" lon="0.6008">
        <ele>269</ele>
        <time>2020-10-31 12:29:44</time>
      </trkpt>
      <trkpt lat="41.42468" lon="0.6006">
        <ele>269.6</ele>
        <time>2020-10-31 12:29:47</time>
      </trkpt>
      <trkpt lat="41.4247" lon="0.60041">
        <ele>269.6</ele>
        <time>2020-10-31 12:29:50</time>
      </trkpt>
      <trkpt lat="41.4248" lon="0.60022">
        <ele>269.8</ele>
        <time>2020-10-31 12:29:54</time>
      </trkpt>
      <trkpt lat="41.42495" lon="0.60002">
        <ele>270</ele>
        <time>2020-10-31 12:29:59</time>
      </trkpt>
      <trkpt lat="41.42502" lon="0.59991">
        <ele>270.2</ele>
        <time>2020-10-31 12:30:01</time>
      </trkpt>
      <trkpt lat="41.42509" lon="0.5998">
        <ele>270.6</ele>
        <time>2020-10-31 12:30:03</time>
      </trkpt>
      <trkpt lat="41.42522" lon="0.59957">
        <ele>271.2</ele>
        <time>2020-10-31 12:30:07</time>
      </trkpt>
      <trkpt lat="41.42529" lon="0.59946">
        <ele>271.2</ele>
        <time>2020-10-31 12:30:09</time>
      </trkpt>
      <trkpt lat="41.42535" lon="0.59925">
        <ele>271.2</ele>
        <time>2020-10-31 12:30:12</time>
      </trkpt>
      <trkpt lat="41.42537" lon="0.5991">
        <ele>271.2</ele>
        <time>2020-10-31 12:30:14</time>
      </trkpt>
      <trkpt lat="41.42542" lon="0.59871">
        <ele>271</ele>
        <time>2020-10-31 12:30:19</time>
      </trkpt>
      <trkpt lat="41.42551" lon="0.59799">
        <ele>270.8</ele>
        <time>2020-10-31 12:30:28</time>
      </trkpt>
      <trkpt lat="41.42557" lon="0.59768">
        <ele>270.6</ele>
        <time>2020-10-31 12:30:32</time>
      </trkpt>
      <trkpt lat="41.42562" lon="0.59729">
        <ele>270.8</ele>
        <time>2020-10-31 12:30:37</time>
      </trkpt>
      <trkpt lat="41.42566" lon="0.59717">
        <ele>270.8</ele>
        <time>2020-10-31 12:30:39</time>
      </trkpt>
      <trkpt lat="41.42571" lon="0.59708">
        <ele>270.8</ele>
        <time>2020-10-31 12:30:41</time>
      </trkpt>
      <trkpt lat="41.42577" lon="0.59699">
        <ele>270.8</ele>
        <time>2020-10-31 12:30:44</time>
      </trkpt>
      <trkpt lat="41.42584" lon="0.59693">
        <ele>271</ele>
        <time>2020-10-31 12:30:46</time>
      </trkpt>
      <trkpt lat="41.42604" lon="0.59676">
        <ele>272.2</ele>
        <time>2020-10-31 12:30:51</time>
      </trkpt>
      <trkpt lat="41.42614" lon="0.59665">
        <ele>272.6</ele>
        <time>2020-10-31 12:30:54</time>
      </trkpt>
      <trkpt lat="41.42621" lon="0.59657">
        <ele>272.8</ele>
        <time>2020-10-31 12:30:56</time>
      </trkpt>
      <trkpt lat="41.42627" lon="0.59643">
        <ele>273</ele>
        <time>2020-10-31 12:30:59</time>
      </trkpt>
      <trkpt lat="41.42629" lon="0.59638">
        <ele>273</ele>
        <time>2020-10-31 12:31:00</time>
      </trkpt>
      <trkpt lat="41.42629" lon="0.59632">
        <ele>273.2</ele>
        <time>2020-10-31 12:31:01</time>
      </trkpt>
      <trkpt lat="41.42628" lon="0.59621">
        <ele>273.4</ele>
        <time>2020-10-31 12:31:03</time>
      </trkpt>
      <trkpt lat="41.42627" lon="0.59615">
        <ele>273.4</ele>
        <time>2020-10-31 12:31:04</time>
      </trkpt>
      <trkpt lat="41.42622" lon="0.59591">
        <ele>273.6</ele>
        <time>2020-10-31 12:31:08</time>
      </trkpt>
      <trkpt lat="41.42619" lon="0.5958">
        <ele>273.6</ele>
        <time>2020-10-31 12:31:10</time>
      </trkpt>
      <trkpt lat="41.4261" lon="0.59573">
        <ele>273.6</ele>
        <time>2020-10-31 12:31:13</time>
      </trkpt>
      <trkpt lat="41.426" lon="0.59569">
        <ele>273.8</ele>
        <time>2020-10-31 12:31:18</time>
      </trkpt>
      <trkpt lat="41.42599" lon="0.59567">
        <ele>273.8</ele>
        <time>2020-10-31 12:31:21</time>
      </trkpt>
    </trkseg>
  </trk>
</gpx>
